<?xml version="1.0" encoding="UTF-8" standalone="no" ?>
<gpx xmlns="http://www.topografix.com/GPX/1/1" xmlns:xsi="http://www.w3.org/2001/XMLSchema-instance" xsi:schemaLocation="http://www.topografix.com/GPX/1/1 http://www.topografix.com/GPX/1/1/gpx.xsd" version="1.1" creator="VisuGPX - https://www.visugpx.com">
  <metadata>
    <name>GTMC J1: de Volvic à Laschamps</name>
    <desc><![CDATA[Grande Traversée du Massif Central
Jour 1: de Volvic à Laschamps.]]></desc>
  </metadata>
  <trk>
    <name><![CDATA[gtmc j1]]></name>
    <desc><![CDATA[Total: 43.3km]]></desc>
    <trkseg>
      <trkpt lat="45.87032" lon="3.03472">
        <ele>535.4</ele>
        <time>2021-07-19T08:28:56Z</time>
      </trkpt>
      <trkpt lat="45.87036" lon="3.0346">
        <ele>536.2</ele>
        <time>2021-07-19T08:29:03Z</time>
      </trkpt>
      <trkpt lat="45.87037" lon="3.03446">
        <ele>537.3</ele>
        <time>2021-07-19T08:29:11Z</time>
      </trkpt>
      <trkpt lat="45.87039" lon="3.03433">
        <ele>538.3</ele>
        <time>2021-07-19T08:29:19Z</time>
      </trkpt>
      <trkpt lat="45.8704" lon="3.0342">
        <ele>539.3</ele>
        <time>2021-07-19T08:29:28Z</time>
      </trkpt>
      <trkpt lat="45.8704" lon="3.03406">
        <ele>540.2</ele>
        <time>2021-07-19T08:29:37Z</time>
      </trkpt>
      <trkpt lat="45.87041" lon="3.03393">
        <ele>540.9</ele>
        <time>2021-07-19T08:29:46Z</time>
      </trkpt>
      <trkpt lat="45.87041" lon="3.03379">
        <ele>541.8</ele>
        <time>2021-07-19T08:29:54Z</time>
      </trkpt>
      <trkpt lat="45.8704" lon="3.03365">
        <ele>542.6</ele>
        <time>2021-07-19T08:31:06Z</time>
      </trkpt>
      <trkpt lat="45.87032" lon="3.03357">
        <ele>543.2</ele>
        <time>2021-07-19T08:31:14Z</time>
      </trkpt>
      <trkpt lat="45.87038" lon="3.03344">
        <ele>543.9</ele>
        <time>2021-07-19T08:38:21Z</time>
      </trkpt>
      <trkpt lat="45.87037" lon="3.03329">
        <ele>544.9</ele>
        <time>2021-07-19T08:38:27Z</time>
      </trkpt>
      <trkpt lat="45.87039" lon="3.03317">
        <ele>546</ele>
        <time>2021-07-19T08:38:33Z</time>
      </trkpt>
      <trkpt lat="45.8704" lon="3.03303">
        <ele>547.2</ele>
        <time>2021-07-19T08:38:40Z</time>
      </trkpt>
      <trkpt lat="45.8704" lon="3.0329">
        <ele>548.4</ele>
        <time>2021-07-19T08:38:47Z</time>
      </trkpt>
      <trkpt lat="45.87044" lon="3.03276">
        <ele>549.7</ele>
        <time>2021-07-19T08:38:55Z</time>
      </trkpt>
      <trkpt lat="45.87045" lon="3.03262">
        <ele>551.1</ele>
        <time>2021-07-19T08:39:02Z</time>
      </trkpt>
      <trkpt lat="45.87039" lon="3.03252">
        <ele>551.7</ele>
        <time>2021-07-19T08:39:08Z</time>
      </trkpt>
      <trkpt lat="45.87032" lon="3.03243">
        <ele>552.2</ele>
        <time>2021-07-19T08:39:13Z</time>
      </trkpt>
      <trkpt lat="45.87026" lon="3.03231">
        <ele>552.9</ele>
        <time>2021-07-19T08:39:19Z</time>
      </trkpt>
      <trkpt lat="45.87018" lon="3.03221">
        <ele>553.4</ele>
        <time>2021-07-19T08:39:25Z</time>
      </trkpt>
      <trkpt lat="45.87016" lon="3.03208">
        <ele>554.4</ele>
        <time>2021-07-19T08:39:32Z</time>
      </trkpt>
      <trkpt lat="45.87017" lon="3.03194">
        <ele>555.7</ele>
        <time>2021-07-19T08:39:40Z</time>
      </trkpt>
      <trkpt lat="45.87018" lon="3.0318">
        <ele>556.9</ele>
        <time>2021-07-19T08:39:46Z</time>
      </trkpt>
      <trkpt lat="45.87019" lon="3.03166">
        <ele>558.2</ele>
        <time>2021-07-19T08:39:52Z</time>
      </trkpt>
      <trkpt lat="45.87021" lon="3.03153">
        <ele>559</ele>
        <time>2021-07-19T08:39:59Z</time>
      </trkpt>
      <trkpt lat="45.87022" lon="3.0314">
        <ele>559.7</ele>
        <time>2021-07-19T08:40:06Z</time>
      </trkpt>
      <trkpt lat="45.87027" lon="3.03127">
        <ele>560.5</ele>
        <time>2021-07-19T08:40:13Z</time>
      </trkpt>
      <trkpt lat="45.87028" lon="3.03112">
        <ele>561.3</ele>
        <time>2021-07-19T08:40:19Z</time>
      </trkpt>
      <trkpt lat="45.8703" lon="3.03097">
        <ele>562.1</ele>
        <time>2021-07-19T08:40:29Z</time>
      </trkpt>
      <trkpt lat="45.87029" lon="3.03083">
        <ele>562.7</ele>
        <time>2021-07-19T08:40:33Z</time>
      </trkpt>
      <trkpt lat="45.87032" lon="3.03068">
        <ele>563.5</ele>
        <time>2021-07-19T08:40:38Z</time>
      </trkpt>
      <trkpt lat="45.87036" lon="3.03055">
        <ele>564.2</ele>
        <time>2021-07-19T08:40:43Z</time>
      </trkpt>
      <trkpt lat="45.87041" lon="3.03044">
        <ele>564.7</ele>
        <time>2021-07-19T08:40:48Z</time>
      </trkpt>
      <trkpt lat="45.87044" lon="3.0303">
        <ele>565.2</ele>
        <time>2021-07-19T08:40:53Z</time>
      </trkpt>
      <trkpt lat="45.87046" lon="3.03016">
        <ele>565.7</ele>
        <time>2021-07-19T08:40:58Z</time>
      </trkpt>
      <trkpt lat="45.87051" lon="3.03005">
        <ele>566</ele>
        <time>2021-07-19T08:41:04Z</time>
      </trkpt>
      <trkpt lat="45.87055" lon="3.02991">
        <ele>566.6</ele>
        <time>2021-07-19T08:41:11Z</time>
      </trkpt>
      <trkpt lat="45.8706" lon="3.02979">
        <ele>567.2</ele>
        <time>2021-07-19T08:41:16Z</time>
      </trkpt>
      <trkpt lat="45.87064" lon="3.02967">
        <ele>567.8</ele>
        <time>2021-07-19T08:41:21Z</time>
      </trkpt>
      <trkpt lat="45.87065" lon="3.02952">
        <ele>568.7</ele>
        <time>2021-07-19T08:41:26Z</time>
      </trkpt>
      <trkpt lat="45.87069" lon="3.02937">
        <ele>569.4</ele>
        <time>2021-07-19T08:41:31Z</time>
      </trkpt>
      <trkpt lat="45.87072" lon="3.02924">
        <ele>570.1</ele>
        <time>2021-07-19T08:41:36Z</time>
      </trkpt>
      <trkpt lat="45.87078" lon="3.0291">
        <ele>570.5</ele>
        <time>2021-07-19T08:41:41Z</time>
      </trkpt>
      <trkpt lat="45.87083" lon="3.02898">
        <ele>570.5</ele>
        <time>2021-07-19T08:41:46Z</time>
      </trkpt>
      <trkpt lat="45.87087" lon="3.02885">
        <ele>571.1</ele>
        <time>2021-07-19T08:41:51Z</time>
      </trkpt>
      <trkpt lat="45.87092" lon="3.02871">
        <ele>571.9</ele>
        <time>2021-07-19T08:41:56Z</time>
      </trkpt>
      <trkpt lat="45.87096" lon="3.02859">
        <ele>572.5</ele>
        <time>2021-07-19T08:42:01Z</time>
      </trkpt>
      <trkpt lat="45.87098" lon="3.02844">
        <ele>573</ele>
        <time>2021-07-19T08:42:07Z</time>
      </trkpt>
      <trkpt lat="45.87102" lon="3.02831">
        <ele>573.8</ele>
        <time>2021-07-19T08:42:12Z</time>
      </trkpt>
      <trkpt lat="45.87097" lon="3.0282">
        <ele>574.3</ele>
        <time>2021-07-19T08:42:17Z</time>
      </trkpt>
      <trkpt lat="45.8709" lon="3.02829">
        <ele>573</ele>
        <time>2021-07-19T08:43:02Z</time>
      </trkpt>
      <trkpt lat="45.87086" lon="3.02843">
        <ele>572</ele>
        <time>2021-07-19T08:46:26Z</time>
      </trkpt>
      <trkpt lat="45.87092" lon="3.02832">
        <ele>572.8</ele>
        <time>2021-07-19T08:46:38Z</time>
      </trkpt>
      <trkpt lat="45.87102" lon="3.02831">
        <ele>573.8</ele>
        <time>2021-07-19T08:47:18Z</time>
      </trkpt>
      <trkpt lat="45.87099" lon="3.02847">
        <ele>573</ele>
        <time>2021-07-19T08:47:26Z</time>
      </trkpt>
      <trkpt lat="45.87096" lon="3.0286">
        <ele>572.5</ele>
        <time>2021-07-19T08:47:29Z</time>
      </trkpt>
      <trkpt lat="45.87103" lon="3.02874">
        <ele>572.8</ele>
        <time>2021-07-19T08:47:32Z</time>
      </trkpt>
      <trkpt lat="45.87112" lon="3.02878">
        <ele>573.5</ele>
        <time>2021-07-19T08:47:34Z</time>
      </trkpt>
      <trkpt lat="45.87123" lon="3.02879">
        <ele>574.5</ele>
        <time>2021-07-19T08:47:38Z</time>
      </trkpt>
      <trkpt lat="45.87133" lon="3.02878">
        <ele>575.4</ele>
        <time>2021-07-19T08:47:42Z</time>
      </trkpt>
      <trkpt lat="45.87141" lon="3.02873">
        <ele>576.2</ele>
        <time>2021-07-19T08:47:46Z</time>
      </trkpt>
      <trkpt lat="45.87151" lon="3.02873">
        <ele>577.1</ele>
        <time>2021-07-19T08:47:50Z</time>
      </trkpt>
      <trkpt lat="45.87162" lon="3.02878">
        <ele>578</ele>
        <time>2021-07-19T08:47:55Z</time>
      </trkpt>
      <trkpt lat="45.8717" lon="3.02883">
        <ele>578.7</ele>
        <time>2021-07-19T08:47:58Z</time>
      </trkpt>
      <trkpt lat="45.87179" lon="3.02889">
        <ele>579.4</ele>
        <time>2021-07-19T08:48:01Z</time>
      </trkpt>
      <trkpt lat="45.87188" lon="3.02893">
        <ele>580</ele>
        <time>2021-07-19T08:48:05Z</time>
      </trkpt>
      <trkpt lat="45.87198" lon="3.02899">
        <ele>580.7</ele>
        <time>2021-07-19T08:48:11Z</time>
      </trkpt>
      <trkpt lat="45.87206" lon="3.02908">
        <ele>581.1</ele>
        <time>2021-07-19T08:48:15Z</time>
      </trkpt>
      <trkpt lat="45.87215" lon="3.02916">
        <ele>581.5</ele>
        <time>2021-07-19T08:48:19Z</time>
      </trkpt>
      <trkpt lat="45.87223" lon="3.02923">
        <ele>581.6</ele>
        <time>2021-07-19T08:48:23Z</time>
      </trkpt>
      <trkpt lat="45.87232" lon="3.02931">
        <ele>581.7</ele>
        <time>2021-07-19T08:48:27Z</time>
      </trkpt>
      <trkpt lat="45.87241" lon="3.02942">
        <ele>581.7</ele>
        <time>2021-07-19T08:48:31Z</time>
      </trkpt>
      <trkpt lat="45.87249" lon="3.02954">
        <ele>581.7</ele>
        <time>2021-07-19T08:48:35Z</time>
      </trkpt>
      <trkpt lat="45.87255" lon="3.02964">
        <ele>581.4</ele>
        <time>2021-07-19T08:48:38Z</time>
      </trkpt>
      <trkpt lat="45.87261" lon="3.02978">
        <ele>580.8</ele>
        <time>2021-07-19T08:48:43Z</time>
      </trkpt>
      <trkpt lat="45.87266" lon="3.0299">
        <ele>580.3</ele>
        <time>2021-07-19T08:48:46Z</time>
      </trkpt>
      <trkpt lat="45.87272" lon="3.03005">
        <ele>579.7</ele>
        <time>2021-07-19T08:48:50Z</time>
      </trkpt>
      <trkpt lat="45.87276" lon="3.03017">
        <ele>579.1</ele>
        <time>2021-07-19T08:48:53Z</time>
      </trkpt>
      <trkpt lat="45.8728" lon="3.03032">
        <ele>578.3</ele>
        <time>2021-07-19T08:48:57Z</time>
      </trkpt>
      <trkpt lat="45.87282" lon="3.03046">
        <ele>577.5</ele>
        <time>2021-07-19T08:49:00Z</time>
      </trkpt>
      <trkpt lat="45.87285" lon="3.03059">
        <ele>576.9</ele>
        <time>2021-07-19T08:49:03Z</time>
      </trkpt>
      <trkpt lat="45.87288" lon="3.03072">
        <ele>576.4</ele>
        <time>2021-07-19T08:49:06Z</time>
      </trkpt>
      <trkpt lat="45.87292" lon="3.03085">
        <ele>575.9</ele>
        <time>2021-07-19T08:49:09Z</time>
      </trkpt>
      <trkpt lat="45.87296" lon="3.03096">
        <ele>575.8</ele>
        <time>2021-07-19T08:49:12Z</time>
      </trkpt>
      <trkpt lat="45.87301" lon="3.03108">
        <ele>575.7</ele>
        <time>2021-07-19T08:49:16Z</time>
      </trkpt>
      <trkpt lat="45.87307" lon="3.03123">
        <ele>575.6</ele>
        <time>2021-07-19T08:49:20Z</time>
      </trkpt>
      <trkpt lat="45.87313" lon="3.03138">
        <ele>575.6</ele>
        <time>2021-07-19T08:49:24Z</time>
      </trkpt>
      <trkpt lat="45.87318" lon="3.0315">
        <ele>575.7</ele>
        <time>2021-07-19T08:49:27Z</time>
      </trkpt>
      <trkpt lat="45.87323" lon="3.03162">
        <ele>575.8</ele>
        <time>2021-07-19T08:49:30Z</time>
      </trkpt>
      <trkpt lat="45.87329" lon="3.03174">
        <ele>576.4</ele>
        <time>2021-07-19T08:49:33Z</time>
      </trkpt>
      <trkpt lat="45.87336" lon="3.03184">
        <ele>577.1</ele>
        <time>2021-07-19T08:49:36Z</time>
      </trkpt>
      <trkpt lat="45.87343" lon="3.03193">
        <ele>577.6</ele>
        <time>2021-07-19T08:49:39Z</time>
      </trkpt>
      <trkpt lat="45.87351" lon="3.032">
        <ele>578.2</ele>
        <time>2021-07-19T08:49:42Z</time>
      </trkpt>
      <trkpt lat="45.8736" lon="3.03208">
        <ele>579.1</ele>
        <time>2021-07-19T08:49:46Z</time>
      </trkpt>
      <trkpt lat="45.87371" lon="3.03214">
        <ele>580.2</ele>
        <time>2021-07-19T08:49:50Z</time>
      </trkpt>
      <trkpt lat="45.87381" lon="3.03217">
        <ele>581.1</ele>
        <time>2021-07-19T08:49:54Z</time>
      </trkpt>
      <trkpt lat="45.87392" lon="3.03221">
        <ele>582.3</ele>
        <time>2021-07-19T08:49:58Z</time>
      </trkpt>
      <trkpt lat="45.87401" lon="3.03219">
        <ele>583</ele>
        <time>2021-07-19T08:50:02Z</time>
      </trkpt>
      <trkpt lat="45.87411" lon="3.03216">
        <ele>583.7</ele>
        <time>2021-07-19T08:50:08Z</time>
      </trkpt>
      <trkpt lat="45.87401" lon="3.03218">
        <ele>582.9</ele>
        <time>2021-07-19T08:50:50Z</time>
      </trkpt>
      <trkpt lat="45.8741" lon="3.03212">
        <ele>583.3</ele>
        <time>2021-07-19T08:51:29Z</time>
      </trkpt>
      <trkpt lat="45.87421" lon="3.03209">
        <ele>584</ele>
        <time>2021-07-19T08:51:35Z</time>
      </trkpt>
      <trkpt lat="45.87431" lon="3.03204">
        <ele>584.5</ele>
        <time>2021-07-19T08:51:39Z</time>
      </trkpt>
      <trkpt lat="45.87441" lon="3.032">
        <ele>585</ele>
        <time>2021-07-19T08:51:43Z</time>
      </trkpt>
      <trkpt lat="45.87451" lon="3.03196">
        <ele>585.5</ele>
        <time>2021-07-19T08:51:47Z</time>
      </trkpt>
      <trkpt lat="45.87459" lon="3.03191">
        <ele>585.7</ele>
        <time>2021-07-19T08:51:51Z</time>
      </trkpt>
      <trkpt lat="45.8747" lon="3.03187">
        <ele>586.2</ele>
        <time>2021-07-19T08:51:55Z</time>
      </trkpt>
      <trkpt lat="45.87478" lon="3.03183">
        <ele>586.4</ele>
        <time>2021-07-19T08:51:59Z</time>
      </trkpt>
      <trkpt lat="45.87488" lon="3.03176">
        <ele>586.3</ele>
        <time>2021-07-19T08:52:03Z</time>
      </trkpt>
      <trkpt lat="45.87495" lon="3.03167">
        <ele>585.7</ele>
        <time>2021-07-19T08:52:07Z</time>
      </trkpt>
      <trkpt lat="45.87504" lon="3.03158">
        <ele>586.4</ele>
        <time>2021-07-19T08:52:11Z</time>
      </trkpt>
      <trkpt lat="45.87513" lon="3.03149">
        <ele>587.7</ele>
        <time>2021-07-19T08:52:15Z</time>
      </trkpt>
      <trkpt lat="45.87521" lon="3.0314">
        <ele>588.7</ele>
        <time>2021-07-19T08:52:19Z</time>
      </trkpt>
      <trkpt lat="45.8753" lon="3.0313">
        <ele>589.9</ele>
        <time>2021-07-19T08:52:23Z</time>
      </trkpt>
      <trkpt lat="45.87537" lon="3.03119">
        <ele>590.7</ele>
        <time>2021-07-19T08:52:27Z</time>
      </trkpt>
      <trkpt lat="45.87542" lon="3.03104">
        <ele>590.9</ele>
        <time>2021-07-19T08:52:31Z</time>
      </trkpt>
      <trkpt lat="45.87548" lon="3.03091">
        <ele>591.4</ele>
        <time>2021-07-19T08:52:35Z</time>
      </trkpt>
      <trkpt lat="45.87553" lon="3.03078">
        <ele>592</ele>
        <time>2021-07-19T08:52:39Z</time>
      </trkpt>
      <trkpt lat="45.87555" lon="3.03065">
        <ele>592.7</ele>
        <time>2021-07-19T08:52:43Z</time>
      </trkpt>
      <trkpt lat="45.87557" lon="3.0305">
        <ele>593.5</ele>
        <time>2021-07-19T08:52:47Z</time>
      </trkpt>
      <trkpt lat="45.87559" lon="3.03035">
        <ele>594.4</ele>
        <time>2021-07-19T08:52:51Z</time>
      </trkpt>
      <trkpt lat="45.87562" lon="3.0302">
        <ele>595.5</ele>
        <time>2021-07-19T08:52:55Z</time>
      </trkpt>
      <trkpt lat="45.87562" lon="3.03004">
        <ele>596</ele>
        <time>2021-07-19T08:52:59Z</time>
      </trkpt>
      <trkpt lat="45.8756" lon="3.02989">
        <ele>596.8</ele>
        <time>2021-07-19T08:53:03Z</time>
      </trkpt>
      <trkpt lat="45.87556" lon="3.02974">
        <ele>597.3</ele>
        <time>2021-07-19T08:53:07Z</time>
      </trkpt>
      <trkpt lat="45.87554" lon="3.02959">
        <ele>598.2</ele>
        <time>2021-07-19T08:53:12Z</time>
      </trkpt>
      <trkpt lat="45.87549" lon="3.02947">
        <ele>598</ele>
        <time>2021-07-19T08:53:16Z</time>
      </trkpt>
      <trkpt lat="45.87543" lon="3.02934">
        <ele>597.4</ele>
        <time>2021-07-19T08:53:20Z</time>
      </trkpt>
      <trkpt lat="45.87539" lon="3.0292">
        <ele>597.4</ele>
        <time>2021-07-19T08:53:24Z</time>
      </trkpt>
      <trkpt lat="45.87533" lon="3.02908">
        <ele>596.5</ele>
        <time>2021-07-19T08:53:28Z</time>
      </trkpt>
      <trkpt lat="45.87526" lon="3.02897">
        <ele>595.2</ele>
        <time>2021-07-19T08:53:32Z</time>
      </trkpt>
      <trkpt lat="45.8752" lon="3.02886">
        <ele>594.2</ele>
        <time>2021-07-19T08:53:36Z</time>
      </trkpt>
      <trkpt lat="45.87513" lon="3.02874">
        <ele>593</ele>
        <time>2021-07-19T08:53:41Z</time>
      </trkpt>
      <trkpt lat="45.87507" lon="3.02861">
        <ele>592.1</ele>
        <time>2021-07-19T08:53:46Z</time>
      </trkpt>
      <trkpt lat="45.87503" lon="3.02849">
        <ele>591.8</ele>
        <time>2021-07-19T08:53:50Z</time>
      </trkpt>
      <trkpt lat="45.87499" lon="3.02837">
        <ele>591.7</ele>
        <time>2021-07-19T08:53:54Z</time>
      </trkpt>
      <trkpt lat="45.87492" lon="3.02825">
        <ele>591.9</ele>
        <time>2021-07-19T08:53:59Z</time>
      </trkpt>
      <trkpt lat="45.87485" lon="3.02814">
        <ele>592.1</ele>
        <time>2021-07-19T08:54:03Z</time>
      </trkpt>
      <trkpt lat="45.8748" lon="3.02803">
        <ele>592.5</ele>
        <time>2021-07-19T08:54:07Z</time>
      </trkpt>
      <trkpt lat="45.87474" lon="3.02791">
        <ele>592.9</ele>
        <time>2021-07-19T08:54:11Z</time>
      </trkpt>
      <trkpt lat="45.87471" lon="3.02778">
        <ele>593.5</ele>
        <time>2021-07-19T08:54:16Z</time>
      </trkpt>
      <trkpt lat="45.87469" lon="3.02764">
        <ele>594.4</ele>
        <time>2021-07-19T08:54:22Z</time>
      </trkpt>
      <trkpt lat="45.87468" lon="3.02748">
        <ele>595.3</ele>
        <time>2021-07-19T08:54:27Z</time>
      </trkpt>
      <trkpt lat="45.87468" lon="3.02732">
        <ele>595.6</ele>
        <time>2021-07-19T08:54:32Z</time>
      </trkpt>
      <trkpt lat="45.87469" lon="3.02719">
        <ele>595.9</ele>
        <time>2021-07-19T08:54:36Z</time>
      </trkpt>
      <trkpt lat="45.87473" lon="3.02703">
        <ele>596.5</ele>
        <time>2021-07-19T08:54:41Z</time>
      </trkpt>
      <trkpt lat="45.87482" lon="3.02698">
        <ele>597</ele>
        <time>2021-07-19T08:54:46Z</time>
      </trkpt>
      <trkpt lat="45.8749" lon="3.02703">
        <ele>597.4</ele>
        <time>2021-07-19T08:55:00Z</time>
      </trkpt>
      <trkpt lat="45.87498" lon="3.02711">
        <ele>597.9</ele>
        <time>2021-07-19T08:55:06Z</time>
      </trkpt>
      <trkpt lat="45.87507" lon="3.02717">
        <ele>598.6</ele>
        <time>2021-07-19T08:55:14Z</time>
      </trkpt>
      <trkpt lat="45.87515" lon="3.02725">
        <ele>599.5</ele>
        <time>2021-07-19T08:55:22Z</time>
      </trkpt>
      <trkpt lat="45.87524" lon="3.0273">
        <ele>600.5</ele>
        <time>2021-07-19T09:03:51Z</time>
      </trkpt>
      <trkpt lat="45.87534" lon="3.02735">
        <ele>601.8</ele>
        <time>2021-07-19T09:04:22Z</time>
      </trkpt>
      <trkpt lat="45.87543" lon="3.02739">
        <ele>603.1</ele>
        <time>2021-07-19T09:04:28Z</time>
      </trkpt>
      <trkpt lat="45.87552" lon="3.02742">
        <ele>604.3</ele>
        <time>2021-07-19T09:04:33Z</time>
      </trkpt>
      <trkpt lat="45.87562" lon="3.02743">
        <ele>605.6</ele>
        <time>2021-07-19T09:04:38Z</time>
      </trkpt>
      <trkpt lat="45.87571" lon="3.02746">
        <ele>607</ele>
        <time>2021-07-19T09:04:43Z</time>
      </trkpt>
      <trkpt lat="45.87581" lon="3.0275">
        <ele>608.7</ele>
        <time>2021-07-19T09:04:49Z</time>
      </trkpt>
      <trkpt lat="45.8759" lon="3.02753">
        <ele>610.1</ele>
        <time>2021-07-19T09:04:55Z</time>
      </trkpt>
      <trkpt lat="45.876" lon="3.02757">
        <ele>611.8</ele>
        <time>2021-07-19T09:05:02Z</time>
      </trkpt>
      <trkpt lat="45.87609" lon="3.02758">
        <ele>613.1</ele>
        <time>2021-07-19T09:05:09Z</time>
      </trkpt>
      <trkpt lat="45.87618" lon="3.02755">
        <ele>613.8</ele>
        <time>2021-07-19T09:05:16Z</time>
      </trkpt>
      <trkpt lat="45.87626" lon="3.02749">
        <ele>614</ele>
        <time>2021-07-19T09:05:23Z</time>
      </trkpt>
      <trkpt lat="45.87636" lon="3.02753">
        <ele>615.8</ele>
        <time>2021-07-19T09:05:28Z</time>
      </trkpt>
      <trkpt lat="45.87645" lon="3.02752">
        <ele>616.7</ele>
        <time>2021-07-19T09:05:33Z</time>
      </trkpt>
      <trkpt lat="45.87656" lon="3.02752">
        <ele>618.1</ele>
        <time>2021-07-19T09:05:39Z</time>
      </trkpt>
      <trkpt lat="45.87665" lon="3.02753">
        <ele>619.4</ele>
        <time>2021-07-19T09:05:44Z</time>
      </trkpt>
      <trkpt lat="45.87675" lon="3.0275">
        <ele>619.7</ele>
        <time>2021-07-19T09:05:50Z</time>
      </trkpt>
      <trkpt lat="45.87684" lon="3.02753">
        <ele>621</ele>
        <time>2021-07-19T09:05:54Z</time>
      </trkpt>
      <trkpt lat="45.87693" lon="3.02753">
        <ele>621.8</ele>
        <time>2021-07-19T09:06:00Z</time>
      </trkpt>
      <trkpt lat="45.87703" lon="3.02756">
        <ele>623.3</ele>
        <time>2021-07-19T09:06:06Z</time>
      </trkpt>
      <trkpt lat="45.87712" lon="3.02759">
        <ele>624.7</ele>
        <time>2021-07-19T09:06:11Z</time>
      </trkpt>
      <trkpt lat="45.87722" lon="3.02761">
        <ele>625.9</ele>
        <time>2021-07-19T09:06:16Z</time>
      </trkpt>
      <trkpt lat="45.87731" lon="3.02759">
        <ele>626.3</ele>
        <time>2021-07-19T09:06:22Z</time>
      </trkpt>
      <trkpt lat="45.8774" lon="3.02761">
        <ele>627.5</ele>
        <time>2021-07-19T09:06:27Z</time>
      </trkpt>
      <trkpt lat="45.87749" lon="3.02765">
        <ele>629.2</ele>
        <time>2021-07-19T09:06:33Z</time>
      </trkpt>
      <trkpt lat="45.87759" lon="3.02762">
        <ele>629.8</ele>
        <time>2021-07-19T09:06:40Z</time>
      </trkpt>
      <trkpt lat="45.87768" lon="3.0276">
        <ele>630.7</ele>
        <time>2021-07-19T09:06:46Z</time>
      </trkpt>
      <trkpt lat="45.87777" lon="3.02758">
        <ele>631.5</ele>
        <time>2021-07-19T09:06:50Z</time>
      </trkpt>
      <trkpt lat="45.87786" lon="3.02761">
        <ele>633.4</ele>
        <time>2021-07-19T09:06:55Z</time>
      </trkpt>
      <trkpt lat="45.87795" lon="3.02764">
        <ele>635.2</ele>
        <time>2021-07-19T09:07:02Z</time>
      </trkpt>
      <trkpt lat="45.87804" lon="3.02763">
        <ele>636.3</ele>
        <time>2021-07-19T09:07:12Z</time>
      </trkpt>
      <trkpt lat="45.87815" lon="3.02765">
        <ele>638.2</ele>
        <time>2021-07-19T09:07:19Z</time>
      </trkpt>
      <trkpt lat="45.87824" lon="3.02771">
        <ele>640.5</ele>
        <time>2021-07-19T09:07:24Z</time>
      </trkpt>
      <trkpt lat="45.87833" lon="3.02773">
        <ele>642.1</ele>
        <time>2021-07-19T09:07:32Z</time>
      </trkpt>
      <trkpt lat="45.87843" lon="3.02777">
        <ele>644.7</ele>
        <time>2021-07-19T09:07:46Z</time>
      </trkpt>
      <trkpt lat="45.87852" lon="3.02772">
        <ele>645.6</ele>
        <time>2021-07-19T09:07:55Z</time>
      </trkpt>
      <trkpt lat="45.87862" lon="3.02775">
        <ele>648</ele>
        <time>2021-07-19T09:08:03Z</time>
      </trkpt>
      <trkpt lat="45.87872" lon="3.02778">
        <ele>650.3</ele>
        <time>2021-07-19T09:08:10Z</time>
      </trkpt>
      <trkpt lat="45.87881" lon="3.02775">
        <ele>651.6</ele>
        <time>2021-07-19T09:08:21Z</time>
      </trkpt>
      <trkpt lat="45.8789" lon="3.02771">
        <ele>652.8</ele>
        <time>2021-07-19T09:08:31Z</time>
      </trkpt>
      <trkpt lat="45.87899" lon="3.02766">
        <ele>654</ele>
        <time>2021-07-19T09:08:42Z</time>
      </trkpt>
      <trkpt lat="45.87908" lon="3.02765">
        <ele>655.7</ele>
        <time>2021-07-19T09:09:01Z</time>
      </trkpt>
      <trkpt lat="45.87918" lon="3.02767">
        <ele>657.8</ele>
        <time>2021-07-19T09:09:11Z</time>
      </trkpt>
      <trkpt lat="45.87927" lon="3.02764">
        <ele>659.1</ele>
        <time>2021-07-19T09:09:20Z</time>
      </trkpt>
      <trkpt lat="45.87935" lon="3.02772">
        <ele>661</ele>
        <time>2021-07-19T09:09:34Z</time>
      </trkpt>
      <trkpt lat="45.87944" lon="3.02776">
        <ele>662.7</ele>
        <time>2021-07-19T09:09:48Z</time>
      </trkpt>
      <trkpt lat="45.87953" lon="3.02778">
        <ele>664.2</ele>
        <time>2021-07-19T09:10:02Z</time>
      </trkpt>
      <trkpt lat="45.87962" lon="3.02783">
        <ele>665.8</ele>
        <time>2021-07-19T09:10:15Z</time>
      </trkpt>
      <trkpt lat="45.8797" lon="3.02785">
        <ele>667.1</ele>
        <time>2021-07-19T09:10:28Z</time>
      </trkpt>
      <trkpt lat="45.87979" lon="3.02785">
        <ele>668.4</ele>
        <time>2021-07-19T09:10:41Z</time>
      </trkpt>
      <trkpt lat="45.87989" lon="3.02789">
        <ele>669.9</ele>
        <time>2021-07-19T09:10:56Z</time>
      </trkpt>
      <trkpt lat="45.87997" lon="3.02796">
        <ele>671.2</ele>
        <time>2021-07-19T09:11:05Z</time>
      </trkpt>
      <trkpt lat="45.88006" lon="3.02802">
        <ele>672.2</ele>
        <time>2021-07-19T09:11:14Z</time>
      </trkpt>
      <trkpt lat="45.88013" lon="3.02809">
        <ele>672.8</ele>
        <time>2021-07-19T09:12:40Z</time>
      </trkpt>
      <trkpt lat="45.8802" lon="3.02819">
        <ele>673.2</ele>
        <time>2021-07-19T09:12:50Z</time>
      </trkpt>
      <trkpt lat="45.88026" lon="3.0283">
        <ele>673.3</ele>
        <time>2021-07-19T09:13:08Z</time>
      </trkpt>
      <trkpt lat="45.88033" lon="3.02841">
        <ele>673.9</ele>
        <time>2021-07-19T09:13:15Z</time>
      </trkpt>
      <trkpt lat="45.8804" lon="3.0285">
        <ele>674.4</ele>
        <time>2021-07-19T09:13:23Z</time>
      </trkpt>
      <trkpt lat="45.88048" lon="3.02861">
        <ele>674.7</ele>
        <time>2021-07-19T09:13:30Z</time>
      </trkpt>
      <trkpt lat="45.88056" lon="3.02872">
        <ele>674.7</ele>
        <time>2021-07-19T09:13:35Z</time>
      </trkpt>
      <trkpt lat="45.88063" lon="3.0288">
        <ele>674.4</ele>
        <time>2021-07-19T09:13:39Z</time>
      </trkpt>
      <trkpt lat="45.8807" lon="3.0289">
        <ele>673.9</ele>
        <time>2021-07-19T09:13:43Z</time>
      </trkpt>
      <trkpt lat="45.88079" lon="3.02899">
        <ele>673.1</ele>
        <time>2021-07-19T09:13:50Z</time>
      </trkpt>
      <trkpt lat="45.881" lon="3.0292">
        <ele>671.1</ele>
        <time>2021-07-19T09:13:55Z</time>
      </trkpt>
      <trkpt lat="45.88108" lon="3.02928">
        <ele>670.5</ele>
        <time>2021-07-19T09:13:58Z</time>
      </trkpt>
      <trkpt lat="45.88116" lon="3.02935">
        <ele>669.8</ele>
        <time>2021-07-19T09:14:01Z</time>
      </trkpt>
      <trkpt lat="45.88125" lon="3.02945">
        <ele>668.8</ele>
        <time>2021-07-19T09:14:06Z</time>
      </trkpt>
      <trkpt lat="45.88134" lon="3.02937">
        <ele>668.5</ele>
        <time>2021-07-19T09:14:10Z</time>
      </trkpt>
      <trkpt lat="45.88132" lon="3.02922">
        <ele>669.4</ele>
        <time>2021-07-19T09:14:16Z</time>
      </trkpt>
      <trkpt lat="45.88132" lon="3.02908">
        <ele>670.6</ele>
        <time>2021-07-19T09:14:23Z</time>
      </trkpt>
      <trkpt lat="45.88131" lon="3.02895">
        <ele>671.9</ele>
        <time>2021-07-19T09:14:31Z</time>
      </trkpt>
      <trkpt lat="45.8813" lon="3.02881">
        <ele>673.4</ele>
        <time>2021-07-19T09:14:38Z</time>
      </trkpt>
      <trkpt lat="45.88127" lon="3.02867">
        <ele>674.8</ele>
        <time>2021-07-19T09:14:45Z</time>
      </trkpt>
      <trkpt lat="45.88125" lon="3.02854">
        <ele>676</ele>
        <time>2021-07-19T09:14:52Z</time>
      </trkpt>
      <trkpt lat="45.88121" lon="3.02842">
        <ele>677</ele>
        <time>2021-07-19T09:14:58Z</time>
      </trkpt>
      <trkpt lat="45.88118" lon="3.02828">
        <ele>678.4</ele>
        <time>2021-07-19T09:15:06Z</time>
      </trkpt>
      <trkpt lat="45.88115" lon="3.02816">
        <ele>679.9</ele>
        <time>2021-07-19T09:15:12Z</time>
      </trkpt>
      <trkpt lat="45.88115" lon="3.02802">
        <ele>681.9</ele>
        <time>2021-07-19T09:15:20Z</time>
      </trkpt>
      <trkpt lat="45.88123" lon="3.02794">
        <ele>683.7</ele>
        <time>2021-07-19T09:15:28Z</time>
      </trkpt>
      <trkpt lat="45.88134" lon="3.02793">
        <ele>684.8</ele>
        <time>2021-07-19T09:15:37Z</time>
      </trkpt>
      <trkpt lat="45.88141" lon="3.02785">
        <ele>686.8</ele>
        <time>2021-07-19T09:15:48Z</time>
      </trkpt>
      <trkpt lat="45.88148" lon="3.02777">
        <ele>688.9</ele>
        <time>2021-07-19T09:16:14Z</time>
      </trkpt>
      <trkpt lat="45.88158" lon="3.02776">
        <ele>690.1</ele>
        <time>2021-07-19T09:16:26Z</time>
      </trkpt>
      <trkpt lat="45.88167" lon="3.02775">
        <ele>691.2</ele>
        <time>2021-07-19T09:16:35Z</time>
      </trkpt>
      <trkpt lat="45.88177" lon="3.0277">
        <ele>693.2</ele>
        <time>2021-07-19T09:16:46Z</time>
      </trkpt>
      <trkpt lat="45.88187" lon="3.02766">
        <ele>694.9</ele>
        <time>2021-07-19T09:16:58Z</time>
      </trkpt>
      <trkpt lat="45.88196" lon="3.02765">
        <ele>695.9</ele>
        <time>2021-07-19T09:17:06Z</time>
      </trkpt>
      <trkpt lat="45.88205" lon="3.02762">
        <ele>697.4</ele>
        <time>2021-07-19T09:17:13Z</time>
      </trkpt>
      <trkpt lat="45.88214" lon="3.02757">
        <ele>699.2</ele>
        <time>2021-07-19T09:17:25Z</time>
      </trkpt>
      <trkpt lat="45.88223" lon="3.02753">
        <ele>700.8</ele>
        <time>2021-07-19T09:17:33Z</time>
      </trkpt>
      <trkpt lat="45.88232" lon="3.02752">
        <ele>701.9</ele>
        <time>2021-07-19T09:17:44Z</time>
      </trkpt>
      <trkpt lat="45.88239" lon="3.02759">
        <ele>701.2</ele>
        <time>2021-07-19T09:17:56Z</time>
      </trkpt>
      <trkpt lat="45.88249" lon="3.0276">
        <ele>702</ele>
        <time>2021-07-19T09:18:13Z</time>
      </trkpt>
      <trkpt lat="45.88259" lon="3.0276">
        <ele>701.8</ele>
        <time>2021-07-19T09:18:25Z</time>
      </trkpt>
      <trkpt lat="45.88268" lon="3.02758">
        <ele>701.8</ele>
        <time>2021-07-19T09:18:35Z</time>
      </trkpt>
      <trkpt lat="45.88277" lon="3.02757">
        <ele>701.7</ele>
        <time>2021-07-19T09:18:43Z</time>
      </trkpt>
      <trkpt lat="45.88286" lon="3.02754">
        <ele>702</ele>
        <time>2021-07-19T09:18:58Z</time>
      </trkpt>
      <trkpt lat="45.88295" lon="3.0275">
        <ele>702.4</ele>
        <time>2021-07-19T09:19:10Z</time>
      </trkpt>
      <trkpt lat="45.88303" lon="3.02743">
        <ele>702.9</ele>
        <time>2021-07-19T09:19:22Z</time>
      </trkpt>
      <trkpt lat="45.88308" lon="3.02731">
        <ele>704.2</ele>
        <time>2021-07-19T09:19:40Z</time>
      </trkpt>
      <trkpt lat="45.88307" lon="3.02717">
        <ele>705.9</ele>
        <time>2021-07-19T09:19:51Z</time>
      </trkpt>
      <trkpt lat="45.883" lon="3.02708">
        <ele>707.3</ele>
        <time>2021-07-19T09:20:01Z</time>
      </trkpt>
      <trkpt lat="45.88294" lon="3.02697">
        <ele>709</ele>
        <time>2021-07-19T09:20:14Z</time>
      </trkpt>
      <trkpt lat="45.8829" lon="3.02685">
        <ele>710.8</ele>
        <time>2021-07-19T09:20:28Z</time>
      </trkpt>
      <trkpt lat="45.88283" lon="3.02676">
        <ele>712.4</ele>
        <time>2021-07-19T09:20:34Z</time>
      </trkpt>
      <trkpt lat="45.88277" lon="3.02666">
        <ele>714.1</ele>
        <time>2021-07-19T09:20:42Z</time>
      </trkpt>
      <trkpt lat="45.88271" lon="3.02655">
        <ele>715.7</ele>
        <time>2021-07-19T09:20:50Z</time>
      </trkpt>
      <trkpt lat="45.88265" lon="3.02644">
        <ele>717.4</ele>
        <time>2021-07-19T09:20:58Z</time>
      </trkpt>
      <trkpt lat="45.88259" lon="3.02633">
        <ele>719.2</ele>
        <time>2021-07-19T09:21:04Z</time>
      </trkpt>
      <trkpt lat="45.88253" lon="3.02621">
        <ele>721.2</ele>
        <time>2021-07-19T09:21:14Z</time>
      </trkpt>
      <trkpt lat="45.88245" lon="3.02614">
        <ele>722</ele>
        <time>2021-07-19T09:21:23Z</time>
      </trkpt>
      <trkpt lat="45.8824" lon="3.02602">
        <ele>723.2</ele>
        <time>2021-07-19T09:21:30Z</time>
      </trkpt>
      <trkpt lat="45.88235" lon="3.02589">
        <ele>724.6</ele>
        <time>2021-07-19T09:21:38Z</time>
      </trkpt>
      <trkpt lat="45.8823" lon="3.02578">
        <ele>725.3</ele>
        <time>2021-07-19T09:21:45Z</time>
      </trkpt>
      <trkpt lat="45.88226" lon="3.02565">
        <ele>725.9</ele>
        <time>2021-07-19T09:21:53Z</time>
      </trkpt>
      <trkpt lat="45.8823" lon="3.02552">
        <ele>726.7</ele>
        <time>2021-07-19T09:22:01Z</time>
      </trkpt>
      <trkpt lat="45.88235" lon="3.02541">
        <ele>727.5</ele>
        <time>2021-07-19T09:22:07Z</time>
      </trkpt>
      <trkpt lat="45.88242" lon="3.0253">
        <ele>728.3</ele>
        <time>2021-07-19T09:22:14Z</time>
      </trkpt>
      <trkpt lat="45.88249" lon="3.02518">
        <ele>729.1</ele>
        <time>2021-07-19T09:22:21Z</time>
      </trkpt>
      <trkpt lat="45.88254" lon="3.02508">
        <ele>729.2</ele>
        <time>2021-07-19T09:23:27Z</time>
      </trkpt>
      <trkpt lat="45.88262" lon="3.025">
        <ele>728.8</ele>
        <time>2021-07-19T09:26:32Z</time>
      </trkpt>
      <trkpt lat="45.88268" lon="3.02485">
        <ele>728.8</ele>
        <time>2021-07-19T09:26:36Z</time>
      </trkpt>
      <trkpt lat="45.88274" lon="3.02472">
        <ele>728.8</ele>
        <time>2021-07-19T09:26:39Z</time>
      </trkpt>
      <trkpt lat="45.88278" lon="3.0246">
        <ele>729.1</ele>
        <time>2021-07-19T09:26:42Z</time>
      </trkpt>
      <trkpt lat="45.88282" lon="3.02446">
        <ele>729.6</ele>
        <time>2021-07-19T09:26:45Z</time>
      </trkpt>
      <trkpt lat="45.88291" lon="3.0244">
        <ele>729.6</ele>
        <time>2021-07-19T09:26:51Z</time>
      </trkpt>
      <trkpt lat="45.88301" lon="3.02434">
        <ele>729.8</ele>
        <time>2021-07-19T09:26:56Z</time>
      </trkpt>
      <trkpt lat="45.8831" lon="3.0243">
        <ele>729.9</ele>
        <time>2021-07-19T09:27:00Z</time>
      </trkpt>
      <trkpt lat="45.88319" lon="3.02425">
        <ele>730.2</ele>
        <time>2021-07-19T09:27:05Z</time>
      </trkpt>
      <trkpt lat="45.88328" lon="3.02421">
        <ele>730.6</ele>
        <time>2021-07-19T09:27:10Z</time>
      </trkpt>
      <trkpt lat="45.88338" lon="3.02416">
        <ele>731.1</ele>
        <time>2021-07-19T09:27:15Z</time>
      </trkpt>
      <trkpt lat="45.88348" lon="3.0241">
        <ele>731.6</ele>
        <time>2021-07-19T09:30:15Z</time>
      </trkpt>
      <trkpt lat="45.88357" lon="3.02406">
        <ele>732</ele>
        <time>2021-07-19T09:30:20Z</time>
      </trkpt>
      <trkpt lat="45.88366" lon="3.02402">
        <ele>732.4</ele>
        <time>2021-07-19T09:30:24Z</time>
      </trkpt>
      <trkpt lat="45.88375" lon="3.02398">
        <ele>732.9</ele>
        <time>2021-07-19T09:30:29Z</time>
      </trkpt>
      <trkpt lat="45.88386" lon="3.02396">
        <ele>733.2</ele>
        <time>2021-07-19T09:30:34Z</time>
      </trkpt>
      <trkpt lat="45.88395" lon="3.02392">
        <ele>733.7</ele>
        <time>2021-07-19T09:30:39Z</time>
      </trkpt>
      <trkpt lat="45.88403" lon="3.02385">
        <ele>734.6</ele>
        <time>2021-07-19T09:30:44Z</time>
      </trkpt>
      <trkpt lat="45.88409" lon="3.02376">
        <ele>735.7</ele>
        <time>2021-07-19T09:30:49Z</time>
      </trkpt>
      <trkpt lat="45.88417" lon="3.02369">
        <ele>736.7</ele>
        <time>2021-07-19T09:31:03Z</time>
      </trkpt>
      <trkpt lat="45.88428" lon="3.02364">
        <ele>737.6</ele>
        <time>2021-07-19T09:31:09Z</time>
      </trkpt>
      <trkpt lat="45.88438" lon="3.02365">
        <ele>737.7</ele>
        <time>2021-07-19T09:31:13Z</time>
      </trkpt>
      <trkpt lat="45.88449" lon="3.02367">
        <ele>737.7</ele>
        <time>2021-07-19T09:31:17Z</time>
      </trkpt>
      <trkpt lat="45.88459" lon="3.02367">
        <ele>738</ele>
        <time>2021-07-19T09:31:21Z</time>
      </trkpt>
      <trkpt lat="45.88469" lon="3.02364">
        <ele>738.6</ele>
        <time>2021-07-19T09:31:26Z</time>
      </trkpt>
      <trkpt lat="45.88479" lon="3.02362">
        <ele>739.1</ele>
        <time>2021-07-19T09:31:31Z</time>
      </trkpt>
      <trkpt lat="45.8849" lon="3.02359">
        <ele>739.7</ele>
        <time>2021-07-19T09:31:36Z</time>
      </trkpt>
      <trkpt lat="45.88499" lon="3.02355">
        <ele>740.4</ele>
        <time>2021-07-19T09:31:40Z</time>
      </trkpt>
      <trkpt lat="45.88509" lon="3.02351">
        <ele>740.8</ele>
        <time>2021-07-19T09:31:45Z</time>
      </trkpt>
      <trkpt lat="45.8852" lon="3.02351">
        <ele>740.8</ele>
        <time>2021-07-19T09:31:49Z</time>
      </trkpt>
      <trkpt lat="45.8853" lon="3.02353">
        <ele>740.5</ele>
        <time>2021-07-19T09:31:53Z</time>
      </trkpt>
      <trkpt lat="45.88539" lon="3.02355">
        <ele>740.3</ele>
        <time>2021-07-19T09:31:57Z</time>
      </trkpt>
      <trkpt lat="45.8855" lon="3.02356">
        <ele>740.2</ele>
        <time>2021-07-19T09:32:01Z</time>
      </trkpt>
      <trkpt lat="45.88559" lon="3.02357">
        <ele>740.2</ele>
        <time>2021-07-19T09:32:05Z</time>
      </trkpt>
      <trkpt lat="45.88568" lon="3.02357">
        <ele>740.2</ele>
        <time>2021-07-19T09:32:10Z</time>
      </trkpt>
      <trkpt lat="45.88576" lon="3.02349">
        <ele>740.5</ele>
        <time>2021-07-19T09:32:34Z</time>
      </trkpt>
      <trkpt lat="45.8858" lon="3.02336">
        <ele>741</ele>
        <time>2021-07-19T09:32:40Z</time>
      </trkpt>
      <trkpt lat="45.88585" lon="3.02322">
        <ele>741.3</ele>
        <time>2021-07-19T09:32:45Z</time>
      </trkpt>
      <trkpt lat="45.88592" lon="3.02309">
        <ele>741.5</ele>
        <time>2021-07-19T09:32:50Z</time>
      </trkpt>
      <trkpt lat="45.88598" lon="3.02296">
        <ele>741.6</ele>
        <time>2021-07-19T09:32:54Z</time>
      </trkpt>
      <trkpt lat="45.88603" lon="3.02283">
        <ele>741.6</ele>
        <time>2021-07-19T09:32:57Z</time>
      </trkpt>
      <trkpt lat="45.88608" lon="3.0227">
        <ele>741.6</ele>
        <time>2021-07-19T09:33:00Z</time>
      </trkpt>
      <trkpt lat="45.88614" lon="3.02256">
        <ele>741.5</ele>
        <time>2021-07-19T09:33:03Z</time>
      </trkpt>
      <trkpt lat="45.88619" lon="3.02243">
        <ele>741.1</ele>
        <time>2021-07-19T09:33:06Z</time>
      </trkpt>
      <trkpt lat="45.88625" lon="3.02232">
        <ele>740.6</ele>
        <time>2021-07-19T09:33:09Z</time>
      </trkpt>
      <trkpt lat="45.88631" lon="3.02221">
        <ele>739.9</ele>
        <time>2021-07-19T09:33:12Z</time>
      </trkpt>
      <trkpt lat="45.88635" lon="3.0221">
        <ele>739.3</ele>
        <time>2021-07-19T09:33:16Z</time>
      </trkpt>
      <trkpt lat="45.88637" lon="3.02193">
        <ele>738.7</ele>
        <time>2021-07-19T09:33:20Z</time>
      </trkpt>
      <trkpt lat="45.88637" lon="3.0218">
        <ele>738.3</ele>
        <time>2021-07-19T09:35:03Z</time>
      </trkpt>
      <trkpt lat="45.88641" lon="3.02168">
        <ele>737.5</ele>
        <time>2021-07-19T09:35:07Z</time>
      </trkpt>
      <trkpt lat="45.88645" lon="3.02154">
        <ele>737</ele>
        <time>2021-07-19T09:35:11Z</time>
      </trkpt>
      <trkpt lat="45.88648" lon="3.0214">
        <ele>736.5</ele>
        <time>2021-07-19T09:35:14Z</time>
      </trkpt>
      <trkpt lat="45.88653" lon="3.02126">
        <ele>735.9</ele>
        <time>2021-07-19T09:35:17Z</time>
      </trkpt>
      <trkpt lat="45.88659" lon="3.02113">
        <ele>735.2</ele>
        <time>2021-07-19T09:35:20Z</time>
      </trkpt>
      <trkpt lat="45.88664" lon="3.021">
        <ele>734.5</ele>
        <time>2021-07-19T09:35:23Z</time>
      </trkpt>
      <trkpt lat="45.88668" lon="3.02086">
        <ele>734</ele>
        <time>2021-07-19T09:35:27Z</time>
      </trkpt>
      <trkpt lat="45.8867" lon="3.02073">
        <ele>733.6</ele>
        <time>2021-07-19T09:35:30Z</time>
      </trkpt>
      <trkpt lat="45.88674" lon="3.0206">
        <ele>733.1</ele>
        <time>2021-07-19T09:35:33Z</time>
      </trkpt>
      <trkpt lat="45.88679" lon="3.02044">
        <ele>732.5</ele>
        <time>2021-07-19T09:35:37Z</time>
      </trkpt>
      <trkpt lat="45.88685" lon="3.0203">
        <ele>732.2</ele>
        <time>2021-07-19T09:35:40Z</time>
      </trkpt>
      <trkpt lat="45.88694" lon="3.02023">
        <ele>732.4</ele>
        <time>2021-07-19T09:35:43Z</time>
      </trkpt>
      <trkpt lat="45.88703" lon="3.02018">
        <ele>732.7</ele>
        <time>2021-07-19T09:35:47Z</time>
      </trkpt>
      <trkpt lat="45.8871" lon="3.02008">
        <ele>732.8</ele>
        <time>2021-07-19T09:35:51Z</time>
      </trkpt>
      <trkpt lat="45.88721" lon="3.02001">
        <ele>733.3</ele>
        <time>2021-07-19T09:35:56Z</time>
      </trkpt>
      <trkpt lat="45.88729" lon="3.01993">
        <ele>733.8</ele>
        <time>2021-07-19T09:36:00Z</time>
      </trkpt>
      <trkpt lat="45.88738" lon="3.01985">
        <ele>734.4</ele>
        <time>2021-07-19T09:36:05Z</time>
      </trkpt>
      <trkpt lat="45.88746" lon="3.01974">
        <ele>735</ele>
        <time>2021-07-19T09:36:10Z</time>
      </trkpt>
      <trkpt lat="45.88755" lon="3.01964">
        <ele>735.5</ele>
        <time>2021-07-19T09:36:15Z</time>
      </trkpt>
      <trkpt lat="45.88765" lon="3.01957">
        <ele>735.7</ele>
        <time>2021-07-19T09:36:20Z</time>
      </trkpt>
      <trkpt lat="45.88774" lon="3.01952">
        <ele>735.9</ele>
        <time>2021-07-19T09:36:24Z</time>
      </trkpt>
      <trkpt lat="45.88785" lon="3.01943">
        <ele>736.1</ele>
        <time>2021-07-19T09:36:27Z</time>
      </trkpt>
      <trkpt lat="45.88794" lon="3.01932">
        <ele>736.3</ele>
        <time>2021-07-19T09:36:31Z</time>
      </trkpt>
      <trkpt lat="45.88796" lon="3.01916">
        <ele>736.5</ele>
        <time>2021-07-19T09:36:35Z</time>
      </trkpt>
      <trkpt lat="45.888" lon="3.01902">
        <ele>736.4</ele>
        <time>2021-07-19T09:36:38Z</time>
      </trkpt>
      <trkpt lat="45.88806" lon="3.01891">
        <ele>736.5</ele>
        <time>2021-07-19T09:36:41Z</time>
      </trkpt>
      <trkpt lat="45.88813" lon="3.01882">
        <ele>736.7</ele>
        <time>2021-07-19T09:36:44Z</time>
      </trkpt>
      <trkpt lat="45.88821" lon="3.01869">
        <ele>737</ele>
        <time>2021-07-19T09:36:48Z</time>
      </trkpt>
      <trkpt lat="45.88827" lon="3.01859">
        <ele>737.4</ele>
        <time>2021-07-19T09:36:51Z</time>
      </trkpt>
      <trkpt lat="45.88834" lon="3.01848">
        <ele>737.8</ele>
        <time>2021-07-19T09:36:54Z</time>
      </trkpt>
      <trkpt lat="45.88839" lon="3.01834">
        <ele>738.1</ele>
        <time>2021-07-19T09:36:57Z</time>
      </trkpt>
      <trkpt lat="45.88843" lon="3.01822">
        <ele>738</ele>
        <time>2021-07-19T09:37:00Z</time>
      </trkpt>
      <trkpt lat="45.88848" lon="3.0181">
        <ele>737.9</ele>
        <time>2021-07-19T09:37:03Z</time>
      </trkpt>
      <trkpt lat="45.8885" lon="3.01796">
        <ele>737.8</ele>
        <time>2021-07-19T09:37:07Z</time>
      </trkpt>
      <trkpt lat="45.88841" lon="3.01782">
        <ele>737.5</ele>
        <time>2021-07-19T09:37:11Z</time>
      </trkpt>
      <trkpt lat="45.88835" lon="3.0177">
        <ele>737.3</ele>
        <time>2021-07-19T09:37:12Z</time>
      </trkpt>
      <trkpt lat="45.88826" lon="3.01759">
        <ele>736.4</ele>
        <time>2021-07-19T09:37:15Z</time>
      </trkpt>
      <trkpt lat="45.88819" lon="3.01749">
        <ele>735.6</ele>
        <time>2021-07-19T09:37:17Z</time>
      </trkpt>
      <trkpt lat="45.88812" lon="3.01738">
        <ele>734.7</ele>
        <time>2021-07-19T09:37:21Z</time>
      </trkpt>
      <trkpt lat="45.88808" lon="3.01721">
        <ele>734.1</ele>
        <time>2021-07-19T09:37:23Z</time>
      </trkpt>
      <trkpt lat="45.88801" lon="3.01707">
        <ele>733.3</ele>
        <time>2021-07-19T09:37:24Z</time>
      </trkpt>
      <trkpt lat="45.88796" lon="3.01695">
        <ele>732.9</ele>
        <time>2021-07-19T09:37:26Z</time>
      </trkpt>
      <trkpt lat="45.8879" lon="3.01683">
        <ele>732.5</ele>
        <time>2021-07-19T09:37:28Z</time>
      </trkpt>
      <trkpt lat="45.88782" lon="3.01673">
        <ele>732.1</ele>
        <time>2021-07-19T09:37:31Z</time>
      </trkpt>
      <trkpt lat="45.88775" lon="3.01664">
        <ele>731.6</ele>
        <time>2021-07-19T09:37:36Z</time>
      </trkpt>
      <trkpt lat="45.88764" lon="3.01662">
        <ele>731</ele>
        <time>2021-07-19T09:37:58Z</time>
      </trkpt>
      <trkpt lat="45.88753" lon="3.01662">
        <ele>730.6</ele>
        <time>2021-07-19T09:38:01Z</time>
      </trkpt>
      <trkpt lat="45.88741" lon="3.0166">
        <ele>729.8</ele>
        <time>2021-07-19T09:38:04Z</time>
      </trkpt>
      <trkpt lat="45.88731" lon="3.01657">
        <ele>728.9</ele>
        <time>2021-07-19T09:38:06Z</time>
      </trkpt>
      <trkpt lat="45.88721" lon="3.01654">
        <ele>728.2</ele>
        <time>2021-07-19T09:38:08Z</time>
      </trkpt>
      <trkpt lat="45.88712" lon="3.0165">
        <ele>727.4</ele>
        <time>2021-07-19T09:38:10Z</time>
      </trkpt>
      <trkpt lat="45.88702" lon="3.01646">
        <ele>726.6</ele>
        <time>2021-07-19T09:38:14Z</time>
      </trkpt>
      <trkpt lat="45.88694" lon="3.01637">
        <ele>725.6</ele>
        <time>2021-07-19T09:38:18Z</time>
      </trkpt>
      <trkpt lat="45.88702" lon="3.0163">
        <ele>725.4</ele>
        <time>2021-07-19T09:38:39Z</time>
      </trkpt>
      <trkpt lat="45.8871" lon="3.01625">
        <ele>725.3</ele>
        <time>2021-07-19T09:38:44Z</time>
      </trkpt>
      <trkpt lat="45.88721" lon="3.01622">
        <ele>725.4</ele>
        <time>2021-07-19T09:38:49Z</time>
      </trkpt>
      <trkpt lat="45.88732" lon="3.01623">
        <ele>725.8</ele>
        <time>2021-07-19T09:38:54Z</time>
      </trkpt>
      <trkpt lat="45.88742" lon="3.01626">
        <ele>726.4</ele>
        <time>2021-07-19T09:38:58Z</time>
      </trkpt>
      <trkpt lat="45.88752" lon="3.01631">
        <ele>727.2</ele>
        <time>2021-07-19T09:39:01Z</time>
      </trkpt>
      <trkpt lat="45.88762" lon="3.01631">
        <ele>727.4</ele>
        <time>2021-07-19T09:39:06Z</time>
      </trkpt>
      <trkpt lat="45.88772" lon="3.01632">
        <ele>727.7</ele>
        <time>2021-07-19T09:39:09Z</time>
      </trkpt>
      <trkpt lat="45.88783" lon="3.01636">
        <ele>728.4</ele>
        <time>2021-07-19T09:39:12Z</time>
      </trkpt>
      <trkpt lat="45.88793" lon="3.01638">
        <ele>728.9</ele>
        <time>2021-07-19T09:39:15Z</time>
      </trkpt>
      <trkpt lat="45.88802" lon="3.01637">
        <ele>729</ele>
        <time>2021-07-19T09:39:18Z</time>
      </trkpt>
      <trkpt lat="45.88813" lon="3.01636">
        <ele>729.1</ele>
        <time>2021-07-19T09:39:21Z</time>
      </trkpt>
      <trkpt lat="45.88822" lon="3.01632">
        <ele>728.8</ele>
        <time>2021-07-19T09:39:24Z</time>
      </trkpt>
      <trkpt lat="45.88832" lon="3.01629">
        <ele>728.5</ele>
        <time>2021-07-19T09:39:27Z</time>
      </trkpt>
      <trkpt lat="45.8884" lon="3.01625">
        <ele>728.4</ele>
        <time>2021-07-19T09:39:30Z</time>
      </trkpt>
      <trkpt lat="45.8885" lon="3.01623">
        <ele>728.8</ele>
        <time>2021-07-19T09:39:33Z</time>
      </trkpt>
      <trkpt lat="45.88859" lon="3.01622">
        <ele>729.3</ele>
        <time>2021-07-19T09:39:36Z</time>
      </trkpt>
      <trkpt lat="45.88868" lon="3.01621">
        <ele>729.9</ele>
        <time>2021-07-19T09:39:39Z</time>
      </trkpt>
      <trkpt lat="45.88879" lon="3.01618">
        <ele>730.3</ele>
        <time>2021-07-19T09:39:43Z</time>
      </trkpt>
      <trkpt lat="45.88888" lon="3.01616">
        <ele>730.8</ele>
        <time>2021-07-19T09:39:46Z</time>
      </trkpt>
      <trkpt lat="45.88899" lon="3.01613">
        <ele>731.4</ele>
        <time>2021-07-19T09:39:49Z</time>
      </trkpt>
      <trkpt lat="45.88912" lon="3.01612">
        <ele>732.4</ele>
        <time>2021-07-19T09:39:52Z</time>
      </trkpt>
      <trkpt lat="45.88922" lon="3.01611">
        <ele>733.3</ele>
        <time>2021-07-19T09:39:54Z</time>
      </trkpt>
      <trkpt lat="45.88931" lon="3.01609">
        <ele>734.2</ele>
        <time>2021-07-19T09:39:56Z</time>
      </trkpt>
      <trkpt lat="45.88945" lon="3.01602">
        <ele>735.5</ele>
        <time>2021-07-19T09:39:59Z</time>
      </trkpt>
      <trkpt lat="45.88955" lon="3.01596">
        <ele>736.5</ele>
        <time>2021-07-19T09:40:02Z</time>
      </trkpt>
      <trkpt lat="45.88967" lon="3.01591">
        <ele>737.8</ele>
        <time>2021-07-19T09:40:06Z</time>
      </trkpt>
      <trkpt lat="45.88976" lon="3.01586">
        <ele>738.9</ele>
        <time>2021-07-19T09:40:10Z</time>
      </trkpt>
      <trkpt lat="45.88984" lon="3.01579">
        <ele>739.8</ele>
        <time>2021-07-19T09:40:14Z</time>
      </trkpt>
      <trkpt lat="45.88989" lon="3.01565">
        <ele>740.4</ele>
        <time>2021-07-19T09:40:19Z</time>
      </trkpt>
      <trkpt lat="45.88992" lon="3.01551">
        <ele>740.6</ele>
        <time>2021-07-19T09:40:23Z</time>
      </trkpt>
      <trkpt lat="45.88996" lon="3.01535">
        <ele>740.9</ele>
        <time>2021-07-19T09:40:27Z</time>
      </trkpt>
      <trkpt lat="45.89" lon="3.01518">
        <ele>741.2</ele>
        <time>2021-07-19T09:40:30Z</time>
      </trkpt>
      <trkpt lat="45.89004" lon="3.01505">
        <ele>741.4</ele>
        <time>2021-07-19T09:40:34Z</time>
      </trkpt>
      <trkpt lat="45.89006" lon="3.0149">
        <ele>741.2</ele>
        <time>2021-07-19T09:40:38Z</time>
      </trkpt>
      <trkpt lat="45.89007" lon="3.01474">
        <ele>740.7</ele>
        <time>2021-07-19T09:40:42Z</time>
      </trkpt>
      <trkpt lat="45.89008" lon="3.0146">
        <ele>740.3</ele>
        <time>2021-07-19T09:40:46Z</time>
      </trkpt>
      <trkpt lat="45.89011" lon="3.01446">
        <ele>740.2</ele>
        <time>2021-07-19T09:40:50Z</time>
      </trkpt>
      <trkpt lat="45.89014" lon="3.01432">
        <ele>740</ele>
        <time>2021-07-19T09:40:54Z</time>
      </trkpt>
      <trkpt lat="45.89019" lon="3.01421">
        <ele>740.2</ele>
        <time>2021-07-19T09:40:58Z</time>
      </trkpt>
      <trkpt lat="45.89026" lon="3.01409">
        <ele>740.4</ele>
        <time>2021-07-19T09:41:03Z</time>
      </trkpt>
      <trkpt lat="45.89035" lon="3.01408">
        <ele>741.3</ele>
        <time>2021-07-19T09:43:08Z</time>
      </trkpt>
      <trkpt lat="45.8904" lon="3.01421">
        <ele>742.4</ele>
        <time>2021-07-19T09:43:14Z</time>
      </trkpt>
      <trkpt lat="45.89048" lon="3.01427">
        <ele>743.4</ele>
        <time>2021-07-19T09:43:23Z</time>
      </trkpt>
      <trkpt lat="45.8904" lon="3.01418">
        <ele>742.4</ele>
        <time>2021-07-19T09:43:45Z</time>
      </trkpt>
      <trkpt lat="45.89032" lon="3.01409">
        <ele>741.1</ele>
        <time>2021-07-19T09:43:50Z</time>
      </trkpt>
      <trkpt lat="45.8904" lon="3.01398">
        <ele>741.3</ele>
        <time>2021-07-19T09:43:56Z</time>
      </trkpt>
      <trkpt lat="45.89056" lon="3.01388">
        <ele>742.3</ele>
        <time>2021-07-19T09:43:59Z</time>
      </trkpt>
      <trkpt lat="45.89064" lon="3.0138">
        <ele>742.6</ele>
        <time>2021-07-19T09:44:01Z</time>
      </trkpt>
      <trkpt lat="45.89072" lon="3.01371">
        <ele>742.7</ele>
        <time>2021-07-19T09:44:03Z</time>
      </trkpt>
      <trkpt lat="45.89079" lon="3.0136">
        <ele>742.6</ele>
        <time>2021-07-19T09:44:05Z</time>
      </trkpt>
      <trkpt lat="45.89084" lon="3.01345">
        <ele>741.9</ele>
        <time>2021-07-19T09:44:08Z</time>
      </trkpt>
      <trkpt lat="45.89088" lon="3.01332">
        <ele>741.4</ele>
        <time>2021-07-19T09:44:11Z</time>
      </trkpt>
      <trkpt lat="45.89088" lon="3.01316">
        <ele>741.1</ele>
        <time>2021-07-19T09:44:14Z</time>
      </trkpt>
      <trkpt lat="45.89089" lon="3.01303">
        <ele>740.9</ele>
        <time>2021-07-19T09:44:18Z</time>
      </trkpt>
      <trkpt lat="45.89086" lon="3.01316">
        <ele>740.9</ele>
        <time>2021-07-19T09:44:31Z</time>
      </trkpt>
      <trkpt lat="45.89086" lon="3.01331">
        <ele>741.2</ele>
        <time>2021-07-19T09:44:36Z</time>
      </trkpt>
      <trkpt lat="45.89087" lon="3.01345">
        <ele>742.2</ele>
        <time>2021-07-19T09:44:40Z</time>
      </trkpt>
      <trkpt lat="45.89096" lon="3.01356">
        <ele>743.6</ele>
        <time>2021-07-19T09:44:45Z</time>
      </trkpt>
      <trkpt lat="45.89103" lon="3.01363">
        <ele>744.6</ele>
        <time>2021-07-19T09:44:49Z</time>
      </trkpt>
      <trkpt lat="45.89113" lon="3.01368">
        <ele>745.6</ele>
        <time>2021-07-19T09:44:54Z</time>
      </trkpt>
      <trkpt lat="45.89123" lon="3.01371">
        <ele>746.4</ele>
        <time>2021-07-19T09:45:00Z</time>
      </trkpt>
      <trkpt lat="45.89132" lon="3.01366">
        <ele>746.9</ele>
        <time>2021-07-19T09:45:06Z</time>
      </trkpt>
      <trkpt lat="45.8914" lon="3.01356">
        <ele>747.1</ele>
        <time>2021-07-19T09:45:11Z</time>
      </trkpt>
      <trkpt lat="45.89148" lon="3.01345">
        <ele>747.5</ele>
        <time>2021-07-19T09:45:16Z</time>
      </trkpt>
      <trkpt lat="45.89156" lon="3.01337">
        <ele>748</ele>
        <time>2021-07-19T09:45:21Z</time>
      </trkpt>
      <trkpt lat="45.89164" lon="3.01328">
        <ele>748.9</ele>
        <time>2021-07-19T09:45:26Z</time>
      </trkpt>
      <trkpt lat="45.89172" lon="3.01319">
        <ele>749.5</ele>
        <time>2021-07-19T09:45:32Z</time>
      </trkpt>
      <trkpt lat="45.8918" lon="3.01309">
        <ele>749.9</ele>
        <time>2021-07-19T09:45:38Z</time>
      </trkpt>
      <trkpt lat="45.89188" lon="3.01303">
        <ele>750.2</ele>
        <time>2021-07-19T09:45:43Z</time>
      </trkpt>
      <trkpt lat="45.89195" lon="3.01293">
        <ele>750.6</ele>
        <time>2021-07-19T09:45:49Z</time>
      </trkpt>
      <trkpt lat="45.89203" lon="3.01284">
        <ele>751.1</ele>
        <time>2021-07-19T09:45:54Z</time>
      </trkpt>
      <trkpt lat="45.89209" lon="3.0127">
        <ele>751.5</ele>
        <time>2021-07-19T09:45:59Z</time>
      </trkpt>
      <trkpt lat="45.89216" lon="3.01259">
        <ele>752</ele>
        <time>2021-07-19T09:46:40Z</time>
      </trkpt>
      <trkpt lat="45.89221" lon="3.01247">
        <ele>752.3</ele>
        <time>2021-07-19T09:46:43Z</time>
      </trkpt>
      <trkpt lat="45.89226" lon="3.0123">
        <ele>752.6</ele>
        <time>2021-07-19T09:46:46Z</time>
      </trkpt>
      <trkpt lat="45.89231" lon="3.01211">
        <ele>752.9</ele>
        <time>2021-07-19T09:46:49Z</time>
      </trkpt>
      <trkpt lat="45.8924" lon="3.01201">
        <ele>753.3</ele>
        <time>2021-07-19T09:46:52Z</time>
      </trkpt>
      <trkpt lat="45.89248" lon="3.0119">
        <ele>753.7</ele>
        <time>2021-07-19T09:46:55Z</time>
      </trkpt>
      <trkpt lat="45.89256" lon="3.01178">
        <ele>753.9</ele>
        <time>2021-07-19T09:46:58Z</time>
      </trkpt>
      <trkpt lat="45.89265" lon="3.01165">
        <ele>754</ele>
        <time>2021-07-19T09:47:01Z</time>
      </trkpt>
      <trkpt lat="45.89271" lon="3.01152">
        <ele>753.7</ele>
        <time>2021-07-19T09:47:04Z</time>
      </trkpt>
      <trkpt lat="45.89278" lon="3.01141">
        <ele>753.5</ele>
        <time>2021-07-19T09:47:07Z</time>
      </trkpt>
      <trkpt lat="45.89284" lon="3.01128">
        <ele>753.3</ele>
        <time>2021-07-19T09:47:10Z</time>
      </trkpt>
      <trkpt lat="45.8929" lon="3.01115">
        <ele>753.1</ele>
        <time>2021-07-19T09:47:13Z</time>
      </trkpt>
      <trkpt lat="45.89295" lon="3.01103">
        <ele>752.9</ele>
        <time>2021-07-19T09:47:16Z</time>
      </trkpt>
      <trkpt lat="45.893" lon="3.01092">
        <ele>752.7</ele>
        <time>2021-07-19T09:47:19Z</time>
      </trkpt>
      <trkpt lat="45.89305" lon="3.0108">
        <ele>752.7</ele>
        <time>2021-07-19T09:47:22Z</time>
      </trkpt>
      <trkpt lat="45.89309" lon="3.01069">
        <ele>752.8</ele>
        <time>2021-07-19T09:47:25Z</time>
      </trkpt>
      <trkpt lat="45.89315" lon="3.01054">
        <ele>753</ele>
        <time>2021-07-19T09:47:29Z</time>
      </trkpt>
      <trkpt lat="45.89322" lon="3.01039">
        <ele>753.3</ele>
        <time>2021-07-19T09:47:33Z</time>
      </trkpt>
      <trkpt lat="45.89327" lon="3.01029">
        <ele>753.5</ele>
        <time>2021-07-19T09:47:36Z</time>
      </trkpt>
      <trkpt lat="45.89332" lon="3.01018">
        <ele>753.7</ele>
        <time>2021-07-19T09:47:41Z</time>
      </trkpt>
      <trkpt lat="45.89338" lon="3.01007">
        <ele>754.2</ele>
        <time>2021-07-19T09:47:47Z</time>
      </trkpt>
      <trkpt lat="45.89342" lon="3.00995">
        <ele>754.6</ele>
        <time>2021-07-19T09:47:52Z</time>
      </trkpt>
      <trkpt lat="45.89348" lon="3.00983">
        <ele>755</ele>
        <time>2021-07-19T09:47:57Z</time>
      </trkpt>
      <trkpt lat="45.89355" lon="3.0097">
        <ele>755.6</ele>
        <time>2021-07-19T09:48:01Z</time>
      </trkpt>
      <trkpt lat="45.89363" lon="3.00957">
        <ele>756.1</ele>
        <time>2021-07-19T09:48:05Z</time>
      </trkpt>
      <trkpt lat="45.89369" lon="3.00946">
        <ele>756.5</ele>
        <time>2021-07-19T09:48:09Z</time>
      </trkpt>
      <trkpt lat="45.89375" lon="3.00934">
        <ele>756.9</ele>
        <time>2021-07-19T09:48:13Z</time>
      </trkpt>
      <trkpt lat="45.89382" lon="3.00922">
        <ele>757.3</ele>
        <time>2021-07-19T09:48:17Z</time>
      </trkpt>
      <trkpt lat="45.89389" lon="3.00911">
        <ele>757.8</ele>
        <time>2021-07-19T09:48:21Z</time>
      </trkpt>
      <trkpt lat="45.89396" lon="3.00899">
        <ele>758.5</ele>
        <time>2021-07-19T09:48:25Z</time>
      </trkpt>
      <trkpt lat="45.89401" lon="3.00887">
        <ele>759.2</ele>
        <time>2021-07-19T09:48:29Z</time>
      </trkpt>
      <trkpt lat="45.89406" lon="3.00874">
        <ele>759.9</ele>
        <time>2021-07-19T09:48:33Z</time>
      </trkpt>
      <trkpt lat="45.89412" lon="3.00861">
        <ele>760.7</ele>
        <time>2021-07-19T09:48:38Z</time>
      </trkpt>
      <trkpt lat="45.89417" lon="3.00847">
        <ele>761.5</ele>
        <time>2021-07-19T09:48:43Z</time>
      </trkpt>
      <trkpt lat="45.89424" lon="3.00839">
        <ele>762</ele>
        <time>2021-07-19T09:48:48Z</time>
      </trkpt>
      <trkpt lat="45.89432" lon="3.0083">
        <ele>762.5</ele>
        <time>2021-07-19T09:48:53Z</time>
      </trkpt>
      <trkpt lat="45.89439" lon="3.0082">
        <ele>763</ele>
        <time>2021-07-19T09:48:58Z</time>
      </trkpt>
      <trkpt lat="45.89443" lon="3.00809">
        <ele>763.5</ele>
        <time>2021-07-19T09:49:03Z</time>
      </trkpt>
      <trkpt lat="45.89449" lon="3.00798">
        <ele>764</ele>
        <time>2021-07-19T09:49:08Z</time>
      </trkpt>
      <trkpt lat="45.89456" lon="3.00787">
        <ele>764.6</ele>
        <time>2021-07-19T09:49:13Z</time>
      </trkpt>
      <trkpt lat="45.89464" lon="3.00777">
        <ele>765.2</ele>
        <time>2021-07-19T09:49:18Z</time>
      </trkpt>
      <trkpt lat="45.8947" lon="3.00766">
        <ele>765.7</ele>
        <time>2021-07-19T09:49:23Z</time>
      </trkpt>
      <trkpt lat="45.89477" lon="3.00755">
        <ele>766.3</ele>
        <time>2021-07-19T09:49:28Z</time>
      </trkpt>
      <trkpt lat="45.89483" lon="3.00746">
        <ele>766.6</ele>
        <time>2021-07-19T09:49:32Z</time>
      </trkpt>
      <trkpt lat="45.8949" lon="3.00733">
        <ele>767</ele>
        <time>2021-07-19T09:49:37Z</time>
      </trkpt>
      <trkpt lat="45.89498" lon="3.00723">
        <ele>767.3</ele>
        <time>2021-07-19T09:49:42Z</time>
      </trkpt>
      <trkpt lat="45.89507" lon="3.00716">
        <ele>767.5</ele>
        <time>2021-07-19T09:49:47Z</time>
      </trkpt>
      <trkpt lat="45.89515" lon="3.00712">
        <ele>767.7</ele>
        <time>2021-07-19T09:49:52Z</time>
      </trkpt>
      <trkpt lat="45.89524" lon="3.00705">
        <ele>768</ele>
        <time>2021-07-19T09:49:58Z</time>
      </trkpt>
      <trkpt lat="45.89534" lon="3.00697">
        <ele>768.3</ele>
        <time>2021-07-19T09:50:04Z</time>
      </trkpt>
      <trkpt lat="45.89542" lon="3.00691">
        <ele>768.6</ele>
        <time>2021-07-19T09:50:09Z</time>
      </trkpt>
      <trkpt lat="45.89551" lon="3.00684">
        <ele>768.9</ele>
        <time>2021-07-19T09:50:15Z</time>
      </trkpt>
      <trkpt lat="45.8956" lon="3.00677">
        <ele>769.2</ele>
        <time>2021-07-19T09:50:21Z</time>
      </trkpt>
      <trkpt lat="45.89569" lon="3.00672">
        <ele>769.5</ele>
        <time>2021-07-19T09:50:27Z</time>
      </trkpt>
      <trkpt lat="45.89577" lon="3.00665">
        <ele>769.9</ele>
        <time>2021-07-19T09:50:33Z</time>
      </trkpt>
      <trkpt lat="45.89585" lon="3.00656">
        <ele>770.1</ele>
        <time>2021-07-19T09:50:39Z</time>
      </trkpt>
      <trkpt lat="45.89592" lon="3.00647">
        <ele>770.2</ele>
        <time>2021-07-19T09:50:45Z</time>
      </trkpt>
      <trkpt lat="45.89598" lon="3.00634">
        <ele>770.4</ele>
        <time>2021-07-19T09:50:51Z</time>
      </trkpt>
      <trkpt lat="45.89603" lon="3.00621">
        <ele>770.6</ele>
        <time>2021-07-19T09:50:57Z</time>
      </trkpt>
      <trkpt lat="45.89609" lon="3.00609">
        <ele>770.8</ele>
        <time>2021-07-19T09:51:03Z</time>
      </trkpt>
      <trkpt lat="45.89613" lon="3.00597">
        <ele>771.1</ele>
        <time>2021-07-19T09:51:08Z</time>
      </trkpt>
      <trkpt lat="45.89618" lon="3.00584">
        <ele>771.4</ele>
        <time>2021-07-19T09:51:13Z</time>
      </trkpt>
      <trkpt lat="45.89623" lon="3.00571">
        <ele>771.7</ele>
        <time>2021-07-19T09:51:18Z</time>
      </trkpt>
      <trkpt lat="45.89629" lon="3.0056">
        <ele>772</ele>
        <time>2021-07-19T09:51:23Z</time>
      </trkpt>
      <trkpt lat="45.89635" lon="3.00547">
        <ele>772.3</ele>
        <time>2021-07-19T09:51:29Z</time>
      </trkpt>
      <trkpt lat="45.89639" lon="3.00534">
        <ele>772.7</ele>
        <time>2021-07-19T09:51:34Z</time>
      </trkpt>
      <trkpt lat="45.89642" lon="3.00522">
        <ele>773</ele>
        <time>2021-07-19T09:51:39Z</time>
      </trkpt>
      <trkpt lat="45.89647" lon="3.00508">
        <ele>773.4</ele>
        <time>2021-07-19T09:51:45Z</time>
      </trkpt>
      <trkpt lat="45.89652" lon="3.00497">
        <ele>773.6</ele>
        <time>2021-07-19T09:52:28Z</time>
      </trkpt>
      <trkpt lat="45.89656" lon="3.00484">
        <ele>773.7</ele>
        <time>2021-07-19T09:52:32Z</time>
      </trkpt>
      <trkpt lat="45.89662" lon="3.00472">
        <ele>773.9</ele>
        <time>2021-07-19T09:52:35Z</time>
      </trkpt>
      <trkpt lat="45.89668" lon="3.00459">
        <ele>773.9</ele>
        <time>2021-07-19T09:52:38Z</time>
      </trkpt>
      <trkpt lat="45.89675" lon="3.00444">
        <ele>773.7</ele>
        <time>2021-07-19T09:52:41Z</time>
      </trkpt>
      <trkpt lat="45.89679" lon="3.00432">
        <ele>773.5</ele>
        <time>2021-07-19T09:52:43Z</time>
      </trkpt>
      <trkpt lat="45.89685" lon="3.00422">
        <ele>773.3</ele>
        <time>2021-07-19T09:52:45Z</time>
      </trkpt>
      <trkpt lat="45.8969" lon="3.00409">
        <ele>772.9</ele>
        <time>2021-07-19T09:52:47Z</time>
      </trkpt>
      <trkpt lat="45.89696" lon="3.00399">
        <ele>772.4</ele>
        <time>2021-07-19T09:52:49Z</time>
      </trkpt>
      <trkpt lat="45.897" lon="3.00387">
        <ele>771.9</ele>
        <time>2021-07-19T09:52:51Z</time>
      </trkpt>
      <trkpt lat="45.89708" lon="3.00373">
        <ele>771.5</ele>
        <time>2021-07-19T09:52:54Z</time>
      </trkpt>
      <trkpt lat="45.89712" lon="3.00356">
        <ele>771</ele>
        <time>2021-07-19T09:52:57Z</time>
      </trkpt>
      <trkpt lat="45.89718" lon="3.00341">
        <ele>770.8</ele>
        <time>2021-07-19T09:53:00Z</time>
      </trkpt>
      <trkpt lat="45.89723" lon="3.00329">
        <ele>770.7</ele>
        <time>2021-07-19T09:53:04Z</time>
      </trkpt>
      <trkpt lat="45.89728" lon="3.00318">
        <ele>770.7</ele>
        <time>2021-07-19T09:53:08Z</time>
      </trkpt>
      <trkpt lat="45.89732" lon="3.00306">
        <ele>770.7</ele>
        <time>2021-07-19T09:53:11Z</time>
      </trkpt>
      <trkpt lat="45.89737" lon="3.00293">
        <ele>770.8</ele>
        <time>2021-07-19T09:53:14Z</time>
      </trkpt>
      <trkpt lat="45.89741" lon="3.00279">
        <ele>770.8</ele>
        <time>2021-07-19T09:53:17Z</time>
      </trkpt>
      <trkpt lat="45.89744" lon="3.00266">
        <ele>770.9</ele>
        <time>2021-07-19T09:53:20Z</time>
      </trkpt>
      <trkpt lat="45.8975" lon="3.0025">
        <ele>771</ele>
        <time>2021-07-19T09:53:24Z</time>
      </trkpt>
      <trkpt lat="45.89754" lon="3.00238">
        <ele>770.9</ele>
        <time>2021-07-19T09:53:27Z</time>
      </trkpt>
      <trkpt lat="45.8976" lon="3.00227">
        <ele>770.8</ele>
        <time>2021-07-19T09:53:30Z</time>
      </trkpt>
      <trkpt lat="45.89767" lon="3.00214">
        <ele>770.6</ele>
        <time>2021-07-19T09:53:34Z</time>
      </trkpt>
      <trkpt lat="45.89776" lon="3.00203">
        <ele>770.3</ele>
        <time>2021-07-19T09:53:38Z</time>
      </trkpt>
      <trkpt lat="45.89785" lon="3.00194">
        <ele>770</ele>
        <time>2021-07-19T09:53:42Z</time>
      </trkpt>
      <trkpt lat="45.89794" lon="3.00186">
        <ele>769.7</ele>
        <time>2021-07-19T09:53:47Z</time>
      </trkpt>
      <trkpt lat="45.89804" lon="3.00192">
        <ele>769.4</ele>
        <time>2021-07-19T09:54:35Z</time>
      </trkpt>
      <trkpt lat="45.89814" lon="3.00191">
        <ele>769.1</ele>
        <time>2021-07-19T09:54:38Z</time>
      </trkpt>
      <trkpt lat="45.89822" lon="3.00183">
        <ele>768.7</ele>
        <time>2021-07-19T09:54:42Z</time>
      </trkpt>
      <trkpt lat="45.89839" lon="3.00174">
        <ele>767.6</ele>
        <time>2021-07-19T09:54:44Z</time>
      </trkpt>
      <trkpt lat="45.89849" lon="3.00172">
        <ele>766.6</ele>
        <time>2021-07-19T09:54:46Z</time>
      </trkpt>
      <trkpt lat="45.89859" lon="3.00164">
        <ele>765.4</ele>
        <time>2021-07-19T09:54:49Z</time>
      </trkpt>
      <trkpt lat="45.89866" lon="3.00155">
        <ele>764.4</ele>
        <time>2021-07-19T09:54:53Z</time>
      </trkpt>
      <trkpt lat="45.89876" lon="3.00148">
        <ele>763.1</ele>
        <time>2021-07-19T09:54:57Z</time>
      </trkpt>
      <trkpt lat="45.89889" lon="3.0014">
        <ele>761.4</ele>
        <time>2021-07-19T09:54:59Z</time>
      </trkpt>
      <trkpt lat="45.89906" lon="3.00126">
        <ele>758.8</ele>
        <time>2021-07-19T09:55:01Z</time>
      </trkpt>
      <trkpt lat="45.89918" lon="3.00119">
        <ele>757</ele>
        <time>2021-07-19T09:55:02Z</time>
      </trkpt>
      <trkpt lat="45.89931" lon="3.00112">
        <ele>755.6</ele>
        <time>2021-07-19T09:55:04Z</time>
      </trkpt>
      <trkpt lat="45.89943" lon="3.00103">
        <ele>754.5</ele>
        <time>2021-07-19T09:55:06Z</time>
      </trkpt>
      <trkpt lat="45.89956" lon="3.00095">
        <ele>753.6</ele>
        <time>2021-07-19T09:55:08Z</time>
      </trkpt>
      <trkpt lat="45.89968" lon="3.00085">
        <ele>753.1</ele>
        <time>2021-07-19T09:55:10Z</time>
      </trkpt>
      <trkpt lat="45.89983" lon="3.00082">
        <ele>752.7</ele>
        <time>2021-07-19T09:55:12Z</time>
      </trkpt>
      <trkpt lat="45.89998" lon="3.00086">
        <ele>751.9</ele>
        <time>2021-07-19T09:55:14Z</time>
      </trkpt>
      <trkpt lat="45.90012" lon="3.0009">
        <ele>750.9</ele>
        <time>2021-07-19T09:55:16Z</time>
      </trkpt>
      <trkpt lat="45.90024" lon="3.00099">
        <ele>749.6</ele>
        <time>2021-07-19T09:55:18Z</time>
      </trkpt>
      <trkpt lat="45.90034" lon="3.00104">
        <ele>748.6</ele>
        <time>2021-07-19T09:55:20Z</time>
      </trkpt>
      <trkpt lat="45.90042" lon="3.00114">
        <ele>747.5</ele>
        <time>2021-07-19T09:55:22Z</time>
      </trkpt>
      <trkpt lat="45.90054" lon="3.00119">
        <ele>746.3</ele>
        <time>2021-07-19T09:55:24Z</time>
      </trkpt>
      <trkpt lat="45.90067" lon="3.00122">
        <ele>745.3</ele>
        <time>2021-07-19T09:55:26Z</time>
      </trkpt>
      <trkpt lat="45.90078" lon="3.00123">
        <ele>744.5</ele>
        <time>2021-07-19T09:55:28Z</time>
      </trkpt>
      <trkpt lat="45.90091" lon="3.00121">
        <ele>743.7</ele>
        <time>2021-07-19T09:55:30Z</time>
      </trkpt>
      <trkpt lat="45.90106" lon="3.00121">
        <ele>742.5</ele>
        <time>2021-07-19T09:55:32Z</time>
      </trkpt>
      <trkpt lat="45.9012" lon="3.00116">
        <ele>741.7</ele>
        <time>2021-07-19T09:55:34Z</time>
      </trkpt>
      <trkpt lat="45.90133" lon="3.00113">
        <ele>740.9</ele>
        <time>2021-07-19T09:55:36Z</time>
      </trkpt>
      <trkpt lat="45.90145" lon="3.0011">
        <ele>740.1</ele>
        <time>2021-07-19T09:55:38Z</time>
      </trkpt>
      <trkpt lat="45.90156" lon="3.00107">
        <ele>739.4</ele>
        <time>2021-07-19T09:55:40Z</time>
      </trkpt>
      <trkpt lat="45.90168" lon="3.00104">
        <ele>738.7</ele>
        <time>2021-07-19T09:55:42Z</time>
      </trkpt>
      <trkpt lat="45.90182" lon="3.00102">
        <ele>737.9</ele>
        <time>2021-07-19T09:55:44Z</time>
      </trkpt>
      <trkpt lat="45.90197" lon="3.001">
        <ele>737.1</ele>
        <time>2021-07-19T09:55:46Z</time>
      </trkpt>
      <trkpt lat="45.90208" lon="3.00099">
        <ele>736.5</ele>
        <time>2021-07-19T09:55:48Z</time>
      </trkpt>
      <trkpt lat="45.90218" lon="3.00096">
        <ele>735.9</ele>
        <time>2021-07-19T09:55:50Z</time>
      </trkpt>
      <trkpt lat="45.90229" lon="3.00094">
        <ele>735.3</ele>
        <time>2021-07-19T09:55:52Z</time>
      </trkpt>
      <trkpt lat="45.90239" lon="3.00092">
        <ele>734.6</ele>
        <time>2021-07-19T09:55:54Z</time>
      </trkpt>
      <trkpt lat="45.90249" lon="3.00089">
        <ele>734</ele>
        <time>2021-07-19T09:55:56Z</time>
      </trkpt>
      <trkpt lat="45.9026" lon="3.00087">
        <ele>733.7</ele>
        <time>2021-07-19T09:55:58Z</time>
      </trkpt>
      <trkpt lat="45.90272" lon="3.00083">
        <ele>733.5</ele>
        <time>2021-07-19T09:56:00Z</time>
      </trkpt>
      <trkpt lat="45.90282" lon="3.00082">
        <ele>733.3</ele>
        <time>2021-07-19T09:56:02Z</time>
      </trkpt>
      <trkpt lat="45.9029" lon="3.00076">
        <ele>733.2</ele>
        <time>2021-07-19T09:56:04Z</time>
      </trkpt>
      <trkpt lat="45.90301" lon="3.00069">
        <ele>733</ele>
        <time>2021-07-19T09:56:06Z</time>
      </trkpt>
      <trkpt lat="45.9031" lon="3.00057">
        <ele>732.9</ele>
        <time>2021-07-19T09:56:09Z</time>
      </trkpt>
      <trkpt lat="45.90319" lon="3.00052">
        <ele>732.6</ele>
        <time>2021-07-19T09:56:11Z</time>
      </trkpt>
      <trkpt lat="45.90325" lon="3.00041">
        <ele>732.4</ele>
        <time>2021-07-19T09:56:13Z</time>
      </trkpt>
      <trkpt lat="45.90329" lon="3.00025">
        <ele>732.2</ele>
        <time>2021-07-19T09:56:16Z</time>
      </trkpt>
      <trkpt lat="45.90336" lon="3.0001">
        <ele>731.7</ele>
        <time>2021-07-19T09:56:19Z</time>
      </trkpt>
      <trkpt lat="45.90343" lon="3.00001">
        <ele>731</ele>
        <time>2021-07-19T09:56:21Z</time>
      </trkpt>
      <trkpt lat="45.90351" lon="2.99992">
        <ele>730.2</ele>
        <time>2021-07-19T09:56:23Z</time>
      </trkpt>
      <trkpt lat="45.90359" lon="2.9998">
        <ele>729.5</ele>
        <time>2021-07-19T09:56:25Z</time>
      </trkpt>
      <trkpt lat="45.90366" lon="2.99968">
        <ele>728.9</ele>
        <time>2021-07-19T09:56:27Z</time>
      </trkpt>
      <trkpt lat="45.90371" lon="2.99953">
        <ele>728.5</ele>
        <time>2021-07-19T09:56:29Z</time>
      </trkpt>
      <trkpt lat="45.90376" lon="2.99938">
        <ele>728.1</ele>
        <time>2021-07-19T09:56:31Z</time>
      </trkpt>
      <trkpt lat="45.90381" lon="2.99922">
        <ele>727.8</ele>
        <time>2021-07-19T09:56:33Z</time>
      </trkpt>
      <trkpt lat="45.90386" lon="2.9991">
        <ele>727.6</ele>
        <time>2021-07-19T09:56:35Z</time>
      </trkpt>
      <trkpt lat="45.90394" lon="2.999">
        <ele>727.1</ele>
        <time>2021-07-19T09:56:37Z</time>
      </trkpt>
      <trkpt lat="45.904" lon="2.99889">
        <ele>727</ele>
        <time>2021-07-19T09:56:39Z</time>
      </trkpt>
      <trkpt lat="45.90407" lon="2.99878">
        <ele>726.8</ele>
        <time>2021-07-19T09:56:41Z</time>
      </trkpt>
      <trkpt lat="45.90412" lon="2.99866">
        <ele>726.9</ele>
        <time>2021-07-19T09:56:43Z</time>
      </trkpt>
      <trkpt lat="45.90419" lon="2.99856">
        <ele>726.7</ele>
        <time>2021-07-19T09:56:45Z</time>
      </trkpt>
      <trkpt lat="45.90427" lon="2.99845">
        <ele>726.3</ele>
        <time>2021-07-19T09:56:47Z</time>
      </trkpt>
      <trkpt lat="45.90434" lon="2.99833">
        <ele>726.2</ele>
        <time>2021-07-19T09:56:50Z</time>
      </trkpt>
      <trkpt lat="45.90438" lon="2.99821">
        <ele>726.8</ele>
        <time>2021-07-19T09:56:54Z</time>
      </trkpt>
      <trkpt lat="45.90443" lon="2.99806">
        <ele>727.4</ele>
        <time>2021-07-19T09:56:57Z</time>
      </trkpt>
      <trkpt lat="45.90447" lon="2.99793">
        <ele>727.8</ele>
        <time>2021-07-19T09:56:59Z</time>
      </trkpt>
      <trkpt lat="45.9045" lon="2.99778">
        <ele>728.5</ele>
        <time>2021-07-19T09:57:02Z</time>
      </trkpt>
      <trkpt lat="45.90453" lon="2.99764">
        <ele>729</ele>
        <time>2021-07-19T09:57:04Z</time>
      </trkpt>
      <trkpt lat="45.90457" lon="2.99748">
        <ele>729.3</ele>
        <time>2021-07-19T09:57:06Z</time>
      </trkpt>
      <trkpt lat="45.90465" lon="2.99733">
        <ele>727.8</ele>
        <time>2021-07-19T09:57:08Z</time>
      </trkpt>
      <trkpt lat="45.90475" lon="2.99716">
        <ele>726.1</ele>
        <time>2021-07-19T09:57:10Z</time>
      </trkpt>
      <trkpt lat="45.90485" lon="2.99702">
        <ele>724.4</ele>
        <time>2021-07-19T09:57:12Z</time>
      </trkpt>
      <trkpt lat="45.90495" lon="2.99688">
        <ele>722.7</ele>
        <time>2021-07-19T09:57:13Z</time>
      </trkpt>
      <trkpt lat="45.90499" lon="2.99675">
        <ele>722.1</ele>
        <time>2021-07-19T09:57:15Z</time>
      </trkpt>
      <trkpt lat="45.905" lon="2.99656">
        <ele>722.1</ele>
        <time>2021-07-19T09:57:17Z</time>
      </trkpt>
      <trkpt lat="45.90504" lon="2.99639">
        <ele>722.2</ele>
        <time>2021-07-19T09:57:19Z</time>
      </trkpt>
      <trkpt lat="45.90503" lon="2.99625">
        <ele>722.4</ele>
        <time>2021-07-19T09:57:22Z</time>
      </trkpt>
      <trkpt lat="45.90497" lon="2.99615">
        <ele>723.1</ele>
        <time>2021-07-19T09:57:27Z</time>
      </trkpt>
      <trkpt lat="45.9049" lon="2.99602">
        <ele>724.2</ele>
        <time>2021-07-19T09:57:32Z</time>
      </trkpt>
      <trkpt lat="45.90486" lon="2.9959">
        <ele>724.8</ele>
        <time>2021-07-19T09:57:36Z</time>
      </trkpt>
      <trkpt lat="45.90481" lon="2.99577">
        <ele>725.6</ele>
        <time>2021-07-19T09:57:40Z</time>
      </trkpt>
      <trkpt lat="45.90478" lon="2.99565">
        <ele>726</ele>
        <time>2021-07-19T09:57:44Z</time>
      </trkpt>
      <trkpt lat="45.90473" lon="2.99554">
        <ele>726.6</ele>
        <time>2021-07-19T09:57:48Z</time>
      </trkpt>
      <trkpt lat="45.90469" lon="2.99542">
        <ele>727</ele>
        <time>2021-07-19T09:57:52Z</time>
      </trkpt>
      <trkpt lat="45.90465" lon="2.99528">
        <ele>727.3</ele>
        <time>2021-07-19T09:57:57Z</time>
      </trkpt>
      <trkpt lat="45.90466" lon="2.99515">
        <ele>727.1</ele>
        <time>2021-07-19T09:58:02Z</time>
      </trkpt>
      <trkpt lat="45.90466" lon="2.99502">
        <ele>727.1</ele>
        <time>2021-07-19T09:58:52Z</time>
      </trkpt>
      <trkpt lat="45.90458" lon="2.99496">
        <ele>727.5</ele>
        <time>2021-07-19T09:58:56Z</time>
      </trkpt>
      <trkpt lat="45.90449" lon="2.9949">
        <ele>728</ele>
        <time>2021-07-19T09:59:01Z</time>
      </trkpt>
      <trkpt lat="45.9044" lon="2.99485">
        <ele>728.5</ele>
        <time>2021-07-19T09:59:06Z</time>
      </trkpt>
      <trkpt lat="45.90429" lon="2.9948">
        <ele>729.1</ele>
        <time>2021-07-19T09:59:10Z</time>
      </trkpt>
      <trkpt lat="45.90419" lon="2.99477">
        <ele>729.6</ele>
        <time>2021-07-19T09:59:14Z</time>
      </trkpt>
      <trkpt lat="45.90409" lon="2.99472">
        <ele>730.1</ele>
        <time>2021-07-19T09:59:18Z</time>
      </trkpt>
      <trkpt lat="45.904" lon="2.99467">
        <ele>730.4</ele>
        <time>2021-07-19T09:59:22Z</time>
      </trkpt>
      <trkpt lat="45.90406" lon="2.99478">
        <ele>730.3</ele>
        <time>2021-07-19T09:59:31Z</time>
      </trkpt>
      <trkpt lat="45.90417" lon="2.99483">
        <ele>729.8</ele>
        <time>2021-07-19T09:59:34Z</time>
      </trkpt>
      <trkpt lat="45.90429" lon="2.99487">
        <ele>729.2</ele>
        <time>2021-07-19T09:59:37Z</time>
      </trkpt>
      <trkpt lat="45.90439" lon="2.9949">
        <ele>728.6</ele>
        <time>2021-07-19T09:59:40Z</time>
      </trkpt>
      <trkpt lat="45.90449" lon="2.99495">
        <ele>728</ele>
        <time>2021-07-19T09:59:45Z</time>
      </trkpt>
      <trkpt lat="45.90459" lon="2.995">
        <ele>727.5</ele>
        <time>2021-07-19T09:59:51Z</time>
      </trkpt>
      <trkpt lat="45.90467" lon="2.99507">
        <ele>727</ele>
        <time>2021-07-19T10:00:00Z</time>
      </trkpt>
      <trkpt lat="45.90478" lon="2.99519">
        <ele>726.2</ele>
        <time>2021-07-19T10:00:03Z</time>
      </trkpt>
      <trkpt lat="45.90489" lon="2.99531">
        <ele>725.2</ele>
        <time>2021-07-19T10:00:05Z</time>
      </trkpt>
      <trkpt lat="45.90497" lon="2.99542">
        <ele>724.3</ele>
        <time>2021-07-19T10:00:07Z</time>
      </trkpt>
      <trkpt lat="45.90506" lon="2.99555">
        <ele>723.5</ele>
        <time>2021-07-19T10:00:09Z</time>
      </trkpt>
      <trkpt lat="45.90516" lon="2.99567">
        <ele>722.9</ele>
        <time>2021-07-19T10:00:11Z</time>
      </trkpt>
      <trkpt lat="45.90524" lon="2.99579">
        <ele>722.3</ele>
        <time>2021-07-19T10:00:13Z</time>
      </trkpt>
      <trkpt lat="45.90533" lon="2.99591">
        <ele>721.8</ele>
        <time>2021-07-19T10:00:15Z</time>
      </trkpt>
      <trkpt lat="45.90541" lon="2.99603">
        <ele>721.4</ele>
        <time>2021-07-19T10:00:17Z</time>
      </trkpt>
      <trkpt lat="45.90547" lon="2.99614">
        <ele>721.1</ele>
        <time>2021-07-19T10:00:19Z</time>
      </trkpt>
      <trkpt lat="45.90554" lon="2.99626">
        <ele>720.9</ele>
        <time>2021-07-19T10:00:22Z</time>
      </trkpt>
      <trkpt lat="45.90561" lon="2.99613">
        <ele>720.7</ele>
        <time>2021-07-19T10:00:27Z</time>
      </trkpt>
      <trkpt lat="45.9056" lon="2.99598">
        <ele>720.8</ele>
        <time>2021-07-19T10:00:30Z</time>
      </trkpt>
      <trkpt lat="45.90558" lon="2.99582">
        <ele>721</ele>
        <time>2021-07-19T10:00:33Z</time>
      </trkpt>
      <trkpt lat="45.90556" lon="2.99568">
        <ele>721.5</ele>
        <time>2021-07-19T10:00:36Z</time>
      </trkpt>
      <trkpt lat="45.90555" lon="2.99555">
        <ele>721.9</ele>
        <time>2021-07-19T10:00:39Z</time>
      </trkpt>
      <trkpt lat="45.90554" lon="2.99541">
        <ele>722.4</ele>
        <time>2021-07-19T10:00:43Z</time>
      </trkpt>
      <trkpt lat="45.9055" lon="2.99529">
        <ele>722.9</ele>
        <time>2021-07-19T10:05:30Z</time>
      </trkpt>
      <trkpt lat="45.90544" lon="2.99516">
        <ele>723.5</ele>
        <time>2021-07-19T10:05:33Z</time>
      </trkpt>
      <trkpt lat="45.90536" lon="2.99506">
        <ele>724</ele>
        <time>2021-07-19T10:05:37Z</time>
      </trkpt>
      <trkpt lat="45.90528" lon="2.99492">
        <ele>724.5</ele>
        <time>2021-07-19T10:05:41Z</time>
      </trkpt>
      <trkpt lat="45.90522" lon="2.9948">
        <ele>724.8</ele>
        <time>2021-07-19T10:05:44Z</time>
      </trkpt>
      <trkpt lat="45.90515" lon="2.9947">
        <ele>725.1</ele>
        <time>2021-07-19T10:05:48Z</time>
      </trkpt>
      <trkpt lat="45.9051" lon="2.99455">
        <ele>725.4</ele>
        <time>2021-07-19T10:05:53Z</time>
      </trkpt>
      <trkpt lat="45.90506" lon="2.99442">
        <ele>725.7</ele>
        <time>2021-07-19T10:05:59Z</time>
      </trkpt>
      <trkpt lat="45.905" lon="2.99429">
        <ele>725.9</ele>
        <time>2021-07-19T10:06:05Z</time>
      </trkpt>
      <trkpt lat="45.90493" lon="2.99419">
        <ele>726.2</ele>
        <time>2021-07-19T10:06:11Z</time>
      </trkpt>
      <trkpt lat="45.90487" lon="2.99409">
        <ele>726.7</ele>
        <time>2021-07-19T10:06:18Z</time>
      </trkpt>
      <trkpt lat="45.9048" lon="2.99401">
        <ele>727.2</ele>
        <time>2021-07-19T10:06:26Z</time>
      </trkpt>
      <trkpt lat="45.90472" lon="2.99394">
        <ele>727.8</ele>
        <time>2021-07-19T10:06:33Z</time>
      </trkpt>
      <trkpt lat="45.90465" lon="2.99384">
        <ele>728.5</ele>
        <time>2021-07-19T10:06:41Z</time>
      </trkpt>
      <trkpt lat="45.90459" lon="2.99375">
        <ele>729.2</ele>
        <time>2021-07-19T10:06:48Z</time>
      </trkpt>
      <trkpt lat="45.90454" lon="2.99362">
        <ele>730.1</ele>
        <time>2021-07-19T10:06:55Z</time>
      </trkpt>
      <trkpt lat="45.90448" lon="2.99353">
        <ele>730.8</ele>
        <time>2021-07-19T10:07:02Z</time>
      </trkpt>
      <trkpt lat="45.90439" lon="2.99346">
        <ele>731.8</ele>
        <time>2021-07-19T10:07:09Z</time>
      </trkpt>
      <trkpt lat="45.90433" lon="2.99337">
        <ele>732.6</ele>
        <time>2021-07-19T10:07:16Z</time>
      </trkpt>
      <trkpt lat="45.90428" lon="2.99324">
        <ele>733.7</ele>
        <time>2021-07-19T10:07:23Z</time>
      </trkpt>
      <trkpt lat="45.90423" lon="2.9931">
        <ele>734.9</ele>
        <time>2021-07-19T10:07:29Z</time>
      </trkpt>
      <trkpt lat="45.90418" lon="2.99297">
        <ele>736.1</ele>
        <time>2021-07-19T10:07:35Z</time>
      </trkpt>
      <trkpt lat="45.90412" lon="2.99287">
        <ele>736.8</ele>
        <time>2021-07-19T10:07:41Z</time>
      </trkpt>
      <trkpt lat="45.90408" lon="2.99274">
        <ele>737.6</ele>
        <time>2021-07-19T10:07:47Z</time>
      </trkpt>
      <trkpt lat="45.90406" lon="2.99262">
        <ele>738.4</ele>
        <time>2021-07-19T10:07:53Z</time>
      </trkpt>
      <trkpt lat="45.90401" lon="2.99249">
        <ele>739.2</ele>
        <time>2021-07-19T10:07:59Z</time>
      </trkpt>
      <trkpt lat="45.90398" lon="2.99235">
        <ele>739.7</ele>
        <time>2021-07-19T10:08:04Z</time>
      </trkpt>
      <trkpt lat="45.90394" lon="2.99222">
        <ele>740.2</ele>
        <time>2021-07-19T10:08:09Z</time>
      </trkpt>
      <trkpt lat="45.90391" lon="2.99208">
        <ele>740.8</ele>
        <time>2021-07-19T10:08:14Z</time>
      </trkpt>
      <trkpt lat="45.90388" lon="2.99194">
        <ele>741.4</ele>
        <time>2021-07-19T10:08:20Z</time>
      </trkpt>
      <trkpt lat="45.90384" lon="2.99182">
        <ele>742</ele>
        <time>2021-07-19T10:08:24Z</time>
      </trkpt>
      <trkpt lat="45.9038" lon="2.9917">
        <ele>742.6</ele>
        <time>2021-07-19T10:08:28Z</time>
      </trkpt>
      <trkpt lat="45.90377" lon="2.99158">
        <ele>743.2</ele>
        <time>2021-07-19T10:08:32Z</time>
      </trkpt>
      <trkpt lat="45.90373" lon="2.99145">
        <ele>743.8</ele>
        <time>2021-07-19T10:08:36Z</time>
      </trkpt>
      <trkpt lat="45.90369" lon="2.99132">
        <ele>744.4</ele>
        <time>2021-07-19T10:08:41Z</time>
      </trkpt>
      <trkpt lat="45.90363" lon="2.99117">
        <ele>745.2</ele>
        <time>2021-07-19T10:08:46Z</time>
      </trkpt>
      <trkpt lat="45.90359" lon="2.99104">
        <ele>745.8</ele>
        <time>2021-07-19T10:08:51Z</time>
      </trkpt>
      <trkpt lat="45.90352" lon="2.99093">
        <ele>746.6</ele>
        <time>2021-07-19T10:08:57Z</time>
      </trkpt>
      <trkpt lat="45.90348" lon="2.99081">
        <ele>747.1</ele>
        <time>2021-07-19T10:09:04Z</time>
      </trkpt>
      <trkpt lat="45.90343" lon="2.99069">
        <ele>747.6</ele>
        <time>2021-07-19T10:09:09Z</time>
      </trkpt>
      <trkpt lat="45.90336" lon="2.99059">
        <ele>748.1</ele>
        <time>2021-07-19T10:09:14Z</time>
      </trkpt>
      <trkpt lat="45.9033" lon="2.99048">
        <ele>748.6</ele>
        <time>2021-07-19T10:09:19Z</time>
      </trkpt>
      <trkpt lat="45.90323" lon="2.99036">
        <ele>749.2</ele>
        <time>2021-07-19T10:09:24Z</time>
      </trkpt>
      <trkpt lat="45.90317" lon="2.99026">
        <ele>749.7</ele>
        <time>2021-07-19T10:09:29Z</time>
      </trkpt>
      <trkpt lat="45.90311" lon="2.99012">
        <ele>750.2</ele>
        <time>2021-07-19T10:09:35Z</time>
      </trkpt>
      <trkpt lat="45.90306" lon="2.99001">
        <ele>750.6</ele>
        <time>2021-07-19T10:09:39Z</time>
      </trkpt>
      <trkpt lat="45.90299" lon="2.98989">
        <ele>751.3</ele>
        <time>2021-07-19T10:09:44Z</time>
      </trkpt>
      <trkpt lat="45.90295" lon="2.98975">
        <ele>751.9</ele>
        <time>2021-07-19T10:09:49Z</time>
      </trkpt>
      <trkpt lat="45.90291" lon="2.98962">
        <ele>752.5</ele>
        <time>2021-07-19T10:09:54Z</time>
      </trkpt>
      <trkpt lat="45.90287" lon="2.98949">
        <ele>753</ele>
        <time>2021-07-19T10:09:58Z</time>
      </trkpt>
      <trkpt lat="45.90283" lon="2.98936">
        <ele>753.6</ele>
        <time>2021-07-19T10:10:02Z</time>
      </trkpt>
      <trkpt lat="45.90279" lon="2.98923">
        <ele>754.1</ele>
        <time>2021-07-19T10:10:06Z</time>
      </trkpt>
      <trkpt lat="45.90278" lon="2.98908">
        <ele>754.8</ele>
        <time>2021-07-19T10:10:11Z</time>
      </trkpt>
      <trkpt lat="45.90276" lon="2.98896">
        <ele>755.6</ele>
        <time>2021-07-19T10:10:15Z</time>
      </trkpt>
      <trkpt lat="45.90274" lon="2.98881">
        <ele>756.6</ele>
        <time>2021-07-19T10:10:20Z</time>
      </trkpt>
      <trkpt lat="45.90272" lon="2.98868">
        <ele>757.4</ele>
        <time>2021-07-19T10:10:24Z</time>
      </trkpt>
      <trkpt lat="45.90269" lon="2.98856">
        <ele>758.3</ele>
        <time>2021-07-19T10:10:28Z</time>
      </trkpt>
      <trkpt lat="45.90267" lon="2.98843">
        <ele>759.2</ele>
        <time>2021-07-19T10:10:32Z</time>
      </trkpt>
      <trkpt lat="45.90266" lon="2.98826">
        <ele>760</ele>
        <time>2021-07-19T10:10:37Z</time>
      </trkpt>
      <trkpt lat="45.90265" lon="2.98812">
        <ele>760.4</ele>
        <time>2021-07-19T10:10:41Z</time>
      </trkpt>
      <trkpt lat="45.90262" lon="2.98798">
        <ele>761</ele>
        <time>2021-07-19T10:10:45Z</time>
      </trkpt>
      <trkpt lat="45.9026" lon="2.98785">
        <ele>761.4</ele>
        <time>2021-07-19T10:10:49Z</time>
      </trkpt>
      <trkpt lat="45.90256" lon="2.98771">
        <ele>762.1</ele>
        <time>2021-07-19T10:10:54Z</time>
      </trkpt>
      <trkpt lat="45.90251" lon="2.98757">
        <ele>762.8</ele>
        <time>2021-07-19T10:11:00Z</time>
      </trkpt>
      <trkpt lat="45.90247" lon="2.98745">
        <ele>763.2</ele>
        <time>2021-07-19T10:11:06Z</time>
      </trkpt>
      <trkpt lat="45.90242" lon="2.98731">
        <ele>763.6</ele>
        <time>2021-07-19T10:11:11Z</time>
      </trkpt>
      <trkpt lat="45.90238" lon="2.98718">
        <ele>763.9</ele>
        <time>2021-07-19T10:11:16Z</time>
      </trkpt>
      <trkpt lat="45.90235" lon="2.98704">
        <ele>764.3</ele>
        <time>2021-07-19T10:11:21Z</time>
      </trkpt>
      <trkpt lat="45.90237" lon="2.98692">
        <ele>764.4</ele>
        <time>2021-07-19T10:11:25Z</time>
      </trkpt>
      <trkpt lat="45.90237" lon="2.98678">
        <ele>764.6</ele>
        <time>2021-07-19T10:12:26Z</time>
      </trkpt>
      <trkpt lat="45.90239" lon="2.98663">
        <ele>764.8</ele>
        <time>2021-07-19T10:12:44Z</time>
      </trkpt>
      <trkpt lat="45.90243" lon="2.9865">
        <ele>765.1</ele>
        <time>2021-07-19T10:12:48Z</time>
      </trkpt>
      <trkpt lat="45.90248" lon="2.98639">
        <ele>765.1</ele>
        <time>2021-07-19T10:12:51Z</time>
      </trkpt>
      <trkpt lat="45.90253" lon="2.98627">
        <ele>765.2</ele>
        <time>2021-07-19T10:12:54Z</time>
      </trkpt>
      <trkpt lat="45.90258" lon="2.98614">
        <ele>765.2</ele>
        <time>2021-07-19T10:12:57Z</time>
      </trkpt>
      <trkpt lat="45.90264" lon="2.986">
        <ele>765.2</ele>
        <time>2021-07-19T10:13:00Z</time>
      </trkpt>
      <trkpt lat="45.90272" lon="2.98586">
        <ele>765</ele>
        <time>2021-07-19T10:13:03Z</time>
      </trkpt>
      <trkpt lat="45.9028" lon="2.98576">
        <ele>764.7</ele>
        <time>2021-07-19T10:13:05Z</time>
      </trkpt>
      <trkpt lat="45.90291" lon="2.98564">
        <ele>764.1</ele>
        <time>2021-07-19T10:13:08Z</time>
      </trkpt>
      <trkpt lat="45.90299" lon="2.98557">
        <ele>763.7</ele>
        <time>2021-07-19T10:13:10Z</time>
      </trkpt>
      <trkpt lat="45.90311" lon="2.9855">
        <ele>763</ele>
        <time>2021-07-19T10:13:13Z</time>
      </trkpt>
      <trkpt lat="45.90321" lon="2.98541">
        <ele>762.5</ele>
        <time>2021-07-19T10:13:17Z</time>
      </trkpt>
      <trkpt lat="45.90326" lon="2.98531">
        <ele>762.4</ele>
        <time>2021-07-19T10:13:20Z</time>
      </trkpt>
      <trkpt lat="45.90332" lon="2.9852">
        <ele>762.4</ele>
        <time>2021-07-19T10:13:26Z</time>
      </trkpt>
      <trkpt lat="45.90334" lon="2.98506">
        <ele>762.7</ele>
        <time>2021-07-19T10:13:51Z</time>
      </trkpt>
      <trkpt lat="45.90337" lon="2.98492">
        <ele>762.9</ele>
        <time>2021-07-19T10:13:55Z</time>
      </trkpt>
      <trkpt lat="45.90348" lon="2.98486">
        <ele>762.2</ele>
        <time>2021-07-19T10:14:00Z</time>
      </trkpt>
      <trkpt lat="45.90357" lon="2.98486">
        <ele>761.5</ele>
        <time>2021-07-19T10:14:04Z</time>
      </trkpt>
      <trkpt lat="45.90368" lon="2.98484">
        <ele>760.7</ele>
        <time>2021-07-19T10:14:09Z</time>
      </trkpt>
      <trkpt lat="45.90359" lon="2.98487">
        <ele>761.3</ele>
        <time>2021-07-19T10:16:28Z</time>
      </trkpt>
      <trkpt lat="45.9035" lon="2.98489">
        <ele>761.9</ele>
        <time>2021-07-19T10:16:32Z</time>
      </trkpt>
      <trkpt lat="45.90341" lon="2.98492">
        <ele>762.6</ele>
        <time>2021-07-19T10:16:36Z</time>
      </trkpt>
      <trkpt lat="45.90336" lon="2.98506">
        <ele>762.6</ele>
        <time>2021-07-19T10:16:41Z</time>
      </trkpt>
      <trkpt lat="45.90332" lon="2.98491">
        <ele>763.3</ele>
        <time>2021-07-19T10:16:51Z</time>
      </trkpt>
      <trkpt lat="45.90335" lon="2.98473">
        <ele>763.5</ele>
        <time>2021-07-19T10:16:54Z</time>
      </trkpt>
      <trkpt lat="45.90335" lon="2.98455">
        <ele>764</ele>
        <time>2021-07-19T10:16:57Z</time>
      </trkpt>
      <trkpt lat="45.90336" lon="2.98437">
        <ele>764.4</ele>
        <time>2021-07-19T10:17:00Z</time>
      </trkpt>
      <trkpt lat="45.90342" lon="2.9842">
        <ele>764.5</ele>
        <time>2021-07-19T10:17:03Z</time>
      </trkpt>
      <trkpt lat="45.90348" lon="2.98406">
        <ele>765</ele>
        <time>2021-07-19T10:17:05Z</time>
      </trkpt>
      <trkpt lat="45.90359" lon="2.98398">
        <ele>765</ele>
        <time>2021-07-19T10:17:07Z</time>
      </trkpt>
      <trkpt lat="45.90368" lon="2.9839">
        <ele>765</ele>
        <time>2021-07-19T10:17:10Z</time>
      </trkpt>
      <trkpt lat="45.9037" lon="2.98376">
        <ele>765.7</ele>
        <time>2021-07-19T10:17:15Z</time>
      </trkpt>
      <trkpt lat="45.90372" lon="2.98363">
        <ele>766.4</ele>
        <time>2021-07-19T10:17:20Z</time>
      </trkpt>
      <trkpt lat="45.90371" lon="2.9835">
        <ele>767.3</ele>
        <time>2021-07-19T10:17:25Z</time>
      </trkpt>
      <trkpt lat="45.90369" lon="2.98336">
        <ele>768.3</ele>
        <time>2021-07-19T10:17:31Z</time>
      </trkpt>
      <trkpt lat="45.90369" lon="2.98323">
        <ele>769.3</ele>
        <time>2021-07-19T10:17:50Z</time>
      </trkpt>
      <trkpt lat="45.90371" lon="2.98309">
        <ele>770.4</ele>
        <time>2021-07-19T10:18:00Z</time>
      </trkpt>
      <trkpt lat="45.90376" lon="2.98296">
        <ele>771.3</ele>
        <time>2021-07-19T10:18:08Z</time>
      </trkpt>
      <trkpt lat="45.90379" lon="2.98284">
        <ele>772.2</ele>
        <time>2021-07-19T10:18:15Z</time>
      </trkpt>
      <trkpt lat="45.90383" lon="2.98272">
        <ele>773.2</ele>
        <time>2021-07-19T10:18:24Z</time>
      </trkpt>
      <trkpt lat="45.90385" lon="2.98257">
        <ele>774.5</ele>
        <time>2021-07-19T10:18:33Z</time>
      </trkpt>
      <trkpt lat="45.90385" lon="2.98244">
        <ele>775.4</ele>
        <time>2021-07-19T10:18:42Z</time>
      </trkpt>
      <trkpt lat="45.90385" lon="2.98231">
        <ele>776.1</ele>
        <time>2021-07-19T10:18:50Z</time>
      </trkpt>
      <trkpt lat="45.90386" lon="2.98217">
        <ele>776.8</ele>
        <time>2021-07-19T10:18:58Z</time>
      </trkpt>
      <trkpt lat="45.90388" lon="2.98204">
        <ele>777.4</ele>
        <time>2021-07-19T10:19:07Z</time>
      </trkpt>
      <trkpt lat="45.90392" lon="2.98192">
        <ele>778</ele>
        <time>2021-07-19T10:19:17Z</time>
      </trkpt>
      <trkpt lat="45.90394" lon="2.98178">
        <ele>778.8</ele>
        <time>2021-07-19T10:19:24Z</time>
      </trkpt>
      <trkpt lat="45.90396" lon="2.98165">
        <ele>779.7</ele>
        <time>2021-07-19T10:19:31Z</time>
      </trkpt>
      <trkpt lat="45.90399" lon="2.98152">
        <ele>781.1</ele>
        <time>2021-07-19T10:19:38Z</time>
      </trkpt>
      <trkpt lat="45.90396" lon="2.98138">
        <ele>782.4</ele>
        <time>2021-07-19T10:19:45Z</time>
      </trkpt>
      <trkpt lat="45.90398" lon="2.98124">
        <ele>784</ele>
        <time>2021-07-19T10:19:52Z</time>
      </trkpt>
      <trkpt lat="45.90399" lon="2.98111">
        <ele>785.4</ele>
        <time>2021-07-19T10:19:59Z</time>
      </trkpt>
      <trkpt lat="45.90392" lon="2.98101">
        <ele>785.9</ele>
        <time>2021-07-19T10:20:06Z</time>
      </trkpt>
      <trkpt lat="45.90386" lon="2.9809">
        <ele>786.4</ele>
        <time>2021-07-19T10:22:42Z</time>
      </trkpt>
      <trkpt lat="45.90378" lon="2.98081">
        <ele>786.5</ele>
        <time>2021-07-19T10:22:48Z</time>
      </trkpt>
      <trkpt lat="45.9037" lon="2.98072">
        <ele>786.5</ele>
        <time>2021-07-19T10:22:53Z</time>
      </trkpt>
      <trkpt lat="45.90362" lon="2.98064">
        <ele>786.5</ele>
        <time>2021-07-19T10:22:57Z</time>
      </trkpt>
      <trkpt lat="45.90354" lon="2.98054">
        <ele>786.5</ele>
        <time>2021-07-19T10:23:01Z</time>
      </trkpt>
      <trkpt lat="45.90346" lon="2.98044">
        <ele>786.6</ele>
        <time>2021-07-19T10:23:05Z</time>
      </trkpt>
      <trkpt lat="45.90339" lon="2.98031">
        <ele>787</ele>
        <time>2021-07-19T10:23:09Z</time>
      </trkpt>
      <trkpt lat="45.9033" lon="2.9802">
        <ele>787.2</ele>
        <time>2021-07-19T10:23:13Z</time>
      </trkpt>
      <trkpt lat="45.90323" lon="2.9801">
        <ele>787.7</ele>
        <time>2021-07-19T10:23:18Z</time>
      </trkpt>
      <trkpt lat="45.90316" lon="2.98001">
        <ele>788.1</ele>
        <time>2021-07-19T10:23:22Z</time>
      </trkpt>
      <trkpt lat="45.90309" lon="2.9799">
        <ele>788.6</ele>
        <time>2021-07-19T10:23:26Z</time>
      </trkpt>
      <trkpt lat="45.90301" lon="2.97979">
        <ele>788.9</ele>
        <time>2021-07-19T10:23:30Z</time>
      </trkpt>
      <trkpt lat="45.90295" lon="2.97969">
        <ele>789.3</ele>
        <time>2021-07-19T10:23:34Z</time>
      </trkpt>
      <trkpt lat="45.90289" lon="2.97959">
        <ele>789.5</ele>
        <time>2021-07-19T10:23:38Z</time>
      </trkpt>
      <trkpt lat="45.90282" lon="2.97948">
        <ele>789.8</ele>
        <time>2021-07-19T10:23:42Z</time>
      </trkpt>
      <trkpt lat="45.90276" lon="2.97938">
        <ele>789.9</ele>
        <time>2021-07-19T10:23:46Z</time>
      </trkpt>
      <trkpt lat="45.9027" lon="2.97928">
        <ele>790</ele>
        <time>2021-07-19T10:23:50Z</time>
      </trkpt>
      <trkpt lat="45.90263" lon="2.97916">
        <ele>790.2</ele>
        <time>2021-07-19T10:23:55Z</time>
      </trkpt>
      <trkpt lat="45.90257" lon="2.97905">
        <ele>790.7</ele>
        <time>2021-07-19T10:23:59Z</time>
      </trkpt>
      <trkpt lat="45.90251" lon="2.97895">
        <ele>791.2</ele>
        <time>2021-07-19T10:24:03Z</time>
      </trkpt>
      <trkpt lat="45.90243" lon="2.97885">
        <ele>791.5</ele>
        <time>2021-07-19T10:24:08Z</time>
      </trkpt>
      <trkpt lat="45.90237" lon="2.97875">
        <ele>792</ele>
        <time>2021-07-19T10:24:12Z</time>
      </trkpt>
      <trkpt lat="45.90228" lon="2.97864">
        <ele>792.2</ele>
        <time>2021-07-19T10:24:16Z</time>
      </trkpt>
      <trkpt lat="45.9022" lon="2.97852">
        <ele>792.6</ele>
        <time>2021-07-19T10:24:19Z</time>
      </trkpt>
      <trkpt lat="45.90212" lon="2.97839">
        <ele>792.9</ele>
        <time>2021-07-19T10:24:22Z</time>
      </trkpt>
      <trkpt lat="45.90203" lon="2.97829">
        <ele>792.7</ele>
        <time>2021-07-19T10:24:25Z</time>
      </trkpt>
      <trkpt lat="45.90195" lon="2.97816">
        <ele>792.6</ele>
        <time>2021-07-19T10:24:28Z</time>
      </trkpt>
      <trkpt lat="45.90185" lon="2.97805">
        <ele>792.1</ele>
        <time>2021-07-19T10:24:31Z</time>
      </trkpt>
      <trkpt lat="45.90176" lon="2.97795">
        <ele>791.5</ele>
        <time>2021-07-19T10:24:34Z</time>
      </trkpt>
      <trkpt lat="45.90168" lon="2.97785">
        <ele>790.9</ele>
        <time>2021-07-19T10:24:37Z</time>
      </trkpt>
      <trkpt lat="45.90159" lon="2.97774">
        <ele>790.1</ele>
        <time>2021-07-19T10:24:40Z</time>
      </trkpt>
      <trkpt lat="45.9015" lon="2.97757">
        <ele>789.4</ele>
        <time>2021-07-19T10:24:43Z</time>
      </trkpt>
      <trkpt lat="45.90143" lon="2.97742">
        <ele>789</ele>
        <time>2021-07-19T10:24:46Z</time>
      </trkpt>
      <trkpt lat="45.90139" lon="2.97729">
        <ele>789</ele>
        <time>2021-07-19T10:24:49Z</time>
      </trkpt>
      <trkpt lat="45.90135" lon="2.97715">
        <ele>789.1</ele>
        <time>2021-07-19T10:24:53Z</time>
      </trkpt>
      <trkpt lat="45.90132" lon="2.97703">
        <ele>789.1</ele>
        <time>2021-07-19T10:24:55Z</time>
      </trkpt>
      <trkpt lat="45.90128" lon="2.97686">
        <ele>789.2</ele>
        <time>2021-07-19T10:24:58Z</time>
      </trkpt>
      <trkpt lat="45.90124" lon="2.97665">
        <ele>789.4</ele>
        <time>2021-07-19T10:25:00Z</time>
      </trkpt>
      <trkpt lat="45.9012" lon="2.97653">
        <ele>789.2</ele>
        <time>2021-07-19T10:25:02Z</time>
      </trkpt>
      <trkpt lat="45.90116" lon="2.97635">
        <ele>789.2</ele>
        <time>2021-07-19T10:25:05Z</time>
      </trkpt>
      <trkpt lat="45.90113" lon="2.97623">
        <ele>789.1</ele>
        <time>2021-07-19T10:25:07Z</time>
      </trkpt>
      <trkpt lat="45.9011" lon="2.9761">
        <ele>789</ele>
        <time>2021-07-19T10:25:09Z</time>
      </trkpt>
      <trkpt lat="45.90106" lon="2.97598">
        <ele>788.6</ele>
        <time>2021-07-19T10:25:11Z</time>
      </trkpt>
      <trkpt lat="45.90102" lon="2.97586">
        <ele>788.2</ele>
        <time>2021-07-19T10:25:13Z</time>
      </trkpt>
      <trkpt lat="45.90098" lon="2.97573">
        <ele>787.6</ele>
        <time>2021-07-19T10:25:15Z</time>
      </trkpt>
      <trkpt lat="45.90095" lon="2.97561">
        <ele>787.2</ele>
        <time>2021-07-19T10:25:17Z</time>
      </trkpt>
      <trkpt lat="45.90091" lon="2.97548">
        <ele>786.6</ele>
        <time>2021-07-19T10:25:19Z</time>
      </trkpt>
      <trkpt lat="45.90089" lon="2.97534">
        <ele>786.5</ele>
        <time>2021-07-19T10:25:21Z</time>
      </trkpt>
      <trkpt lat="45.90085" lon="2.97521">
        <ele>785.9</ele>
        <time>2021-07-19T10:25:23Z</time>
      </trkpt>
      <trkpt lat="45.90082" lon="2.97504">
        <ele>785.9</ele>
        <time>2021-07-19T10:25:26Z</time>
      </trkpt>
      <trkpt lat="45.90079" lon="2.97492">
        <ele>785.9</ele>
        <time>2021-07-19T10:25:28Z</time>
      </trkpt>
      <trkpt lat="45.90075" lon="2.97472">
        <ele>785.9</ele>
        <time>2021-07-19T10:25:31Z</time>
      </trkpt>
      <trkpt lat="45.90074" lon="2.97458">
        <ele>785.8</ele>
        <time>2021-07-19T10:25:34Z</time>
      </trkpt>
      <trkpt lat="45.90074" lon="2.97443">
        <ele>785.8</ele>
        <time>2021-07-19T10:25:37Z</time>
      </trkpt>
      <trkpt lat="45.90074" lon="2.97429">
        <ele>785.8</ele>
        <time>2021-07-19T10:25:41Z</time>
      </trkpt>
      <trkpt lat="45.90071" lon="2.97416">
        <ele>785.7</ele>
        <time>2021-07-19T10:26:44Z</time>
      </trkpt>
      <trkpt lat="45.90063" lon="2.97409">
        <ele>785.3</ele>
        <time>2021-07-19T10:27:36Z</time>
      </trkpt>
      <trkpt lat="45.90061" lon="2.97396">
        <ele>784.8</ele>
        <time>2021-07-19T10:27:46Z</time>
      </trkpt>
      <trkpt lat="45.90056" lon="2.97384">
        <ele>784.4</ele>
        <time>2021-07-19T10:27:59Z</time>
      </trkpt>
      <trkpt lat="45.90051" lon="2.9737">
        <ele>784.1</ele>
        <time>2021-07-19T10:28:03Z</time>
      </trkpt>
      <trkpt lat="45.90048" lon="2.97356">
        <ele>783.8</ele>
        <time>2021-07-19T10:28:07Z</time>
      </trkpt>
      <trkpt lat="45.90045" lon="2.97343">
        <ele>783.6</ele>
        <time>2021-07-19T10:28:11Z</time>
      </trkpt>
      <trkpt lat="45.9004" lon="2.97328">
        <ele>784</ele>
        <time>2021-07-19T10:28:16Z</time>
      </trkpt>
      <trkpt lat="45.90037" lon="2.97316">
        <ele>785.1</ele>
        <time>2021-07-19T10:28:21Z</time>
      </trkpt>
      <trkpt lat="45.90031" lon="2.97304">
        <ele>786.3</ele>
        <time>2021-07-19T10:28:26Z</time>
      </trkpt>
      <trkpt lat="45.90025" lon="2.97292">
        <ele>787.6</ele>
        <time>2021-07-19T10:28:31Z</time>
      </trkpt>
      <trkpt lat="45.9002" lon="2.97281">
        <ele>788.7</ele>
        <time>2021-07-19T10:28:36Z</time>
      </trkpt>
      <trkpt lat="45.90015" lon="2.97269">
        <ele>789.9</ele>
        <time>2021-07-19T10:28:41Z</time>
      </trkpt>
      <trkpt lat="45.90009" lon="2.97259">
        <ele>790.9</ele>
        <time>2021-07-19T10:28:47Z</time>
      </trkpt>
      <trkpt lat="45.90001" lon="2.97251">
        <ele>791.9</ele>
        <time>2021-07-19T10:28:57Z</time>
      </trkpt>
      <trkpt lat="45.89996" lon="2.97239">
        <ele>792.6</ele>
        <time>2021-07-19T10:29:13Z</time>
      </trkpt>
      <trkpt lat="45.89991" lon="2.97227">
        <ele>793.3</ele>
        <time>2021-07-19T10:29:22Z</time>
      </trkpt>
      <trkpt lat="45.89986" lon="2.97216">
        <ele>794</ele>
        <time>2021-07-19T10:29:31Z</time>
      </trkpt>
      <trkpt lat="45.89981" lon="2.97204">
        <ele>794.7</ele>
        <time>2021-07-19T10:29:41Z</time>
      </trkpt>
      <trkpt lat="45.89977" lon="2.97192">
        <ele>795.3</ele>
        <time>2021-07-19T10:29:49Z</time>
      </trkpt>
      <trkpt lat="45.89973" lon="2.9718">
        <ele>795.9</ele>
        <time>2021-07-19T10:29:58Z</time>
      </trkpt>
      <trkpt lat="45.89969" lon="2.97168">
        <ele>796.4</ele>
        <time>2021-07-19T10:30:08Z</time>
      </trkpt>
      <trkpt lat="45.89962" lon="2.97159">
        <ele>796.9</ele>
        <time>2021-07-19T10:30:18Z</time>
      </trkpt>
      <trkpt lat="45.89956" lon="2.97149">
        <ele>797.3</ele>
        <time>2021-07-19T10:30:27Z</time>
      </trkpt>
      <trkpt lat="45.89953" lon="2.97136">
        <ele>797.7</ele>
        <time>2021-07-19T10:30:34Z</time>
      </trkpt>
      <trkpt lat="45.89948" lon="2.97122">
        <ele>798.2</ele>
        <time>2021-07-19T10:30:41Z</time>
      </trkpt>
      <trkpt lat="45.89944" lon="2.97111">
        <ele>798.6</ele>
        <time>2021-07-19T10:30:47Z</time>
      </trkpt>
      <trkpt lat="45.8994" lon="2.97098">
        <ele>799.1</ele>
        <time>2021-07-19T10:30:52Z</time>
      </trkpt>
      <trkpt lat="45.89936" lon="2.97085">
        <ele>799.6</ele>
        <time>2021-07-19T10:30:58Z</time>
      </trkpt>
      <trkpt lat="45.8993" lon="2.97075">
        <ele>800.3</ele>
        <time>2021-07-19T10:31:04Z</time>
      </trkpt>
      <trkpt lat="45.89925" lon="2.97063">
        <ele>800.9</ele>
        <time>2021-07-19T10:31:09Z</time>
      </trkpt>
      <trkpt lat="45.89921" lon="2.9705">
        <ele>801.5</ele>
        <time>2021-07-19T10:31:15Z</time>
      </trkpt>
      <trkpt lat="45.89916" lon="2.9704">
        <ele>802.1</ele>
        <time>2021-07-19T10:31:21Z</time>
      </trkpt>
      <trkpt lat="45.8991" lon="2.97028">
        <ele>802.4</ele>
        <time>2021-07-19T10:31:27Z</time>
      </trkpt>
      <trkpt lat="45.89906" lon="2.97015">
        <ele>802.8</ele>
        <time>2021-07-19T10:31:32Z</time>
      </trkpt>
      <trkpt lat="45.89901" lon="2.97001">
        <ele>803.2</ele>
        <time>2021-07-19T10:31:37Z</time>
      </trkpt>
      <trkpt lat="45.89896" lon="2.96988">
        <ele>803.4</ele>
        <time>2021-07-19T10:31:42Z</time>
      </trkpt>
      <trkpt lat="45.89892" lon="2.96977">
        <ele>803.5</ele>
        <time>2021-07-19T10:31:46Z</time>
      </trkpt>
      <trkpt lat="45.89889" lon="2.96964">
        <ele>803.6</ele>
        <time>2021-07-19T10:31:51Z</time>
      </trkpt>
      <trkpt lat="45.89887" lon="2.96948">
        <ele>803.8</ele>
        <time>2021-07-19T10:31:56Z</time>
      </trkpt>
      <trkpt lat="45.89884" lon="2.96935">
        <ele>803.9</ele>
        <time>2021-07-19T10:32:00Z</time>
      </trkpt>
      <trkpt lat="45.89881" lon="2.96922">
        <ele>804</ele>
        <time>2021-07-19T10:32:03Z</time>
      </trkpt>
      <trkpt lat="45.89876" lon="2.96906">
        <ele>804.3</ele>
        <time>2021-07-19T10:32:07Z</time>
      </trkpt>
      <trkpt lat="45.89872" lon="2.96891">
        <ele>804.7</ele>
        <time>2021-07-19T10:32:11Z</time>
      </trkpt>
      <trkpt lat="45.89868" lon="2.96879">
        <ele>804.9</ele>
        <time>2021-07-19T10:32:14Z</time>
      </trkpt>
      <trkpt lat="45.89865" lon="2.96866">
        <ele>805.2</ele>
        <time>2021-07-19T10:32:17Z</time>
      </trkpt>
      <trkpt lat="45.89861" lon="2.96854">
        <ele>805.2</ele>
        <time>2021-07-19T10:32:20Z</time>
      </trkpt>
      <trkpt lat="45.89856" lon="2.96838">
        <ele>805.3</ele>
        <time>2021-07-19T10:32:24Z</time>
      </trkpt>
      <trkpt lat="45.89853" lon="2.96825">
        <ele>805.6</ele>
        <time>2021-07-19T10:32:27Z</time>
      </trkpt>
      <trkpt lat="45.8985" lon="2.96811">
        <ele>806.1</ele>
        <time>2021-07-19T10:32:31Z</time>
      </trkpt>
      <trkpt lat="45.89846" lon="2.96798">
        <ele>806.4</ele>
        <time>2021-07-19T10:32:34Z</time>
      </trkpt>
      <trkpt lat="45.89845" lon="2.96783">
        <ele>806.9</ele>
        <time>2021-07-19T10:32:38Z</time>
      </trkpt>
      <trkpt lat="45.89842" lon="2.96769">
        <ele>807.2</ele>
        <time>2021-07-19T10:32:42Z</time>
      </trkpt>
      <trkpt lat="45.89838" lon="2.96756">
        <ele>807.3</ele>
        <time>2021-07-19T10:32:46Z</time>
      </trkpt>
      <trkpt lat="45.89835" lon="2.96743">
        <ele>807.4</ele>
        <time>2021-07-19T10:32:50Z</time>
      </trkpt>
      <trkpt lat="45.89833" lon="2.9673">
        <ele>807.5</ele>
        <time>2021-07-19T10:32:54Z</time>
      </trkpt>
      <trkpt lat="45.89829" lon="2.96716">
        <ele>807.8</ele>
        <time>2021-07-19T10:32:59Z</time>
      </trkpt>
      <trkpt lat="45.89824" lon="2.96701">
        <ele>808</ele>
        <time>2021-07-19T10:33:03Z</time>
      </trkpt>
      <trkpt lat="45.89821" lon="2.96688">
        <ele>808.3</ele>
        <time>2021-07-19T10:33:07Z</time>
      </trkpt>
      <trkpt lat="45.89818" lon="2.96673">
        <ele>808.5</ele>
        <time>2021-07-19T10:33:11Z</time>
      </trkpt>
      <trkpt lat="45.89816" lon="2.96659">
        <ele>808.5</ele>
        <time>2021-07-19T10:33:15Z</time>
      </trkpt>
      <trkpt lat="45.89814" lon="2.9664">
        <ele>808.1</ele>
        <time>2021-07-19T10:33:18Z</time>
      </trkpt>
      <trkpt lat="45.8981" lon="2.96624">
        <ele>807.8</ele>
        <time>2021-07-19T10:33:21Z</time>
      </trkpt>
      <trkpt lat="45.89809" lon="2.96611">
        <ele>807.7</ele>
        <time>2021-07-19T10:33:24Z</time>
      </trkpt>
      <trkpt lat="45.89806" lon="2.96596">
        <ele>807.5</ele>
        <time>2021-07-19T10:33:28Z</time>
      </trkpt>
      <trkpt lat="45.89804" lon="2.96583">
        <ele>807.4</ele>
        <time>2021-07-19T10:33:30Z</time>
      </trkpt>
      <trkpt lat="45.89804" lon="2.9657">
        <ele>807.4</ele>
        <time>2021-07-19T10:33:33Z</time>
      </trkpt>
      <trkpt lat="45.89803" lon="2.96557">
        <ele>807.5</ele>
        <time>2021-07-19T10:33:36Z</time>
      </trkpt>
      <trkpt lat="45.898" lon="2.96539">
        <ele>807.6</ele>
        <time>2021-07-19T10:33:41Z</time>
      </trkpt>
      <trkpt lat="45.89799" lon="2.96524">
        <ele>807.7</ele>
        <time>2021-07-19T10:33:42Z</time>
      </trkpt>
      <trkpt lat="45.89798" lon="2.96511">
        <ele>807.8</ele>
        <time>2021-07-19T10:33:44Z</time>
      </trkpt>
      <trkpt lat="45.89798" lon="2.96494">
        <ele>808</ele>
        <time>2021-07-19T10:33:47Z</time>
      </trkpt>
      <trkpt lat="45.89798" lon="2.96477">
        <ele>808.4</ele>
        <time>2021-07-19T10:33:50Z</time>
      </trkpt>
      <trkpt lat="45.89796" lon="2.9646">
        <ele>808.9</ele>
        <time>2021-07-19T10:33:53Z</time>
      </trkpt>
      <trkpt lat="45.89796" lon="2.96443">
        <ele>809.3</ele>
        <time>2021-07-19T10:33:56Z</time>
      </trkpt>
      <trkpt lat="45.89797" lon="2.96426">
        <ele>809.8</ele>
        <time>2021-07-19T10:33:59Z</time>
      </trkpt>
      <trkpt lat="45.89796" lon="2.96411">
        <ele>810.2</ele>
        <time>2021-07-19T10:34:02Z</time>
      </trkpt>
      <trkpt lat="45.89795" lon="2.96398">
        <ele>810.6</ele>
        <time>2021-07-19T10:34:05Z</time>
      </trkpt>
      <trkpt lat="45.8979" lon="2.96386">
        <ele>810.9</ele>
        <time>2021-07-19T10:34:09Z</time>
      </trkpt>
      <trkpt lat="45.89788" lon="2.96373">
        <ele>811.3</ele>
        <time>2021-07-19T10:34:13Z</time>
      </trkpt>
      <trkpt lat="45.89787" lon="2.96358">
        <ele>811.8</ele>
        <time>2021-07-19T10:34:17Z</time>
      </trkpt>
      <trkpt lat="45.89784" lon="2.96343">
        <ele>812.3</ele>
        <time>2021-07-19T10:34:21Z</time>
      </trkpt>
      <trkpt lat="45.8978" lon="2.96328">
        <ele>812.8</ele>
        <time>2021-07-19T10:34:25Z</time>
      </trkpt>
      <trkpt lat="45.89776" lon="2.96313">
        <ele>813.1</ele>
        <time>2021-07-19T10:34:29Z</time>
      </trkpt>
      <trkpt lat="45.89773" lon="2.96298">
        <ele>813.4</ele>
        <time>2021-07-19T10:34:33Z</time>
      </trkpt>
      <trkpt lat="45.89768" lon="2.96284">
        <ele>813.6</ele>
        <time>2021-07-19T10:34:37Z</time>
      </trkpt>
      <trkpt lat="45.89764" lon="2.96269">
        <ele>813.9</ele>
        <time>2021-07-19T10:34:41Z</time>
      </trkpt>
      <trkpt lat="45.89761" lon="2.96253">
        <ele>814.1</ele>
        <time>2021-07-19T10:34:45Z</time>
      </trkpt>
      <trkpt lat="45.89756" lon="2.96239">
        <ele>814</ele>
        <time>2021-07-19T10:34:49Z</time>
      </trkpt>
      <trkpt lat="45.89751" lon="2.96227">
        <ele>813.7</ele>
        <time>2021-07-19T10:34:53Z</time>
      </trkpt>
      <trkpt lat="45.89746" lon="2.96213">
        <ele>813.5</ele>
        <time>2021-07-19T10:34:57Z</time>
      </trkpt>
      <trkpt lat="45.89742" lon="2.962">
        <ele>813.2</ele>
        <time>2021-07-19T10:35:01Z</time>
      </trkpt>
      <trkpt lat="45.89738" lon="2.96187">
        <ele>813</ele>
        <time>2021-07-19T10:35:05Z</time>
      </trkpt>
      <trkpt lat="45.89733" lon="2.96172">
        <ele>812.7</ele>
        <time>2021-07-19T10:35:09Z</time>
      </trkpt>
      <trkpt lat="45.89728" lon="2.96158">
        <ele>812.6</ele>
        <time>2021-07-19T10:35:13Z</time>
      </trkpt>
      <trkpt lat="45.89726" lon="2.96143">
        <ele>812.8</ele>
        <time>2021-07-19T10:35:17Z</time>
      </trkpt>
      <trkpt lat="45.89724" lon="2.9613">
        <ele>813</ele>
        <time>2021-07-19T10:35:20Z</time>
      </trkpt>
      <trkpt lat="45.89723" lon="2.96117">
        <ele>813.1</ele>
        <time>2021-07-19T10:35:23Z</time>
      </trkpt>
      <trkpt lat="45.89723" lon="2.961">
        <ele>813.4</ele>
        <time>2021-07-19T10:35:27Z</time>
      </trkpt>
      <trkpt lat="45.89723" lon="2.96084">
        <ele>813.7</ele>
        <time>2021-07-19T10:35:31Z</time>
      </trkpt>
      <trkpt lat="45.89723" lon="2.96071">
        <ele>813.6</ele>
        <time>2021-07-19T10:35:34Z</time>
      </trkpt>
      <trkpt lat="45.89725" lon="2.96057">
        <ele>813.5</ele>
        <time>2021-07-19T10:35:37Z</time>
      </trkpt>
      <trkpt lat="45.89728" lon="2.96043">
        <ele>813.4</ele>
        <time>2021-07-19T10:35:40Z</time>
      </trkpt>
      <trkpt lat="45.89733" lon="2.96029">
        <ele>813.3</ele>
        <time>2021-07-19T10:35:43Z</time>
      </trkpt>
      <trkpt lat="45.89737" lon="2.96015">
        <ele>813.2</ele>
        <time>2021-07-19T10:35:46Z</time>
      </trkpt>
      <trkpt lat="45.89741" lon="2.95999">
        <ele>813</ele>
        <time>2021-07-19T10:35:49Z</time>
      </trkpt>
      <trkpt lat="45.89744" lon="2.95983">
        <ele>813.2</ele>
        <time>2021-07-19T10:35:52Z</time>
      </trkpt>
      <trkpt lat="45.89744" lon="2.95966">
        <ele>813.4</ele>
        <time>2021-07-19T10:35:55Z</time>
      </trkpt>
      <trkpt lat="45.89745" lon="2.95948">
        <ele>813.7</ele>
        <time>2021-07-19T10:35:58Z</time>
      </trkpt>
      <trkpt lat="45.89744" lon="2.95931">
        <ele>813.9</ele>
        <time>2021-07-19T10:36:01Z</time>
      </trkpt>
      <trkpt lat="45.89744" lon="2.95915">
        <ele>814.1</ele>
        <time>2021-07-19T10:36:04Z</time>
      </trkpt>
      <trkpt lat="45.89743" lon="2.95898">
        <ele>814.5</ele>
        <time>2021-07-19T10:36:07Z</time>
      </trkpt>
      <trkpt lat="45.89742" lon="2.95882">
        <ele>814.9</ele>
        <time>2021-07-19T10:36:10Z</time>
      </trkpt>
      <trkpt lat="45.89741" lon="2.95867">
        <ele>815.2</ele>
        <time>2021-07-19T10:36:13Z</time>
      </trkpt>
      <trkpt lat="45.8974" lon="2.95853">
        <ele>815.6</ele>
        <time>2021-07-19T10:36:16Z</time>
      </trkpt>
      <trkpt lat="45.89739" lon="2.95839">
        <ele>815.9</ele>
        <time>2021-07-19T10:36:19Z</time>
      </trkpt>
      <trkpt lat="45.89738" lon="2.95824">
        <ele>815.8</ele>
        <time>2021-07-19T10:36:22Z</time>
      </trkpt>
      <trkpt lat="45.89736" lon="2.95809">
        <ele>815.4</ele>
        <time>2021-07-19T10:36:25Z</time>
      </trkpt>
      <trkpt lat="45.89732" lon="2.95793">
        <ele>815.2</ele>
        <time>2021-07-19T10:36:28Z</time>
      </trkpt>
      <trkpt lat="45.89727" lon="2.95778">
        <ele>815.1</ele>
        <time>2021-07-19T10:36:31Z</time>
      </trkpt>
      <trkpt lat="45.89721" lon="2.95764">
        <ele>815.2</ele>
        <time>2021-07-19T10:36:34Z</time>
      </trkpt>
      <trkpt lat="45.89715" lon="2.95752">
        <ele>815.5</ele>
        <time>2021-07-19T10:36:39Z</time>
      </trkpt>
      <trkpt lat="45.89708" lon="2.9573">
        <ele>816.3</ele>
        <time>2021-07-19T10:36:42Z</time>
      </trkpt>
      <trkpt lat="45.89707" lon="2.95716">
        <ele>816.5</ele>
        <time>2021-07-19T10:36:45Z</time>
      </trkpt>
      <trkpt lat="45.89707" lon="2.95701">
        <ele>816.7</ele>
        <time>2021-07-19T10:36:48Z</time>
      </trkpt>
      <trkpt lat="45.89708" lon="2.95687">
        <ele>816.8</ele>
        <time>2021-07-19T10:36:51Z</time>
      </trkpt>
      <trkpt lat="45.89708" lon="2.9567">
        <ele>817</ele>
        <time>2021-07-19T10:36:54Z</time>
      </trkpt>
      <trkpt lat="45.89706" lon="2.95654">
        <ele>817.3</ele>
        <time>2021-07-19T10:36:57Z</time>
      </trkpt>
      <trkpt lat="45.89703" lon="2.95639">
        <ele>817.6</ele>
        <time>2021-07-19T10:37:00Z</time>
      </trkpt>
      <trkpt lat="45.89699" lon="2.95626">
        <ele>818.1</ele>
        <time>2021-07-19T10:37:03Z</time>
      </trkpt>
      <trkpt lat="45.89695" lon="2.95614">
        <ele>818.6</ele>
        <time>2021-07-19T10:37:07Z</time>
      </trkpt>
      <trkpt lat="45.89693" lon="2.95601">
        <ele>818.8</ele>
        <time>2021-07-19T10:37:11Z</time>
      </trkpt>
      <trkpt lat="45.89689" lon="2.95589">
        <ele>819.3</ele>
        <time>2021-07-19T10:37:14Z</time>
      </trkpt>
      <trkpt lat="45.89685" lon="2.95575">
        <ele>819.5</ele>
        <time>2021-07-19T10:37:17Z</time>
      </trkpt>
      <trkpt lat="45.89681" lon="2.95562">
        <ele>819.4</ele>
        <time>2021-07-19T10:37:18Z</time>
      </trkpt>
      <trkpt lat="45.89689" lon="2.9555">
        <ele>818.1</ele>
        <time>2021-07-19T10:37:21Z</time>
      </trkpt>
      <trkpt lat="45.89699" lon="2.95544">
        <ele>817</ele>
        <time>2021-07-19T10:37:25Z</time>
      </trkpt>
      <trkpt lat="45.89709" lon="2.95537">
        <ele>815.8</ele>
        <time>2021-07-19T10:37:29Z</time>
      </trkpt>
      <trkpt lat="45.89718" lon="2.95532">
        <ele>814.9</ele>
        <time>2021-07-19T10:37:30Z</time>
      </trkpt>
      <trkpt lat="45.89727" lon="2.95527">
        <ele>814</ele>
        <time>2021-07-19T10:37:32Z</time>
      </trkpt>
      <trkpt lat="45.89735" lon="2.95521">
        <ele>813.3</ele>
        <time>2021-07-19T10:37:34Z</time>
      </trkpt>
      <trkpt lat="45.89747" lon="2.95513">
        <ele>812.2</ele>
        <time>2021-07-19T10:37:37Z</time>
      </trkpt>
      <trkpt lat="45.89756" lon="2.95502">
        <ele>811.9</ele>
        <time>2021-07-19T10:37:42Z</time>
      </trkpt>
      <trkpt lat="45.89766" lon="2.95494">
        <ele>811.6</ele>
        <time>2021-07-19T10:37:43Z</time>
      </trkpt>
      <trkpt lat="45.89776" lon="2.95494">
        <ele>811.4</ele>
        <time>2021-07-19T10:37:45Z</time>
      </trkpt>
      <trkpt lat="45.89787" lon="2.95488">
        <ele>811.2</ele>
        <time>2021-07-19T10:37:48Z</time>
      </trkpt>
      <trkpt lat="45.89797" lon="2.9548">
        <ele>811</ele>
        <time>2021-07-19T10:37:53Z</time>
      </trkpt>
      <trkpt lat="45.89805" lon="2.95465">
        <ele>811</ele>
        <time>2021-07-19T10:37:55Z</time>
      </trkpt>
      <trkpt lat="45.89811" lon="2.95452">
        <ele>811</ele>
        <time>2021-07-19T10:37:58Z</time>
      </trkpt>
      <trkpt lat="45.89816" lon="2.9544">
        <ele>811</ele>
        <time>2021-07-19T10:38:01Z</time>
      </trkpt>
      <trkpt lat="45.89824" lon="2.95428">
        <ele>811</ele>
        <time>2021-07-19T10:38:04Z</time>
      </trkpt>
      <trkpt lat="45.89831" lon="2.95415">
        <ele>811</ele>
        <time>2021-07-19T10:38:07Z</time>
      </trkpt>
      <trkpt lat="45.89838" lon="2.95402">
        <ele>810.8</ele>
        <time>2021-07-19T10:38:10Z</time>
      </trkpt>
      <trkpt lat="45.89845" lon="2.95388">
        <ele>810.6</ele>
        <time>2021-07-19T10:38:13Z</time>
      </trkpt>
      <trkpt lat="45.89853" lon="2.95374">
        <ele>810.4</ele>
        <time>2021-07-19T10:38:16Z</time>
      </trkpt>
      <trkpt lat="45.89861" lon="2.95361">
        <ele>810.2</ele>
        <time>2021-07-19T10:38:19Z</time>
      </trkpt>
      <trkpt lat="45.89869" lon="2.95351">
        <ele>810.1</ele>
        <time>2021-07-19T10:38:24Z</time>
      </trkpt>
      <trkpt lat="45.89878" lon="2.95341">
        <ele>809.9</ele>
        <time>2021-07-19T10:38:28Z</time>
      </trkpt>
      <trkpt lat="45.89888" lon="2.95332">
        <ele>809.7</ele>
        <time>2021-07-19T10:38:31Z</time>
      </trkpt>
      <trkpt lat="45.89898" lon="2.95321">
        <ele>809.4</ele>
        <time>2021-07-19T10:38:34Z</time>
      </trkpt>
      <trkpt lat="45.89908" lon="2.95312">
        <ele>809.2</ele>
        <time>2021-07-19T10:38:37Z</time>
      </trkpt>
      <trkpt lat="45.89922" lon="2.95301">
        <ele>808.9</ele>
        <time>2021-07-19T10:38:38Z</time>
      </trkpt>
      <trkpt lat="45.89932" lon="2.95294">
        <ele>808.7</ele>
        <time>2021-07-19T10:38:41Z</time>
      </trkpt>
      <trkpt lat="45.89941" lon="2.9529">
        <ele>808.6</ele>
        <time>2021-07-19T10:38:44Z</time>
      </trkpt>
      <trkpt lat="45.89931" lon="2.95289">
        <ele>808.8</ele>
        <time>2021-07-19T10:39:10Z</time>
      </trkpt>
      <trkpt lat="45.89923" lon="2.95296">
        <ele>808.9</ele>
        <time>2021-07-19T10:39:15Z</time>
      </trkpt>
      <trkpt lat="45.89913" lon="2.95304">
        <ele>809.1</ele>
        <time>2021-07-19T10:39:19Z</time>
      </trkpt>
      <trkpt lat="45.89905" lon="2.95313">
        <ele>809.3</ele>
        <time>2021-07-19T10:39:23Z</time>
      </trkpt>
      <trkpt lat="45.89896" lon="2.95321">
        <ele>809.5</ele>
        <time>2021-07-19T10:39:26Z</time>
      </trkpt>
      <trkpt lat="45.89889" lon="2.9533">
        <ele>809.7</ele>
        <time>2021-07-19T10:39:29Z</time>
      </trkpt>
      <trkpt lat="45.89882" lon="2.95339">
        <ele>809.8</ele>
        <time>2021-07-19T10:39:32Z</time>
      </trkpt>
      <trkpt lat="45.89873" lon="2.95347">
        <ele>810</ele>
        <time>2021-07-19T10:39:35Z</time>
      </trkpt>
      <trkpt lat="45.89866" lon="2.95357">
        <ele>810.1</ele>
        <time>2021-07-19T10:39:38Z</time>
      </trkpt>
      <trkpt lat="45.89859" lon="2.95369">
        <ele>810.3</ele>
        <time>2021-07-19T10:39:44Z</time>
      </trkpt>
      <trkpt lat="45.89851" lon="2.95378">
        <ele>810.5</ele>
        <time>2021-07-19T10:39:48Z</time>
      </trkpt>
      <trkpt lat="45.89842" lon="2.95388">
        <ele>810.7</ele>
        <time>2021-07-19T10:39:51Z</time>
      </trkpt>
      <trkpt lat="45.89835" lon="2.95399">
        <ele>810.9</ele>
        <time>2021-07-19T10:39:54Z</time>
      </trkpt>
      <trkpt lat="45.89829" lon="2.9541">
        <ele>811.1</ele>
        <time>2021-07-19T10:39:57Z</time>
      </trkpt>
      <trkpt lat="45.89823" lon="2.95424">
        <ele>811</ele>
        <time>2021-07-19T10:40:00Z</time>
      </trkpt>
      <trkpt lat="45.89816" lon="2.95441">
        <ele>811</ele>
        <time>2021-07-19T10:40:03Z</time>
      </trkpt>
      <trkpt lat="45.89807" lon="2.95452">
        <ele>811</ele>
        <time>2021-07-19T10:40:07Z</time>
      </trkpt>
      <trkpt lat="45.898" lon="2.95463">
        <ele>811.1</ele>
        <time>2021-07-19T10:40:12Z</time>
      </trkpt>
      <trkpt lat="45.89789" lon="2.95475">
        <ele>811.2</ele>
        <time>2021-07-19T10:40:14Z</time>
      </trkpt>
      <trkpt lat="45.89778" lon="2.95483">
        <ele>811.4</ele>
        <time>2021-07-19T10:40:18Z</time>
      </trkpt>
      <trkpt lat="45.8977" lon="2.95491">
        <ele>811.5</ele>
        <time>2021-07-19T10:40:21Z</time>
      </trkpt>
      <trkpt lat="45.8976" lon="2.95497">
        <ele>811.8</ele>
        <time>2021-07-19T10:40:26Z</time>
      </trkpt>
      <trkpt lat="45.8975" lon="2.95505">
        <ele>812</ele>
        <time>2021-07-19T10:40:27Z</time>
      </trkpt>
      <trkpt lat="45.8974" lon="2.95511">
        <ele>812.8</ele>
        <time>2021-07-19T10:40:30Z</time>
      </trkpt>
      <trkpt lat="45.89732" lon="2.95518">
        <ele>813.5</ele>
        <time>2021-07-19T10:40:33Z</time>
      </trkpt>
      <trkpt lat="45.8972" lon="2.95527">
        <ele>814.6</ele>
        <time>2021-07-19T10:40:39Z</time>
      </trkpt>
      <trkpt lat="45.8971" lon="2.95534">
        <ele>815.7</ele>
        <time>2021-07-19T10:40:41Z</time>
      </trkpt>
      <trkpt lat="45.89699" lon="2.95542">
        <ele>816.9</ele>
        <time>2021-07-19T10:40:45Z</time>
      </trkpt>
      <trkpt lat="45.8969" lon="2.95548">
        <ele>818</ele>
        <time>2021-07-19T10:40:48Z</time>
      </trkpt>
      <trkpt lat="45.89679" lon="2.9555">
        <ele>819.2</ele>
        <time>2021-07-19T10:40:52Z</time>
      </trkpt>
      <trkpt lat="45.89668" lon="2.95547">
        <ele>820.1</ele>
        <time>2021-07-19T10:41:05Z</time>
      </trkpt>
      <trkpt lat="45.89663" lon="2.95535">
        <ele>820.1</ele>
        <time>2021-07-19T10:41:55Z</time>
      </trkpt>
      <trkpt lat="45.89657" lon="2.95524">
        <ele>820.4</ele>
        <time>2021-07-19T10:42:01Z</time>
      </trkpt>
      <trkpt lat="45.8965" lon="2.95514">
        <ele>820.9</ele>
        <time>2021-07-19T10:42:07Z</time>
      </trkpt>
      <trkpt lat="45.89641" lon="2.95506">
        <ele>821.9</ele>
        <time>2021-07-19T10:42:12Z</time>
      </trkpt>
      <trkpt lat="45.89636" lon="2.95494">
        <ele>822.6</ele>
        <time>2021-07-19T10:42:18Z</time>
      </trkpt>
      <trkpt lat="45.8963" lon="2.95482">
        <ele>824</ele>
        <time>2021-07-19T10:42:23Z</time>
      </trkpt>
      <trkpt lat="45.89625" lon="2.95471">
        <ele>825.4</ele>
        <time>2021-07-19T10:42:28Z</time>
      </trkpt>
      <trkpt lat="45.89616" lon="2.95464">
        <ele>827.6</ele>
        <time>2021-07-19T10:42:35Z</time>
      </trkpt>
      <trkpt lat="45.89605" lon="2.9546">
        <ele>830.2</ele>
        <time>2021-07-19T10:42:41Z</time>
      </trkpt>
      <trkpt lat="45.89596" lon="2.95461">
        <ele>832</ele>
        <time>2021-07-19T10:42:46Z</time>
      </trkpt>
      <trkpt lat="45.89587" lon="2.95462">
        <ele>833.8</ele>
        <time>2021-07-19T10:42:55Z</time>
      </trkpt>
      <trkpt lat="45.89577" lon="2.95461">
        <ele>836.3</ele>
        <time>2021-07-19T10:43:02Z</time>
      </trkpt>
      <trkpt lat="45.89568" lon="2.95456">
        <ele>839.4</ele>
        <time>2021-07-19T10:43:09Z</time>
      </trkpt>
      <trkpt lat="45.89571" lon="2.95442">
        <ele>840.4</ele>
        <time>2021-07-19T10:43:17Z</time>
      </trkpt>
      <trkpt lat="45.89573" lon="2.95429">
        <ele>841.5</ele>
        <time>2021-07-19T10:43:32Z</time>
      </trkpt>
      <trkpt lat="45.89578" lon="2.95417">
        <ele>841.6</ele>
        <time>2021-07-19T10:43:39Z</time>
      </trkpt>
      <trkpt lat="45.89577" lon="2.95404">
        <ele>843.1</ele>
        <time>2021-07-19T10:43:46Z</time>
      </trkpt>
      <trkpt lat="45.89579" lon="2.9539">
        <ele>843.8</ele>
        <time>2021-07-19T10:43:54Z</time>
      </trkpt>
      <trkpt lat="45.89581" lon="2.95376">
        <ele>844.5</ele>
        <time>2021-07-19T10:44:01Z</time>
      </trkpt>
      <trkpt lat="45.89587" lon="2.95363">
        <ele>844.2</ele>
        <time>2021-07-19T10:44:07Z</time>
      </trkpt>
      <trkpt lat="45.89596" lon="2.95357">
        <ele>842.4</ele>
        <time>2021-07-19T10:44:12Z</time>
      </trkpt>
      <trkpt lat="45.89599" lon="2.95343">
        <ele>843.1</ele>
        <time>2021-07-19T10:44:18Z</time>
      </trkpt>
      <trkpt lat="45.89597" lon="2.95328">
        <ele>844.4</ele>
        <time>2021-07-19T10:44:25Z</time>
      </trkpt>
      <trkpt lat="45.89597" lon="2.95314">
        <ele>844</ele>
        <time>2021-07-19T10:44:31Z</time>
      </trkpt>
      <trkpt lat="45.89595" lon="2.95301">
        <ele>844</ele>
        <time>2021-07-19T10:44:38Z</time>
      </trkpt>
      <trkpt lat="45.89596" lon="2.95287">
        <ele>843.5</ele>
        <time>2021-07-19T10:44:46Z</time>
      </trkpt>
      <trkpt lat="45.89592" lon="2.95274">
        <ele>843.5</ele>
        <time>2021-07-19T10:44:51Z</time>
      </trkpt>
      <trkpt lat="45.89588" lon="2.95261">
        <ele>843.3</ele>
        <time>2021-07-19T10:44:56Z</time>
      </trkpt>
      <trkpt lat="45.89585" lon="2.95248">
        <ele>842.8</ele>
        <time>2021-07-19T10:45:01Z</time>
      </trkpt>
      <trkpt lat="45.8958" lon="2.95237">
        <ele>842.2</ele>
        <time>2021-07-19T10:45:08Z</time>
      </trkpt>
      <trkpt lat="45.89569" lon="2.95234">
        <ele>843</ele>
        <time>2021-07-19T10:45:13Z</time>
      </trkpt>
      <trkpt lat="45.8956" lon="2.95227">
        <ele>842.9</ele>
        <time>2021-07-19T10:45:17Z</time>
      </trkpt>
      <trkpt lat="45.89554" lon="2.95217">
        <ele>842.1</ele>
        <time>2021-07-19T10:46:30Z</time>
      </trkpt>
      <trkpt lat="45.8955" lon="2.95203">
        <ele>840.3</ele>
        <time>2021-07-19T10:47:41Z</time>
      </trkpt>
      <trkpt lat="45.89542" lon="2.95192">
        <ele>838.9</ele>
        <time>2021-07-19T10:47:45Z</time>
      </trkpt>
      <trkpt lat="45.89528" lon="2.95175">
        <ele>836.2</ele>
        <time>2021-07-19T10:47:48Z</time>
      </trkpt>
      <trkpt lat="45.8952" lon="2.95168">
        <ele>834.7</ele>
        <time>2021-07-19T10:47:50Z</time>
      </trkpt>
      <trkpt lat="45.8951" lon="2.95164">
        <ele>834</ele>
        <time>2021-07-19T10:47:52Z</time>
      </trkpt>
      <trkpt lat="45.89497" lon="2.95157">
        <ele>833.4</ele>
        <time>2021-07-19T10:47:54Z</time>
      </trkpt>
      <trkpt lat="45.89487" lon="2.95148">
        <ele>833.6</ele>
        <time>2021-07-19T10:47:56Z</time>
      </trkpt>
      <trkpt lat="45.89484" lon="2.95133">
        <ele>832.2</ele>
        <time>2021-07-19T10:47:59Z</time>
      </trkpt>
      <trkpt lat="45.89487" lon="2.9512">
        <ele>830.4</ele>
        <time>2021-07-19T10:48:03Z</time>
      </trkpt>
      <trkpt lat="45.89488" lon="2.95107">
        <ele>828.9</ele>
        <time>2021-07-19T10:48:17Z</time>
      </trkpt>
      <trkpt lat="45.89492" lon="2.95095">
        <ele>827.4</ele>
        <time>2021-07-19T10:48:28Z</time>
      </trkpt>
      <trkpt lat="45.89496" lon="2.95082">
        <ele>826.1</ele>
        <time>2021-07-19T10:48:35Z</time>
      </trkpt>
      <trkpt lat="45.89499" lon="2.9507">
        <ele>825.9</ele>
        <time>2021-07-19T10:48:47Z</time>
      </trkpt>
      <trkpt lat="45.89496" lon="2.95056">
        <ele>825.8</ele>
        <time>2021-07-19T10:49:06Z</time>
      </trkpt>
      <trkpt lat="45.89487" lon="2.95054">
        <ele>826</ele>
        <time>2021-07-19T10:49:17Z</time>
      </trkpt>
      <trkpt lat="45.89478" lon="2.95057">
        <ele>826.3</ele>
        <time>2021-07-19T10:50:58Z</time>
      </trkpt>
      <trkpt lat="45.89468" lon="2.95057">
        <ele>826.6</ele>
        <time>2021-07-19T10:52:49Z</time>
      </trkpt>
      <trkpt lat="45.89459" lon="2.95056">
        <ele>826.8</ele>
        <time>2021-07-19T10:52:54Z</time>
      </trkpt>
      <trkpt lat="45.89448" lon="2.95058">
        <ele>827.1</ele>
        <time>2021-07-19T10:52:59Z</time>
      </trkpt>
      <trkpt lat="45.89438" lon="2.95057">
        <ele>827.4</ele>
        <time>2021-07-19T10:53:03Z</time>
      </trkpt>
      <trkpt lat="45.89428" lon="2.95056">
        <ele>827.7</ele>
        <time>2021-07-19T10:53:07Z</time>
      </trkpt>
      <trkpt lat="45.89418" lon="2.95056">
        <ele>828</ele>
        <time>2021-07-19T10:53:11Z</time>
      </trkpt>
      <trkpt lat="45.89407" lon="2.95056">
        <ele>828.7</ele>
        <time>2021-07-19T10:53:15Z</time>
      </trkpt>
      <trkpt lat="45.89398" lon="2.95056">
        <ele>829.4</ele>
        <time>2021-07-19T10:53:19Z</time>
      </trkpt>
      <trkpt lat="45.89388" lon="2.95055">
        <ele>830.1</ele>
        <time>2021-07-19T10:53:23Z</time>
      </trkpt>
      <trkpt lat="45.89379" lon="2.95055">
        <ele>830.7</ele>
        <time>2021-07-19T10:53:27Z</time>
      </trkpt>
      <trkpt lat="45.8937" lon="2.95055">
        <ele>831.3</ele>
        <time>2021-07-19T10:53:31Z</time>
      </trkpt>
      <trkpt lat="45.8936" lon="2.95055">
        <ele>832.1</ele>
        <time>2021-07-19T10:53:35Z</time>
      </trkpt>
      <trkpt lat="45.89351" lon="2.95053">
        <ele>832.6</ele>
        <time>2021-07-19T10:53:39Z</time>
      </trkpt>
      <trkpt lat="45.8934" lon="2.95052">
        <ele>833.3</ele>
        <time>2021-07-19T10:53:45Z</time>
      </trkpt>
      <trkpt lat="45.89329" lon="2.9505">
        <ele>833.9</ele>
        <time>2021-07-19T10:53:50Z</time>
      </trkpt>
      <trkpt lat="45.89319" lon="2.9505">
        <ele>834.7</ele>
        <time>2021-07-19T10:53:54Z</time>
      </trkpt>
      <trkpt lat="45.8931" lon="2.95042">
        <ele>834.4</ele>
        <time>2021-07-19T10:53:59Z</time>
      </trkpt>
      <trkpt lat="45.89309" lon="2.95026">
        <ele>832.7</ele>
        <time>2021-07-19T10:54:03Z</time>
      </trkpt>
      <trkpt lat="45.8931" lon="2.95011">
        <ele>831</ele>
        <time>2021-07-19T10:54:07Z</time>
      </trkpt>
      <trkpt lat="45.89312" lon="2.94996">
        <ele>829.7</ele>
        <time>2021-07-19T10:54:11Z</time>
      </trkpt>
      <trkpt lat="45.89313" lon="2.94982">
        <ele>829.4</ele>
        <time>2021-07-19T10:54:15Z</time>
      </trkpt>
      <trkpt lat="45.89314" lon="2.94968">
        <ele>829.2</ele>
        <time>2021-07-19T10:54:19Z</time>
      </trkpt>
      <trkpt lat="45.89314" lon="2.94953">
        <ele>828.9</ele>
        <time>2021-07-19T10:54:22Z</time>
      </trkpt>
      <trkpt lat="45.89316" lon="2.94938">
        <ele>828.6</ele>
        <time>2021-07-19T10:54:25Z</time>
      </trkpt>
      <trkpt lat="45.89317" lon="2.94925">
        <ele>828.4</ele>
        <time>2021-07-19T10:54:28Z</time>
      </trkpt>
      <trkpt lat="45.89316" lon="2.9491">
        <ele>828.1</ele>
        <time>2021-07-19T10:54:32Z</time>
      </trkpt>
      <trkpt lat="45.89311" lon="2.94895">
        <ele>828</ele>
        <time>2021-07-19T10:54:36Z</time>
      </trkpt>
      <trkpt lat="45.89301" lon="2.94891">
        <ele>828.1</ele>
        <time>2021-07-19T10:54:40Z</time>
      </trkpt>
      <trkpt lat="45.8929" lon="2.94892">
        <ele>828.2</ele>
        <time>2021-07-19T10:54:45Z</time>
      </trkpt>
      <trkpt lat="45.89281" lon="2.94895">
        <ele>828.4</ele>
        <time>2021-07-19T10:54:50Z</time>
      </trkpt>
      <trkpt lat="45.89271" lon="2.94891">
        <ele>828.4</ele>
        <time>2021-07-19T10:54:56Z</time>
      </trkpt>
      <trkpt lat="45.89267" lon="2.9488">
        <ele>828.4</ele>
        <time>2021-07-19T10:55:00Z</time>
      </trkpt>
      <trkpt lat="45.89262" lon="2.94868">
        <ele>828.3</ele>
        <time>2021-07-19T10:55:05Z</time>
      </trkpt>
      <trkpt lat="45.89261" lon="2.94854">
        <ele>828.1</ele>
        <time>2021-07-19T10:55:13Z</time>
      </trkpt>
      <trkpt lat="45.89262" lon="2.94839">
        <ele>827.9</ele>
        <time>2021-07-19T10:55:17Z</time>
      </trkpt>
      <trkpt lat="45.89265" lon="2.94823">
        <ele>827.5</ele>
        <time>2021-07-19T10:55:20Z</time>
      </trkpt>
      <trkpt lat="45.89267" lon="2.94805">
        <ele>827</ele>
        <time>2021-07-19T10:55:23Z</time>
      </trkpt>
      <trkpt lat="45.89265" lon="2.94791">
        <ele>826.6</ele>
        <time>2021-07-19T10:55:25Z</time>
      </trkpt>
      <trkpt lat="45.89259" lon="2.94776">
        <ele>826.1</ele>
        <time>2021-07-19T10:55:28Z</time>
      </trkpt>
      <trkpt lat="45.89251" lon="2.94765">
        <ele>825.6</ele>
        <time>2021-07-19T10:55:31Z</time>
      </trkpt>
      <trkpt lat="45.89243" lon="2.94756">
        <ele>825.2</ele>
        <time>2021-07-19T10:56:03Z</time>
      </trkpt>
      <trkpt lat="45.89235" lon="2.94747">
        <ele>825.1</ele>
        <time>2021-07-19T10:56:08Z</time>
      </trkpt>
      <trkpt lat="45.89229" lon="2.94737">
        <ele>825.2</ele>
        <time>2021-07-19T10:56:11Z</time>
      </trkpt>
      <trkpt lat="45.89223" lon="2.94725">
        <ele>825.3</ele>
        <time>2021-07-19T10:56:14Z</time>
      </trkpt>
      <trkpt lat="45.89217" lon="2.94712">
        <ele>825.4</ele>
        <time>2021-07-19T10:56:17Z</time>
      </trkpt>
      <trkpt lat="45.89209" lon="2.94701">
        <ele>825.3</ele>
        <time>2021-07-19T10:56:20Z</time>
      </trkpt>
      <trkpt lat="45.892" lon="2.94691">
        <ele>825.1</ele>
        <time>2021-07-19T10:56:23Z</time>
      </trkpt>
      <trkpt lat="45.89191" lon="2.94684">
        <ele>824.9</ele>
        <time>2021-07-19T10:56:26Z</time>
      </trkpt>
      <trkpt lat="45.89181" lon="2.94677">
        <ele>824.6</ele>
        <time>2021-07-19T10:56:29Z</time>
      </trkpt>
      <trkpt lat="45.89171" lon="2.94673">
        <ele>824.2</ele>
        <time>2021-07-19T10:56:32Z</time>
      </trkpt>
      <trkpt lat="45.8916" lon="2.9467">
        <ele>824</ele>
        <time>2021-07-19T10:56:35Z</time>
      </trkpt>
      <trkpt lat="45.89149" lon="2.94668">
        <ele>824</ele>
        <time>2021-07-19T10:56:38Z</time>
      </trkpt>
      <trkpt lat="45.89139" lon="2.94669">
        <ele>824</ele>
        <time>2021-07-19T10:56:41Z</time>
      </trkpt>
      <trkpt lat="45.89129" lon="2.94672">
        <ele>824.1</ele>
        <time>2021-07-19T10:56:44Z</time>
      </trkpt>
      <trkpt lat="45.89119" lon="2.94674">
        <ele>824.1</ele>
        <time>2021-07-19T10:56:47Z</time>
      </trkpt>
      <trkpt lat="45.8911" lon="2.94667">
        <ele>824</ele>
        <time>2021-07-19T10:56:51Z</time>
      </trkpt>
      <trkpt lat="45.89115" lon="2.94655">
        <ele>824</ele>
        <time>2021-07-19T10:56:54Z</time>
      </trkpt>
      <trkpt lat="45.89122" lon="2.94641">
        <ele>824</ele>
        <time>2021-07-19T10:56:57Z</time>
      </trkpt>
      <trkpt lat="45.89127" lon="2.94627">
        <ele>824</ele>
        <time>2021-07-19T10:57:00Z</time>
      </trkpt>
      <trkpt lat="45.89129" lon="2.94611">
        <ele>824.1</ele>
        <time>2021-07-19T10:57:03Z</time>
      </trkpt>
      <trkpt lat="45.89129" lon="2.94594">
        <ele>824.1</ele>
        <time>2021-07-19T10:57:06Z</time>
      </trkpt>
      <trkpt lat="45.89126" lon="2.94581">
        <ele>824.1</ele>
        <time>2021-07-19T10:57:09Z</time>
      </trkpt>
      <trkpt lat="45.89117" lon="2.94572">
        <ele>824.3</ele>
        <time>2021-07-19T10:57:12Z</time>
      </trkpt>
      <trkpt lat="45.89111" lon="2.94563">
        <ele>824.5</ele>
        <time>2021-07-19T10:57:15Z</time>
      </trkpt>
      <trkpt lat="45.89105" lon="2.94551">
        <ele>824.8</ele>
        <time>2021-07-19T10:57:18Z</time>
      </trkpt>
      <trkpt lat="45.891" lon="2.9454">
        <ele>825.1</ele>
        <time>2021-07-19T10:57:21Z</time>
      </trkpt>
      <trkpt lat="45.89095" lon="2.94528">
        <ele>825.4</ele>
        <time>2021-07-19T10:57:24Z</time>
      </trkpt>
      <trkpt lat="45.89092" lon="2.94516">
        <ele>825.7</ele>
        <time>2021-07-19T10:57:27Z</time>
      </trkpt>
      <trkpt lat="45.89088" lon="2.94503">
        <ele>826.1</ele>
        <time>2021-07-19T10:57:30Z</time>
      </trkpt>
      <trkpt lat="45.89085" lon="2.94491">
        <ele>826.3</ele>
        <time>2021-07-19T10:57:33Z</time>
      </trkpt>
      <trkpt lat="45.89082" lon="2.94478">
        <ele>826.5</ele>
        <time>2021-07-19T10:57:36Z</time>
      </trkpt>
      <trkpt lat="45.89078" lon="2.94464">
        <ele>826.6</ele>
        <time>2021-07-19T10:57:39Z</time>
      </trkpt>
      <trkpt lat="45.89075" lon="2.94449">
        <ele>826.9</ele>
        <time>2021-07-19T10:57:42Z</time>
      </trkpt>
      <trkpt lat="45.8907" lon="2.94434">
        <ele>827</ele>
        <time>2021-07-19T10:57:45Z</time>
      </trkpt>
      <trkpt lat="45.89066" lon="2.9442">
        <ele>827.1</ele>
        <time>2021-07-19T10:57:48Z</time>
      </trkpt>
      <trkpt lat="45.89062" lon="2.94404">
        <ele>827.1</ele>
        <time>2021-07-19T10:57:51Z</time>
      </trkpt>
      <trkpt lat="45.89057" lon="2.94389">
        <ele>827.1</ele>
        <time>2021-07-19T10:57:54Z</time>
      </trkpt>
      <trkpt lat="45.89052" lon="2.94376">
        <ele>827</ele>
        <time>2021-07-19T10:57:57Z</time>
      </trkpt>
      <trkpt lat="45.89048" lon="2.94361">
        <ele>827</ele>
        <time>2021-07-19T10:58:01Z</time>
      </trkpt>
      <trkpt lat="45.89044" lon="2.94345">
        <ele>827</ele>
        <time>2021-07-19T10:58:05Z</time>
      </trkpt>
      <trkpt lat="45.8904" lon="2.94332">
        <ele>827</ele>
        <time>2021-07-19T10:58:08Z</time>
      </trkpt>
      <trkpt lat="45.89037" lon="2.94318">
        <ele>827.2</ele>
        <time>2021-07-19T10:58:11Z</time>
      </trkpt>
      <trkpt lat="45.89034" lon="2.94302">
        <ele>827.5</ele>
        <time>2021-07-19T10:58:14Z</time>
      </trkpt>
      <trkpt lat="45.89031" lon="2.94287">
        <ele>827.8</ele>
        <time>2021-07-19T10:58:17Z</time>
      </trkpt>
      <trkpt lat="45.89027" lon="2.94271">
        <ele>828</ele>
        <time>2021-07-19T10:58:20Z</time>
      </trkpt>
      <trkpt lat="45.89023" lon="2.94255">
        <ele>828.2</ele>
        <time>2021-07-19T10:58:23Z</time>
      </trkpt>
      <trkpt lat="45.89019" lon="2.9424">
        <ele>828.4</ele>
        <time>2021-07-19T10:58:26Z</time>
      </trkpt>
      <trkpt lat="45.89016" lon="2.94225">
        <ele>828.6</ele>
        <time>2021-07-19T10:58:29Z</time>
      </trkpt>
      <trkpt lat="45.89011" lon="2.94211">
        <ele>828.7</ele>
        <time>2021-07-19T10:58:32Z</time>
      </trkpt>
      <trkpt lat="45.89004" lon="2.94198">
        <ele>828.5</ele>
        <time>2021-07-19T10:58:35Z</time>
      </trkpt>
      <trkpt lat="45.88997" lon="2.94187">
        <ele>828.5</ele>
        <time>2021-07-19T10:58:38Z</time>
      </trkpt>
      <trkpt lat="45.8899" lon="2.94176">
        <ele>828.8</ele>
        <time>2021-07-19T10:58:41Z</time>
      </trkpt>
      <trkpt lat="45.88983" lon="2.94165">
        <ele>829</ele>
        <time>2021-07-19T10:58:44Z</time>
      </trkpt>
      <trkpt lat="45.88976" lon="2.94152">
        <ele>829.4</ele>
        <time>2021-07-19T10:58:48Z</time>
      </trkpt>
      <trkpt lat="45.88969" lon="2.94143">
        <ele>829.6</ele>
        <time>2021-07-19T10:58:50Z</time>
      </trkpt>
      <trkpt lat="45.88961" lon="2.94131">
        <ele>829.9</ele>
        <time>2021-07-19T10:58:53Z</time>
      </trkpt>
      <trkpt lat="45.88954" lon="2.94119">
        <ele>830.1</ele>
        <time>2021-07-19T10:58:56Z</time>
      </trkpt>
      <trkpt lat="45.88945" lon="2.94111">
        <ele>830.3</ele>
        <time>2021-07-19T10:58:59Z</time>
      </trkpt>
      <trkpt lat="45.88937" lon="2.94103">
        <ele>830.5</ele>
        <time>2021-07-19T10:59:02Z</time>
      </trkpt>
      <trkpt lat="45.88929" lon="2.94094">
        <ele>830.7</ele>
        <time>2021-07-19T10:59:05Z</time>
      </trkpt>
      <trkpt lat="45.88921" lon="2.94085">
        <ele>831</ele>
        <time>2021-07-19T10:59:08Z</time>
      </trkpt>
      <trkpt lat="45.88912" lon="2.94078">
        <ele>831.3</ele>
        <time>2021-07-19T10:59:11Z</time>
      </trkpt>
      <trkpt lat="45.88904" lon="2.94069">
        <ele>831.8</ele>
        <time>2021-07-19T10:59:16Z</time>
      </trkpt>
      <trkpt lat="45.88894" lon="2.94064">
        <ele>832.2</ele>
        <time>2021-07-19T10:59:20Z</time>
      </trkpt>
      <trkpt lat="45.88884" lon="2.94061">
        <ele>832.6</ele>
        <time>2021-07-19T10:59:25Z</time>
      </trkpt>
      <trkpt lat="45.88873" lon="2.94061">
        <ele>833</ele>
        <time>2021-07-19T10:59:30Z</time>
      </trkpt>
      <trkpt lat="45.88863" lon="2.94062">
        <ele>833.3</ele>
        <time>2021-07-19T10:59:35Z</time>
      </trkpt>
      <trkpt lat="45.88853" lon="2.94061">
        <ele>833.6</ele>
        <time>2021-07-19T10:59:39Z</time>
      </trkpt>
      <trkpt lat="45.88843" lon="2.94061">
        <ele>834</ele>
        <time>2021-07-19T10:59:44Z</time>
      </trkpt>
      <trkpt lat="45.88833" lon="2.94063">
        <ele>834.3</ele>
        <time>2021-07-19T10:59:49Z</time>
      </trkpt>
      <trkpt lat="45.88824" lon="2.94063">
        <ele>834.8</ele>
        <time>2021-07-19T10:59:55Z</time>
      </trkpt>
      <trkpt lat="45.88813" lon="2.94061">
        <ele>835.4</ele>
        <time>2021-07-19T11:00:00Z</time>
      </trkpt>
      <trkpt lat="45.88802" lon="2.94062">
        <ele>836</ele>
        <time>2021-07-19T11:00:05Z</time>
      </trkpt>
      <trkpt lat="45.88792" lon="2.94061">
        <ele>836.6</ele>
        <time>2021-07-19T11:00:10Z</time>
      </trkpt>
      <trkpt lat="45.88783" lon="2.94062">
        <ele>837.1</ele>
        <time>2021-07-19T11:00:14Z</time>
      </trkpt>
      <trkpt lat="45.88774" lon="2.9406">
        <ele>837.6</ele>
        <time>2021-07-19T11:00:18Z</time>
      </trkpt>
      <trkpt lat="45.88763" lon="2.94059">
        <ele>838.3</ele>
        <time>2021-07-19T11:00:23Z</time>
      </trkpt>
      <trkpt lat="45.88753" lon="2.9406">
        <ele>838.8</ele>
        <time>2021-07-19T11:00:28Z</time>
      </trkpt>
      <trkpt lat="45.88743" lon="2.9406">
        <ele>839.2</ele>
        <time>2021-07-19T11:00:33Z</time>
      </trkpt>
      <trkpt lat="45.88732" lon="2.9406">
        <ele>839.4</ele>
        <time>2021-07-19T11:00:38Z</time>
      </trkpt>
      <trkpt lat="45.88721" lon="2.94062">
        <ele>839.7</ele>
        <time>2021-07-19T11:00:43Z</time>
      </trkpt>
      <trkpt lat="45.88711" lon="2.94064">
        <ele>839.9</ele>
        <time>2021-07-19T11:00:48Z</time>
      </trkpt>
      <trkpt lat="45.88702" lon="2.94064">
        <ele>840.2</ele>
        <time>2021-07-19T11:00:52Z</time>
      </trkpt>
      <trkpt lat="45.88692" lon="2.94065">
        <ele>840.4</ele>
        <time>2021-07-19T11:00:56Z</time>
      </trkpt>
      <trkpt lat="45.88682" lon="2.94066">
        <ele>840.6</ele>
        <time>2021-07-19T11:01:00Z</time>
      </trkpt>
      <trkpt lat="45.88672" lon="2.94066">
        <ele>840.9</ele>
        <time>2021-07-19T11:01:04Z</time>
      </trkpt>
      <trkpt lat="45.88662" lon="2.94068">
        <ele>840.8</ele>
        <time>2021-07-19T11:01:08Z</time>
      </trkpt>
      <trkpt lat="45.88653" lon="2.9407">
        <ele>840.4</ele>
        <time>2021-07-19T11:01:12Z</time>
      </trkpt>
      <trkpt lat="45.88644" lon="2.94072">
        <ele>840</ele>
        <time>2021-07-19T11:01:16Z</time>
      </trkpt>
      <trkpt lat="45.88634" lon="2.9407">
        <ele>839.6</ele>
        <time>2021-07-19T11:01:21Z</time>
      </trkpt>
      <trkpt lat="45.88625" lon="2.94067">
        <ele>839.3</ele>
        <time>2021-07-19T11:01:24Z</time>
      </trkpt>
      <trkpt lat="45.88613" lon="2.94064">
        <ele>838.9</ele>
        <time>2021-07-19T11:01:27Z</time>
      </trkpt>
      <trkpt lat="45.88604" lon="2.94058">
        <ele>838.7</ele>
        <time>2021-07-19T11:01:30Z</time>
      </trkpt>
      <trkpt lat="45.88602" lon="2.94045">
        <ele>839</ele>
        <time>2021-07-19T11:01:33Z</time>
      </trkpt>
      <trkpt lat="45.88598" lon="2.94033">
        <ele>839.2</ele>
        <time>2021-07-19T11:01:37Z</time>
      </trkpt>
      <trkpt lat="45.88588" lon="2.94021">
        <ele>839.3</ele>
        <time>2021-07-19T11:01:39Z</time>
      </trkpt>
      <trkpt lat="45.88577" lon="2.94014">
        <ele>839.9</ele>
        <time>2021-07-19T11:01:42Z</time>
      </trkpt>
      <trkpt lat="45.88567" lon="2.94009">
        <ele>840.7</ele>
        <time>2021-07-19T11:01:45Z</time>
      </trkpt>
      <trkpt lat="45.88558" lon="2.94006">
        <ele>841.3</ele>
        <time>2021-07-19T11:01:48Z</time>
      </trkpt>
      <trkpt lat="45.88547" lon="2.94003">
        <ele>842.1</ele>
        <time>2021-07-19T11:01:52Z</time>
      </trkpt>
      <trkpt lat="45.88537" lon="2.94">
        <ele>842.8</ele>
        <time>2021-07-19T11:01:56Z</time>
      </trkpt>
      <trkpt lat="45.88528" lon="2.93996">
        <ele>843.8</ele>
        <time>2021-07-19T11:02:00Z</time>
      </trkpt>
      <trkpt lat="45.88518" lon="2.93997">
        <ele>844.2</ele>
        <time>2021-07-19T11:02:05Z</time>
      </trkpt>
      <trkpt lat="45.88512" lon="2.94008">
        <ele>844.1</ele>
        <time>2021-07-19T11:02:09Z</time>
      </trkpt>
      <trkpt lat="45.8851" lon="2.94021">
        <ele>843.9</ele>
        <time>2021-07-19T11:02:12Z</time>
      </trkpt>
      <trkpt lat="45.88511" lon="2.94036">
        <ele>843.4</ele>
        <time>2021-07-19T11:02:15Z</time>
      </trkpt>
      <trkpt lat="45.88512" lon="2.9405">
        <ele>843</ele>
        <time>2021-07-19T11:02:18Z</time>
      </trkpt>
      <trkpt lat="45.88513" lon="2.94064">
        <ele>842.6</ele>
        <time>2021-07-19T11:02:21Z</time>
      </trkpt>
      <trkpt lat="45.88514" lon="2.9408">
        <ele>842.1</ele>
        <time>2021-07-19T11:02:25Z</time>
      </trkpt>
      <trkpt lat="45.88515" lon="2.94096">
        <ele>841.9</ele>
        <time>2021-07-19T11:02:29Z</time>
      </trkpt>
      <trkpt lat="45.88515" lon="2.94112">
        <ele>841.8</ele>
        <time>2021-07-19T11:02:32Z</time>
      </trkpt>
      <trkpt lat="45.8852" lon="2.9413">
        <ele>841.3</ele>
        <time>2021-07-19T11:02:35Z</time>
      </trkpt>
      <trkpt lat="45.88525" lon="2.94145">
        <ele>840.8</ele>
        <time>2021-07-19T11:02:37Z</time>
      </trkpt>
      <trkpt lat="45.8853" lon="2.94156">
        <ele>840.2</ele>
        <time>2021-07-19T11:02:38Z</time>
      </trkpt>
      <trkpt lat="45.88536" lon="2.94175">
        <ele>838.8</ele>
        <time>2021-07-19T11:02:40Z</time>
      </trkpt>
      <trkpt lat="45.88539" lon="2.94197">
        <ele>836.5</ele>
        <time>2021-07-19T11:02:42Z</time>
      </trkpt>
      <trkpt lat="45.88542" lon="2.94217">
        <ele>834.4</ele>
        <time>2021-07-19T11:02:44Z</time>
      </trkpt>
      <trkpt lat="45.88541" lon="2.94237">
        <ele>832.7</ele>
        <time>2021-07-19T11:02:46Z</time>
      </trkpt>
      <trkpt lat="45.88536" lon="2.94257">
        <ele>831.4</ele>
        <time>2021-07-19T11:02:48Z</time>
      </trkpt>
      <trkpt lat="45.88529" lon="2.94273">
        <ele>830.6</ele>
        <time>2021-07-19T11:02:50Z</time>
      </trkpt>
      <trkpt lat="45.88518" lon="2.94288">
        <ele>830</ele>
        <time>2021-07-19T11:02:52Z</time>
      </trkpt>
      <trkpt lat="45.88505" lon="2.94299">
        <ele>829.7</ele>
        <time>2021-07-19T11:02:54Z</time>
      </trkpt>
      <trkpt lat="45.88494" lon="2.94311">
        <ele>829.1</ele>
        <time>2021-07-19T11:02:56Z</time>
      </trkpt>
      <trkpt lat="45.88482" lon="2.94321">
        <ele>828.7</ele>
        <time>2021-07-19T11:02:58Z</time>
      </trkpt>
      <trkpt lat="45.8847" lon="2.94331">
        <ele>828.3</ele>
        <time>2021-07-19T11:03:00Z</time>
      </trkpt>
      <trkpt lat="45.8846" lon="2.9434">
        <ele>828.1</ele>
        <time>2021-07-19T11:03:02Z</time>
      </trkpt>
      <trkpt lat="45.88451" lon="2.94353">
        <ele>827.8</ele>
        <time>2021-07-19T11:03:04Z</time>
      </trkpt>
      <trkpt lat="45.88441" lon="2.94366">
        <ele>827.6</ele>
        <time>2021-07-19T11:03:06Z</time>
      </trkpt>
      <trkpt lat="45.88432" lon="2.9438">
        <ele>827.5</ele>
        <time>2021-07-19T11:03:08Z</time>
      </trkpt>
      <trkpt lat="45.88425" lon="2.94389">
        <ele>827.5</ele>
        <time>2021-07-19T11:03:10Z</time>
      </trkpt>
      <trkpt lat="45.88419" lon="2.94402">
        <ele>827.4</ele>
        <time>2021-07-19T11:03:12Z</time>
      </trkpt>
      <trkpt lat="45.88411" lon="2.94413">
        <ele>827.4</ele>
        <time>2021-07-19T11:03:14Z</time>
      </trkpt>
      <trkpt lat="45.88406" lon="2.94429">
        <ele>827</ele>
        <time>2021-07-19T11:03:16Z</time>
      </trkpt>
      <trkpt lat="45.88401" lon="2.94442">
        <ele>826.6</ele>
        <time>2021-07-19T11:03:18Z</time>
      </trkpt>
      <trkpt lat="45.88392" lon="2.94456">
        <ele>826.2</ele>
        <time>2021-07-19T11:03:20Z</time>
      </trkpt>
      <trkpt lat="45.88381" lon="2.9447">
        <ele>825.7</ele>
        <time>2021-07-19T11:03:22Z</time>
      </trkpt>
      <trkpt lat="45.88369" lon="2.94483">
        <ele>825.1</ele>
        <time>2021-07-19T11:03:24Z</time>
      </trkpt>
      <trkpt lat="45.88357" lon="2.94495">
        <ele>824.4</ele>
        <time>2021-07-19T11:03:26Z</time>
      </trkpt>
      <trkpt lat="45.88345" lon="2.94507">
        <ele>823.7</ele>
        <time>2021-07-19T11:03:28Z</time>
      </trkpt>
      <trkpt lat="45.88333" lon="2.94518">
        <ele>823.3</ele>
        <time>2021-07-19T11:03:30Z</time>
      </trkpt>
      <trkpt lat="45.88324" lon="2.94526">
        <ele>822.9</ele>
        <time>2021-07-19T11:03:32Z</time>
      </trkpt>
      <trkpt lat="45.88312" lon="2.94529">
        <ele>822.7</ele>
        <time>2021-07-19T11:03:34Z</time>
      </trkpt>
      <trkpt lat="45.88304" lon="2.9452">
        <ele>822.8</ele>
        <time>2021-07-19T11:03:36Z</time>
      </trkpt>
      <trkpt lat="45.88293" lon="2.94508">
        <ele>822.9</ele>
        <time>2021-07-19T11:03:39Z</time>
      </trkpt>
      <trkpt lat="45.88285" lon="2.94502">
        <ele>822.8</ele>
        <time>2021-07-19T11:03:41Z</time>
      </trkpt>
      <trkpt lat="45.88271" lon="2.94501">
        <ele>822.5</ele>
        <time>2021-07-19T11:03:44Z</time>
      </trkpt>
      <trkpt lat="45.88258" lon="2.94498">
        <ele>822.3</ele>
        <time>2021-07-19T11:03:47Z</time>
      </trkpt>
      <trkpt lat="45.88248" lon="2.94497">
        <ele>822.2</ele>
        <time>2021-07-19T11:03:49Z</time>
      </trkpt>
      <trkpt lat="45.88238" lon="2.94496">
        <ele>822.3</ele>
        <time>2021-07-19T11:03:51Z</time>
      </trkpt>
      <trkpt lat="45.88225" lon="2.94496">
        <ele>822.5</ele>
        <time>2021-07-19T11:03:54Z</time>
      </trkpt>
      <trkpt lat="45.88215" lon="2.94497">
        <ele>822.5</ele>
        <time>2021-07-19T11:03:56Z</time>
      </trkpt>
      <trkpt lat="45.88206" lon="2.94497">
        <ele>822.6</ele>
        <time>2021-07-19T11:03:58Z</time>
      </trkpt>
      <trkpt lat="45.88196" lon="2.94496">
        <ele>822.8</ele>
        <time>2021-07-19T11:04:00Z</time>
      </trkpt>
      <trkpt lat="45.88187" lon="2.94495">
        <ele>822.9</ele>
        <time>2021-07-19T11:04:02Z</time>
      </trkpt>
      <trkpt lat="45.88178" lon="2.94494">
        <ele>823</ele>
        <time>2021-07-19T11:04:04Z</time>
      </trkpt>
      <trkpt lat="45.88168" lon="2.94492">
        <ele>823.2</ele>
        <time>2021-07-19T11:04:06Z</time>
      </trkpt>
      <trkpt lat="45.88158" lon="2.94491">
        <ele>823.3</ele>
        <time>2021-07-19T11:04:08Z</time>
      </trkpt>
      <trkpt lat="45.88146" lon="2.94484">
        <ele>823.6</ele>
        <time>2021-07-19T11:04:11Z</time>
      </trkpt>
      <trkpt lat="45.88136" lon="2.9448">
        <ele>823.8</ele>
        <time>2021-07-19T11:04:13Z</time>
      </trkpt>
      <trkpt lat="45.88126" lon="2.94477">
        <ele>823.9</ele>
        <time>2021-07-19T11:04:16Z</time>
      </trkpt>
      <trkpt lat="45.88113" lon="2.94474">
        <ele>824.1</ele>
        <time>2021-07-19T11:04:19Z</time>
      </trkpt>
      <trkpt lat="45.881" lon="2.94474">
        <ele>824.2</ele>
        <time>2021-07-19T11:04:21Z</time>
      </trkpt>
      <trkpt lat="45.88087" lon="2.94475">
        <ele>824.3</ele>
        <time>2021-07-19T11:04:24Z</time>
      </trkpt>
      <trkpt lat="45.88075" lon="2.94476">
        <ele>825</ele>
        <time>2021-07-19T11:04:27Z</time>
      </trkpt>
      <trkpt lat="45.88064" lon="2.94477">
        <ele>825.8</ele>
        <time>2021-07-19T11:04:30Z</time>
      </trkpt>
      <trkpt lat="45.88055" lon="2.94477">
        <ele>826.6</ele>
        <time>2021-07-19T11:04:33Z</time>
      </trkpt>
      <trkpt lat="45.88045" lon="2.94478">
        <ele>827.4</ele>
        <time>2021-07-19T11:04:38Z</time>
      </trkpt>
      <trkpt lat="45.88036" lon="2.9448">
        <ele>828.1</ele>
        <time>2021-07-19T11:04:45Z</time>
      </trkpt>
      <trkpt lat="45.88026" lon="2.94485">
        <ele>828.9</ele>
        <time>2021-07-19T11:04:52Z</time>
      </trkpt>
      <trkpt lat="45.88018" lon="2.94496">
        <ele>829.5</ele>
        <time>2021-07-19T11:05:00Z</time>
      </trkpt>
      <trkpt lat="45.88011" lon="2.94504">
        <ele>829.9</ele>
        <time>2021-07-19T11:05:04Z</time>
      </trkpt>
      <trkpt lat="45.88002" lon="2.94509">
        <ele>830.3</ele>
        <time>2021-07-19T11:05:08Z</time>
      </trkpt>
      <trkpt lat="45.87993" lon="2.94515">
        <ele>831.1</ele>
        <time>2021-07-19T11:05:12Z</time>
      </trkpt>
      <trkpt lat="45.87984" lon="2.94522">
        <ele>831.8</ele>
        <time>2021-07-19T11:05:17Z</time>
      </trkpt>
      <trkpt lat="45.87976" lon="2.94531">
        <ele>832.3</ele>
        <time>2021-07-19T11:05:22Z</time>
      </trkpt>
      <trkpt lat="45.87968" lon="2.94539">
        <ele>832.7</ele>
        <time>2021-07-19T11:05:28Z</time>
      </trkpt>
      <trkpt lat="45.87959" lon="2.94549">
        <ele>833.1</ele>
        <time>2021-07-19T11:05:33Z</time>
      </trkpt>
      <trkpt lat="45.87952" lon="2.94557">
        <ele>833.3</ele>
        <time>2021-07-19T11:05:37Z</time>
      </trkpt>
      <trkpt lat="45.87946" lon="2.94567">
        <ele>833.2</ele>
        <time>2021-07-19T11:05:41Z</time>
      </trkpt>
      <trkpt lat="45.87938" lon="2.94574">
        <ele>833.5</ele>
        <time>2021-07-19T11:05:45Z</time>
      </trkpt>
      <trkpt lat="45.87931" lon="2.94584">
        <ele>833.4</ele>
        <time>2021-07-19T11:05:50Z</time>
      </trkpt>
      <trkpt lat="45.87923" lon="2.94591">
        <ele>834.1</ele>
        <time>2021-07-19T11:05:55Z</time>
      </trkpt>
      <trkpt lat="45.87915" lon="2.946">
        <ele>834.6</ele>
        <time>2021-07-19T11:06:01Z</time>
      </trkpt>
      <trkpt lat="45.87906" lon="2.94603">
        <ele>834.8</ele>
        <time>2021-07-19T11:06:07Z</time>
      </trkpt>
      <trkpt lat="45.87896" lon="2.94607">
        <ele>834.9</ele>
        <time>2021-07-19T11:06:13Z</time>
      </trkpt>
      <trkpt lat="45.87888" lon="2.94612">
        <ele>835</ele>
        <time>2021-07-19T11:06:18Z</time>
      </trkpt>
      <trkpt lat="45.87877" lon="2.94618">
        <ele>835.1</ele>
        <time>2021-07-19T11:06:23Z</time>
      </trkpt>
      <trkpt lat="45.87867" lon="2.94621">
        <ele>835.3</ele>
        <time>2021-07-19T11:06:28Z</time>
      </trkpt>
      <trkpt lat="45.87856" lon="2.94623">
        <ele>835.5</ele>
        <time>2021-07-19T11:06:33Z</time>
      </trkpt>
      <trkpt lat="45.87848" lon="2.94626">
        <ele>835.6</ele>
        <time>2021-07-19T11:06:38Z</time>
      </trkpt>
      <trkpt lat="45.87836" lon="2.9463">
        <ele>835.8</ele>
        <time>2021-07-19T11:06:44Z</time>
      </trkpt>
      <trkpt lat="45.87826" lon="2.94634">
        <ele>835.8</ele>
        <time>2021-07-19T11:06:48Z</time>
      </trkpt>
      <trkpt lat="45.87815" lon="2.94639">
        <ele>835.8</ele>
        <time>2021-07-19T11:06:52Z</time>
      </trkpt>
      <trkpt lat="45.87805" lon="2.94645">
        <ele>835.8</ele>
        <time>2021-07-19T11:06:56Z</time>
      </trkpt>
      <trkpt lat="45.87796" lon="2.94651">
        <ele>835.7</ele>
        <time>2021-07-19T11:07:00Z</time>
      </trkpt>
      <trkpt lat="45.87787" lon="2.94658">
        <ele>835.7</ele>
        <time>2021-07-19T11:07:05Z</time>
      </trkpt>
      <trkpt lat="45.87778" lon="2.94664">
        <ele>835.7</ele>
        <time>2021-07-19T11:07:09Z</time>
      </trkpt>
      <trkpt lat="45.87769" lon="2.9467">
        <ele>835.8</ele>
        <time>2021-07-19T11:07:13Z</time>
      </trkpt>
      <trkpt lat="45.87759" lon="2.94678">
        <ele>836.1</ele>
        <time>2021-07-19T11:07:18Z</time>
      </trkpt>
      <trkpt lat="45.8775" lon="2.94684">
        <ele>836.4</ele>
        <time>2021-07-19T11:07:23Z</time>
      </trkpt>
      <trkpt lat="45.87741" lon="2.94693">
        <ele>837.8</ele>
        <time>2021-07-19T11:07:28Z</time>
      </trkpt>
      <trkpt lat="45.87734" lon="2.94701">
        <ele>839</ele>
        <time>2021-07-19T11:07:32Z</time>
      </trkpt>
      <trkpt lat="45.87726" lon="2.9471">
        <ele>840.5</ele>
        <time>2021-07-19T11:07:37Z</time>
      </trkpt>
      <trkpt lat="45.87718" lon="2.94719">
        <ele>842.3</ele>
        <time>2021-07-19T11:07:42Z</time>
      </trkpt>
      <trkpt lat="45.87711" lon="2.9473">
        <ele>844.1</ele>
        <time>2021-07-19T11:07:47Z</time>
      </trkpt>
      <trkpt lat="45.87703" lon="2.94739">
        <ele>846.2</ele>
        <time>2021-07-19T11:07:53Z</time>
      </trkpt>
      <trkpt lat="45.87694" lon="2.94743">
        <ele>848.1</ele>
        <time>2021-07-19T11:08:00Z</time>
      </trkpt>
      <trkpt lat="45.87685" lon="2.94741">
        <ele>849.6</ele>
        <time>2021-07-19T11:08:06Z</time>
      </trkpt>
      <trkpt lat="45.87676" lon="2.94735">
        <ele>850.6</ele>
        <time>2021-07-19T11:08:14Z</time>
      </trkpt>
      <trkpt lat="45.87668" lon="2.9473">
        <ele>851.4</ele>
        <time>2021-07-19T11:08:18Z</time>
      </trkpt>
      <trkpt lat="45.8766" lon="2.94722">
        <ele>851.3</ele>
        <time>2021-07-19T11:09:06Z</time>
      </trkpt>
      <trkpt lat="45.87651" lon="2.94718">
        <ele>851.7</ele>
        <time>2021-07-19T11:09:10Z</time>
      </trkpt>
      <trkpt lat="45.87643" lon="2.94709">
        <ele>851.6</ele>
        <time>2021-07-19T11:09:15Z</time>
      </trkpt>
      <trkpt lat="45.87636" lon="2.947">
        <ele>851.6</ele>
        <time>2021-07-19T11:09:19Z</time>
      </trkpt>
      <trkpt lat="45.87632" lon="2.94687">
        <ele>851</ele>
        <time>2021-07-19T11:09:25Z</time>
      </trkpt>
      <trkpt lat="45.87625" lon="2.94676">
        <ele>851.2</ele>
        <time>2021-07-19T11:09:28Z</time>
      </trkpt>
      <trkpt lat="45.87616" lon="2.94664">
        <ele>851.8</ele>
        <time>2021-07-19T11:09:31Z</time>
      </trkpt>
      <trkpt lat="45.87609" lon="2.94653">
        <ele>852.5</ele>
        <time>2021-07-19T11:09:34Z</time>
      </trkpt>
      <trkpt lat="45.87601" lon="2.94639">
        <ele>853.2</ele>
        <time>2021-07-19T11:09:38Z</time>
      </trkpt>
      <trkpt lat="45.87598" lon="2.94625">
        <ele>853.2</ele>
        <time>2021-07-19T11:09:43Z</time>
      </trkpt>
      <trkpt lat="45.87598" lon="2.94612">
        <ele>852.7</ele>
        <time>2021-07-19T11:09:47Z</time>
      </trkpt>
      <trkpt lat="45.87597" lon="2.94598">
        <ele>852.4</ele>
        <time>2021-07-19T11:09:53Z</time>
      </trkpt>
      <trkpt lat="45.87596" lon="2.94582">
        <ele>852</ele>
        <time>2021-07-19T11:09:58Z</time>
      </trkpt>
      <trkpt lat="45.87597" lon="2.94569">
        <ele>851.8</ele>
        <time>2021-07-19T11:10:02Z</time>
      </trkpt>
      <trkpt lat="45.87595" lon="2.94555">
        <ele>852.1</ele>
        <time>2021-07-19T11:10:07Z</time>
      </trkpt>
      <trkpt lat="45.87591" lon="2.94543">
        <ele>852.5</ele>
        <time>2021-07-19T11:10:11Z</time>
      </trkpt>
      <trkpt lat="45.87588" lon="2.9453">
        <ele>852.8</ele>
        <time>2021-07-19T11:10:14Z</time>
      </trkpt>
      <trkpt lat="45.87582" lon="2.94517">
        <ele>853.3</ele>
        <time>2021-07-19T11:10:17Z</time>
      </trkpt>
      <trkpt lat="45.87582" lon="2.94503">
        <ele>853.2</ele>
        <time>2021-07-19T11:10:20Z</time>
      </trkpt>
      <trkpt lat="45.87586" lon="2.94488">
        <ele>852.6</ele>
        <time>2021-07-19T11:10:25Z</time>
      </trkpt>
      <trkpt lat="45.8758" lon="2.94476">
        <ele>853</ele>
        <time>2021-07-19T11:10:28Z</time>
      </trkpt>
      <trkpt lat="45.87575" lon="2.94463">
        <ele>853.1</ele>
        <time>2021-07-19T11:10:34Z</time>
      </trkpt>
      <trkpt lat="45.8757" lon="2.94452">
        <ele>853.3</ele>
        <time>2021-07-19T11:10:39Z</time>
      </trkpt>
      <trkpt lat="45.87566" lon="2.9444">
        <ele>853.3</ele>
        <time>2021-07-19T11:10:49Z</time>
      </trkpt>
      <trkpt lat="45.87558" lon="2.94431">
        <ele>853.5</ele>
        <time>2021-07-19T11:10:59Z</time>
      </trkpt>
      <trkpt lat="45.8755" lon="2.94423">
        <ele>853.8</ele>
        <time>2021-07-19T11:11:07Z</time>
      </trkpt>
      <trkpt lat="45.87543" lon="2.94412">
        <ele>853.8</ele>
        <time>2021-07-19T11:11:15Z</time>
      </trkpt>
      <trkpt lat="45.87541" lon="2.94399">
        <ele>853.6</ele>
        <time>2021-07-19T11:11:21Z</time>
      </trkpt>
      <trkpt lat="45.87536" lon="2.94388">
        <ele>853.5</ele>
        <time>2021-07-19T11:11:27Z</time>
      </trkpt>
      <trkpt lat="45.87531" lon="2.94374">
        <ele>853.4</ele>
        <time>2021-07-19T11:11:39Z</time>
      </trkpt>
      <trkpt lat="45.87524" lon="2.94363">
        <ele>853.3</ele>
        <time>2021-07-19T11:11:45Z</time>
      </trkpt>
      <trkpt lat="45.87518" lon="2.94352">
        <ele>853.1</ele>
        <time>2021-07-19T11:11:52Z</time>
      </trkpt>
      <trkpt lat="45.8752" lon="2.94337">
        <ele>852.6</ele>
        <time>2021-07-19T11:12:18Z</time>
      </trkpt>
      <trkpt lat="45.87522" lon="2.94323">
        <ele>852.4</ele>
        <time>2021-07-19T11:12:23Z</time>
      </trkpt>
      <trkpt lat="45.87526" lon="2.9431">
        <ele>852.3</ele>
        <time>2021-07-19T11:12:27Z</time>
      </trkpt>
      <trkpt lat="45.87531" lon="2.94297">
        <ele>852.1</ele>
        <time>2021-07-19T11:12:31Z</time>
      </trkpt>
      <trkpt lat="45.87535" lon="2.94283">
        <ele>851.9</ele>
        <time>2021-07-19T11:12:36Z</time>
      </trkpt>
      <trkpt lat="45.87539" lon="2.9427">
        <ele>851.7</ele>
        <time>2021-07-19T11:12:40Z</time>
      </trkpt>
      <trkpt lat="45.87542" lon="2.94257">
        <ele>851.5</ele>
        <time>2021-07-19T11:12:44Z</time>
      </trkpt>
      <trkpt lat="45.87547" lon="2.94243">
        <ele>851.2</ele>
        <time>2021-07-19T11:12:48Z</time>
      </trkpt>
      <trkpt lat="45.87549" lon="2.9423">
        <ele>851</ele>
        <time>2021-07-19T11:12:51Z</time>
      </trkpt>
      <trkpt lat="45.87553" lon="2.94218">
        <ele>850.7</ele>
        <time>2021-07-19T11:12:54Z</time>
      </trkpt>
      <trkpt lat="45.87556" lon="2.94202">
        <ele>850.4</ele>
        <time>2021-07-19T11:12:58Z</time>
      </trkpt>
      <trkpt lat="45.87551" lon="2.9419">
        <ele>850.4</ele>
        <time>2021-07-19T11:13:01Z</time>
      </trkpt>
      <trkpt lat="45.87544" lon="2.94178">
        <ele>850.6</ele>
        <time>2021-07-19T11:13:05Z</time>
      </trkpt>
      <trkpt lat="45.87539" lon="2.94168">
        <ele>850.6</ele>
        <time>2021-07-19T11:13:09Z</time>
      </trkpt>
      <trkpt lat="45.87532" lon="2.94157">
        <ele>850.8</ele>
        <time>2021-07-19T11:13:13Z</time>
      </trkpt>
      <trkpt lat="45.87523" lon="2.94148">
        <ele>851</ele>
        <time>2021-07-19T11:13:17Z</time>
      </trkpt>
      <trkpt lat="45.87514" lon="2.9414">
        <ele>851.4</ele>
        <time>2021-07-19T11:13:21Z</time>
      </trkpt>
      <trkpt lat="45.87506" lon="2.94133">
        <ele>851.7</ele>
        <time>2021-07-19T11:13:25Z</time>
      </trkpt>
      <trkpt lat="45.87496" lon="2.94125">
        <ele>852</ele>
        <time>2021-07-19T11:13:29Z</time>
      </trkpt>
      <trkpt lat="45.87487" lon="2.94119">
        <ele>851.9</ele>
        <time>2021-07-19T11:13:32Z</time>
      </trkpt>
      <trkpt lat="45.87478" lon="2.94112">
        <ele>851.9</ele>
        <time>2021-07-19T11:13:36Z</time>
      </trkpt>
      <trkpt lat="45.87467" lon="2.94104">
        <ele>851.9</ele>
        <time>2021-07-19T11:13:40Z</time>
      </trkpt>
      <trkpt lat="45.87458" lon="2.94099">
        <ele>851.9</ele>
        <time>2021-07-19T11:13:43Z</time>
      </trkpt>
      <trkpt lat="45.87449" lon="2.94095">
        <ele>851.9</ele>
        <time>2021-07-19T11:13:46Z</time>
      </trkpt>
      <trkpt lat="45.8744" lon="2.94091">
        <ele>851.9</ele>
        <time>2021-07-19T11:13:49Z</time>
      </trkpt>
      <trkpt lat="45.87431" lon="2.94088">
        <ele>852</ele>
        <time>2021-07-19T11:13:52Z</time>
      </trkpt>
      <trkpt lat="45.87421" lon="2.94084">
        <ele>852</ele>
        <time>2021-07-19T11:13:55Z</time>
      </trkpt>
      <trkpt lat="45.87412" lon="2.94082">
        <ele>852.1</ele>
        <time>2021-07-19T11:13:58Z</time>
      </trkpt>
      <trkpt lat="45.87402" lon="2.94081">
        <ele>852.3</ele>
        <time>2021-07-19T11:14:01Z</time>
      </trkpt>
      <trkpt lat="45.87392" lon="2.94078">
        <ele>852.5</ele>
        <time>2021-07-19T11:14:04Z</time>
      </trkpt>
      <trkpt lat="45.87382" lon="2.94076">
        <ele>852.7</ele>
        <time>2021-07-19T11:14:07Z</time>
      </trkpt>
      <trkpt lat="45.87373" lon="2.94076">
        <ele>853</ele>
        <time>2021-07-19T11:14:10Z</time>
      </trkpt>
      <trkpt lat="45.87363" lon="2.94075">
        <ele>853.2</ele>
        <time>2021-07-19T11:14:13Z</time>
      </trkpt>
      <trkpt lat="45.87354" lon="2.94074">
        <ele>853.4</ele>
        <time>2021-07-19T11:14:16Z</time>
      </trkpt>
      <trkpt lat="45.87343" lon="2.94072">
        <ele>853.7</ele>
        <time>2021-07-19T11:14:20Z</time>
      </trkpt>
      <trkpt lat="45.87332" lon="2.94071">
        <ele>854</ele>
        <time>2021-07-19T11:14:24Z</time>
      </trkpt>
      <trkpt lat="45.87321" lon="2.94071">
        <ele>854.3</ele>
        <time>2021-07-19T11:14:28Z</time>
      </trkpt>
      <trkpt lat="45.87311" lon="2.94069">
        <ele>854.5</ele>
        <time>2021-07-19T11:14:32Z</time>
      </trkpt>
      <trkpt lat="45.873" lon="2.94069">
        <ele>854.7</ele>
        <time>2021-07-19T11:14:36Z</time>
      </trkpt>
      <trkpt lat="45.87289" lon="2.94067">
        <ele>855</ele>
        <time>2021-07-19T11:14:40Z</time>
      </trkpt>
      <trkpt lat="45.87277" lon="2.94066">
        <ele>855.2</ele>
        <time>2021-07-19T11:14:44Z</time>
      </trkpt>
      <trkpt lat="45.87268" lon="2.94065">
        <ele>855.4</ele>
        <time>2021-07-19T11:14:47Z</time>
      </trkpt>
      <trkpt lat="45.87258" lon="2.94065">
        <ele>855.6</ele>
        <time>2021-07-19T11:14:50Z</time>
      </trkpt>
      <trkpt lat="45.87249" lon="2.94062">
        <ele>855.7</ele>
        <time>2021-07-19T11:14:53Z</time>
      </trkpt>
      <trkpt lat="45.87239" lon="2.94061">
        <ele>855.6</ele>
        <time>2021-07-19T11:14:56Z</time>
      </trkpt>
      <trkpt lat="45.87228" lon="2.94061">
        <ele>855.4</ele>
        <time>2021-07-19T11:14:59Z</time>
      </trkpt>
      <trkpt lat="45.87216" lon="2.9406">
        <ele>855.2</ele>
        <time>2021-07-19T11:15:02Z</time>
      </trkpt>
      <trkpt lat="45.87204" lon="2.94059">
        <ele>855</ele>
        <time>2021-07-19T11:15:05Z</time>
      </trkpt>
      <trkpt lat="45.87192" lon="2.94055">
        <ele>854.7</ele>
        <time>2021-07-19T11:15:08Z</time>
      </trkpt>
      <trkpt lat="45.87181" lon="2.94052">
        <ele>854.5</ele>
        <time>2021-07-19T11:15:11Z</time>
      </trkpt>
      <trkpt lat="45.87172" lon="2.94048">
        <ele>854.2</ele>
        <time>2021-07-19T11:15:14Z</time>
      </trkpt>
      <trkpt lat="45.87162" lon="2.94043">
        <ele>854.4</ele>
        <time>2021-07-19T11:15:17Z</time>
      </trkpt>
      <trkpt lat="45.87153" lon="2.94038">
        <ele>855</ele>
        <time>2021-07-19T11:15:20Z</time>
      </trkpt>
      <trkpt lat="45.87143" lon="2.94033">
        <ele>855.6</ele>
        <time>2021-07-19T11:15:24Z</time>
      </trkpt>
      <trkpt lat="45.87135" lon="2.94027">
        <ele>856.1</ele>
        <time>2021-07-19T11:15:28Z</time>
      </trkpt>
      <trkpt lat="45.87124" lon="2.94021">
        <ele>856.7</ele>
        <time>2021-07-19T11:15:33Z</time>
      </trkpt>
      <trkpt lat="45.87116" lon="2.94017">
        <ele>857.2</ele>
        <time>2021-07-19T11:15:37Z</time>
      </trkpt>
      <trkpt lat="45.87106" lon="2.94011">
        <ele>857.7</ele>
        <time>2021-07-19T11:15:42Z</time>
      </trkpt>
      <trkpt lat="45.87095" lon="2.94004">
        <ele>858.3</ele>
        <time>2021-07-19T11:15:47Z</time>
      </trkpt>
      <trkpt lat="45.87087" lon="2.93997">
        <ele>858.6</ele>
        <time>2021-07-19T11:15:51Z</time>
      </trkpt>
      <trkpt lat="45.87078" lon="2.9399">
        <ele>858.9</ele>
        <time>2021-07-19T11:15:55Z</time>
      </trkpt>
      <trkpt lat="45.87069" lon="2.9398">
        <ele>859.2</ele>
        <time>2021-07-19T11:15:59Z</time>
      </trkpt>
      <trkpt lat="45.87061" lon="2.93971">
        <ele>859.3</ele>
        <time>2021-07-19T11:16:02Z</time>
      </trkpt>
      <trkpt lat="45.87053" lon="2.9396">
        <ele>859.2</ele>
        <time>2021-07-19T11:16:05Z</time>
      </trkpt>
      <trkpt lat="45.87045" lon="2.9395">
        <ele>859</ele>
        <time>2021-07-19T11:16:08Z</time>
      </trkpt>
      <trkpt lat="45.87034" lon="2.93946">
        <ele>859.6</ele>
        <time>2021-07-19T11:16:11Z</time>
      </trkpt>
      <trkpt lat="45.87025" lon="2.93956">
        <ele>861.2</ele>
        <time>2021-07-19T11:16:15Z</time>
      </trkpt>
      <trkpt lat="45.87018" lon="2.93966">
        <ele>862.7</ele>
        <time>2021-07-19T11:16:20Z</time>
      </trkpt>
      <trkpt lat="45.87012" lon="2.93976">
        <ele>864.3</ele>
        <time>2021-07-19T11:16:26Z</time>
      </trkpt>
      <trkpt lat="45.87006" lon="2.93987">
        <ele>866</ele>
        <time>2021-07-19T11:16:32Z</time>
      </trkpt>
      <trkpt lat="45.87003" lon="2.94">
        <ele>867.7</ele>
        <time>2021-07-19T11:16:37Z</time>
      </trkpt>
      <trkpt lat="45.87" lon="2.94013">
        <ele>868.9</ele>
        <time>2021-07-19T11:16:42Z</time>
      </trkpt>
      <trkpt lat="45.86998" lon="2.94026">
        <ele>870.1</ele>
        <time>2021-07-19T11:16:47Z</time>
      </trkpt>
      <trkpt lat="45.86995" lon="2.9404">
        <ele>871.4</ele>
        <time>2021-07-19T11:16:53Z</time>
      </trkpt>
      <trkpt lat="45.86993" lon="2.94053">
        <ele>872.5</ele>
        <time>2021-07-19T11:16:58Z</time>
      </trkpt>
      <trkpt lat="45.86991" lon="2.94067">
        <ele>873.6</ele>
        <time>2021-07-19T11:17:04Z</time>
      </trkpt>
      <trkpt lat="45.86987" lon="2.94082">
        <ele>875</ele>
        <time>2021-07-19T11:17:10Z</time>
      </trkpt>
      <trkpt lat="45.86983" lon="2.94094">
        <ele>875.3</ele>
        <time>2021-07-19T11:17:16Z</time>
      </trkpt>
      <trkpt lat="45.86977" lon="2.94105">
        <ele>875.7</ele>
        <time>2021-07-19T11:17:22Z</time>
      </trkpt>
      <trkpt lat="45.8697" lon="2.94116">
        <ele>876.1</ele>
        <time>2021-07-19T11:17:28Z</time>
      </trkpt>
      <trkpt lat="45.86964" lon="2.94126">
        <ele>876.4</ele>
        <time>2021-07-19T11:17:33Z</time>
      </trkpt>
      <trkpt lat="45.86959" lon="2.94138">
        <ele>876.5</ele>
        <time>2021-07-19T11:17:38Z</time>
      </trkpt>
      <trkpt lat="45.86952" lon="2.9415">
        <ele>876.6</ele>
        <time>2021-07-19T11:17:43Z</time>
      </trkpt>
      <trkpt lat="45.86944" lon="2.9416">
        <ele>876.8</ele>
        <time>2021-07-19T11:17:47Z</time>
      </trkpt>
      <trkpt lat="45.86937" lon="2.9417">
        <ele>877</ele>
        <time>2021-07-19T11:17:51Z</time>
      </trkpt>
      <trkpt lat="45.8693" lon="2.94183">
        <ele>877.1</ele>
        <time>2021-07-19T11:17:55Z</time>
      </trkpt>
      <trkpt lat="45.86924" lon="2.94197">
        <ele>877.3</ele>
        <time>2021-07-19T11:17:59Z</time>
      </trkpt>
      <trkpt lat="45.86918" lon="2.94209">
        <ele>877.4</ele>
        <time>2021-07-19T11:18:03Z</time>
      </trkpt>
      <trkpt lat="45.86911" lon="2.9422">
        <ele>877</ele>
        <time>2021-07-19T11:18:07Z</time>
      </trkpt>
      <trkpt lat="45.86905" lon="2.94234">
        <ele>876.4</ele>
        <time>2021-07-19T11:18:12Z</time>
      </trkpt>
      <trkpt lat="45.869" lon="2.94247">
        <ele>875.9</ele>
        <time>2021-07-19T11:18:17Z</time>
      </trkpt>
      <trkpt lat="45.86898" lon="2.94262">
        <ele>875.4</ele>
        <time>2021-07-19T11:18:21Z</time>
      </trkpt>
      <trkpt lat="45.86893" lon="2.94273">
        <ele>874.9</ele>
        <time>2021-07-19T11:18:24Z</time>
      </trkpt>
      <trkpt lat="45.8689" lon="2.94287">
        <ele>874.5</ele>
        <time>2021-07-19T11:18:27Z</time>
      </trkpt>
      <trkpt lat="45.8689" lon="2.94301">
        <ele>874.2</ele>
        <time>2021-07-19T11:20:25Z</time>
      </trkpt>
      <trkpt lat="45.86885" lon="2.94316">
        <ele>873.7</ele>
        <time>2021-07-19T11:20:30Z</time>
      </trkpt>
      <trkpt lat="45.86881" lon="2.94329">
        <ele>873.3</ele>
        <time>2021-07-19T11:20:33Z</time>
      </trkpt>
      <trkpt lat="45.86878" lon="2.94343">
        <ele>873.3</ele>
        <time>2021-07-19T11:20:36Z</time>
      </trkpt>
      <trkpt lat="45.86874" lon="2.94358">
        <ele>873.4</ele>
        <time>2021-07-19T11:20:39Z</time>
      </trkpt>
      <trkpt lat="45.86871" lon="2.94374">
        <ele>873.5</ele>
        <time>2021-07-19T11:20:42Z</time>
      </trkpt>
      <trkpt lat="45.86866" lon="2.94388">
        <ele>873.5</ele>
        <time>2021-07-19T11:20:45Z</time>
      </trkpt>
      <trkpt lat="45.86859" lon="2.94401">
        <ele>873.3</ele>
        <time>2021-07-19T11:20:48Z</time>
      </trkpt>
      <trkpt lat="45.86854" lon="2.94415">
        <ele>873.2</ele>
        <time>2021-07-19T11:20:51Z</time>
      </trkpt>
      <trkpt lat="45.86849" lon="2.9443">
        <ele>873.1</ele>
        <time>2021-07-19T11:20:54Z</time>
      </trkpt>
      <trkpt lat="45.86844" lon="2.94445">
        <ele>873</ele>
        <time>2021-07-19T11:20:57Z</time>
      </trkpt>
      <trkpt lat="45.86839" lon="2.94459">
        <ele>872.8</ele>
        <time>2021-07-19T11:21:00Z</time>
      </trkpt>
      <trkpt lat="45.86833" lon="2.94472">
        <ele>872.7</ele>
        <time>2021-07-19T11:21:03Z</time>
      </trkpt>
      <trkpt lat="45.86829" lon="2.94486">
        <ele>872.7</ele>
        <time>2021-07-19T11:21:06Z</time>
      </trkpt>
      <trkpt lat="45.86824" lon="2.94499">
        <ele>872.8</ele>
        <time>2021-07-19T11:21:09Z</time>
      </trkpt>
      <trkpt lat="45.86819" lon="2.94511">
        <ele>873.2</ele>
        <time>2021-07-19T11:21:12Z</time>
      </trkpt>
      <trkpt lat="45.86812" lon="2.94524">
        <ele>873.7</ele>
        <time>2021-07-19T11:21:16Z</time>
      </trkpt>
      <trkpt lat="45.86807" lon="2.94539">
        <ele>874.5</ele>
        <time>2021-07-19T11:21:20Z</time>
      </trkpt>
      <trkpt lat="45.86797" lon="2.94546">
        <ele>875</ele>
        <time>2021-07-19T11:21:24Z</time>
      </trkpt>
      <trkpt lat="45.86789" lon="2.94539">
        <ele>874.6</ele>
        <time>2021-07-19T11:21:28Z</time>
      </trkpt>
      <trkpt lat="45.86781" lon="2.94528">
        <ele>873.8</ele>
        <time>2021-07-19T11:21:33Z</time>
      </trkpt>
      <trkpt lat="45.86774" lon="2.9452">
        <ele>873.2</ele>
        <time>2021-07-19T11:21:39Z</time>
      </trkpt>
      <trkpt lat="45.86766" lon="2.94513">
        <ele>872.5</ele>
        <time>2021-07-19T11:21:42Z</time>
      </trkpt>
      <trkpt lat="45.86757" lon="2.94507">
        <ele>871.8</ele>
        <time>2021-07-19T11:21:45Z</time>
      </trkpt>
      <trkpt lat="45.86747" lon="2.94501">
        <ele>871.2</ele>
        <time>2021-07-19T11:21:48Z</time>
      </trkpt>
      <trkpt lat="45.86736" lon="2.94495">
        <ele>871.3</ele>
        <time>2021-07-19T11:21:51Z</time>
      </trkpt>
      <trkpt lat="45.86724" lon="2.94489">
        <ele>871.5</ele>
        <time>2021-07-19T11:21:54Z</time>
      </trkpt>
      <trkpt lat="45.86713" lon="2.94478">
        <ele>871.6</ele>
        <time>2021-07-19T11:21:57Z</time>
      </trkpt>
      <trkpt lat="45.86704" lon="2.9447">
        <ele>871.7</ele>
        <time>2021-07-19T11:22:00Z</time>
      </trkpt>
      <trkpt lat="45.86696" lon="2.94463">
        <ele>871.9</ele>
        <time>2021-07-19T11:22:05Z</time>
      </trkpt>
      <trkpt lat="45.86687" lon="2.94453">
        <ele>871.9</ele>
        <time>2021-07-19T11:22:09Z</time>
      </trkpt>
      <trkpt lat="45.86661" lon="2.94433">
        <ele>872</ele>
        <time>2021-07-19T11:22:11Z</time>
      </trkpt>
      <trkpt lat="45.8665" lon="2.94422">
        <ele>871.3</ele>
        <time>2021-07-19T11:22:14Z</time>
      </trkpt>
      <trkpt lat="45.86642" lon="2.9441">
        <ele>870.7</ele>
        <time>2021-07-19T11:22:17Z</time>
      </trkpt>
      <trkpt lat="45.86635" lon="2.944">
        <ele>870.1</ele>
        <time>2021-07-19T11:22:20Z</time>
      </trkpt>
      <trkpt lat="45.86628" lon="2.94391">
        <ele>869.5</ele>
        <time>2021-07-19T11:22:23Z</time>
      </trkpt>
      <trkpt lat="45.86619" lon="2.94381">
        <ele>868.9</ele>
        <time>2021-07-19T11:22:26Z</time>
      </trkpt>
      <trkpt lat="45.86612" lon="2.94372">
        <ele>868.3</ele>
        <time>2021-07-19T11:22:28Z</time>
      </trkpt>
      <trkpt lat="45.86604" lon="2.94363">
        <ele>867.7</ele>
        <time>2021-07-19T11:22:30Z</time>
      </trkpt>
      <trkpt lat="45.86598" lon="2.94354">
        <ele>867.2</ele>
        <time>2021-07-19T11:22:32Z</time>
      </trkpt>
      <trkpt lat="45.86588" lon="2.94342">
        <ele>866.4</ele>
        <time>2021-07-19T11:22:35Z</time>
      </trkpt>
      <trkpt lat="45.8658" lon="2.94334">
        <ele>866.1</ele>
        <time>2021-07-19T11:22:37Z</time>
      </trkpt>
      <trkpt lat="45.86574" lon="2.94323">
        <ele>866</ele>
        <time>2021-07-19T11:22:39Z</time>
      </trkpt>
      <trkpt lat="45.86566" lon="2.94316">
        <ele>866.1</ele>
        <time>2021-07-19T11:22:41Z</time>
      </trkpt>
      <trkpt lat="45.86559" lon="2.94304">
        <ele>866.1</ele>
        <time>2021-07-19T11:22:44Z</time>
      </trkpt>
      <trkpt lat="45.86551" lon="2.94294">
        <ele>866.3</ele>
        <time>2021-07-19T11:22:46Z</time>
      </trkpt>
      <trkpt lat="45.86543" lon="2.94281">
        <ele>866.5</ele>
        <time>2021-07-19T11:22:49Z</time>
      </trkpt>
      <trkpt lat="45.86534" lon="2.94268">
        <ele>866.7</ele>
        <time>2021-07-19T11:22:52Z</time>
      </trkpt>
      <trkpt lat="45.86525" lon="2.94255">
        <ele>867.1</ele>
        <time>2021-07-19T11:22:55Z</time>
      </trkpt>
      <trkpt lat="45.86516" lon="2.94243">
        <ele>867.6</ele>
        <time>2021-07-19T11:22:58Z</time>
      </trkpt>
      <trkpt lat="45.86511" lon="2.94231">
        <ele>868.1</ele>
        <time>2021-07-19T11:23:02Z</time>
      </trkpt>
      <trkpt lat="45.86505" lon="2.94219">
        <ele>868.6</ele>
        <time>2021-07-19T11:23:06Z</time>
      </trkpt>
      <trkpt lat="45.86498" lon="2.94206">
        <ele>869.2</ele>
        <time>2021-07-19T11:23:09Z</time>
      </trkpt>
      <trkpt lat="45.86489" lon="2.94195">
        <ele>870.3</ele>
        <time>2021-07-19T11:23:12Z</time>
      </trkpt>
      <trkpt lat="45.86479" lon="2.94183">
        <ele>871.3</ele>
        <time>2021-07-19T11:23:15Z</time>
      </trkpt>
      <trkpt lat="45.86472" lon="2.94174">
        <ele>872</ele>
        <time>2021-07-19T11:23:17Z</time>
      </trkpt>
      <trkpt lat="45.86462" lon="2.94163">
        <ele>872.7</ele>
        <time>2021-07-19T11:23:20Z</time>
      </trkpt>
      <trkpt lat="45.86453" lon="2.94154">
        <ele>873</ele>
        <time>2021-07-19T11:23:23Z</time>
      </trkpt>
      <trkpt lat="45.86445" lon="2.94145">
        <ele>873.2</ele>
        <time>2021-07-19T11:23:26Z</time>
      </trkpt>
      <trkpt lat="45.86437" lon="2.94135">
        <ele>873.2</ele>
        <time>2021-07-19T11:23:29Z</time>
      </trkpt>
      <trkpt lat="45.86429" lon="2.94126">
        <ele>873.1</ele>
        <time>2021-07-19T11:23:32Z</time>
      </trkpt>
      <trkpt lat="45.8642" lon="2.94117">
        <ele>872.9</ele>
        <time>2021-07-19T11:23:35Z</time>
      </trkpt>
      <trkpt lat="45.86414" lon="2.94106">
        <ele>872.4</ele>
        <time>2021-07-19T11:23:38Z</time>
      </trkpt>
      <trkpt lat="45.86406" lon="2.94094">
        <ele>871.6</ele>
        <time>2021-07-19T11:23:42Z</time>
      </trkpt>
      <trkpt lat="45.86398" lon="2.94084">
        <ele>871</ele>
        <time>2021-07-19T11:23:45Z</time>
      </trkpt>
      <trkpt lat="45.86392" lon="2.94074">
        <ele>870.9</ele>
        <time>2021-07-19T11:23:48Z</time>
      </trkpt>
      <trkpt lat="45.86386" lon="2.94064">
        <ele>870.7</ele>
        <time>2021-07-19T11:23:51Z</time>
      </trkpt>
      <trkpt lat="45.86378" lon="2.94054">
        <ele>870.5</ele>
        <time>2021-07-19T11:23:54Z</time>
      </trkpt>
      <trkpt lat="45.8637" lon="2.94045">
        <ele>870.2</ele>
        <time>2021-07-19T11:23:57Z</time>
      </trkpt>
      <trkpt lat="45.86363" lon="2.94035">
        <ele>869.9</ele>
        <time>2021-07-19T11:24:00Z</time>
      </trkpt>
      <trkpt lat="45.86355" lon="2.94024">
        <ele>869.4</ele>
        <time>2021-07-19T11:24:04Z</time>
      </trkpt>
      <trkpt lat="45.86347" lon="2.94013">
        <ele>868.9</ele>
        <time>2021-07-19T11:24:10Z</time>
      </trkpt>
      <trkpt lat="45.86339" lon="2.94001">
        <ele>868.2</ele>
        <time>2021-07-19T11:24:14Z</time>
      </trkpt>
      <trkpt lat="45.86333" lon="2.93988">
        <ele>867.7</ele>
        <time>2021-07-19T11:24:17Z</time>
      </trkpt>
      <trkpt lat="45.86324" lon="2.93974">
        <ele>867.2</ele>
        <time>2021-07-19T11:24:20Z</time>
      </trkpt>
      <trkpt lat="45.86316" lon="2.93962">
        <ele>866.6</ele>
        <time>2021-07-19T11:24:22Z</time>
      </trkpt>
      <trkpt lat="45.86303" lon="2.93951">
        <ele>865.8</ele>
        <time>2021-07-19T11:24:23Z</time>
      </trkpt>
      <trkpt lat="45.86295" lon="2.93942">
        <ele>865.2</ele>
        <time>2021-07-19T11:24:26Z</time>
      </trkpt>
      <trkpt lat="45.8629" lon="2.93931">
        <ele>864.5</ele>
        <time>2021-07-19T11:24:38Z</time>
      </trkpt>
      <trkpt lat="45.86299" lon="2.93926">
        <ele>864.7</ele>
        <time>2021-07-19T12:08:35Z</time>
      </trkpt>
      <trkpt lat="45.86296" lon="2.93913">
        <ele>864.1</ele>
        <time>2021-07-19T12:08:51Z</time>
      </trkpt>
      <trkpt lat="45.86296" lon="2.93897">
        <ele>863.5</ele>
        <time>2021-07-19T12:08:58Z</time>
      </trkpt>
      <trkpt lat="45.86298" lon="2.93882">
        <ele>863.1</ele>
        <time>2021-07-19T12:09:02Z</time>
      </trkpt>
      <trkpt lat="45.86302" lon="2.93868">
        <ele>862.7</ele>
        <time>2021-07-19T12:09:05Z</time>
      </trkpt>
      <trkpt lat="45.86305" lon="2.93853">
        <ele>862.3</ele>
        <time>2021-07-19T12:09:08Z</time>
      </trkpt>
      <trkpt lat="45.86308" lon="2.93839">
        <ele>862</ele>
        <time>2021-07-19T12:09:11Z</time>
      </trkpt>
      <trkpt lat="45.86312" lon="2.93825">
        <ele>861.9</ele>
        <time>2021-07-19T12:09:14Z</time>
      </trkpt>
      <trkpt lat="45.86316" lon="2.93811">
        <ele>862</ele>
        <time>2021-07-19T12:09:17Z</time>
      </trkpt>
      <trkpt lat="45.86318" lon="2.93794">
        <ele>861.9</ele>
        <time>2021-07-19T12:09:22Z</time>
      </trkpt>
      <trkpt lat="45.86322" lon="2.93777">
        <ele>861.9</ele>
        <time>2021-07-19T12:09:24Z</time>
      </trkpt>
      <trkpt lat="45.86324" lon="2.93762">
        <ele>861.8</ele>
        <time>2021-07-19T12:09:27Z</time>
      </trkpt>
      <trkpt lat="45.86327" lon="2.93749">
        <ele>861.7</ele>
        <time>2021-07-19T12:09:31Z</time>
      </trkpt>
      <trkpt lat="45.8633" lon="2.93732">
        <ele>861.3</ele>
        <time>2021-07-19T12:09:36Z</time>
      </trkpt>
      <trkpt lat="45.86333" lon="2.93717">
        <ele>860.8</ele>
        <time>2021-07-19T12:09:39Z</time>
      </trkpt>
      <trkpt lat="45.86338" lon="2.93699">
        <ele>860.4</ele>
        <time>2021-07-19T12:09:42Z</time>
      </trkpt>
      <trkpt lat="45.86341" lon="2.93687">
        <ele>860</ele>
        <time>2021-07-19T12:09:45Z</time>
      </trkpt>
      <trkpt lat="45.86343" lon="2.93674">
        <ele>859.6</ele>
        <time>2021-07-19T12:09:48Z</time>
      </trkpt>
      <trkpt lat="45.86346" lon="2.9366">
        <ele>859.6</ele>
        <time>2021-07-19T12:09:52Z</time>
      </trkpt>
      <trkpt lat="45.86348" lon="2.93647">
        <ele>860</ele>
        <time>2021-07-19T12:09:54Z</time>
      </trkpt>
      <trkpt lat="45.86352" lon="2.9363">
        <ele>860.4</ele>
        <time>2021-07-19T12:09:56Z</time>
      </trkpt>
      <trkpt lat="45.86355" lon="2.93614">
        <ele>860.7</ele>
        <time>2021-07-19T12:09:59Z</time>
      </trkpt>
      <trkpt lat="45.8636" lon="2.93598">
        <ele>860.8</ele>
        <time>2021-07-19T12:10:02Z</time>
      </trkpt>
      <trkpt lat="45.86364" lon="2.93583">
        <ele>860.9</ele>
        <time>2021-07-19T12:10:05Z</time>
      </trkpt>
      <trkpt lat="45.86367" lon="2.93569">
        <ele>861.6</ele>
        <time>2021-07-19T12:10:08Z</time>
      </trkpt>
      <trkpt lat="45.8637" lon="2.93556">
        <ele>862.1</ele>
        <time>2021-07-19T12:10:11Z</time>
      </trkpt>
      <trkpt lat="45.86373" lon="2.93544">
        <ele>862.5</ele>
        <time>2021-07-19T12:10:14Z</time>
      </trkpt>
      <trkpt lat="45.86377" lon="2.93528">
        <ele>863</ele>
        <time>2021-07-19T12:10:18Z</time>
      </trkpt>
      <trkpt lat="45.86379" lon="2.93513">
        <ele>863.5</ele>
        <time>2021-07-19T12:10:22Z</time>
      </trkpt>
      <trkpt lat="45.86378" lon="2.93498">
        <ele>864.1</ele>
        <time>2021-07-19T12:10:26Z</time>
      </trkpt>
      <trkpt lat="45.86375" lon="2.93483">
        <ele>864.1</ele>
        <time>2021-07-19T12:10:30Z</time>
      </trkpt>
      <trkpt lat="45.86371" lon="2.93471">
        <ele>864.3</ele>
        <time>2021-07-19T12:10:34Z</time>
      </trkpt>
      <trkpt lat="45.86366" lon="2.93457">
        <ele>864.7</ele>
        <time>2021-07-19T12:10:39Z</time>
      </trkpt>
      <trkpt lat="45.86362" lon="2.93445">
        <ele>865</ele>
        <time>2021-07-19T12:10:43Z</time>
      </trkpt>
      <trkpt lat="45.86358" lon="2.93431">
        <ele>865.4</ele>
        <time>2021-07-19T12:10:47Z</time>
      </trkpt>
      <trkpt lat="45.86351" lon="2.93418">
        <ele>866.3</ele>
        <time>2021-07-19T12:10:52Z</time>
      </trkpt>
      <trkpt lat="45.86346" lon="2.93406">
        <ele>866.4</ele>
        <time>2021-07-19T12:10:56Z</time>
      </trkpt>
      <trkpt lat="45.86342" lon="2.9339">
        <ele>866</ele>
        <time>2021-07-19T12:11:00Z</time>
      </trkpt>
      <trkpt lat="45.86339" lon="2.93376">
        <ele>865.4</ele>
        <time>2021-07-19T12:11:02Z</time>
      </trkpt>
      <trkpt lat="45.86335" lon="2.93358">
        <ele>864.6</ele>
        <time>2021-07-19T12:11:05Z</time>
      </trkpt>
      <trkpt lat="45.8633" lon="2.93346">
        <ele>864.3</ele>
        <time>2021-07-19T12:11:08Z</time>
      </trkpt>
      <trkpt lat="45.86327" lon="2.93331">
        <ele>863.7</ele>
        <time>2021-07-19T12:11:12Z</time>
      </trkpt>
      <trkpt lat="45.86323" lon="2.93315">
        <ele>863.4</ele>
        <time>2021-07-19T12:11:13Z</time>
      </trkpt>
      <trkpt lat="45.86319" lon="2.93301">
        <ele>863.2</ele>
        <time>2021-07-19T12:11:16Z</time>
      </trkpt>
      <trkpt lat="45.86316" lon="2.93287">
        <ele>863</ele>
        <time>2021-07-19T12:11:19Z</time>
      </trkpt>
      <trkpt lat="45.86314" lon="2.93274">
        <ele>862.6</ele>
        <time>2021-07-19T12:11:22Z</time>
      </trkpt>
      <trkpt lat="45.86311" lon="2.93259">
        <ele>862.4</ele>
        <time>2021-07-19T12:11:26Z</time>
      </trkpt>
      <trkpt lat="45.86308" lon="2.93245">
        <ele>862.3</ele>
        <time>2021-07-19T12:11:30Z</time>
      </trkpt>
      <trkpt lat="45.86304" lon="2.9323">
        <ele>862.4</ele>
        <time>2021-07-19T12:11:34Z</time>
      </trkpt>
      <trkpt lat="45.86297" lon="2.93217">
        <ele>862.8</ele>
        <time>2021-07-19T12:11:37Z</time>
      </trkpt>
      <trkpt lat="45.86289" lon="2.93207">
        <ele>863.2</ele>
        <time>2021-07-19T12:11:40Z</time>
      </trkpt>
      <trkpt lat="45.86279" lon="2.93198">
        <ele>863.5</ele>
        <time>2021-07-19T12:11:43Z</time>
      </trkpt>
      <trkpt lat="45.8627" lon="2.93195">
        <ele>864</ele>
        <time>2021-07-19T12:11:47Z</time>
      </trkpt>
      <trkpt lat="45.8626" lon="2.93194">
        <ele>864.6</ele>
        <time>2021-07-19T12:11:53Z</time>
      </trkpt>
      <trkpt lat="45.86251" lon="2.93189">
        <ele>864.8</ele>
        <time>2021-07-19T12:12:09Z</time>
      </trkpt>
      <trkpt lat="45.8624" lon="2.93188">
        <ele>865.7</ele>
        <time>2021-07-19T12:12:15Z</time>
      </trkpt>
      <trkpt lat="45.8623" lon="2.93189">
        <ele>866.6</ele>
        <time>2021-07-19T12:12:23Z</time>
      </trkpt>
      <trkpt lat="45.86222" lon="2.93193">
        <ele>867.7</ele>
        <time>2021-07-19T12:12:29Z</time>
      </trkpt>
      <trkpt lat="45.86211" lon="2.93194">
        <ele>868.7</ele>
        <time>2021-07-19T12:12:34Z</time>
      </trkpt>
      <trkpt lat="45.86202" lon="2.93194">
        <ele>869.5</ele>
        <time>2021-07-19T12:12:39Z</time>
      </trkpt>
      <trkpt lat="45.86192" lon="2.93194">
        <ele>870.4</ele>
        <time>2021-07-19T12:12:46Z</time>
      </trkpt>
      <trkpt lat="45.86184" lon="2.93202">
        <ele>871.8</ele>
        <time>2021-07-19T12:12:52Z</time>
      </trkpt>
      <trkpt lat="45.86175" lon="2.93207">
        <ele>873.1</ele>
        <time>2021-07-19T12:12:59Z</time>
      </trkpt>
      <trkpt lat="45.86166" lon="2.9321">
        <ele>874.2</ele>
        <time>2021-07-19T12:13:04Z</time>
      </trkpt>
      <trkpt lat="45.86155" lon="2.93214">
        <ele>874.7</ele>
        <time>2021-07-19T12:13:09Z</time>
      </trkpt>
      <trkpt lat="45.86145" lon="2.93217">
        <ele>875.1</ele>
        <time>2021-07-19T12:13:13Z</time>
      </trkpt>
      <trkpt lat="45.86133" lon="2.9322">
        <ele>875.6</ele>
        <time>2021-07-19T12:13:18Z</time>
      </trkpt>
      <trkpt lat="45.86123" lon="2.93225">
        <ele>876.3</ele>
        <time>2021-07-19T12:13:22Z</time>
      </trkpt>
      <trkpt lat="45.86114" lon="2.93234">
        <ele>877.5</ele>
        <time>2021-07-19T12:13:27Z</time>
      </trkpt>
      <trkpt lat="45.86102" lon="2.93236">
        <ele>877.9</ele>
        <time>2021-07-19T12:13:31Z</time>
      </trkpt>
      <trkpt lat="45.86093" lon="2.93237">
        <ele>878.2</ele>
        <time>2021-07-19T12:13:35Z</time>
      </trkpt>
      <trkpt lat="45.86082" lon="2.93236">
        <ele>878.3</ele>
        <time>2021-07-19T12:13:39Z</time>
      </trkpt>
      <trkpt lat="45.86073" lon="2.93233">
        <ele>878.2</ele>
        <time>2021-07-19T12:13:45Z</time>
      </trkpt>
      <trkpt lat="45.86064" lon="2.93229">
        <ele>877.9</ele>
        <time>2021-07-19T12:13:49Z</time>
      </trkpt>
      <trkpt lat="45.86055" lon="2.93224">
        <ele>877.6</ele>
        <time>2021-07-19T12:13:54Z</time>
      </trkpt>
      <trkpt lat="45.86045" lon="2.93221">
        <ele>877.6</ele>
        <time>2021-07-19T12:14:01Z</time>
      </trkpt>
      <trkpt lat="45.86037" lon="2.93212">
        <ele>877</ele>
        <time>2021-07-19T12:14:06Z</time>
      </trkpt>
      <trkpt lat="45.86031" lon="2.93202">
        <ele>876.3</ele>
        <time>2021-07-19T12:14:11Z</time>
      </trkpt>
      <trkpt lat="45.86025" lon="2.9319">
        <ele>875.5</ele>
        <time>2021-07-19T12:14:16Z</time>
      </trkpt>
      <trkpt lat="45.86016" lon="2.93179">
        <ele>875</ele>
        <time>2021-07-19T12:14:20Z</time>
      </trkpt>
      <trkpt lat="45.86011" lon="2.93169">
        <ele>874.5</ele>
        <time>2021-07-19T12:14:23Z</time>
      </trkpt>
      <trkpt lat="45.86007" lon="2.93154">
        <ele>874.9</ele>
        <time>2021-07-19T12:14:28Z</time>
      </trkpt>
      <trkpt lat="45.86002" lon="2.93143">
        <ele>875.5</ele>
        <time>2021-07-19T12:14:32Z</time>
      </trkpt>
      <trkpt lat="45.86001" lon="2.93129">
        <ele>875.9</ele>
        <time>2021-07-19T12:14:37Z</time>
      </trkpt>
      <trkpt lat="45.86004" lon="2.93116">
        <ele>876</ele>
        <time>2021-07-19T12:14:42Z</time>
      </trkpt>
      <trkpt lat="45.86008" lon="2.93101">
        <ele>876.2</ele>
        <time>2021-07-19T12:14:49Z</time>
      </trkpt>
      <trkpt lat="45.86013" lon="2.93087">
        <ele>876.4</ele>
        <time>2021-07-19T12:14:54Z</time>
      </trkpt>
      <trkpt lat="45.86015" lon="2.93073">
        <ele>876.6</ele>
        <time>2021-07-19T12:14:59Z</time>
      </trkpt>
      <trkpt lat="45.8602" lon="2.93061">
        <ele>876.6</ele>
        <time>2021-07-19T12:15:04Z</time>
      </trkpt>
      <trkpt lat="45.86025" lon="2.93049">
        <ele>876.6</ele>
        <time>2021-07-19T12:15:09Z</time>
      </trkpt>
      <trkpt lat="45.86028" lon="2.93036">
        <ele>876.8</ele>
        <time>2021-07-19T12:15:14Z</time>
      </trkpt>
      <trkpt lat="45.86026" lon="2.93023">
        <ele>877</ele>
        <time>2021-07-19T12:15:20Z</time>
      </trkpt>
      <trkpt lat="45.86028" lon="2.93008">
        <ele>877.2</ele>
        <time>2021-07-19T12:15:26Z</time>
      </trkpt>
      <trkpt lat="45.86032" lon="2.92993">
        <ele>877.4</ele>
        <time>2021-07-19T12:15:30Z</time>
      </trkpt>
      <trkpt lat="45.86038" lon="2.92981">
        <ele>877.6</ele>
        <time>2021-07-19T12:15:34Z</time>
      </trkpt>
      <trkpt lat="45.86043" lon="2.92968">
        <ele>877.7</ele>
        <time>2021-07-19T12:15:40Z</time>
      </trkpt>
      <trkpt lat="45.86042" lon="2.92955">
        <ele>878.1</ele>
        <time>2021-07-19T12:15:44Z</time>
      </trkpt>
      <trkpt lat="45.86043" lon="2.92941">
        <ele>878.4</ele>
        <time>2021-07-19T12:15:48Z</time>
      </trkpt>
      <trkpt lat="45.86045" lon="2.92928">
        <ele>878.6</ele>
        <time>2021-07-19T12:15:52Z</time>
      </trkpt>
      <trkpt lat="45.86046" lon="2.92912">
        <ele>878.9</ele>
        <time>2021-07-19T12:15:57Z</time>
      </trkpt>
      <trkpt lat="45.86047" lon="2.92899">
        <ele>879.2</ele>
        <time>2021-07-19T12:16:02Z</time>
      </trkpt>
      <trkpt lat="45.86051" lon="2.92886">
        <ele>879.2</ele>
        <time>2021-07-19T12:16:06Z</time>
      </trkpt>
      <trkpt lat="45.86053" lon="2.9287">
        <ele>879.3</ele>
        <time>2021-07-19T12:16:11Z</time>
      </trkpt>
      <trkpt lat="45.86052" lon="2.92855">
        <ele>879.7</ele>
        <time>2021-07-19T12:16:17Z</time>
      </trkpt>
      <trkpt lat="45.86048" lon="2.92843">
        <ele>880.4</ele>
        <time>2021-07-19T12:16:22Z</time>
      </trkpt>
      <trkpt lat="45.86045" lon="2.9283">
        <ele>881</ele>
        <time>2021-07-19T12:16:26Z</time>
      </trkpt>
      <trkpt lat="45.86042" lon="2.92818">
        <ele>881.4</ele>
        <time>2021-07-19T12:16:30Z</time>
      </trkpt>
      <trkpt lat="45.8604" lon="2.92802">
        <ele>881.6</ele>
        <time>2021-07-19T12:16:34Z</time>
      </trkpt>
      <trkpt lat="45.86039" lon="2.92786">
        <ele>881.6</ele>
        <time>2021-07-19T12:16:38Z</time>
      </trkpt>
      <trkpt lat="45.86037" lon="2.92772">
        <ele>881.9</ele>
        <time>2021-07-19T12:16:41Z</time>
      </trkpt>
      <trkpt lat="45.86036" lon="2.92759">
        <ele>882</ele>
        <time>2021-07-19T12:16:44Z</time>
      </trkpt>
      <trkpt lat="45.86035" lon="2.92746">
        <ele>882</ele>
        <time>2021-07-19T12:16:47Z</time>
      </trkpt>
      <trkpt lat="45.86035" lon="2.92731">
        <ele>881.4</ele>
        <time>2021-07-19T12:16:51Z</time>
      </trkpt>
      <trkpt lat="45.86033" lon="2.92716">
        <ele>881.1</ele>
        <time>2021-07-19T12:16:55Z</time>
      </trkpt>
      <trkpt lat="45.86031" lon="2.927">
        <ele>880.8</ele>
        <time>2021-07-19T12:17:00Z</time>
      </trkpt>
      <trkpt lat="45.86031" lon="2.92685">
        <ele>880.3</ele>
        <time>2021-07-19T12:17:05Z</time>
      </trkpt>
      <trkpt lat="45.86029" lon="2.92671">
        <ele>880</ele>
        <time>2021-07-19T12:17:09Z</time>
      </trkpt>
      <trkpt lat="45.86028" lon="2.92657">
        <ele>879.6</ele>
        <time>2021-07-19T12:17:14Z</time>
      </trkpt>
      <trkpt lat="45.8603" lon="2.92642">
        <ele>878.7</ele>
        <time>2021-07-19T12:17:19Z</time>
      </trkpt>
      <trkpt lat="45.86031" lon="2.92626">
        <ele>877.9</ele>
        <time>2021-07-19T12:17:24Z</time>
      </trkpt>
      <trkpt lat="45.86029" lon="2.92609">
        <ele>877.5</ele>
        <time>2021-07-19T12:17:28Z</time>
      </trkpt>
      <trkpt lat="45.86027" lon="2.92595">
        <ele>877.2</ele>
        <time>2021-07-19T12:17:32Z</time>
      </trkpt>
      <trkpt lat="45.86026" lon="2.9258">
        <ele>876.9</ele>
        <time>2021-07-19T12:17:36Z</time>
      </trkpt>
      <trkpt lat="45.86025" lon="2.92565">
        <ele>877</ele>
        <time>2021-07-19T12:17:40Z</time>
      </trkpt>
      <trkpt lat="45.86026" lon="2.92549">
        <ele>876.9</ele>
        <time>2021-07-19T12:17:44Z</time>
      </trkpt>
      <trkpt lat="45.86026" lon="2.92536">
        <ele>876.9</ele>
        <time>2021-07-19T12:17:47Z</time>
      </trkpt>
      <trkpt lat="45.86025" lon="2.92519">
        <ele>877</ele>
        <time>2021-07-19T12:17:51Z</time>
      </trkpt>
      <trkpt lat="45.86023" lon="2.92504">
        <ele>877.2</ele>
        <time>2021-07-19T12:17:55Z</time>
      </trkpt>
      <trkpt lat="45.86024" lon="2.92488">
        <ele>877.2</ele>
        <time>2021-07-19T12:18:00Z</time>
      </trkpt>
      <trkpt lat="45.86022" lon="2.92474">
        <ele>877.6</ele>
        <time>2021-07-19T12:18:04Z</time>
      </trkpt>
      <trkpt lat="45.86021" lon="2.92459">
        <ele>877.9</ele>
        <time>2021-07-19T12:18:08Z</time>
      </trkpt>
      <trkpt lat="45.86016" lon="2.92446">
        <ele>878.5</ele>
        <time>2021-07-19T12:18:11Z</time>
      </trkpt>
      <trkpt lat="45.86009" lon="2.92433">
        <ele>879.2</ele>
        <time>2021-07-19T12:18:14Z</time>
      </trkpt>
      <trkpt lat="45.86006" lon="2.92418">
        <ele>879.5</ele>
        <time>2021-07-19T12:18:17Z</time>
      </trkpt>
      <trkpt lat="45.85996" lon="2.92411">
        <ele>880.1</ele>
        <time>2021-07-19T12:18:20Z</time>
      </trkpt>
      <trkpt lat="45.85989" lon="2.92401">
        <ele>880.4</ele>
        <time>2021-07-19T12:18:24Z</time>
      </trkpt>
      <trkpt lat="45.85982" lon="2.92389">
        <ele>880.5</ele>
        <time>2021-07-19T12:18:28Z</time>
      </trkpt>
      <trkpt lat="45.85978" lon="2.92374">
        <ele>880.3</ele>
        <time>2021-07-19T12:18:32Z</time>
      </trkpt>
      <trkpt lat="45.85978" lon="2.92358">
        <ele>879.7</ele>
        <time>2021-07-19T12:18:37Z</time>
      </trkpt>
      <trkpt lat="45.85979" lon="2.92344">
        <ele>879.1</ele>
        <time>2021-07-19T12:18:41Z</time>
      </trkpt>
      <trkpt lat="45.85977" lon="2.92328">
        <ele>878.8</ele>
        <time>2021-07-19T12:18:45Z</time>
      </trkpt>
      <trkpt lat="45.85976" lon="2.92311">
        <ele>878.5</ele>
        <time>2021-07-19T12:18:49Z</time>
      </trkpt>
      <trkpt lat="45.85975" lon="2.92295">
        <ele>878.2</ele>
        <time>2021-07-19T12:18:53Z</time>
      </trkpt>
      <trkpt lat="45.85971" lon="2.92279">
        <ele>878.1</ele>
        <time>2021-07-19T12:18:57Z</time>
      </trkpt>
      <trkpt lat="45.85969" lon="2.92264">
        <ele>877.9</ele>
        <time>2021-07-19T12:19:01Z</time>
      </trkpt>
      <trkpt lat="45.85969" lon="2.9225">
        <ele>877.6</ele>
        <time>2021-07-19T12:19:05Z</time>
      </trkpt>
      <trkpt lat="45.85969" lon="2.92234">
        <ele>877.8</ele>
        <time>2021-07-19T12:19:10Z</time>
      </trkpt>
      <trkpt lat="45.8597" lon="2.9222">
        <ele>877.9</ele>
        <time>2021-07-19T12:19:15Z</time>
      </trkpt>
      <trkpt lat="45.8597" lon="2.92206">
        <ele>878</ele>
        <time>2021-07-19T12:19:21Z</time>
      </trkpt>
      <trkpt lat="45.85967" lon="2.92193">
        <ele>878.3</ele>
        <time>2021-07-19T12:19:26Z</time>
      </trkpt>
      <trkpt lat="45.85963" lon="2.92178">
        <ele>878.7</ele>
        <time>2021-07-19T12:19:31Z</time>
      </trkpt>
      <trkpt lat="45.8596" lon="2.92164">
        <ele>878.9</ele>
        <time>2021-07-19T12:19:36Z</time>
      </trkpt>
      <trkpt lat="45.85957" lon="2.92148">
        <ele>878.8</ele>
        <time>2021-07-19T12:19:41Z</time>
      </trkpt>
      <trkpt lat="45.85954" lon="2.92133">
        <ele>878.7</ele>
        <time>2021-07-19T12:19:46Z</time>
      </trkpt>
      <trkpt lat="45.85948" lon="2.9212">
        <ele>878.7</ele>
        <time>2021-07-19T12:19:51Z</time>
      </trkpt>
      <trkpt lat="45.85943" lon="2.92109">
        <ele>878.5</ele>
        <time>2021-07-19T12:19:56Z</time>
      </trkpt>
      <trkpt lat="45.85934" lon="2.92108">
        <ele>878.6</ele>
        <time>2021-07-19T12:20:01Z</time>
      </trkpt>
      <trkpt lat="45.85924" lon="2.92114">
        <ele>879</ele>
        <time>2021-07-19T12:20:07Z</time>
      </trkpt>
      <trkpt lat="45.85915" lon="2.92119">
        <ele>879.4</ele>
        <time>2021-07-19T12:20:13Z</time>
      </trkpt>
      <trkpt lat="45.85906" lon="2.92123">
        <ele>880.4</ele>
        <time>2021-07-19T12:20:18Z</time>
      </trkpt>
      <trkpt lat="45.85897" lon="2.92126">
        <ele>881.3</ele>
        <time>2021-07-19T12:20:23Z</time>
      </trkpt>
      <trkpt lat="45.85887" lon="2.92125">
        <ele>882.2</ele>
        <time>2021-07-19T12:20:27Z</time>
      </trkpt>
      <trkpt lat="45.85878" lon="2.92127">
        <ele>883</ele>
        <time>2021-07-19T12:20:32Z</time>
      </trkpt>
      <trkpt lat="45.85868" lon="2.92133">
        <ele>884.1</ele>
        <time>2021-07-19T12:20:38Z</time>
      </trkpt>
      <trkpt lat="45.85857" lon="2.92133">
        <ele>885.1</ele>
        <time>2021-07-19T12:20:44Z</time>
      </trkpt>
      <trkpt lat="45.85849" lon="2.92136">
        <ele>885.9</ele>
        <time>2021-07-19T12:20:49Z</time>
      </trkpt>
      <trkpt lat="45.85841" lon="2.92144">
        <ele>886.8</ele>
        <time>2021-07-19T12:20:58Z</time>
      </trkpt>
      <trkpt lat="45.85834" lon="2.92154">
        <ele>887.6</ele>
        <time>2021-07-19T12:21:06Z</time>
      </trkpt>
      <trkpt lat="45.85826" lon="2.92161">
        <ele>888.3</ele>
        <time>2021-07-19T12:21:13Z</time>
      </trkpt>
      <trkpt lat="45.85818" lon="2.9217">
        <ele>888.9</ele>
        <time>2021-07-19T12:21:21Z</time>
      </trkpt>
      <trkpt lat="45.85808" lon="2.92174">
        <ele>889.5</ele>
        <time>2021-07-19T12:21:28Z</time>
      </trkpt>
      <trkpt lat="45.858" lon="2.92181">
        <ele>890</ele>
        <time>2021-07-19T12:21:34Z</time>
      </trkpt>
      <trkpt lat="45.85792" lon="2.92189">
        <ele>890.3</ele>
        <time>2021-07-19T12:21:40Z</time>
      </trkpt>
      <trkpt lat="45.85784" lon="2.92199">
        <ele>890.7</ele>
        <time>2021-07-19T12:21:47Z</time>
      </trkpt>
      <trkpt lat="45.85777" lon="2.92206">
        <ele>890.9</ele>
        <time>2021-07-19T12:21:53Z</time>
      </trkpt>
      <trkpt lat="45.85769" lon="2.92216">
        <ele>891.1</ele>
        <time>2021-07-19T12:21:59Z</time>
      </trkpt>
      <trkpt lat="45.85761" lon="2.92225">
        <ele>891.2</ele>
        <time>2021-07-19T12:22:05Z</time>
      </trkpt>
      <trkpt lat="45.85753" lon="2.92234">
        <ele>891.3</ele>
        <time>2021-07-19T12:22:11Z</time>
      </trkpt>
      <trkpt lat="45.85746" lon="2.92245">
        <ele>891.2</ele>
        <time>2021-07-19T12:22:17Z</time>
      </trkpt>
      <trkpt lat="45.8574" lon="2.92256">
        <ele>891.3</ele>
        <time>2021-07-19T12:22:22Z</time>
      </trkpt>
      <trkpt lat="45.85735" lon="2.92267">
        <ele>891.6</ele>
        <time>2021-07-19T12:22:27Z</time>
      </trkpt>
      <trkpt lat="45.85728" lon="2.92279">
        <ele>891.9</ele>
        <time>2021-07-19T12:22:33Z</time>
      </trkpt>
      <trkpt lat="45.85721" lon="2.9229">
        <ele>892.2</ele>
        <time>2021-07-19T12:22:39Z</time>
      </trkpt>
      <trkpt lat="45.85716" lon="2.92301">
        <ele>892.4</ele>
        <time>2021-07-19T12:22:44Z</time>
      </trkpt>
      <trkpt lat="45.85706" lon="2.92299">
        <ele>892.6</ele>
        <time>2021-07-19T12:22:50Z</time>
      </trkpt>
      <trkpt lat="45.85702" lon="2.92287">
        <ele>892.6</ele>
        <time>2021-07-19T12:22:55Z</time>
      </trkpt>
      <trkpt lat="45.85698" lon="2.92274">
        <ele>892.5</ele>
        <time>2021-07-19T12:23:01Z</time>
      </trkpt>
      <trkpt lat="45.85693" lon="2.92261">
        <ele>892.5</ele>
        <time>2021-07-19T12:23:07Z</time>
      </trkpt>
      <trkpt lat="45.85687" lon="2.9225">
        <ele>892.5</ele>
        <time>2021-07-19T12:23:12Z</time>
      </trkpt>
      <trkpt lat="45.85681" lon="2.9224">
        <ele>892.9</ele>
        <time>2021-07-19T12:23:17Z</time>
      </trkpt>
      <trkpt lat="45.85676" lon="2.92227">
        <ele>893.3</ele>
        <time>2021-07-19T12:23:23Z</time>
      </trkpt>
      <trkpt lat="45.85671" lon="2.92214">
        <ele>893.8</ele>
        <time>2021-07-19T12:23:29Z</time>
      </trkpt>
      <trkpt lat="45.85665" lon="2.92203">
        <ele>894.1</ele>
        <time>2021-07-19T12:23:34Z</time>
      </trkpt>
      <trkpt lat="45.85658" lon="2.92192">
        <ele>894.2</ele>
        <time>2021-07-19T12:23:39Z</time>
      </trkpt>
      <trkpt lat="45.85651" lon="2.92181">
        <ele>894.3</ele>
        <time>2021-07-19T12:23:44Z</time>
      </trkpt>
      <trkpt lat="45.85644" lon="2.9217">
        <ele>894.4</ele>
        <time>2021-07-19T12:23:49Z</time>
      </trkpt>
      <trkpt lat="45.85639" lon="2.92157">
        <ele>894.5</ele>
        <time>2021-07-19T12:23:54Z</time>
      </trkpt>
      <trkpt lat="45.85635" lon="2.92145">
        <ele>894.7</ele>
        <time>2021-07-19T12:23:58Z</time>
      </trkpt>
      <trkpt lat="45.85629" lon="2.92133">
        <ele>894.7</ele>
        <time>2021-07-19T12:24:02Z</time>
      </trkpt>
      <trkpt lat="45.85622" lon="2.92122">
        <ele>894.7</ele>
        <time>2021-07-19T12:24:06Z</time>
      </trkpt>
      <trkpt lat="45.85615" lon="2.92111">
        <ele>894.7</ele>
        <time>2021-07-19T12:24:10Z</time>
      </trkpt>
      <trkpt lat="45.85607" lon="2.92099">
        <ele>894.6</ele>
        <time>2021-07-19T12:24:15Z</time>
      </trkpt>
      <trkpt lat="45.85601" lon="2.92088">
        <ele>894.6</ele>
        <time>2021-07-19T12:24:20Z</time>
      </trkpt>
      <trkpt lat="45.85595" lon="2.92077">
        <ele>894.5</ele>
        <time>2021-07-19T12:24:24Z</time>
      </trkpt>
      <trkpt lat="45.85588" lon="2.92068">
        <ele>894.3</ele>
        <time>2021-07-19T12:24:27Z</time>
      </trkpt>
      <trkpt lat="45.85581" lon="2.92059">
        <ele>894.2</ele>
        <time>2021-07-19T12:24:30Z</time>
      </trkpt>
      <trkpt lat="45.85576" lon="2.92046">
        <ele>894.2</ele>
        <time>2021-07-19T12:24:34Z</time>
      </trkpt>
      <trkpt lat="45.85572" lon="2.92035">
        <ele>894.2</ele>
        <time>2021-07-19T12:24:37Z</time>
      </trkpt>
      <trkpt lat="45.85567" lon="2.92024">
        <ele>894.1</ele>
        <time>2021-07-19T12:24:40Z</time>
      </trkpt>
      <trkpt lat="45.85559" lon="2.92009">
        <ele>893.8</ele>
        <time>2021-07-19T12:24:44Z</time>
      </trkpt>
      <trkpt lat="45.85551" lon="2.91997">
        <ele>893.4</ele>
        <time>2021-07-19T12:24:48Z</time>
      </trkpt>
      <trkpt lat="45.85546" lon="2.91987">
        <ele>892.9</ele>
        <time>2021-07-19T12:24:51Z</time>
      </trkpt>
      <trkpt lat="45.85538" lon="2.91978">
        <ele>892.5</ele>
        <time>2021-07-19T12:24:54Z</time>
      </trkpt>
      <trkpt lat="45.8553" lon="2.91968">
        <ele>892</ele>
        <time>2021-07-19T12:24:57Z</time>
      </trkpt>
      <trkpt lat="45.85522" lon="2.9196">
        <ele>891.7</ele>
        <time>2021-07-19T12:25:00Z</time>
      </trkpt>
      <trkpt lat="45.85511" lon="2.91951">
        <ele>891.3</ele>
        <time>2021-07-19T12:25:03Z</time>
      </trkpt>
      <trkpt lat="45.85506" lon="2.91941">
        <ele>891.1</ele>
        <time>2021-07-19T12:25:05Z</time>
      </trkpt>
      <trkpt lat="45.85498" lon="2.91928">
        <ele>891</ele>
        <time>2021-07-19T12:25:08Z</time>
      </trkpt>
      <trkpt lat="45.85491" lon="2.91917">
        <ele>890.8</ele>
        <time>2021-07-19T12:25:12Z</time>
      </trkpt>
      <trkpt lat="45.85485" lon="2.91905">
        <ele>890.8</ele>
        <time>2021-07-19T12:25:16Z</time>
      </trkpt>
      <trkpt lat="45.85478" lon="2.91893">
        <ele>890.8</ele>
        <time>2021-07-19T12:25:20Z</time>
      </trkpt>
      <trkpt lat="45.85473" lon="2.91881">
        <ele>890.8</ele>
        <time>2021-07-19T12:25:24Z</time>
      </trkpt>
      <trkpt lat="45.85466" lon="2.91869">
        <ele>890.8</ele>
        <time>2021-07-19T12:25:29Z</time>
      </trkpt>
      <trkpt lat="45.8546" lon="2.91857">
        <ele>890.8</ele>
        <time>2021-07-19T12:25:34Z</time>
      </trkpt>
      <trkpt lat="45.85453" lon="2.91844">
        <ele>890.7</ele>
        <time>2021-07-19T12:25:38Z</time>
      </trkpt>
      <trkpt lat="45.85447" lon="2.9183">
        <ele>890.9</ele>
        <time>2021-07-19T12:25:42Z</time>
      </trkpt>
      <trkpt lat="45.85441" lon="2.91819">
        <ele>891.1</ele>
        <time>2021-07-19T12:25:45Z</time>
      </trkpt>
      <trkpt lat="45.85434" lon="2.91808">
        <ele>891.3</ele>
        <time>2021-07-19T12:25:49Z</time>
      </trkpt>
      <trkpt lat="45.85427" lon="2.91799">
        <ele>891.3</ele>
        <time>2021-07-19T12:25:53Z</time>
      </trkpt>
      <trkpt lat="45.85421" lon="2.91787">
        <ele>891.3</ele>
        <time>2021-07-19T12:25:57Z</time>
      </trkpt>
      <trkpt lat="45.85416" lon="2.91775">
        <ele>891.4</ele>
        <time>2021-07-19T12:26:01Z</time>
      </trkpt>
      <trkpt lat="45.85411" lon="2.91763">
        <ele>891.4</ele>
        <time>2021-07-19T12:26:07Z</time>
      </trkpt>
      <trkpt lat="45.85405" lon="2.91752">
        <ele>891.4</ele>
        <time>2021-07-19T12:26:19Z</time>
      </trkpt>
      <trkpt lat="45.85406" lon="2.91739">
        <ele>890.8</ele>
        <time>2021-07-19T12:27:04Z</time>
      </trkpt>
      <trkpt lat="45.85401" lon="2.91726">
        <ele>889.8</ele>
        <time>2021-07-19T12:27:09Z</time>
      </trkpt>
      <trkpt lat="45.85398" lon="2.91713">
        <ele>889</ele>
        <time>2021-07-19T12:27:12Z</time>
      </trkpt>
      <trkpt lat="45.85395" lon="2.91697">
        <ele>888.1</ele>
        <time>2021-07-19T12:27:15Z</time>
      </trkpt>
      <trkpt lat="45.85393" lon="2.91682">
        <ele>887.4</ele>
        <time>2021-07-19T12:27:18Z</time>
      </trkpt>
      <trkpt lat="45.8539" lon="2.91666">
        <ele>886.6</ele>
        <time>2021-07-19T12:27:21Z</time>
      </trkpt>
      <trkpt lat="45.85389" lon="2.91651">
        <ele>886.4</ele>
        <time>2021-07-19T12:27:24Z</time>
      </trkpt>
      <trkpt lat="45.85388" lon="2.91636">
        <ele>886.2</ele>
        <time>2021-07-19T12:27:27Z</time>
      </trkpt>
      <trkpt lat="45.85387" lon="2.91622">
        <ele>886</ele>
        <time>2021-07-19T12:27:30Z</time>
      </trkpt>
      <trkpt lat="45.85386" lon="2.91607">
        <ele>885.8</ele>
        <time>2021-07-19T12:27:34Z</time>
      </trkpt>
      <trkpt lat="45.85385" lon="2.91591">
        <ele>885.5</ele>
        <time>2021-07-19T12:27:38Z</time>
      </trkpt>
      <trkpt lat="45.8539" lon="2.91577">
        <ele>885.3</ele>
        <time>2021-07-19T12:27:41Z</time>
      </trkpt>
      <trkpt lat="45.85396" lon="2.91563">
        <ele>885.2</ele>
        <time>2021-07-19T12:27:44Z</time>
      </trkpt>
      <trkpt lat="45.85401" lon="2.91551">
        <ele>885.2</ele>
        <time>2021-07-19T12:27:47Z</time>
      </trkpt>
      <trkpt lat="45.85406" lon="2.91539">
        <ele>885.1</ele>
        <time>2021-07-19T12:27:50Z</time>
      </trkpt>
      <trkpt lat="45.85414" lon="2.91532">
        <ele>885</ele>
        <time>2021-07-19T12:27:53Z</time>
      </trkpt>
      <trkpt lat="45.85424" lon="2.91525">
        <ele>885</ele>
        <time>2021-07-19T12:27:56Z</time>
      </trkpt>
      <trkpt lat="45.85434" lon="2.91516">
        <ele>885</ele>
        <time>2021-07-19T12:27:59Z</time>
      </trkpt>
      <trkpt lat="45.85441" lon="2.91507">
        <ele>884.8</ele>
        <time>2021-07-19T12:28:02Z</time>
      </trkpt>
      <trkpt lat="45.85447" lon="2.91493">
        <ele>884.4</ele>
        <time>2021-07-19T12:28:05Z</time>
      </trkpt>
      <trkpt lat="45.85448" lon="2.91477">
        <ele>883.9</ele>
        <time>2021-07-19T12:28:08Z</time>
      </trkpt>
      <trkpt lat="45.85445" lon="2.91459">
        <ele>883.3</ele>
        <time>2021-07-19T12:28:11Z</time>
      </trkpt>
      <trkpt lat="45.85441" lon="2.91442">
        <ele>882.9</ele>
        <time>2021-07-19T12:28:14Z</time>
      </trkpt>
      <trkpt lat="45.85437" lon="2.91425">
        <ele>882.5</ele>
        <time>2021-07-19T12:28:17Z</time>
      </trkpt>
      <trkpt lat="45.85435" lon="2.91408">
        <ele>881.9</ele>
        <time>2021-07-19T12:28:20Z</time>
      </trkpt>
      <trkpt lat="45.85431" lon="2.91395">
        <ele>881.5</ele>
        <time>2021-07-19T12:28:23Z</time>
      </trkpt>
      <trkpt lat="45.85427" lon="2.91382">
        <ele>881.1</ele>
        <time>2021-07-19T12:28:26Z</time>
      </trkpt>
      <trkpt lat="45.85422" lon="2.9137">
        <ele>880.9</ele>
        <time>2021-07-19T12:28:29Z</time>
      </trkpt>
      <trkpt lat="45.85416" lon="2.91358">
        <ele>880.9</ele>
        <time>2021-07-19T12:28:32Z</time>
      </trkpt>
      <trkpt lat="45.8541" lon="2.91349">
        <ele>880.7</ele>
        <time>2021-07-19T12:28:35Z</time>
      </trkpt>
      <trkpt lat="45.85401" lon="2.91343">
        <ele>880.6</ele>
        <time>2021-07-19T12:28:41Z</time>
      </trkpt>
      <trkpt lat="45.85389" lon="2.91338">
        <ele>880.5</ele>
        <time>2021-07-19T12:28:52Z</time>
      </trkpt>
      <trkpt lat="45.85378" lon="2.91334">
        <ele>880.5</ele>
        <time>2021-07-19T12:28:55Z</time>
      </trkpt>
      <trkpt lat="45.85365" lon="2.91329">
        <ele>880.3</ele>
        <time>2021-07-19T12:28:58Z</time>
      </trkpt>
      <trkpt lat="45.85354" lon="2.91326">
        <ele>880.2</ele>
        <time>2021-07-19T12:29:00Z</time>
      </trkpt>
      <trkpt lat="45.85343" lon="2.91321">
        <ele>880.1</ele>
        <time>2021-07-19T12:29:02Z</time>
      </trkpt>
      <trkpt lat="45.8533" lon="2.91316">
        <ele>880</ele>
        <time>2021-07-19T12:29:04Z</time>
      </trkpt>
      <trkpt lat="45.85319" lon="2.91313">
        <ele>879.9</ele>
        <time>2021-07-19T12:29:06Z</time>
      </trkpt>
      <trkpt lat="45.8531" lon="2.9131">
        <ele>879.8</ele>
        <time>2021-07-19T12:29:08Z</time>
      </trkpt>
      <trkpt lat="45.85299" lon="2.91306">
        <ele>879.6</ele>
        <time>2021-07-19T12:29:10Z</time>
      </trkpt>
      <trkpt lat="45.85286" lon="2.91302">
        <ele>879.5</ele>
        <time>2021-07-19T12:29:13Z</time>
      </trkpt>
      <trkpt lat="45.85275" lon="2.91302">
        <ele>879.6</ele>
        <time>2021-07-19T12:29:17Z</time>
      </trkpt>
      <trkpt lat="45.85264" lon="2.91305">
        <ele>879.9</ele>
        <time>2021-07-19T12:29:21Z</time>
      </trkpt>
      <trkpt lat="45.85255" lon="2.91308">
        <ele>880.1</ele>
        <time>2021-07-19T12:29:24Z</time>
      </trkpt>
      <trkpt lat="45.85245" lon="2.91311">
        <ele>880.1</ele>
        <time>2021-07-19T12:29:27Z</time>
      </trkpt>
      <trkpt lat="45.85235" lon="2.91312">
        <ele>880</ele>
        <time>2021-07-19T12:29:32Z</time>
      </trkpt>
      <trkpt lat="45.85228" lon="2.91323">
        <ele>880.2</ele>
        <time>2021-07-19T12:29:38Z</time>
      </trkpt>
      <trkpt lat="45.85221" lon="2.91335">
        <ele>880.4</ele>
        <time>2021-07-19T12:29:43Z</time>
      </trkpt>
      <trkpt lat="45.85213" lon="2.91345">
        <ele>880.5</ele>
        <time>2021-07-19T12:29:47Z</time>
      </trkpt>
      <trkpt lat="45.85205" lon="2.91356">
        <ele>880.6</ele>
        <time>2021-07-19T12:29:51Z</time>
      </trkpt>
      <trkpt lat="45.85199" lon="2.91365">
        <ele>880.8</ele>
        <time>2021-07-19T12:29:54Z</time>
      </trkpt>
      <trkpt lat="45.85192" lon="2.91375">
        <ele>881</ele>
        <time>2021-07-19T12:29:57Z</time>
      </trkpt>
      <trkpt lat="45.85184" lon="2.91384">
        <ele>881.1</ele>
        <time>2021-07-19T12:30:00Z</time>
      </trkpt>
      <trkpt lat="45.85176" lon="2.9139">
        <ele>881.2</ele>
        <time>2021-07-19T12:30:03Z</time>
      </trkpt>
      <trkpt lat="45.85168" lon="2.91397">
        <ele>881.3</ele>
        <time>2021-07-19T12:30:06Z</time>
      </trkpt>
      <trkpt lat="45.85162" lon="2.91406">
        <ele>881.4</ele>
        <time>2021-07-19T12:30:09Z</time>
      </trkpt>
      <trkpt lat="45.85156" lon="2.91416">
        <ele>881.5</ele>
        <time>2021-07-19T12:30:12Z</time>
      </trkpt>
      <trkpt lat="45.85149" lon="2.91425">
        <ele>881.5</ele>
        <time>2021-07-19T12:30:15Z</time>
      </trkpt>
      <trkpt lat="45.85142" lon="2.91434">
        <ele>881.5</ele>
        <time>2021-07-19T12:30:18Z</time>
      </trkpt>
      <trkpt lat="45.85132" lon="2.91442">
        <ele>881.4</ele>
        <time>2021-07-19T12:30:22Z</time>
      </trkpt>
      <trkpt lat="45.85122" lon="2.9145">
        <ele>881.3</ele>
        <time>2021-07-19T12:30:26Z</time>
      </trkpt>
      <trkpt lat="45.85114" lon="2.91457">
        <ele>881.2</ele>
        <time>2021-07-19T12:30:29Z</time>
      </trkpt>
      <trkpt lat="45.85103" lon="2.91464">
        <ele>881.1</ele>
        <time>2021-07-19T12:30:33Z</time>
      </trkpt>
      <trkpt lat="45.85095" lon="2.91472">
        <ele>881.1</ele>
        <time>2021-07-19T12:30:37Z</time>
      </trkpt>
      <trkpt lat="45.85085" lon="2.91477">
        <ele>881</ele>
        <time>2021-07-19T12:30:41Z</time>
      </trkpt>
      <trkpt lat="45.85077" lon="2.91485">
        <ele>881</ele>
        <time>2021-07-19T12:30:46Z</time>
      </trkpt>
      <trkpt lat="45.85068" lon="2.91495">
        <ele>880.9</ele>
        <time>2021-07-19T12:30:51Z</time>
      </trkpt>
      <trkpt lat="45.8506" lon="2.91503">
        <ele>880.6</ele>
        <time>2021-07-19T12:30:54Z</time>
      </trkpt>
      <trkpt lat="45.85051" lon="2.91512">
        <ele>880.2</ele>
        <time>2021-07-19T12:30:55Z</time>
      </trkpt>
      <trkpt lat="45.85046" lon="2.91524">
        <ele>880</ele>
        <time>2021-07-19T12:30:58Z</time>
      </trkpt>
      <trkpt lat="45.85041" lon="2.91536">
        <ele>879.9</ele>
        <time>2021-07-19T12:31:03Z</time>
      </trkpt>
      <trkpt lat="45.85035" lon="2.91558">
        <ele>879.9</ele>
        <time>2021-07-19T12:31:07Z</time>
      </trkpt>
      <trkpt lat="45.85032" lon="2.91573">
        <ele>880</ele>
        <time>2021-07-19T12:31:11Z</time>
      </trkpt>
      <trkpt lat="45.85028" lon="2.91587">
        <ele>880.1</ele>
        <time>2021-07-19T12:31:15Z</time>
      </trkpt>
      <trkpt lat="45.85024" lon="2.91602">
        <ele>880.2</ele>
        <time>2021-07-19T12:31:19Z</time>
      </trkpt>
      <trkpt lat="45.8502" lon="2.91613">
        <ele>880.3</ele>
        <time>2021-07-19T12:31:23Z</time>
      </trkpt>
      <trkpt lat="45.85017" lon="2.91628">
        <ele>880.5</ele>
        <time>2021-07-19T12:31:29Z</time>
      </trkpt>
      <trkpt lat="45.85013" lon="2.91642">
        <ele>880.7</ele>
        <time>2021-07-19T12:31:34Z</time>
      </trkpt>
      <trkpt lat="45.8501" lon="2.91656">
        <ele>880.9</ele>
        <time>2021-07-19T12:31:39Z</time>
      </trkpt>
      <trkpt lat="45.85005" lon="2.91668">
        <ele>881.1</ele>
        <time>2021-07-19T12:31:43Z</time>
      </trkpt>
      <trkpt lat="45.84998" lon="2.91678">
        <ele>881.2</ele>
        <time>2021-07-19T12:31:47Z</time>
      </trkpt>
      <trkpt lat="45.84989" lon="2.91689">
        <ele>881.4</ele>
        <time>2021-07-19T12:31:51Z</time>
      </trkpt>
      <trkpt lat="45.84979" lon="2.91698">
        <ele>881.5</ele>
        <time>2021-07-19T12:31:55Z</time>
      </trkpt>
      <trkpt lat="45.8497" lon="2.91705">
        <ele>881.6</ele>
        <time>2021-07-19T12:31:59Z</time>
      </trkpt>
      <trkpt lat="45.84962" lon="2.91713">
        <ele>881.7</ele>
        <time>2021-07-19T12:32:02Z</time>
      </trkpt>
      <trkpt lat="45.84954" lon="2.91722">
        <ele>881.8</ele>
        <time>2021-07-19T12:32:05Z</time>
      </trkpt>
      <trkpt lat="45.84945" lon="2.91732">
        <ele>881.9</ele>
        <time>2021-07-19T12:32:09Z</time>
      </trkpt>
      <trkpt lat="45.84937" lon="2.91742">
        <ele>882.1</ele>
        <time>2021-07-19T12:32:12Z</time>
      </trkpt>
      <trkpt lat="45.84929" lon="2.91754">
        <ele>882.2</ele>
        <time>2021-07-19T12:32:17Z</time>
      </trkpt>
      <trkpt lat="45.84918" lon="2.91773">
        <ele>882</ele>
        <time>2021-07-19T12:32:20Z</time>
      </trkpt>
      <trkpt lat="45.84913" lon="2.91786">
        <ele>881.9</ele>
        <time>2021-07-19T12:32:23Z</time>
      </trkpt>
      <trkpt lat="45.84907" lon="2.91796">
        <ele>881.6</ele>
        <time>2021-07-19T12:32:26Z</time>
      </trkpt>
      <trkpt lat="45.84903" lon="2.9181">
        <ele>881.4</ele>
        <time>2021-07-19T12:32:31Z</time>
      </trkpt>
      <trkpt lat="45.84898" lon="2.91833">
        <ele>881.1</ele>
        <time>2021-07-19T12:32:34Z</time>
      </trkpt>
      <trkpt lat="45.84895" lon="2.91849">
        <ele>880.9</ele>
        <time>2021-07-19T12:32:37Z</time>
      </trkpt>
      <trkpt lat="45.84892" lon="2.91864">
        <ele>880.8</ele>
        <time>2021-07-19T12:32:40Z</time>
      </trkpt>
      <trkpt lat="45.84889" lon="2.91878">
        <ele>880.7</ele>
        <time>2021-07-19T12:32:45Z</time>
      </trkpt>
      <trkpt lat="45.84886" lon="2.91897">
        <ele>880.6</ele>
        <time>2021-07-19T12:32:47Z</time>
      </trkpt>
      <trkpt lat="45.84884" lon="2.91912">
        <ele>880.6</ele>
        <time>2021-07-19T12:32:51Z</time>
      </trkpt>
      <trkpt lat="45.84882" lon="2.91928">
        <ele>880.9</ele>
        <time>2021-07-19T12:32:54Z</time>
      </trkpt>
      <trkpt lat="45.8488" lon="2.91941">
        <ele>881.3</ele>
        <time>2021-07-19T12:32:57Z</time>
      </trkpt>
      <trkpt lat="45.84874" lon="2.91954">
        <ele>881.6</ele>
        <time>2021-07-19T12:33:01Z</time>
      </trkpt>
      <trkpt lat="45.84867" lon="2.91966">
        <ele>881.8</ele>
        <time>2021-07-19T12:33:05Z</time>
      </trkpt>
      <trkpt lat="45.84861" lon="2.91979">
        <ele>882.1</ele>
        <time>2021-07-19T12:33:09Z</time>
      </trkpt>
      <trkpt lat="45.84855" lon="2.91991">
        <ele>882.3</ele>
        <time>2021-07-19T12:33:13Z</time>
      </trkpt>
      <trkpt lat="45.84849" lon="2.92001">
        <ele>882.4</ele>
        <time>2021-07-19T12:33:15Z</time>
      </trkpt>
      <trkpt lat="45.84842" lon="2.92011">
        <ele>882.8</ele>
        <time>2021-07-19T12:33:18Z</time>
      </trkpt>
      <trkpt lat="45.84835" lon="2.9202">
        <ele>883.2</ele>
        <time>2021-07-19T12:33:21Z</time>
      </trkpt>
      <trkpt lat="45.84826" lon="2.92031">
        <ele>883.8</ele>
        <time>2021-07-19T12:33:25Z</time>
      </trkpt>
      <trkpt lat="45.84819" lon="2.9204">
        <ele>884.2</ele>
        <time>2021-07-19T12:33:28Z</time>
      </trkpt>
      <trkpt lat="45.84809" lon="2.92048">
        <ele>884.5</ele>
        <time>2021-07-19T12:33:32Z</time>
      </trkpt>
      <trkpt lat="45.84798" lon="2.92054">
        <ele>884.7</ele>
        <time>2021-07-19T12:33:36Z</time>
      </trkpt>
      <trkpt lat="45.84789" lon="2.92058">
        <ele>884.7</ele>
        <time>2021-07-19T12:33:39Z</time>
      </trkpt>
      <trkpt lat="45.84778" lon="2.92064">
        <ele>884.8</ele>
        <time>2021-07-19T12:33:43Z</time>
      </trkpt>
      <trkpt lat="45.8477" lon="2.92071">
        <ele>885</ele>
        <time>2021-07-19T12:33:46Z</time>
      </trkpt>
      <trkpt lat="45.8476" lon="2.9208">
        <ele>885.1</ele>
        <time>2021-07-19T12:33:50Z</time>
      </trkpt>
      <trkpt lat="45.84751" lon="2.92091">
        <ele>885.1</ele>
        <time>2021-07-19T12:33:54Z</time>
      </trkpt>
      <trkpt lat="45.84745" lon="2.921">
        <ele>885.2</ele>
        <time>2021-07-19T12:33:57Z</time>
      </trkpt>
      <trkpt lat="45.84738" lon="2.92109">
        <ele>885.2</ele>
        <time>2021-07-19T12:34:00Z</time>
      </trkpt>
      <trkpt lat="45.8473" lon="2.9212">
        <ele>885.3</ele>
        <time>2021-07-19T12:34:04Z</time>
      </trkpt>
      <trkpt lat="45.84722" lon="2.92132">
        <ele>885.4</ele>
        <time>2021-07-19T12:34:08Z</time>
      </trkpt>
      <trkpt lat="45.84714" lon="2.92143">
        <ele>885.6</ele>
        <time>2021-07-19T12:34:12Z</time>
      </trkpt>
      <trkpt lat="45.84706" lon="2.92153">
        <ele>885.7</ele>
        <time>2021-07-19T12:34:16Z</time>
      </trkpt>
      <trkpt lat="45.84698" lon="2.92162">
        <ele>885.9</ele>
        <time>2021-07-19T12:34:20Z</time>
      </trkpt>
      <trkpt lat="45.8469" lon="2.92171">
        <ele>886.1</ele>
        <time>2021-07-19T12:34:24Z</time>
      </trkpt>
      <trkpt lat="45.84682" lon="2.9218">
        <ele>886.2</ele>
        <time>2021-07-19T12:34:28Z</time>
      </trkpt>
      <trkpt lat="45.84675" lon="2.9219">
        <ele>886.3</ele>
        <time>2021-07-19T12:34:32Z</time>
      </trkpt>
      <trkpt lat="45.84668" lon="2.92202">
        <ele>886.4</ele>
        <time>2021-07-19T12:34:36Z</time>
      </trkpt>
      <trkpt lat="45.84662" lon="2.92213">
        <ele>886.5</ele>
        <time>2021-07-19T12:34:40Z</time>
      </trkpt>
      <trkpt lat="45.84655" lon="2.92222">
        <ele>886.6</ele>
        <time>2021-07-19T12:34:44Z</time>
      </trkpt>
      <trkpt lat="45.84648" lon="2.92234">
        <ele>886.6</ele>
        <time>2021-07-19T12:34:49Z</time>
      </trkpt>
      <trkpt lat="45.84642" lon="2.92248">
        <ele>886.7</ele>
        <time>2021-07-19T12:34:55Z</time>
      </trkpt>
      <trkpt lat="45.84636" lon="2.92261">
        <ele>886.8</ele>
        <time>2021-07-19T12:34:59Z</time>
      </trkpt>
      <trkpt lat="45.84629" lon="2.92274">
        <ele>886.8</ele>
        <time>2021-07-19T12:35:03Z</time>
      </trkpt>
      <trkpt lat="45.84623" lon="2.92286">
        <ele>886.9</ele>
        <time>2021-07-19T12:35:07Z</time>
      </trkpt>
      <trkpt lat="45.84617" lon="2.92299">
        <ele>887</ele>
        <time>2021-07-19T12:35:11Z</time>
      </trkpt>
      <trkpt lat="45.84609" lon="2.92317">
        <ele>887.1</ele>
        <time>2021-07-19T12:35:14Z</time>
      </trkpt>
      <trkpt lat="45.84602" lon="2.92328">
        <ele>887.2</ele>
        <time>2021-07-19T12:35:17Z</time>
      </trkpt>
      <trkpt lat="45.84595" lon="2.92341">
        <ele>887.2</ele>
        <time>2021-07-19T12:35:20Z</time>
      </trkpt>
      <trkpt lat="45.84588" lon="2.92352">
        <ele>887.1</ele>
        <time>2021-07-19T12:35:24Z</time>
      </trkpt>
      <trkpt lat="45.84576" lon="2.92369">
        <ele>886.2</ele>
        <time>2021-07-19T12:35:26Z</time>
      </trkpt>
      <trkpt lat="45.84566" lon="2.92382">
        <ele>885.2</ele>
        <time>2021-07-19T12:35:29Z</time>
      </trkpt>
      <trkpt lat="45.84557" lon="2.92394">
        <ele>884.4</ele>
        <time>2021-07-19T12:35:32Z</time>
      </trkpt>
      <trkpt lat="45.84547" lon="2.92407">
        <ele>883.5</ele>
        <time>2021-07-19T12:35:35Z</time>
      </trkpt>
      <trkpt lat="45.84539" lon="2.92421">
        <ele>882.8</ele>
        <time>2021-07-19T12:35:38Z</time>
      </trkpt>
      <trkpt lat="45.84531" lon="2.92434">
        <ele>882.3</ele>
        <time>2021-07-19T12:35:41Z</time>
      </trkpt>
      <trkpt lat="45.84521" lon="2.9245">
        <ele>881.7</ele>
        <time>2021-07-19T12:35:44Z</time>
      </trkpt>
      <trkpt lat="45.84514" lon="2.92462">
        <ele>881.3</ele>
        <time>2021-07-19T12:35:46Z</time>
      </trkpt>
      <trkpt lat="45.84506" lon="2.92474">
        <ele>880.9</ele>
        <time>2021-07-19T12:35:48Z</time>
      </trkpt>
      <trkpt lat="45.84497" lon="2.9249">
        <ele>880.5</ele>
        <time>2021-07-19T12:35:50Z</time>
      </trkpt>
      <trkpt lat="45.84484" lon="2.92506">
        <ele>879.9</ele>
        <time>2021-07-19T12:35:52Z</time>
      </trkpt>
      <trkpt lat="45.84469" lon="2.9252">
        <ele>878.9</ele>
        <time>2021-07-19T12:35:54Z</time>
      </trkpt>
      <trkpt lat="45.84455" lon="2.92532">
        <ele>878.2</ele>
        <time>2021-07-19T12:35:56Z</time>
      </trkpt>
      <trkpt lat="45.84441" lon="2.92543">
        <ele>877.5</ele>
        <time>2021-07-19T12:35:58Z</time>
      </trkpt>
      <trkpt lat="45.84427" lon="2.9255">
        <ele>876.8</ele>
        <time>2021-07-19T12:36:00Z</time>
      </trkpt>
      <trkpt lat="45.84412" lon="2.92553">
        <ele>876.3</ele>
        <time>2021-07-19T12:36:02Z</time>
      </trkpt>
      <trkpt lat="45.84397" lon="2.92551">
        <ele>876.2</ele>
        <time>2021-07-19T12:36:04Z</time>
      </trkpt>
      <trkpt lat="45.84383" lon="2.92547">
        <ele>876.1</ele>
        <time>2021-07-19T12:36:06Z</time>
      </trkpt>
      <trkpt lat="45.84371" lon="2.92541">
        <ele>876</ele>
        <time>2021-07-19T12:36:08Z</time>
      </trkpt>
      <trkpt lat="45.8436" lon="2.92535">
        <ele>875.9</ele>
        <time>2021-07-19T12:36:10Z</time>
      </trkpt>
      <trkpt lat="45.8435" lon="2.9253">
        <ele>875.9</ele>
        <time>2021-07-19T12:36:12Z</time>
      </trkpt>
      <trkpt lat="45.84341" lon="2.92526">
        <ele>876</ele>
        <time>2021-07-19T12:36:14Z</time>
      </trkpt>
      <trkpt lat="45.84329" lon="2.92522">
        <ele>876.1</ele>
        <time>2021-07-19T12:36:17Z</time>
      </trkpt>
      <trkpt lat="45.84318" lon="2.92519">
        <ele>876.3</ele>
        <time>2021-07-19T12:36:21Z</time>
      </trkpt>
      <trkpt lat="45.84303" lon="2.9252">
        <ele>876.6</ele>
        <time>2021-07-19T12:36:25Z</time>
      </trkpt>
      <trkpt lat="45.84295" lon="2.9253">
        <ele>876.6</ele>
        <time>2021-07-19T12:36:30Z</time>
      </trkpt>
      <trkpt lat="45.8429" lon="2.92541">
        <ele>876.5</ele>
        <time>2021-07-19T12:36:33Z</time>
      </trkpt>
      <trkpt lat="45.84283" lon="2.92553">
        <ele>876.4</ele>
        <time>2021-07-19T12:36:36Z</time>
      </trkpt>
      <trkpt lat="45.84277" lon="2.92564">
        <ele>876.3</ele>
        <time>2021-07-19T12:36:39Z</time>
      </trkpt>
      <trkpt lat="45.84269" lon="2.92576">
        <ele>876.1</ele>
        <time>2021-07-19T12:36:42Z</time>
      </trkpt>
      <trkpt lat="45.84263" lon="2.92586">
        <ele>876</ele>
        <time>2021-07-19T12:36:45Z</time>
      </trkpt>
      <trkpt lat="45.84256" lon="2.92599">
        <ele>876.2</ele>
        <time>2021-07-19T12:36:49Z</time>
      </trkpt>
      <trkpt lat="45.84248" lon="2.92609">
        <ele>876.3</ele>
        <time>2021-07-19T12:41:59Z</time>
      </trkpt>
      <trkpt lat="45.84242" lon="2.92619">
        <ele>876.5</ele>
        <time>2021-07-19T12:42:04Z</time>
      </trkpt>
      <trkpt lat="45.84237" lon="2.92631">
        <ele>876.8</ele>
        <time>2021-07-19T12:42:09Z</time>
      </trkpt>
      <trkpt lat="45.8423" lon="2.92643">
        <ele>877.1</ele>
        <time>2021-07-19T12:42:13Z</time>
      </trkpt>
      <trkpt lat="45.84223" lon="2.92655">
        <ele>877.4</ele>
        <time>2021-07-19T12:42:17Z</time>
      </trkpt>
      <trkpt lat="45.84217" lon="2.92665">
        <ele>877.8</ele>
        <time>2021-07-19T12:42:20Z</time>
      </trkpt>
      <trkpt lat="45.84209" lon="2.92677">
        <ele>878.2</ele>
        <time>2021-07-19T12:42:24Z</time>
      </trkpt>
      <trkpt lat="45.84202" lon="2.92689">
        <ele>878.6</ele>
        <time>2021-07-19T12:42:28Z</time>
      </trkpt>
      <trkpt lat="45.84195" lon="2.92701">
        <ele>879</ele>
        <time>2021-07-19T12:42:32Z</time>
      </trkpt>
      <trkpt lat="45.84188" lon="2.92715">
        <ele>879.5</ele>
        <time>2021-07-19T12:42:36Z</time>
      </trkpt>
      <trkpt lat="45.84181" lon="2.92727">
        <ele>880</ele>
        <time>2021-07-19T12:42:40Z</time>
      </trkpt>
      <trkpt lat="45.84175" lon="2.92738">
        <ele>880.4</ele>
        <time>2021-07-19T12:42:44Z</time>
      </trkpt>
      <trkpt lat="45.84167" lon="2.92748">
        <ele>880.9</ele>
        <time>2021-07-19T12:42:48Z</time>
      </trkpt>
      <trkpt lat="45.84159" lon="2.92755">
        <ele>881.4</ele>
        <time>2021-07-19T12:42:52Z</time>
      </trkpt>
      <trkpt lat="45.8415" lon="2.92757">
        <ele>881.6</ele>
        <time>2021-07-19T12:42:56Z</time>
      </trkpt>
      <trkpt lat="45.84139" lon="2.92761">
        <ele>882</ele>
        <time>2021-07-19T12:43:01Z</time>
      </trkpt>
      <trkpt lat="45.84129" lon="2.92764">
        <ele>882.3</ele>
        <time>2021-07-19T12:43:06Z</time>
      </trkpt>
      <trkpt lat="45.84119" lon="2.92771">
        <ele>882.8</ele>
        <time>2021-07-19T12:43:11Z</time>
      </trkpt>
      <trkpt lat="45.84115" lon="2.92783">
        <ele>883.2</ele>
        <time>2021-07-19T12:43:15Z</time>
      </trkpt>
      <trkpt lat="45.84112" lon="2.92797">
        <ele>883.6</ele>
        <time>2021-07-19T12:43:20Z</time>
      </trkpt>
      <trkpt lat="45.8411" lon="2.9281">
        <ele>884</ele>
        <time>2021-07-19T12:43:27Z</time>
      </trkpt>
      <trkpt lat="45.84109" lon="2.92824">
        <ele>884.4</ele>
        <time>2021-07-19T12:43:34Z</time>
      </trkpt>
      <trkpt lat="45.84109" lon="2.92839">
        <ele>885.1</ele>
        <time>2021-07-19T12:43:40Z</time>
      </trkpt>
      <trkpt lat="45.84109" lon="2.92853">
        <ele>886.3</ele>
        <time>2021-07-19T12:43:46Z</time>
      </trkpt>
      <trkpt lat="45.84108" lon="2.92868">
        <ele>887.5</ele>
        <time>2021-07-19T12:43:52Z</time>
      </trkpt>
      <trkpt lat="45.84109" lon="2.92883">
        <ele>888.7</ele>
        <time>2021-07-19T12:43:58Z</time>
      </trkpt>
      <trkpt lat="45.8411" lon="2.92897">
        <ele>889.8</ele>
        <time>2021-07-19T12:44:04Z</time>
      </trkpt>
      <trkpt lat="45.84113" lon="2.92909">
        <ele>890.7</ele>
        <time>2021-07-19T12:44:10Z</time>
      </trkpt>
      <trkpt lat="45.84118" lon="2.92921">
        <ele>891.5</ele>
        <time>2021-07-19T12:44:16Z</time>
      </trkpt>
      <trkpt lat="45.84122" lon="2.92934">
        <ele>892.4</ele>
        <time>2021-07-19T12:44:22Z</time>
      </trkpt>
      <trkpt lat="45.84125" lon="2.92948">
        <ele>893.4</ele>
        <time>2021-07-19T12:44:29Z</time>
      </trkpt>
      <trkpt lat="45.84129" lon="2.92963">
        <ele>894.6</ele>
        <time>2021-07-19T12:44:35Z</time>
      </trkpt>
      <trkpt lat="45.84134" lon="2.92975">
        <ele>895.6</ele>
        <time>2021-07-19T12:44:40Z</time>
      </trkpt>
      <trkpt lat="45.84126" lon="2.92982">
        <ele>896.1</ele>
        <time>2021-07-19T12:44:49Z</time>
      </trkpt>
      <trkpt lat="45.84116" lon="2.92979">
        <ele>895.8</ele>
        <time>2021-07-19T12:44:54Z</time>
      </trkpt>
      <trkpt lat="45.84106" lon="2.9298">
        <ele>895.9</ele>
        <time>2021-07-19T12:45:00Z</time>
      </trkpt>
      <trkpt lat="45.84097" lon="2.92984">
        <ele>896.1</ele>
        <time>2021-07-19T12:45:05Z</time>
      </trkpt>
      <trkpt lat="45.84088" lon="2.92989">
        <ele>896.4</ele>
        <time>2021-07-19T12:45:10Z</time>
      </trkpt>
      <trkpt lat="45.84078" lon="2.92994">
        <ele>896.8</ele>
        <time>2021-07-19T12:45:15Z</time>
      </trkpt>
      <trkpt lat="45.84068" lon="2.92998">
        <ele>897.4</ele>
        <time>2021-07-19T12:45:21Z</time>
      </trkpt>
      <trkpt lat="45.84057" lon="2.93002">
        <ele>898.1</ele>
        <time>2021-07-19T12:45:27Z</time>
      </trkpt>
      <trkpt lat="45.84048" lon="2.93002">
        <ele>898.4</ele>
        <time>2021-07-19T12:45:32Z</time>
      </trkpt>
      <trkpt lat="45.84039" lon="2.93005">
        <ele>898.9</ele>
        <time>2021-07-19T12:45:37Z</time>
      </trkpt>
      <trkpt lat="45.8403" lon="2.93009">
        <ele>899.4</ele>
        <time>2021-07-19T12:45:42Z</time>
      </trkpt>
      <trkpt lat="45.8402" lon="2.93013">
        <ele>900</ele>
        <time>2021-07-19T12:45:49Z</time>
      </trkpt>
      <trkpt lat="45.84009" lon="2.93015">
        <ele>900.4</ele>
        <time>2021-07-19T12:45:55Z</time>
      </trkpt>
      <trkpt lat="45.83999" lon="2.93016">
        <ele>900.8</ele>
        <time>2021-07-19T12:46:00Z</time>
      </trkpt>
      <trkpt lat="45.83989" lon="2.93018">
        <ele>900.9</ele>
        <time>2021-07-19T12:46:04Z</time>
      </trkpt>
      <trkpt lat="45.8398" lon="2.93018">
        <ele>901</ele>
        <time>2021-07-19T12:46:08Z</time>
      </trkpt>
      <trkpt lat="45.83971" lon="2.93021">
        <ele>901.3</ele>
        <time>2021-07-19T12:46:12Z</time>
      </trkpt>
      <trkpt lat="45.83962" lon="2.93027">
        <ele>901.7</ele>
        <time>2021-07-19T12:46:17Z</time>
      </trkpt>
      <trkpt lat="45.83954" lon="2.93032">
        <ele>902.2</ele>
        <time>2021-07-19T12:46:21Z</time>
      </trkpt>
      <trkpt lat="45.83945" lon="2.93036">
        <ele>902.6</ele>
        <time>2021-07-19T12:46:25Z</time>
      </trkpt>
      <trkpt lat="45.83936" lon="2.93041">
        <ele>903.1</ele>
        <time>2021-07-19T12:46:29Z</time>
      </trkpt>
      <trkpt lat="45.83927" lon="2.93045">
        <ele>903.6</ele>
        <time>2021-07-19T12:46:34Z</time>
      </trkpt>
      <trkpt lat="45.83918" lon="2.93049">
        <ele>904.1</ele>
        <time>2021-07-19T12:46:39Z</time>
      </trkpt>
      <trkpt lat="45.83908" lon="2.93055">
        <ele>905</ele>
        <time>2021-07-19T12:46:44Z</time>
      </trkpt>
      <trkpt lat="45.83899" lon="2.93059">
        <ele>905.6</ele>
        <time>2021-07-19T12:46:49Z</time>
      </trkpt>
      <trkpt lat="45.83889" lon="2.93062">
        <ele>906.2</ele>
        <time>2021-07-19T12:46:54Z</time>
      </trkpt>
      <trkpt lat="45.83879" lon="2.93063">
        <ele>906.6</ele>
        <time>2021-07-19T12:46:59Z</time>
      </trkpt>
      <trkpt lat="45.83869" lon="2.93065">
        <ele>907.1</ele>
        <time>2021-07-19T12:47:04Z</time>
      </trkpt>
      <trkpt lat="45.8386" lon="2.9307">
        <ele>907.7</ele>
        <time>2021-07-19T12:47:09Z</time>
      </trkpt>
      <trkpt lat="45.8385" lon="2.93076">
        <ele>908.3</ele>
        <time>2021-07-19T12:47:14Z</time>
      </trkpt>
      <trkpt lat="45.8384" lon="2.93082">
        <ele>908.8</ele>
        <time>2021-07-19T12:47:20Z</time>
      </trkpt>
      <trkpt lat="45.83831" lon="2.93087">
        <ele>908.9</ele>
        <time>2021-07-19T12:47:25Z</time>
      </trkpt>
      <trkpt lat="45.83822" lon="2.93092">
        <ele>908.6</ele>
        <time>2021-07-19T12:47:30Z</time>
      </trkpt>
      <trkpt lat="45.83815" lon="2.93103">
        <ele>908.4</ele>
        <time>2021-07-19T12:47:36Z</time>
      </trkpt>
      <trkpt lat="45.83809" lon="2.93114">
        <ele>908.3</ele>
        <time>2021-07-19T12:47:41Z</time>
      </trkpt>
      <trkpt lat="45.83804" lon="2.93126">
        <ele>908.3</ele>
        <time>2021-07-19T12:47:46Z</time>
      </trkpt>
      <trkpt lat="45.83799" lon="2.93139">
        <ele>908.3</ele>
        <time>2021-07-19T12:47:52Z</time>
      </trkpt>
      <trkpt lat="45.83793" lon="2.93151">
        <ele>908.3</ele>
        <time>2021-07-19T12:47:57Z</time>
      </trkpt>
      <trkpt lat="45.83789" lon="2.93165">
        <ele>908.4</ele>
        <time>2021-07-19T12:48:03Z</time>
      </trkpt>
      <trkpt lat="45.83787" lon="2.93179">
        <ele>908.5</ele>
        <time>2021-07-19T12:48:08Z</time>
      </trkpt>
      <trkpt lat="45.83784" lon="2.93193">
        <ele>908.5</ele>
        <time>2021-07-19T12:48:12Z</time>
      </trkpt>
      <trkpt lat="45.83782" lon="2.93206">
        <ele>908.6</ele>
        <time>2021-07-19T12:48:16Z</time>
      </trkpt>
      <trkpt lat="45.8378" lon="2.9322">
        <ele>908.7</ele>
        <time>2021-07-19T12:48:20Z</time>
      </trkpt>
      <trkpt lat="45.83776" lon="2.93234">
        <ele>908.7</ele>
        <time>2021-07-19T12:48:25Z</time>
      </trkpt>
      <trkpt lat="45.83772" lon="2.93247">
        <ele>908.8</ele>
        <time>2021-07-19T12:48:30Z</time>
      </trkpt>
      <trkpt lat="45.83769" lon="2.93262">
        <ele>908.9</ele>
        <time>2021-07-19T12:48:33Z</time>
      </trkpt>
      <trkpt lat="45.83766" lon="2.93274">
        <ele>909.1</ele>
        <time>2021-07-19T12:48:35Z</time>
      </trkpt>
      <trkpt lat="45.83764" lon="2.93287">
        <ele>909.3</ele>
        <time>2021-07-19T12:48:38Z</time>
      </trkpt>
      <trkpt lat="45.83762" lon="2.93302">
        <ele>909.6</ele>
        <time>2021-07-19T12:48:41Z</time>
      </trkpt>
      <trkpt lat="45.83757" lon="2.93313">
        <ele>909.7</ele>
        <time>2021-07-19T12:48:45Z</time>
      </trkpt>
      <trkpt lat="45.8375" lon="2.93324">
        <ele>909.8</ele>
        <time>2021-07-19T12:48:47Z</time>
      </trkpt>
      <trkpt lat="45.83744" lon="2.93335">
        <ele>910.4</ele>
        <time>2021-07-19T12:48:51Z</time>
      </trkpt>
      <trkpt lat="45.83737" lon="2.93345">
        <ele>911.2</ele>
        <time>2021-07-19T12:48:57Z</time>
      </trkpt>
      <trkpt lat="45.83728" lon="2.93355">
        <ele>912.3</ele>
        <time>2021-07-19T12:49:02Z</time>
      </trkpt>
      <trkpt lat="45.83722" lon="2.93364">
        <ele>913.2</ele>
        <time>2021-07-19T12:49:05Z</time>
      </trkpt>
      <trkpt lat="45.83715" lon="2.93377">
        <ele>914.4</ele>
        <time>2021-07-19T12:49:09Z</time>
      </trkpt>
      <trkpt lat="45.83709" lon="2.93388">
        <ele>915.6</ele>
        <time>2021-07-19T12:49:14Z</time>
      </trkpt>
      <trkpt lat="45.83708" lon="2.93401">
        <ele>916.5</ele>
        <time>2021-07-19T12:49:18Z</time>
      </trkpt>
      <trkpt lat="45.83704" lon="2.93416">
        <ele>917.8</ele>
        <time>2021-07-19T12:49:23Z</time>
      </trkpt>
      <trkpt lat="45.83696" lon="2.93424">
        <ele>919</ele>
        <time>2021-07-19T12:49:28Z</time>
      </trkpt>
      <trkpt lat="45.83688" lon="2.93433">
        <ele>920.1</ele>
        <time>2021-07-19T12:49:33Z</time>
      </trkpt>
      <trkpt lat="45.83679" lon="2.93439">
        <ele>921.2</ele>
        <time>2021-07-19T12:49:38Z</time>
      </trkpt>
      <trkpt lat="45.8367" lon="2.93447">
        <ele>922.2</ele>
        <time>2021-07-19T12:49:43Z</time>
      </trkpt>
      <trkpt lat="45.83663" lon="2.93453">
        <ele>922.8</ele>
        <time>2021-07-19T12:49:47Z</time>
      </trkpt>
      <trkpt lat="45.83655" lon="2.93462">
        <ele>923.2</ele>
        <time>2021-07-19T12:49:51Z</time>
      </trkpt>
      <trkpt lat="45.83649" lon="2.93472">
        <ele>923.7</ele>
        <time>2021-07-19T12:49:55Z</time>
      </trkpt>
      <trkpt lat="45.83642" lon="2.93481">
        <ele>924.2</ele>
        <time>2021-07-19T12:50:00Z</time>
      </trkpt>
      <trkpt lat="45.83634" lon="2.93492">
        <ele>924.7</ele>
        <time>2021-07-19T12:50:05Z</time>
      </trkpt>
      <trkpt lat="45.83627" lon="2.93502">
        <ele>925.1</ele>
        <time>2021-07-19T12:50:09Z</time>
      </trkpt>
      <trkpt lat="45.8362" lon="2.93512">
        <ele>925.5</ele>
        <time>2021-07-19T12:50:13Z</time>
      </trkpt>
      <trkpt lat="45.83612" lon="2.93521">
        <ele>925.9</ele>
        <time>2021-07-19T12:50:17Z</time>
      </trkpt>
      <trkpt lat="45.83605" lon="2.93531">
        <ele>926.4</ele>
        <time>2021-07-19T12:50:22Z</time>
      </trkpt>
      <trkpt lat="45.83602" lon="2.93545">
        <ele>927</ele>
        <time>2021-07-19T12:50:27Z</time>
      </trkpt>
      <trkpt lat="45.83596" lon="2.93556">
        <ele>927.6</ele>
        <time>2021-07-19T12:50:32Z</time>
      </trkpt>
      <trkpt lat="45.8359" lon="2.93569">
        <ele>928.2</ele>
        <time>2021-07-19T12:50:37Z</time>
      </trkpt>
      <trkpt lat="45.83586" lon="2.93583">
        <ele>929</ele>
        <time>2021-07-19T12:50:41Z</time>
      </trkpt>
      <trkpt lat="45.83581" lon="2.93595">
        <ele>929.4</ele>
        <time>2021-07-19T12:50:45Z</time>
      </trkpt>
      <trkpt lat="45.83576" lon="2.93609">
        <ele>929.9</ele>
        <time>2021-07-19T12:50:49Z</time>
      </trkpt>
      <trkpt lat="45.83572" lon="2.93621">
        <ele>930.3</ele>
        <time>2021-07-19T12:50:53Z</time>
      </trkpt>
      <trkpt lat="45.83568" lon="2.93636">
        <ele>930.8</ele>
        <time>2021-07-19T12:50:58Z</time>
      </trkpt>
      <trkpt lat="45.83564" lon="2.93649">
        <ele>931.3</ele>
        <time>2021-07-19T12:51:02Z</time>
      </trkpt>
      <trkpt lat="45.8356" lon="2.9366">
        <ele>931.7</ele>
        <time>2021-07-19T12:51:07Z</time>
      </trkpt>
      <trkpt lat="45.83555" lon="2.93671">
        <ele>932.1</ele>
        <time>2021-07-19T12:51:12Z</time>
      </trkpt>
      <trkpt lat="45.83552" lon="2.93685">
        <ele>932.5</ele>
        <time>2021-07-19T12:51:17Z</time>
      </trkpt>
      <trkpt lat="45.83548" lon="2.93697">
        <ele>932.8</ele>
        <time>2021-07-19T12:51:23Z</time>
      </trkpt>
      <trkpt lat="45.8354" lon="2.93705">
        <ele>933.2</ele>
        <time>2021-07-19T12:56:07Z</time>
      </trkpt>
      <trkpt lat="45.83532" lon="2.93714">
        <ele>933.6</ele>
        <time>2021-07-19T12:56:11Z</time>
      </trkpt>
      <trkpt lat="45.83529" lon="2.93727">
        <ele>933.9</ele>
        <time>2021-07-19T12:56:16Z</time>
      </trkpt>
      <trkpt lat="45.83524" lon="2.93739">
        <ele>934.3</ele>
        <time>2021-07-19T12:56:21Z</time>
      </trkpt>
      <trkpt lat="45.83521" lon="2.93754">
        <ele>934.5</ele>
        <time>2021-07-19T12:56:25Z</time>
      </trkpt>
      <trkpt lat="45.83515" lon="2.93767">
        <ele>934.7</ele>
        <time>2021-07-19T12:56:30Z</time>
      </trkpt>
      <trkpt lat="45.8351" lon="2.93782">
        <ele>934.9</ele>
        <time>2021-07-19T12:56:34Z</time>
      </trkpt>
      <trkpt lat="45.83504" lon="2.93796">
        <ele>935</ele>
        <time>2021-07-19T12:56:38Z</time>
      </trkpt>
      <trkpt lat="45.83501" lon="2.9381">
        <ele>935</ele>
        <time>2021-07-19T12:56:47Z</time>
      </trkpt>
      <trkpt lat="45.83495" lon="2.9382">
        <ele>935.3</ele>
        <time>2021-07-19T12:56:54Z</time>
      </trkpt>
      <trkpt lat="45.83491" lon="2.93831">
        <ele>935.5</ele>
        <time>2021-07-19T12:57:01Z</time>
      </trkpt>
      <trkpt lat="45.83485" lon="2.93843">
        <ele>935.9</ele>
        <time>2021-07-19T12:57:07Z</time>
      </trkpt>
      <trkpt lat="45.83478" lon="2.93853">
        <ele>936.4</ele>
        <time>2021-07-19T12:57:12Z</time>
      </trkpt>
      <trkpt lat="45.83472" lon="2.93863">
        <ele>936.8</ele>
        <time>2021-07-19T12:57:18Z</time>
      </trkpt>
      <trkpt lat="45.83463" lon="2.9387">
        <ele>937.4</ele>
        <time>2021-07-19T12:57:24Z</time>
      </trkpt>
      <trkpt lat="45.83456" lon="2.9388">
        <ele>937.9</ele>
        <time>2021-07-19T12:57:32Z</time>
      </trkpt>
      <trkpt lat="45.83447" lon="2.93889">
        <ele>938.6</ele>
        <time>2021-07-19T12:57:40Z</time>
      </trkpt>
      <trkpt lat="45.83439" lon="2.93896">
        <ele>939.2</ele>
        <time>2021-07-19T12:57:46Z</time>
      </trkpt>
      <trkpt lat="45.83432" lon="2.93904">
        <ele>939.8</ele>
        <time>2021-07-19T12:57:52Z</time>
      </trkpt>
      <trkpt lat="45.83423" lon="2.93913">
        <ele>940.5</ele>
        <time>2021-07-19T12:57:58Z</time>
      </trkpt>
      <trkpt lat="45.83414" lon="2.93918">
        <ele>941.2</ele>
        <time>2021-07-19T12:58:05Z</time>
      </trkpt>
      <trkpt lat="45.83405" lon="2.93923">
        <ele>941.7</ele>
        <time>2021-07-19T12:58:12Z</time>
      </trkpt>
      <trkpt lat="45.83396" lon="2.93923">
        <ele>942.3</ele>
        <time>2021-07-19T12:58:20Z</time>
      </trkpt>
      <trkpt lat="45.83386" lon="2.93922">
        <ele>942.9</ele>
        <time>2021-07-19T12:58:29Z</time>
      </trkpt>
      <trkpt lat="45.83377" lon="2.93922">
        <ele>943.4</ele>
        <time>2021-07-19T12:58:36Z</time>
      </trkpt>
      <trkpt lat="45.83367" lon="2.9392">
        <ele>944</ele>
        <time>2021-07-19T12:58:42Z</time>
      </trkpt>
      <trkpt lat="45.83357" lon="2.93918">
        <ele>944.6</ele>
        <time>2021-07-19T12:58:49Z</time>
      </trkpt>
      <trkpt lat="45.83347" lon="2.93919">
        <ele>945.2</ele>
        <time>2021-07-19T12:58:56Z</time>
      </trkpt>
      <trkpt lat="45.83338" lon="2.93923">
        <ele>945.9</ele>
        <time>2021-07-19T12:59:03Z</time>
      </trkpt>
      <trkpt lat="45.83328" lon="2.9393">
        <ele>946.6</ele>
        <time>2021-07-19T12:59:10Z</time>
      </trkpt>
      <trkpt lat="45.8332" lon="2.93938">
        <ele>947.2</ele>
        <time>2021-07-19T12:59:16Z</time>
      </trkpt>
      <trkpt lat="45.83313" lon="2.93945">
        <ele>947.7</ele>
        <time>2021-07-19T12:59:22Z</time>
      </trkpt>
      <trkpt lat="45.83305" lon="2.93954">
        <ele>948.3</ele>
        <time>2021-07-19T12:59:28Z</time>
      </trkpt>
      <trkpt lat="45.83298" lon="2.93963">
        <ele>948.8</ele>
        <time>2021-07-19T12:59:34Z</time>
      </trkpt>
      <trkpt lat="45.8329" lon="2.93971">
        <ele>949.2</ele>
        <time>2021-07-19T12:59:40Z</time>
      </trkpt>
      <trkpt lat="45.83283" lon="2.93981">
        <ele>949.6</ele>
        <time>2021-07-19T12:59:47Z</time>
      </trkpt>
      <trkpt lat="45.83275" lon="2.93987">
        <ele>950</ele>
        <time>2021-07-19T12:59:53Z</time>
      </trkpt>
      <trkpt lat="45.83266" lon="2.93994">
        <ele>950.4</ele>
        <time>2021-07-19T12:59:59Z</time>
      </trkpt>
      <trkpt lat="45.83258" lon="2.94004">
        <ele>950.7</ele>
        <time>2021-07-19T13:00:04Z</time>
      </trkpt>
      <trkpt lat="45.83251" lon="2.94012">
        <ele>950.8</ele>
        <time>2021-07-19T13:00:09Z</time>
      </trkpt>
      <trkpt lat="45.83245" lon="2.94022">
        <ele>950.8</ele>
        <time>2021-07-19T13:00:14Z</time>
      </trkpt>
      <trkpt lat="45.83237" lon="2.94032">
        <ele>950.9</ele>
        <time>2021-07-19T13:00:20Z</time>
      </trkpt>
      <trkpt lat="45.83229" lon="2.94042">
        <ele>951</ele>
        <time>2021-07-19T13:00:26Z</time>
      </trkpt>
      <trkpt lat="45.83221" lon="2.9405">
        <ele>951.2</ele>
        <time>2021-07-19T13:00:31Z</time>
      </trkpt>
      <trkpt lat="45.83214" lon="2.94058">
        <ele>951.3</ele>
        <time>2021-07-19T13:00:36Z</time>
      </trkpt>
      <trkpt lat="45.83205" lon="2.94066">
        <ele>951.6</ele>
        <time>2021-07-19T13:00:42Z</time>
      </trkpt>
      <trkpt lat="45.83198" lon="2.94074">
        <ele>951.8</ele>
        <time>2021-07-19T13:00:47Z</time>
      </trkpt>
      <trkpt lat="45.8319" lon="2.94083">
        <ele>952.2</ele>
        <time>2021-07-19T13:00:52Z</time>
      </trkpt>
      <trkpt lat="45.83183" lon="2.94093">
        <ele>952.7</ele>
        <time>2021-07-19T13:00:58Z</time>
      </trkpt>
      <trkpt lat="45.83176" lon="2.94102">
        <ele>953.3</ele>
        <time>2021-07-19T13:01:03Z</time>
      </trkpt>
      <trkpt lat="45.83169" lon="2.94112">
        <ele>953.9</ele>
        <time>2021-07-19T13:01:08Z</time>
      </trkpt>
      <trkpt lat="45.83162" lon="2.94121">
        <ele>954.5</ele>
        <time>2021-07-19T13:01:13Z</time>
      </trkpt>
      <trkpt lat="45.83155" lon="2.9413">
        <ele>954.9</ele>
        <time>2021-07-19T13:01:18Z</time>
      </trkpt>
      <trkpt lat="45.83146" lon="2.9414">
        <ele>955.4</ele>
        <time>2021-07-19T13:01:23Z</time>
      </trkpt>
      <trkpt lat="45.83139" lon="2.94151">
        <ele>955.9</ele>
        <time>2021-07-19T13:01:28Z</time>
      </trkpt>
      <trkpt lat="45.83131" lon="2.94162">
        <ele>956.3</ele>
        <time>2021-07-19T13:01:33Z</time>
      </trkpt>
      <trkpt lat="45.83123" lon="2.94172">
        <ele>956.7</ele>
        <time>2021-07-19T13:01:38Z</time>
      </trkpt>
      <trkpt lat="45.83116" lon="2.94182">
        <ele>957.1</ele>
        <time>2021-07-19T13:01:55Z</time>
      </trkpt>
      <trkpt lat="45.83108" lon="2.94192">
        <ele>957.5</ele>
        <time>2021-07-19T13:02:00Z</time>
      </trkpt>
      <trkpt lat="45.83101" lon="2.942">
        <ele>957.9</ele>
        <time>2021-07-19T13:02:04Z</time>
      </trkpt>
      <trkpt lat="45.83093" lon="2.9421">
        <ele>958.4</ele>
        <time>2021-07-19T13:02:09Z</time>
      </trkpt>
      <trkpt lat="45.83085" lon="2.94221">
        <ele>958.9</ele>
        <time>2021-07-19T13:02:14Z</time>
      </trkpt>
      <trkpt lat="45.83078" lon="2.94231">
        <ele>959.5</ele>
        <time>2021-07-19T13:02:19Z</time>
      </trkpt>
      <trkpt lat="45.8307" lon="2.94241">
        <ele>960.1</ele>
        <time>2021-07-19T13:02:24Z</time>
      </trkpt>
      <trkpt lat="45.83061" lon="2.94252">
        <ele>960.6</ele>
        <time>2021-07-19T13:02:29Z</time>
      </trkpt>
      <trkpt lat="45.83053" lon="2.94261">
        <ele>961</ele>
        <time>2021-07-19T13:02:34Z</time>
      </trkpt>
      <trkpt lat="45.83045" lon="2.94269">
        <ele>961.5</ele>
        <time>2021-07-19T13:02:39Z</time>
      </trkpt>
      <trkpt lat="45.83036" lon="2.94275">
        <ele>961.9</ele>
        <time>2021-07-19T13:02:44Z</time>
      </trkpt>
      <trkpt lat="45.83028" lon="2.94283">
        <ele>962.4</ele>
        <time>2021-07-19T13:02:49Z</time>
      </trkpt>
      <trkpt lat="45.83019" lon="2.94289">
        <ele>962.8</ele>
        <time>2021-07-19T13:02:54Z</time>
      </trkpt>
      <trkpt lat="45.8301" lon="2.94296">
        <ele>963.3</ele>
        <time>2021-07-19T13:02:59Z</time>
      </trkpt>
      <trkpt lat="45.83001" lon="2.94303">
        <ele>963.9</ele>
        <time>2021-07-19T13:03:04Z</time>
      </trkpt>
      <trkpt lat="45.82991" lon="2.94308">
        <ele>964.7</ele>
        <time>2021-07-19T13:03:09Z</time>
      </trkpt>
      <trkpt lat="45.82981" lon="2.94316">
        <ele>965.6</ele>
        <time>2021-07-19T13:03:14Z</time>
      </trkpt>
      <trkpt lat="45.82973" lon="2.94322">
        <ele>966.3</ele>
        <time>2021-07-19T13:03:18Z</time>
      </trkpt>
      <trkpt lat="45.82964" lon="2.9433">
        <ele>967.1</ele>
        <time>2021-07-19T13:03:23Z</time>
      </trkpt>
      <trkpt lat="45.82954" lon="2.94337">
        <ele>967.9</ele>
        <time>2021-07-19T13:03:28Z</time>
      </trkpt>
      <trkpt lat="45.82946" lon="2.94344">
        <ele>968.5</ele>
        <time>2021-07-19T13:03:33Z</time>
      </trkpt>
      <trkpt lat="45.82937" lon="2.94351">
        <ele>969.1</ele>
        <time>2021-07-19T13:03:38Z</time>
      </trkpt>
      <trkpt lat="45.82927" lon="2.94357">
        <ele>969.8</ele>
        <time>2021-07-19T13:03:43Z</time>
      </trkpt>
      <trkpt lat="45.82917" lon="2.94362">
        <ele>970.3</ele>
        <time>2021-07-19T13:03:48Z</time>
      </trkpt>
      <trkpt lat="45.82907" lon="2.94367">
        <ele>971.1</ele>
        <time>2021-07-19T13:03:53Z</time>
      </trkpt>
      <trkpt lat="45.82897" lon="2.94372">
        <ele>972</ele>
        <time>2021-07-19T13:03:58Z</time>
      </trkpt>
      <trkpt lat="45.82888" lon="2.94376">
        <ele>972.8</ele>
        <time>2021-07-19T13:04:03Z</time>
      </trkpt>
      <trkpt lat="45.82879" lon="2.94382">
        <ele>973.6</ele>
        <time>2021-07-19T13:04:07Z</time>
      </trkpt>
      <trkpt lat="45.8287" lon="2.94386">
        <ele>974.5</ele>
        <time>2021-07-19T13:04:11Z</time>
      </trkpt>
      <trkpt lat="45.8286" lon="2.94387">
        <ele>975.4</ele>
        <time>2021-07-19T13:04:15Z</time>
      </trkpt>
      <trkpt lat="45.82851" lon="2.94387">
        <ele>976.1</ele>
        <time>2021-07-19T13:04:19Z</time>
      </trkpt>
      <trkpt lat="45.8284" lon="2.94387">
        <ele>977</ele>
        <time>2021-07-19T13:04:24Z</time>
      </trkpt>
      <trkpt lat="45.8283" lon="2.94385">
        <ele>977.6</ele>
        <time>2021-07-19T13:04:29Z</time>
      </trkpt>
      <trkpt lat="45.8282" lon="2.94385">
        <ele>978</ele>
        <time>2021-07-19T13:04:34Z</time>
      </trkpt>
      <trkpt lat="45.8281" lon="2.94391">
        <ele>978.6</ele>
        <time>2021-07-19T13:04:40Z</time>
      </trkpt>
      <trkpt lat="45.82801" lon="2.94398">
        <ele>979.3</ele>
        <time>2021-07-19T13:04:45Z</time>
      </trkpt>
      <trkpt lat="45.82793" lon="2.94403">
        <ele>979.8</ele>
        <time>2021-07-19T13:04:50Z</time>
      </trkpt>
      <trkpt lat="45.82784" lon="2.94407">
        <ele>980.3</ele>
        <time>2021-07-19T13:04:55Z</time>
      </trkpt>
      <trkpt lat="45.82775" lon="2.94413">
        <ele>980.9</ele>
        <time>2021-07-19T13:05:00Z</time>
      </trkpt>
      <trkpt lat="45.82765" lon="2.94419">
        <ele>981.6</ele>
        <time>2021-07-19T13:05:05Z</time>
      </trkpt>
      <trkpt lat="45.82755" lon="2.94421">
        <ele>982.1</ele>
        <time>2021-07-19T13:05:10Z</time>
      </trkpt>
      <trkpt lat="45.82746" lon="2.94427">
        <ele>982.7</ele>
        <time>2021-07-19T13:05:15Z</time>
      </trkpt>
      <trkpt lat="45.82736" lon="2.9443">
        <ele>982.8</ele>
        <time>2021-07-19T13:05:20Z</time>
      </trkpt>
      <trkpt lat="45.82728" lon="2.94439">
        <ele>983.4</ele>
        <time>2021-07-19T13:05:26Z</time>
      </trkpt>
      <trkpt lat="45.8272" lon="2.94445">
        <ele>983.8</ele>
        <time>2021-07-19T13:12:01Z</time>
      </trkpt>
      <trkpt lat="45.82719" lon="2.94457">
        <ele>984.7</ele>
        <time>2021-07-19T13:12:06Z</time>
      </trkpt>
      <trkpt lat="45.82727" lon="2.94466">
        <ele>985.4</ele>
        <time>2021-07-19T13:12:13Z</time>
      </trkpt>
      <trkpt lat="45.82735" lon="2.9447">
        <ele>985.8</ele>
        <time>2021-07-19T13:12:18Z</time>
      </trkpt>
      <trkpt lat="45.82746" lon="2.94474">
        <ele>986.1</ele>
        <time>2021-07-19T13:12:23Z</time>
      </trkpt>
      <trkpt lat="45.82758" lon="2.94478">
        <ele>985.9</ele>
        <time>2021-07-19T13:12:27Z</time>
      </trkpt>
      <trkpt lat="45.8277" lon="2.94481">
        <ele>985.4</ele>
        <time>2021-07-19T13:12:30Z</time>
      </trkpt>
      <trkpt lat="45.82779" lon="2.94483">
        <ele>984.9</ele>
        <time>2021-07-19T13:12:32Z</time>
      </trkpt>
      <trkpt lat="45.82791" lon="2.94487">
        <ele>984.3</ele>
        <time>2021-07-19T13:12:34Z</time>
      </trkpt>
      <trkpt lat="45.828" lon="2.94491">
        <ele>983.9</ele>
        <time>2021-07-19T13:12:36Z</time>
      </trkpt>
      <trkpt lat="45.82809" lon="2.94495">
        <ele>983.5</ele>
        <time>2021-07-19T13:12:38Z</time>
      </trkpt>
      <trkpt lat="45.8282" lon="2.94498">
        <ele>982.9</ele>
        <time>2021-07-19T13:12:41Z</time>
      </trkpt>
      <trkpt lat="45.82833" lon="2.945">
        <ele>982</ele>
        <time>2021-07-19T13:12:44Z</time>
      </trkpt>
      <trkpt lat="45.82847" lon="2.94501">
        <ele>981.3</ele>
        <time>2021-07-19T13:12:47Z</time>
      </trkpt>
      <trkpt lat="45.82857" lon="2.94502">
        <ele>980.8</ele>
        <time>2021-07-19T13:12:49Z</time>
      </trkpt>
      <trkpt lat="45.82868" lon="2.94503">
        <ele>980.2</ele>
        <time>2021-07-19T13:12:51Z</time>
      </trkpt>
      <trkpt lat="45.82877" lon="2.94505">
        <ele>979.9</ele>
        <time>2021-07-19T13:12:53Z</time>
      </trkpt>
      <trkpt lat="45.82887" lon="2.94505">
        <ele>979.3</ele>
        <time>2021-07-19T13:12:55Z</time>
      </trkpt>
      <trkpt lat="45.82898" lon="2.94508">
        <ele>979</ele>
        <time>2021-07-19T13:12:57Z</time>
      </trkpt>
      <trkpt lat="45.8291" lon="2.94508">
        <ele>978.3</ele>
        <time>2021-07-19T13:12:59Z</time>
      </trkpt>
      <trkpt lat="45.82919" lon="2.94512">
        <ele>978.2</ele>
        <time>2021-07-19T13:13:01Z</time>
      </trkpt>
      <trkpt lat="45.8293" lon="2.94515">
        <ele>977.9</ele>
        <time>2021-07-19T13:13:03Z</time>
      </trkpt>
      <trkpt lat="45.82941" lon="2.94517">
        <ele>977.5</ele>
        <time>2021-07-19T13:13:05Z</time>
      </trkpt>
      <trkpt lat="45.82951" lon="2.9452">
        <ele>977.2</ele>
        <time>2021-07-19T13:13:07Z</time>
      </trkpt>
      <trkpt lat="45.82962" lon="2.94521">
        <ele>976.7</ele>
        <time>2021-07-19T13:13:09Z</time>
      </trkpt>
      <trkpt lat="45.82973" lon="2.94522">
        <ele>976.1</ele>
        <time>2021-07-19T13:13:11Z</time>
      </trkpt>
      <trkpt lat="45.82984" lon="2.94523">
        <ele>975.6</ele>
        <time>2021-07-19T13:13:13Z</time>
      </trkpt>
      <trkpt lat="45.82994" lon="2.94524">
        <ele>975.1</ele>
        <time>2021-07-19T13:13:15Z</time>
      </trkpt>
      <trkpt lat="45.83005" lon="2.94528">
        <ele>974.7</ele>
        <time>2021-07-19T13:13:17Z</time>
      </trkpt>
      <trkpt lat="45.83017" lon="2.94532">
        <ele>974.1</ele>
        <time>2021-07-19T13:13:19Z</time>
      </trkpt>
      <trkpt lat="45.83029" lon="2.94537">
        <ele>973.6</ele>
        <time>2021-07-19T13:13:21Z</time>
      </trkpt>
      <trkpt lat="45.83041" lon="2.94541">
        <ele>973</ele>
        <time>2021-07-19T13:13:23Z</time>
      </trkpt>
      <trkpt lat="45.83052" lon="2.94544">
        <ele>972.4</ele>
        <time>2021-07-19T13:13:25Z</time>
      </trkpt>
      <trkpt lat="45.83065" lon="2.94546">
        <ele>971.6</ele>
        <time>2021-07-19T13:13:27Z</time>
      </trkpt>
      <trkpt lat="45.83077" lon="2.94549">
        <ele>970.8</ele>
        <time>2021-07-19T13:13:29Z</time>
      </trkpt>
      <trkpt lat="45.83089" lon="2.94552">
        <ele>970.2</ele>
        <time>2021-07-19T13:13:31Z</time>
      </trkpt>
      <trkpt lat="45.831" lon="2.94556">
        <ele>969.9</ele>
        <time>2021-07-19T13:13:33Z</time>
      </trkpt>
      <trkpt lat="45.83112" lon="2.9456">
        <ele>969.4</ele>
        <time>2021-07-19T13:13:35Z</time>
      </trkpt>
      <trkpt lat="45.83124" lon="2.94565">
        <ele>969</ele>
        <time>2021-07-19T13:13:37Z</time>
      </trkpt>
      <trkpt lat="45.83136" lon="2.94569">
        <ele>968.5</ele>
        <time>2021-07-19T13:13:39Z</time>
      </trkpt>
      <trkpt lat="45.83149" lon="2.94573">
        <ele>967.9</ele>
        <time>2021-07-19T13:13:41Z</time>
      </trkpt>
      <trkpt lat="45.83163" lon="2.94576">
        <ele>967.1</ele>
        <time>2021-07-19T13:13:43Z</time>
      </trkpt>
      <trkpt lat="45.83176" lon="2.94578">
        <ele>966.2</ele>
        <time>2021-07-19T13:13:45Z</time>
      </trkpt>
      <trkpt lat="45.8319" lon="2.94581">
        <ele>965</ele>
        <time>2021-07-19T13:13:47Z</time>
      </trkpt>
      <trkpt lat="45.83203" lon="2.94585">
        <ele>964.1</ele>
        <time>2021-07-19T13:13:49Z</time>
      </trkpt>
      <trkpt lat="45.83216" lon="2.94591">
        <ele>963.4</ele>
        <time>2021-07-19T13:13:51Z</time>
      </trkpt>
      <trkpt lat="45.83227" lon="2.94595">
        <ele>962.8</ele>
        <time>2021-07-19T13:13:53Z</time>
      </trkpt>
      <trkpt lat="45.83241" lon="2.94599">
        <ele>961.9</ele>
        <time>2021-07-19T13:13:55Z</time>
      </trkpt>
      <trkpt lat="45.83252" lon="2.94601">
        <ele>961.3</ele>
        <time>2021-07-19T13:13:57Z</time>
      </trkpt>
      <trkpt lat="45.83263" lon="2.94603">
        <ele>961.6</ele>
        <time>2021-07-19T13:13:59Z</time>
      </trkpt>
      <trkpt lat="45.83275" lon="2.94601">
        <ele>961.6</ele>
        <time>2021-07-19T13:14:01Z</time>
      </trkpt>
      <trkpt lat="45.83285" lon="2.94599">
        <ele>961.6</ele>
        <time>2021-07-19T13:14:03Z</time>
      </trkpt>
      <trkpt lat="45.83295" lon="2.94596">
        <ele>961.5</ele>
        <time>2021-07-19T13:14:05Z</time>
      </trkpt>
      <trkpt lat="45.83306" lon="2.94592">
        <ele>961.4</ele>
        <time>2021-07-19T13:14:07Z</time>
      </trkpt>
      <trkpt lat="45.83319" lon="2.94587">
        <ele>961.1</ele>
        <time>2021-07-19T13:14:10Z</time>
      </trkpt>
      <trkpt lat="45.83328" lon="2.94588">
        <ele>961.3</ele>
        <time>2021-07-19T13:14:13Z</time>
      </trkpt>
      <trkpt lat="45.83329" lon="2.94603">
        <ele>962.6</ele>
        <time>2021-07-19T13:14:18Z</time>
      </trkpt>
      <trkpt lat="45.83326" lon="2.94617">
        <ele>963.7</ele>
        <time>2021-07-19T13:14:22Z</time>
      </trkpt>
      <trkpt lat="45.83325" lon="2.9463">
        <ele>964.8</ele>
        <time>2021-07-19T13:14:27Z</time>
      </trkpt>
      <trkpt lat="45.83324" lon="2.94644">
        <ele>965.9</ele>
        <time>2021-07-19T13:14:32Z</time>
      </trkpt>
      <trkpt lat="45.83326" lon="2.94657">
        <ele>967</ele>
        <time>2021-07-19T13:14:39Z</time>
      </trkpt>
      <trkpt lat="45.83326" lon="2.94673">
        <ele>968</ele>
        <time>2021-07-19T13:14:45Z</time>
      </trkpt>
      <trkpt lat="45.83325" lon="2.94688">
        <ele>968.4</ele>
        <time>2021-07-19T13:14:50Z</time>
      </trkpt>
      <trkpt lat="45.83322" lon="2.94702">
        <ele>968.7</ele>
        <time>2021-07-19T13:14:57Z</time>
      </trkpt>
      <trkpt lat="45.83322" lon="2.94718">
        <ele>969.2</ele>
        <time>2021-07-19T13:15:02Z</time>
      </trkpt>
      <trkpt lat="45.83323" lon="2.94732">
        <ele>969.6</ele>
        <time>2021-07-19T13:15:07Z</time>
      </trkpt>
      <trkpt lat="45.83325" lon="2.94746">
        <ele>970</ele>
        <time>2021-07-19T13:15:11Z</time>
      </trkpt>
      <trkpt lat="45.83325" lon="2.94759">
        <ele>970.6</ele>
        <time>2021-07-19T13:15:15Z</time>
      </trkpt>
      <trkpt lat="45.83322" lon="2.94772">
        <ele>971.4</ele>
        <time>2021-07-19T13:15:19Z</time>
      </trkpt>
      <trkpt lat="45.83319" lon="2.94786">
        <ele>972.3</ele>
        <time>2021-07-19T13:15:24Z</time>
      </trkpt>
      <trkpt lat="45.83318" lon="2.94799">
        <ele>973</ele>
        <time>2021-07-19T13:15:28Z</time>
      </trkpt>
      <trkpt lat="45.83318" lon="2.94815">
        <ele>973.9</ele>
        <time>2021-07-19T13:15:33Z</time>
      </trkpt>
      <trkpt lat="45.8332" lon="2.94828">
        <ele>974.7</ele>
        <time>2021-07-19T13:15:38Z</time>
      </trkpt>
      <trkpt lat="45.83319" lon="2.94843">
        <ele>975.8</ele>
        <time>2021-07-19T13:15:47Z</time>
      </trkpt>
      <trkpt lat="45.83319" lon="2.94856">
        <ele>976.8</ele>
        <time>2021-07-19T13:15:53Z</time>
      </trkpt>
      <trkpt lat="45.83315" lon="2.94869">
        <ele>977.9</ele>
        <time>2021-07-19T13:16:00Z</time>
      </trkpt>
      <trkpt lat="45.83314" lon="2.94883">
        <ele>979</ele>
        <time>2021-07-19T13:16:06Z</time>
      </trkpt>
      <trkpt lat="45.8331" lon="2.94897">
        <ele>980.2</ele>
        <time>2021-07-19T13:16:13Z</time>
      </trkpt>
      <trkpt lat="45.83305" lon="2.94908">
        <ele>981.3</ele>
        <time>2021-07-19T13:16:18Z</time>
      </trkpt>
      <trkpt lat="45.83303" lon="2.94923">
        <ele>982.4</ele>
        <time>2021-07-19T13:16:24Z</time>
      </trkpt>
      <trkpt lat="45.83298" lon="2.94936">
        <ele>983.2</ele>
        <time>2021-07-19T13:16:30Z</time>
      </trkpt>
      <trkpt lat="45.83296" lon="2.94949">
        <ele>984</ele>
        <time>2021-07-19T13:16:35Z</time>
      </trkpt>
      <trkpt lat="45.83294" lon="2.94962">
        <ele>984.8</ele>
        <time>2021-07-19T13:16:41Z</time>
      </trkpt>
      <trkpt lat="45.83291" lon="2.94976">
        <ele>985.8</ele>
        <time>2021-07-19T13:16:47Z</time>
      </trkpt>
      <trkpt lat="45.83288" lon="2.9499">
        <ele>986.8</ele>
        <time>2021-07-19T13:16:54Z</time>
      </trkpt>
      <trkpt lat="45.83287" lon="2.95004">
        <ele>987.5</ele>
        <time>2021-07-19T13:16:59Z</time>
      </trkpt>
      <trkpt lat="45.83285" lon="2.95018">
        <ele>988.1</ele>
        <time>2021-07-19T13:17:07Z</time>
      </trkpt>
      <trkpt lat="45.83285" lon="2.95033">
        <ele>988.4</ele>
        <time>2021-07-19T13:17:13Z</time>
      </trkpt>
      <trkpt lat="45.83283" lon="2.95047">
        <ele>989</ele>
        <time>2021-07-19T13:17:20Z</time>
      </trkpt>
      <trkpt lat="45.83283" lon="2.95061">
        <ele>989.3</ele>
        <time>2021-07-19T13:17:28Z</time>
      </trkpt>
      <trkpt lat="45.83283" lon="2.95075">
        <ele>989.6</ele>
        <time>2021-07-19T13:17:33Z</time>
      </trkpt>
      <trkpt lat="45.83282" lon="2.95089">
        <ele>990.3</ele>
        <time>2021-07-19T13:17:39Z</time>
      </trkpt>
      <trkpt lat="45.83278" lon="2.95101">
        <ele>991.5</ele>
        <time>2021-07-19T13:17:45Z</time>
      </trkpt>
      <trkpt lat="45.83279" lon="2.95115">
        <ele>992.4</ele>
        <time>2021-07-19T13:17:51Z</time>
      </trkpt>
      <trkpt lat="45.83277" lon="2.95128">
        <ele>993.4</ele>
        <time>2021-07-19T13:17:57Z</time>
      </trkpt>
      <trkpt lat="45.83273" lon="2.95141">
        <ele>994.5</ele>
        <time>2021-07-19T13:18:03Z</time>
      </trkpt>
      <trkpt lat="45.83268" lon="2.95153">
        <ele>995.5</ele>
        <time>2021-07-19T13:18:09Z</time>
      </trkpt>
      <trkpt lat="45.83262" lon="2.95164">
        <ele>996.4</ele>
        <time>2021-07-19T13:18:16Z</time>
      </trkpt>
      <trkpt lat="45.83259" lon="2.95177">
        <ele>997.5</ele>
        <time>2021-07-19T13:18:23Z</time>
      </trkpt>
      <trkpt lat="45.83256" lon="2.9519">
        <ele>998.5</ele>
        <time>2021-07-19T13:18:29Z</time>
      </trkpt>
      <trkpt lat="45.83252" lon="2.95203">
        <ele>999.6</ele>
        <time>2021-07-19T13:18:36Z</time>
      </trkpt>
      <trkpt lat="45.83251" lon="2.95216">
        <ele>1000.5</ele>
        <time>2021-07-19T13:18:42Z</time>
      </trkpt>
      <trkpt lat="45.83249" lon="2.9523">
        <ele>1001.7</ele>
        <time>2021-07-19T13:18:50Z</time>
      </trkpt>
      <trkpt lat="45.83243" lon="2.95241">
        <ele>1003</ele>
        <time>2021-07-19T13:18:57Z</time>
      </trkpt>
      <trkpt lat="45.8324" lon="2.95254">
        <ele>1004.4</ele>
        <time>2021-07-19T13:19:03Z</time>
      </trkpt>
      <trkpt lat="45.83235" lon="2.95266">
        <ele>1006.1</ele>
        <time>2021-07-19T13:19:09Z</time>
      </trkpt>
      <trkpt lat="45.8323" lon="2.95277">
        <ele>1007.7</ele>
        <time>2021-07-19T13:19:15Z</time>
      </trkpt>
      <trkpt lat="45.83226" lon="2.95291">
        <ele>1009.4</ele>
        <time>2021-07-19T13:19:21Z</time>
      </trkpt>
      <trkpt lat="45.83223" lon="2.95303">
        <ele>1010.9</ele>
        <time>2021-07-19T13:19:28Z</time>
      </trkpt>
      <trkpt lat="45.83222" lon="2.95318">
        <ele>1012.5</ele>
        <time>2021-07-19T13:19:34Z</time>
      </trkpt>
      <trkpt lat="45.83221" lon="2.95332">
        <ele>1014</ele>
        <time>2021-07-19T13:19:40Z</time>
      </trkpt>
      <trkpt lat="45.83217" lon="2.95345">
        <ele>1015.8</ele>
        <time>2021-07-19T13:19:46Z</time>
      </trkpt>
      <trkpt lat="45.83214" lon="2.95357">
        <ele>1017.4</ele>
        <time>2021-07-19T13:19:52Z</time>
      </trkpt>
      <trkpt lat="45.83211" lon="2.95371">
        <ele>1019.2</ele>
        <time>2021-07-19T13:19:58Z</time>
      </trkpt>
      <trkpt lat="45.83206" lon="2.95382">
        <ele>1020.6</ele>
        <time>2021-07-19T13:20:10Z</time>
      </trkpt>
      <trkpt lat="45.832" lon="2.95394">
        <ele>1022.2</ele>
        <time>2021-07-19T13:20:16Z</time>
      </trkpt>
      <trkpt lat="45.83191" lon="2.95401">
        <ele>1023.1</ele>
        <time>2021-07-19T13:20:22Z</time>
      </trkpt>
      <trkpt lat="45.83183" lon="2.95408">
        <ele>1024</ele>
        <time>2021-07-19T13:20:29Z</time>
      </trkpt>
      <trkpt lat="45.83176" lon="2.95418">
        <ele>1025</ele>
        <time>2021-07-19T13:20:39Z</time>
      </trkpt>
      <trkpt lat="45.8317" lon="2.95428">
        <ele>1025.7</ele>
        <time>2021-07-19T13:20:49Z</time>
      </trkpt>
      <trkpt lat="45.83163" lon="2.95437">
        <ele>1026.6</ele>
        <time>2021-07-19T13:20:56Z</time>
      </trkpt>
      <trkpt lat="45.83158" lon="2.95449">
        <ele>1027.8</ele>
        <time>2021-07-19T13:21:02Z</time>
      </trkpt>
      <trkpt lat="45.83153" lon="2.9546">
        <ele>1028.9</ele>
        <time>2021-07-19T13:21:08Z</time>
      </trkpt>
      <trkpt lat="45.83145" lon="2.9547">
        <ele>1030.3</ele>
        <time>2021-07-19T13:21:15Z</time>
      </trkpt>
      <trkpt lat="45.83139" lon="2.95482">
        <ele>1031.6</ele>
        <time>2021-07-19T13:21:23Z</time>
      </trkpt>
      <trkpt lat="45.83132" lon="2.9549">
        <ele>1032.7</ele>
        <time>2021-07-19T13:21:28Z</time>
      </trkpt>
      <trkpt lat="45.83126" lon="2.95501">
        <ele>1033.9</ele>
        <time>2021-07-19T13:21:33Z</time>
      </trkpt>
      <trkpt lat="45.83119" lon="2.9551">
        <ele>1034.7</ele>
        <time>2021-07-19T13:21:39Z</time>
      </trkpt>
      <trkpt lat="45.83114" lon="2.9552">
        <ele>1035.4</ele>
        <time>2021-07-19T13:21:45Z</time>
      </trkpt>
      <trkpt lat="45.83108" lon="2.95533">
        <ele>1036.1</ele>
        <time>2021-07-19T13:21:52Z</time>
      </trkpt>
      <trkpt lat="45.83113" lon="2.95546">
        <ele>1035.9</ele>
        <time>2021-07-19T13:29:44Z</time>
      </trkpt>
      <trkpt lat="45.83112" lon="2.95561">
        <ele>1036.2</ele>
        <time>2021-07-19T13:29:51Z</time>
      </trkpt>
      <trkpt lat="45.83115" lon="2.95574">
        <ele>1036.2</ele>
        <time>2021-07-19T13:29:57Z</time>
      </trkpt>
      <trkpt lat="45.83117" lon="2.95587">
        <ele>1035.9</ele>
        <time>2021-07-19T13:30:03Z</time>
      </trkpt>
      <trkpt lat="45.83115" lon="2.95602">
        <ele>1035.2</ele>
        <time>2021-07-19T13:30:09Z</time>
      </trkpt>
      <trkpt lat="45.83117" lon="2.95617">
        <ele>1034.1</ele>
        <time>2021-07-19T13:30:14Z</time>
      </trkpt>
      <trkpt lat="45.83116" lon="2.95632">
        <ele>1033.2</ele>
        <time>2021-07-19T13:30:19Z</time>
      </trkpt>
      <trkpt lat="45.83111" lon="2.95644">
        <ele>1032.8</ele>
        <time>2021-07-19T13:30:23Z</time>
      </trkpt>
      <trkpt lat="45.83111" lon="2.95657">
        <ele>1032</ele>
        <time>2021-07-19T13:30:27Z</time>
      </trkpt>
      <trkpt lat="45.83108" lon="2.9567">
        <ele>1031.3</ele>
        <time>2021-07-19T13:30:30Z</time>
      </trkpt>
      <trkpt lat="45.83106" lon="2.95686">
        <ele>1030.2</ele>
        <time>2021-07-19T13:30:34Z</time>
      </trkpt>
      <trkpt lat="45.83104" lon="2.95703">
        <ele>1029</ele>
        <time>2021-07-19T13:30:38Z</time>
      </trkpt>
      <trkpt lat="45.83098" lon="2.95736">
        <ele>1027</ele>
        <time>2021-07-19T13:30:42Z</time>
      </trkpt>
      <trkpt lat="45.83095" lon="2.9575">
        <ele>1026.2</ele>
        <time>2021-07-19T13:30:44Z</time>
      </trkpt>
      <trkpt lat="45.83092" lon="2.95762">
        <ele>1025.5</ele>
        <time>2021-07-19T13:30:46Z</time>
      </trkpt>
      <trkpt lat="45.83086" lon="2.95774">
        <ele>1025.1</ele>
        <time>2021-07-19T13:30:50Z</time>
      </trkpt>
      <trkpt lat="45.8308" lon="2.95786">
        <ele>1024.8</ele>
        <time>2021-07-19T13:30:53Z</time>
      </trkpt>
      <trkpt lat="45.83074" lon="2.95797">
        <ele>1024.5</ele>
        <time>2021-07-19T13:30:55Z</time>
      </trkpt>
      <trkpt lat="45.83068" lon="2.95807">
        <ele>1024.2</ele>
        <time>2021-07-19T13:30:57Z</time>
      </trkpt>
      <trkpt lat="45.83058" lon="2.95821">
        <ele>1023.5</ele>
        <time>2021-07-19T13:30:59Z</time>
      </trkpt>
      <trkpt lat="45.83047" lon="2.95831">
        <ele>1023</ele>
        <time>2021-07-19T13:31:02Z</time>
      </trkpt>
      <trkpt lat="45.83036" lon="2.95838">
        <ele>1022.8</ele>
        <time>2021-07-19T13:31:05Z</time>
      </trkpt>
      <trkpt lat="45.83027" lon="2.95842">
        <ele>1022.9</ele>
        <time>2021-07-19T13:31:10Z</time>
      </trkpt>
      <trkpt lat="45.83017" lon="2.95841">
        <ele>1023.5</ele>
        <time>2021-07-19T13:31:15Z</time>
      </trkpt>
      <trkpt lat="45.83016" lon="2.95855">
        <ele>1022.3</ele>
        <time>2021-07-19T13:31:40Z</time>
      </trkpt>
      <trkpt lat="45.83013" lon="2.95871">
        <ele>1021.1</ele>
        <time>2021-07-19T13:31:44Z</time>
      </trkpt>
      <trkpt lat="45.8301" lon="2.95884">
        <ele>1020.1</ele>
        <time>2021-07-19T13:31:47Z</time>
      </trkpt>
      <trkpt lat="45.83004" lon="2.95897">
        <ele>1019.4</ele>
        <time>2021-07-19T13:31:49Z</time>
      </trkpt>
      <trkpt lat="45.82998" lon="2.95912">
        <ele>1018.5</ele>
        <time>2021-07-19T13:31:50Z</time>
      </trkpt>
      <trkpt lat="45.82992" lon="2.95925">
        <ele>1017.1</ele>
        <time>2021-07-19T13:31:53Z</time>
      </trkpt>
      <trkpt lat="45.82985" lon="2.9594">
        <ele>1015</ele>
        <time>2021-07-19T13:31:56Z</time>
      </trkpt>
      <trkpt lat="45.82972" lon="2.9595">
        <ele>1013.9</ele>
        <time>2021-07-19T13:31:58Z</time>
      </trkpt>
      <trkpt lat="45.82965" lon="2.95959">
        <ele>1012.6</ele>
        <time>2021-07-19T13:32:00Z</time>
      </trkpt>
      <trkpt lat="45.82959" lon="2.95971">
        <ele>1010.9</ele>
        <time>2021-07-19T13:32:02Z</time>
      </trkpt>
      <trkpt lat="45.82952" lon="2.95982">
        <ele>1009.2</ele>
        <time>2021-07-19T13:32:06Z</time>
      </trkpt>
      <trkpt lat="45.82941" lon="2.96002">
        <ele>1006.1</ele>
        <time>2021-07-19T13:32:08Z</time>
      </trkpt>
      <trkpt lat="45.82932" lon="2.96014">
        <ele>1004.7</ele>
        <time>2021-07-19T13:32:09Z</time>
      </trkpt>
      <trkpt lat="45.82924" lon="2.96025">
        <ele>1003.4</ele>
        <time>2021-07-19T13:32:11Z</time>
      </trkpt>
      <trkpt lat="45.82913" lon="2.96036">
        <ele>1002.5</ele>
        <time>2021-07-19T13:32:13Z</time>
      </trkpt>
      <trkpt lat="45.82902" lon="2.96052">
        <ele>1000.8</ele>
        <time>2021-07-19T13:32:15Z</time>
      </trkpt>
      <trkpt lat="45.82889" lon="2.96065">
        <ele>999.4</ele>
        <time>2021-07-19T13:32:17Z</time>
      </trkpt>
      <trkpt lat="45.82873" lon="2.96072">
        <ele>998.9</ele>
        <time>2021-07-19T13:32:19Z</time>
      </trkpt>
      <trkpt lat="45.82865" lon="2.96076">
        <ele>998.5</ele>
        <time>2021-07-19T13:32:20Z</time>
      </trkpt>
      <trkpt lat="45.82856" lon="2.96082">
        <ele>997.7</ele>
        <time>2021-07-19T13:32:21Z</time>
      </trkpt>
      <trkpt lat="45.82848" lon="2.96089">
        <ele>996.7</ele>
        <time>2021-07-19T13:32:22Z</time>
      </trkpt>
      <trkpt lat="45.82839" lon="2.96096">
        <ele>995.7</ele>
        <time>2021-07-19T13:32:23Z</time>
      </trkpt>
      <trkpt lat="45.82831" lon="2.96103">
        <ele>994.8</ele>
        <time>2021-07-19T13:32:24Z</time>
      </trkpt>
      <trkpt lat="45.82816" lon="2.96117">
        <ele>993.6</ele>
        <time>2021-07-19T13:32:26Z</time>
      </trkpt>
      <trkpt lat="45.82802" lon="2.96128">
        <ele>992.8</ele>
        <time>2021-07-19T13:32:28Z</time>
      </trkpt>
      <trkpt lat="45.82789" lon="2.96133">
        <ele>993</ele>
        <time>2021-07-19T13:32:30Z</time>
      </trkpt>
      <trkpt lat="45.82777" lon="2.9614">
        <ele>992.8</ele>
        <time>2021-07-19T13:32:32Z</time>
      </trkpt>
      <trkpt lat="45.82765" lon="2.96149">
        <ele>992.4</ele>
        <time>2021-07-19T13:32:34Z</time>
      </trkpt>
      <trkpt lat="45.82755" lon="2.96153">
        <ele>992.6</ele>
        <time>2021-07-19T13:32:36Z</time>
      </trkpt>
      <trkpt lat="45.82746" lon="2.9616">
        <ele>992</ele>
        <time>2021-07-19T13:32:38Z</time>
      </trkpt>
      <trkpt lat="45.82737" lon="2.96165">
        <ele>991.2</ele>
        <time>2021-07-19T13:32:40Z</time>
      </trkpt>
      <trkpt lat="45.82725" lon="2.96172">
        <ele>990.3</ele>
        <time>2021-07-19T13:32:43Z</time>
      </trkpt>
      <trkpt lat="45.82714" lon="2.96175">
        <ele>989.9</ele>
        <time>2021-07-19T13:32:45Z</time>
      </trkpt>
      <trkpt lat="45.82704" lon="2.96178">
        <ele>989.6</ele>
        <time>2021-07-19T13:32:47Z</time>
      </trkpt>
      <trkpt lat="45.82694" lon="2.96179">
        <ele>989.5</ele>
        <time>2021-07-19T13:32:49Z</time>
      </trkpt>
      <trkpt lat="45.82683" lon="2.96178">
        <ele>989.6</ele>
        <time>2021-07-19T13:32:51Z</time>
      </trkpt>
      <trkpt lat="45.82672" lon="2.96176">
        <ele>989.9</ele>
        <time>2021-07-19T13:32:53Z</time>
      </trkpt>
      <trkpt lat="45.8266" lon="2.96176">
        <ele>989.6</ele>
        <time>2021-07-19T13:32:55Z</time>
      </trkpt>
      <trkpt lat="45.82647" lon="2.96175">
        <ele>989.2</ele>
        <time>2021-07-19T13:32:57Z</time>
      </trkpt>
      <trkpt lat="45.82633" lon="2.96176">
        <ele>988.6</ele>
        <time>2021-07-19T13:32:59Z</time>
      </trkpt>
      <trkpt lat="45.82619" lon="2.9618">
        <ele>987.5</ele>
        <time>2021-07-19T13:33:01Z</time>
      </trkpt>
      <trkpt lat="45.82605" lon="2.96188">
        <ele>985.8</ele>
        <time>2021-07-19T13:33:03Z</time>
      </trkpt>
      <trkpt lat="45.82591" lon="2.96197">
        <ele>984</ele>
        <time>2021-07-19T13:33:05Z</time>
      </trkpt>
      <trkpt lat="45.82577" lon="2.96209">
        <ele>982</ele>
        <time>2021-07-19T13:33:07Z</time>
      </trkpt>
      <trkpt lat="45.82569" lon="2.96217">
        <ele>981</ele>
        <time>2021-07-19T13:33:08Z</time>
      </trkpt>
      <trkpt lat="45.82555" lon="2.96226">
        <ele>979.7</ele>
        <time>2021-07-19T13:33:10Z</time>
      </trkpt>
      <trkpt lat="45.8254" lon="2.96236">
        <ele>978.3</ele>
        <time>2021-07-19T13:33:12Z</time>
      </trkpt>
      <trkpt lat="45.82526" lon="2.96247">
        <ele>976.5</ele>
        <time>2021-07-19T13:33:14Z</time>
      </trkpt>
      <trkpt lat="45.82511" lon="2.96259">
        <ele>976.1</ele>
        <time>2021-07-19T13:33:16Z</time>
      </trkpt>
      <trkpt lat="45.82497" lon="2.96271">
        <ele>976.6</ele>
        <time>2021-07-19T13:33:18Z</time>
      </trkpt>
      <trkpt lat="45.82484" lon="2.96286">
        <ele>977.4</ele>
        <time>2021-07-19T13:33:20Z</time>
      </trkpt>
      <trkpt lat="45.8247" lon="2.963">
        <ele>978.4</ele>
        <time>2021-07-19T13:33:22Z</time>
      </trkpt>
      <trkpt lat="45.82458" lon="2.96311">
        <ele>979.2</ele>
        <time>2021-07-19T13:33:24Z</time>
      </trkpt>
      <trkpt lat="45.82448" lon="2.96319">
        <ele>979.9</ele>
        <time>2021-07-19T13:33:26Z</time>
      </trkpt>
      <trkpt lat="45.82438" lon="2.96322">
        <ele>980.5</ele>
        <time>2021-07-19T13:33:29Z</time>
      </trkpt>
      <trkpt lat="45.82429" lon="2.96322">
        <ele>980.9</ele>
        <time>2021-07-19T13:33:33Z</time>
      </trkpt>
      <trkpt lat="45.82415" lon="2.9632">
        <ele>981.3</ele>
        <time>2021-07-19T13:33:36Z</time>
      </trkpt>
      <trkpt lat="45.82406" lon="2.96319">
        <ele>981.1</ele>
        <time>2021-07-19T13:33:37Z</time>
      </trkpt>
      <trkpt lat="45.82395" lon="2.96315">
        <ele>980.7</ele>
        <time>2021-07-19T13:33:39Z</time>
      </trkpt>
      <trkpt lat="45.82385" lon="2.96317">
        <ele>980.5</ele>
        <time>2021-07-19T13:33:41Z</time>
      </trkpt>
      <trkpt lat="45.82374" lon="2.96315">
        <ele>980.2</ele>
        <time>2021-07-19T13:33:43Z</time>
      </trkpt>
      <trkpt lat="45.82362" lon="2.96315">
        <ele>980</ele>
        <time>2021-07-19T13:33:45Z</time>
      </trkpt>
      <trkpt lat="45.82351" lon="2.96313">
        <ele>979.6</ele>
        <time>2021-07-19T13:33:47Z</time>
      </trkpt>
      <trkpt lat="45.82338" lon="2.96314">
        <ele>979.4</ele>
        <time>2021-07-19T13:33:49Z</time>
      </trkpt>
      <trkpt lat="45.82323" lon="2.96314">
        <ele>978.8</ele>
        <time>2021-07-19T13:33:51Z</time>
      </trkpt>
      <trkpt lat="45.82311" lon="2.96316">
        <ele>978.2</ele>
        <time>2021-07-19T13:33:53Z</time>
      </trkpt>
      <trkpt lat="45.82301" lon="2.96313">
        <ele>977.6</ele>
        <time>2021-07-19T13:33:55Z</time>
      </trkpt>
      <trkpt lat="45.82291" lon="2.96308">
        <ele>977</ele>
        <time>2021-07-19T13:33:58Z</time>
      </trkpt>
      <trkpt lat="45.8228" lon="2.963">
        <ele>976.4</ele>
        <time>2021-07-19T13:34:02Z</time>
      </trkpt>
      <trkpt lat="45.8227" lon="2.963">
        <ele>975.9</ele>
        <time>2021-07-19T13:34:34Z</time>
      </trkpt>
      <trkpt lat="45.82261" lon="2.96294">
        <ele>975.5</ele>
        <time>2021-07-19T13:34:37Z</time>
      </trkpt>
      <trkpt lat="45.8225" lon="2.96291">
        <ele>975</ele>
        <time>2021-07-19T13:34:40Z</time>
      </trkpt>
      <trkpt lat="45.8224" lon="2.96294">
        <ele>974.7</ele>
        <time>2021-07-19T13:34:59Z</time>
      </trkpt>
      <trkpt lat="45.8223" lon="2.96293">
        <ele>974.4</ele>
        <time>2021-07-19T13:35:04Z</time>
      </trkpt>
      <trkpt lat="45.8222" lon="2.9629">
        <ele>974.1</ele>
        <time>2021-07-19T13:35:08Z</time>
      </trkpt>
      <trkpt lat="45.82208" lon="2.9629">
        <ele>973.8</ele>
        <time>2021-07-19T13:35:11Z</time>
      </trkpt>
      <trkpt lat="45.82198" lon="2.96287">
        <ele>973.5</ele>
        <time>2021-07-19T13:35:13Z</time>
      </trkpt>
      <trkpt lat="45.82189" lon="2.96284">
        <ele>973.2</ele>
        <time>2021-07-19T13:35:15Z</time>
      </trkpt>
      <trkpt lat="45.82177" lon="2.96282">
        <ele>972.9</ele>
        <time>2021-07-19T13:35:18Z</time>
      </trkpt>
      <trkpt lat="45.82165" lon="2.9628">
        <ele>972.6</ele>
        <time>2021-07-19T13:35:21Z</time>
      </trkpt>
      <trkpt lat="45.82156" lon="2.96279">
        <ele>972.3</ele>
        <time>2021-07-19T13:35:24Z</time>
      </trkpt>
      <trkpt lat="45.82144" lon="2.96274">
        <ele>972</ele>
        <time>2021-07-19T13:35:28Z</time>
      </trkpt>
      <trkpt lat="45.82134" lon="2.9627">
        <ele>971.7</ele>
        <time>2021-07-19T13:35:31Z</time>
      </trkpt>
      <trkpt lat="45.82126" lon="2.96265">
        <ele>971.4</ele>
        <time>2021-07-19T13:35:33Z</time>
      </trkpt>
      <trkpt lat="45.82116" lon="2.96261">
        <ele>971.1</ele>
        <time>2021-07-19T13:35:35Z</time>
      </trkpt>
      <trkpt lat="45.82106" lon="2.96257">
        <ele>970.8</ele>
        <time>2021-07-19T13:35:37Z</time>
      </trkpt>
      <trkpt lat="45.82096" lon="2.96254">
        <ele>970.4</ele>
        <time>2021-07-19T13:35:39Z</time>
      </trkpt>
      <trkpt lat="45.82077" lon="2.96254">
        <ele>969.5</ele>
        <time>2021-07-19T13:35:41Z</time>
      </trkpt>
      <trkpt lat="45.82068" lon="2.96251">
        <ele>968.7</ele>
        <time>2021-07-19T13:35:43Z</time>
      </trkpt>
      <trkpt lat="45.82058" lon="2.96251">
        <ele>967.9</ele>
        <time>2021-07-19T13:35:45Z</time>
      </trkpt>
      <trkpt lat="45.82047" lon="2.96248">
        <ele>967</ele>
        <time>2021-07-19T13:35:47Z</time>
      </trkpt>
      <trkpt lat="45.82037" lon="2.96242">
        <ele>966.2</ele>
        <time>2021-07-19T13:35:49Z</time>
      </trkpt>
      <trkpt lat="45.82028" lon="2.96237">
        <ele>965.4</ele>
        <time>2021-07-19T13:35:51Z</time>
      </trkpt>
      <trkpt lat="45.82018" lon="2.96233">
        <ele>964.6</ele>
        <time>2021-07-19T13:35:53Z</time>
      </trkpt>
      <trkpt lat="45.82008" lon="2.96225">
        <ele>963.7</ele>
        <time>2021-07-19T13:35:55Z</time>
      </trkpt>
      <trkpt lat="45.81998" lon="2.96217">
        <ele>963.1</ele>
        <time>2021-07-19T13:35:58Z</time>
      </trkpt>
      <trkpt lat="45.8199" lon="2.9621">
        <ele>963.2</ele>
        <time>2021-07-19T13:36:00Z</time>
      </trkpt>
      <trkpt lat="45.81978" lon="2.96202">
        <ele>963.5</ele>
        <time>2021-07-19T13:36:03Z</time>
      </trkpt>
      <trkpt lat="45.81969" lon="2.96197">
        <ele>963.6</ele>
        <time>2021-07-19T13:36:05Z</time>
      </trkpt>
      <trkpt lat="45.81958" lon="2.96188">
        <ele>963.8</ele>
        <time>2021-07-19T13:36:08Z</time>
      </trkpt>
      <trkpt lat="45.8195" lon="2.96182">
        <ele>963.8</ele>
        <time>2021-07-19T13:36:10Z</time>
      </trkpt>
      <trkpt lat="45.8194" lon="2.96176">
        <ele>963.9</ele>
        <time>2021-07-19T13:36:12Z</time>
      </trkpt>
      <trkpt lat="45.81931" lon="2.96167">
        <ele>963.8</ele>
        <time>2021-07-19T13:36:14Z</time>
      </trkpt>
      <trkpt lat="45.81923" lon="2.96161">
        <ele>964.1</ele>
        <time>2021-07-19T13:36:16Z</time>
      </trkpt>
      <trkpt lat="45.81912" lon="2.96152">
        <ele>964.3</ele>
        <time>2021-07-19T13:36:19Z</time>
      </trkpt>
      <trkpt lat="45.81904" lon="2.96145">
        <ele>964.4</ele>
        <time>2021-07-19T13:36:21Z</time>
      </trkpt>
      <trkpt lat="45.81894" lon="2.96138">
        <ele>964.3</ele>
        <time>2021-07-19T13:36:23Z</time>
      </trkpt>
      <trkpt lat="45.81887" lon="2.96132">
        <ele>964.2</ele>
        <time>2021-07-19T13:36:25Z</time>
      </trkpt>
      <trkpt lat="45.81874" lon="2.96125">
        <ele>964</ele>
        <time>2021-07-19T13:36:28Z</time>
      </trkpt>
      <trkpt lat="45.81865" lon="2.9612">
        <ele>963.7</ele>
        <time>2021-07-19T13:36:30Z</time>
      </trkpt>
      <trkpt lat="45.81852" lon="2.96112">
        <ele>963.3</ele>
        <time>2021-07-19T13:36:33Z</time>
      </trkpt>
      <trkpt lat="45.81842" lon="2.96101">
        <ele>962.8</ele>
        <time>2021-07-19T13:36:36Z</time>
      </trkpt>
      <trkpt lat="45.81834" lon="2.96094">
        <ele>962.3</ele>
        <time>2021-07-19T13:36:38Z</time>
      </trkpt>
      <trkpt lat="45.81824" lon="2.96086">
        <ele>961.6</ele>
        <time>2021-07-19T13:36:40Z</time>
      </trkpt>
      <trkpt lat="45.81816" lon="2.96078">
        <ele>961.1</ele>
        <time>2021-07-19T13:36:42Z</time>
      </trkpt>
      <trkpt lat="45.81808" lon="2.96069">
        <ele>960.5</ele>
        <time>2021-07-19T13:36:44Z</time>
      </trkpt>
      <trkpt lat="45.818" lon="2.96061">
        <ele>959.9</ele>
        <time>2021-07-19T13:36:46Z</time>
      </trkpt>
      <trkpt lat="45.81792" lon="2.96054">
        <ele>959.3</ele>
        <time>2021-07-19T13:36:48Z</time>
      </trkpt>
      <trkpt lat="45.81784" lon="2.96048">
        <ele>958.7</ele>
        <time>2021-07-19T13:36:50Z</time>
      </trkpt>
      <trkpt lat="45.81774" lon="2.96043">
        <ele>958</ele>
        <time>2021-07-19T13:36:52Z</time>
      </trkpt>
      <trkpt lat="45.81766" lon="2.96035">
        <ele>957.3</ele>
        <time>2021-07-19T13:36:54Z</time>
      </trkpt>
      <trkpt lat="45.81758" lon="2.96024">
        <ele>956.4</ele>
        <time>2021-07-19T13:36:57Z</time>
      </trkpt>
      <trkpt lat="45.81748" lon="2.96016">
        <ele>955.6</ele>
        <time>2021-07-19T13:37:00Z</time>
      </trkpt>
      <trkpt lat="45.81738" lon="2.96008">
        <ele>955.7</ele>
        <time>2021-07-19T13:37:02Z</time>
      </trkpt>
      <trkpt lat="45.81728" lon="2.96001">
        <ele>955.8</ele>
        <time>2021-07-19T13:37:04Z</time>
      </trkpt>
      <trkpt lat="45.81719" lon="2.95996">
        <ele>955.9</ele>
        <time>2021-07-19T13:37:06Z</time>
      </trkpt>
      <trkpt lat="45.8171" lon="2.95992">
        <ele>956</ele>
        <time>2021-07-19T13:37:08Z</time>
      </trkpt>
      <trkpt lat="45.81699" lon="2.95983">
        <ele>955.8</ele>
        <time>2021-07-19T13:37:11Z</time>
      </trkpt>
      <trkpt lat="45.81687" lon="2.95977">
        <ele>955.8</ele>
        <time>2021-07-19T13:37:14Z</time>
      </trkpt>
      <trkpt lat="45.81679" lon="2.95971">
        <ele>955.6</ele>
        <time>2021-07-19T13:37:16Z</time>
      </trkpt>
      <trkpt lat="45.81669" lon="2.95965">
        <ele>955.4</ele>
        <time>2021-07-19T13:37:19Z</time>
      </trkpt>
      <trkpt lat="45.81658" lon="2.95957">
        <ele>955.4</ele>
        <time>2021-07-19T13:37:22Z</time>
      </trkpt>
      <trkpt lat="45.81646" lon="2.95952">
        <ele>955.8</ele>
        <time>2021-07-19T13:37:25Z</time>
      </trkpt>
      <trkpt lat="45.81635" lon="2.95946">
        <ele>956.1</ele>
        <time>2021-07-19T13:37:28Z</time>
      </trkpt>
      <trkpt lat="45.81624" lon="2.95941">
        <ele>956.5</ele>
        <time>2021-07-19T13:37:31Z</time>
      </trkpt>
      <trkpt lat="45.81611" lon="2.95934">
        <ele>957</ele>
        <time>2021-07-19T13:37:34Z</time>
      </trkpt>
      <trkpt lat="45.81601" lon="2.95928">
        <ele>957.3</ele>
        <time>2021-07-19T13:37:37Z</time>
      </trkpt>
      <trkpt lat="45.81592" lon="2.95921">
        <ele>957.6</ele>
        <time>2021-07-19T13:37:40Z</time>
      </trkpt>
      <trkpt lat="45.81584" lon="2.95917">
        <ele>958</ele>
        <time>2021-07-19T13:37:44Z</time>
      </trkpt>
      <trkpt lat="45.81576" lon="2.95908">
        <ele>958</ele>
        <time>2021-07-19T13:38:02Z</time>
      </trkpt>
      <trkpt lat="45.81566" lon="2.95903">
        <ele>958.3</ele>
        <time>2021-07-19T13:38:06Z</time>
      </trkpt>
      <trkpt lat="45.81557" lon="2.95898">
        <ele>958.6</ele>
        <time>2021-07-19T13:38:09Z</time>
      </trkpt>
      <trkpt lat="45.81548" lon="2.95893">
        <ele>958.8</ele>
        <time>2021-07-19T13:38:12Z</time>
      </trkpt>
      <trkpt lat="45.81539" lon="2.95885">
        <ele>958.6</ele>
        <time>2021-07-19T13:38:15Z</time>
      </trkpt>
      <trkpt lat="45.8153" lon="2.95878">
        <ele>958.5</ele>
        <time>2021-07-19T13:38:18Z</time>
      </trkpt>
      <trkpt lat="45.8152" lon="2.95875">
        <ele>958.8</ele>
        <time>2021-07-19T13:38:21Z</time>
      </trkpt>
      <trkpt lat="45.81511" lon="2.9587">
        <ele>958.8</ele>
        <time>2021-07-19T13:38:24Z</time>
      </trkpt>
      <trkpt lat="45.81499" lon="2.95863">
        <ele>958.6</ele>
        <time>2021-07-19T13:38:27Z</time>
      </trkpt>
      <trkpt lat="45.81489" lon="2.95858">
        <ele>958.4</ele>
        <time>2021-07-19T13:38:30Z</time>
      </trkpt>
      <trkpt lat="45.81478" lon="2.95853">
        <ele>958.2</ele>
        <time>2021-07-19T13:38:33Z</time>
      </trkpt>
      <trkpt lat="45.81469" lon="2.95848">
        <ele>957.9</ele>
        <time>2021-07-19T13:38:36Z</time>
      </trkpt>
      <trkpt lat="45.8146" lon="2.95851">
        <ele>958.6</ele>
        <time>2021-07-19T13:39:07Z</time>
      </trkpt>
      <trkpt lat="45.81455" lon="2.95838">
        <ele>957.2</ele>
        <time>2021-07-19T13:40:35Z</time>
      </trkpt>
      <trkpt lat="45.81447" lon="2.9583">
        <ele>956.8</ele>
        <time>2021-07-19T13:40:41Z</time>
      </trkpt>
      <trkpt lat="45.81438" lon="2.95828">
        <ele>957.1</ele>
        <time>2021-07-19T13:40:47Z</time>
      </trkpt>
      <trkpt lat="45.81429" lon="2.95822">
        <ele>957.2</ele>
        <time>2021-07-19T13:40:52Z</time>
      </trkpt>
      <trkpt lat="45.81418" lon="2.95818">
        <ele>957.6</ele>
        <time>2021-07-19T13:40:57Z</time>
      </trkpt>
      <trkpt lat="45.81411" lon="2.95809">
        <ele>958.1</ele>
        <time>2021-07-19T13:41:01Z</time>
      </trkpt>
      <trkpt lat="45.81404" lon="2.958">
        <ele>958.7</ele>
        <time>2021-07-19T13:41:05Z</time>
      </trkpt>
      <trkpt lat="45.81408" lon="2.95786">
        <ele>957.9</ele>
        <time>2021-07-19T13:41:35Z</time>
      </trkpt>
      <trkpt lat="45.81411" lon="2.95772">
        <ele>957.2</ele>
        <time>2021-07-19T13:41:40Z</time>
      </trkpt>
      <trkpt lat="45.81414" lon="2.95756">
        <ele>956.5</ele>
        <time>2021-07-19T13:41:44Z</time>
      </trkpt>
      <trkpt lat="45.81415" lon="2.95737">
        <ele>956.2</ele>
        <time>2021-07-19T13:41:47Z</time>
      </trkpt>
      <trkpt lat="45.81415" lon="2.9572">
        <ele>956.2</ele>
        <time>2021-07-19T13:41:49Z</time>
      </trkpt>
      <trkpt lat="45.81413" lon="2.95706">
        <ele>956.4</ele>
        <time>2021-07-19T13:41:52Z</time>
      </trkpt>
      <trkpt lat="45.81412" lon="2.95693">
        <ele>956.5</ele>
        <time>2021-07-19T13:41:55Z</time>
      </trkpt>
      <trkpt lat="45.81409" lon="2.95678">
        <ele>956.8</ele>
        <time>2021-07-19T13:42:00Z</time>
      </trkpt>
      <trkpt lat="45.81407" lon="2.95664">
        <ele>956.9</ele>
        <time>2021-07-19T13:42:02Z</time>
      </trkpt>
      <trkpt lat="45.81407" lon="2.95648">
        <ele>956.8</ele>
        <time>2021-07-19T13:42:06Z</time>
      </trkpt>
      <trkpt lat="45.81407" lon="2.95634">
        <ele>956.7</ele>
        <time>2021-07-19T13:42:14Z</time>
      </trkpt>
      <trkpt lat="45.81404" lon="2.95619">
        <ele>956.9</ele>
        <time>2021-07-19T13:42:21Z</time>
      </trkpt>
      <trkpt lat="45.81402" lon="2.95605">
        <ele>957.1</ele>
        <time>2021-07-19T13:42:26Z</time>
      </trkpt>
      <trkpt lat="45.814" lon="2.95591">
        <ele>957.2</ele>
        <time>2021-07-19T13:42:31Z</time>
      </trkpt>
      <trkpt lat="45.81398" lon="2.95575">
        <ele>957.4</ele>
        <time>2021-07-19T13:42:33Z</time>
      </trkpt>
      <trkpt lat="45.81401" lon="2.95559">
        <ele>956.8</ele>
        <time>2021-07-19T13:42:37Z</time>
      </trkpt>
      <trkpt lat="45.81404" lon="2.95546">
        <ele>956.2</ele>
        <time>2021-07-19T13:42:42Z</time>
      </trkpt>
      <trkpt lat="45.81408" lon="2.95532">
        <ele>955.5</ele>
        <time>2021-07-19T13:42:46Z</time>
      </trkpt>
      <trkpt lat="45.81413" lon="2.95519">
        <ele>954.7</ele>
        <time>2021-07-19T13:42:48Z</time>
      </trkpt>
      <trkpt lat="45.81417" lon="2.95507">
        <ele>954.1</ele>
        <time>2021-07-19T13:42:50Z</time>
      </trkpt>
      <trkpt lat="45.81422" lon="2.95494">
        <ele>953.7</ele>
        <time>2021-07-19T13:42:53Z</time>
      </trkpt>
      <trkpt lat="45.81427" lon="2.95482">
        <ele>953.3</ele>
        <time>2021-07-19T13:42:57Z</time>
      </trkpt>
      <trkpt lat="45.81434" lon="2.9546">
        <ele>952.8</ele>
        <time>2021-07-19T13:43:02Z</time>
      </trkpt>
      <trkpt lat="45.81437" lon="2.95446">
        <ele>952.5</ele>
        <time>2021-07-19T13:43:05Z</time>
      </trkpt>
      <trkpt lat="45.81441" lon="2.95433">
        <ele>952.3</ele>
        <time>2021-07-19T13:43:09Z</time>
      </trkpt>
      <trkpt lat="45.81445" lon="2.95419">
        <ele>952</ele>
        <time>2021-07-19T13:43:13Z</time>
      </trkpt>
      <trkpt lat="45.8145" lon="2.95404">
        <ele>952.4</ele>
        <time>2021-07-19T13:43:15Z</time>
      </trkpt>
      <trkpt lat="45.81455" lon="2.95393">
        <ele>952.8</ele>
        <time>2021-07-19T13:43:18Z</time>
      </trkpt>
      <trkpt lat="45.81456" lon="2.95378">
        <ele>953.5</ele>
        <time>2021-07-19T13:43:22Z</time>
      </trkpt>
      <trkpt lat="45.81458" lon="2.95362">
        <ele>954.1</ele>
        <time>2021-07-19T13:43:27Z</time>
      </trkpt>
      <trkpt lat="45.81461" lon="2.95346">
        <ele>954.7</ele>
        <time>2021-07-19T13:43:31Z</time>
      </trkpt>
      <trkpt lat="45.81455" lon="2.95336">
        <ele>955.6</ele>
        <time>2021-07-19T13:43:35Z</time>
      </trkpt>
      <trkpt lat="45.81447" lon="2.95326">
        <ele>956.5</ele>
        <time>2021-07-19T13:44:47Z</time>
      </trkpt>
      <trkpt lat="45.81439" lon="2.95319">
        <ele>957.3</ele>
        <time>2021-07-19T13:44:52Z</time>
      </trkpt>
      <trkpt lat="45.81431" lon="2.95312">
        <ele>957.9</ele>
        <time>2021-07-19T13:44:57Z</time>
      </trkpt>
      <trkpt lat="45.81421" lon="2.95314">
        <ele>958.3</ele>
        <time>2021-07-19T13:45:02Z</time>
      </trkpt>
      <trkpt lat="45.81412" lon="2.95309">
        <ele>958.9</ele>
        <time>2021-07-19T13:45:07Z</time>
      </trkpt>
      <trkpt lat="45.81408" lon="2.95296">
        <ele>959.4</ele>
        <time>2021-07-19T13:45:11Z</time>
      </trkpt>
      <trkpt lat="45.81405" lon="2.95279">
        <ele>959.8</ele>
        <time>2021-07-19T13:45:15Z</time>
      </trkpt>
      <trkpt lat="45.81399" lon="2.95264">
        <ele>960.3</ele>
        <time>2021-07-19T13:45:19Z</time>
      </trkpt>
      <trkpt lat="45.81391" lon="2.95255">
        <ele>960.6</ele>
        <time>2021-07-19T13:45:22Z</time>
      </trkpt>
      <trkpt lat="45.81383" lon="2.95249">
        <ele>960.8</ele>
        <time>2021-07-19T13:45:25Z</time>
      </trkpt>
      <trkpt lat="45.81372" lon="2.95242">
        <ele>960.7</ele>
        <time>2021-07-19T13:45:29Z</time>
      </trkpt>
      <trkpt lat="45.81363" lon="2.95241">
        <ele>960.7</ele>
        <time>2021-07-19T13:45:32Z</time>
      </trkpt>
      <trkpt lat="45.81352" lon="2.95242">
        <ele>961</ele>
        <time>2021-07-19T13:45:35Z</time>
      </trkpt>
      <trkpt lat="45.81341" lon="2.95243">
        <ele>961.2</ele>
        <time>2021-07-19T13:45:38Z</time>
      </trkpt>
      <trkpt lat="45.81332" lon="2.95242">
        <ele>961.3</ele>
        <time>2021-07-19T13:45:41Z</time>
      </trkpt>
      <trkpt lat="45.81324" lon="2.95234">
        <ele>961.3</ele>
        <time>2021-07-19T13:45:44Z</time>
      </trkpt>
      <trkpt lat="45.81317" lon="2.9522">
        <ele>960.7</ele>
        <time>2021-07-19T13:45:48Z</time>
      </trkpt>
      <trkpt lat="45.81315" lon="2.95207">
        <ele>959.8</ele>
        <time>2021-07-19T13:45:51Z</time>
      </trkpt>
      <trkpt lat="45.81312" lon="2.95194">
        <ele>958.9</ele>
        <time>2021-07-19T13:45:54Z</time>
      </trkpt>
      <trkpt lat="45.81308" lon="2.95181">
        <ele>958.3</ele>
        <time>2021-07-19T13:45:57Z</time>
      </trkpt>
      <trkpt lat="45.81305" lon="2.95168">
        <ele>957.5</ele>
        <time>2021-07-19T13:46:00Z</time>
      </trkpt>
      <trkpt lat="45.81305" lon="2.95151">
        <ele>957</ele>
        <time>2021-07-19T13:46:04Z</time>
      </trkpt>
      <trkpt lat="45.81308" lon="2.95139">
        <ele>956.4</ele>
        <time>2021-07-19T13:46:07Z</time>
      </trkpt>
      <trkpt lat="45.81308" lon="2.95124">
        <ele>956.1</ele>
        <time>2021-07-19T13:46:10Z</time>
      </trkpt>
      <trkpt lat="45.81307" lon="2.9511">
        <ele>955.9</ele>
        <time>2021-07-19T13:46:13Z</time>
      </trkpt>
      <trkpt lat="45.81306" lon="2.95095">
        <ele>955.6</ele>
        <time>2021-07-19T13:46:16Z</time>
      </trkpt>
      <trkpt lat="45.81304" lon="2.95081">
        <ele>955.4</ele>
        <time>2021-07-19T13:46:19Z</time>
      </trkpt>
      <trkpt lat="45.81303" lon="2.95066">
        <ele>955.2</ele>
        <time>2021-07-19T13:46:22Z</time>
      </trkpt>
      <trkpt lat="45.81304" lon="2.95051">
        <ele>954.9</ele>
        <time>2021-07-19T13:46:25Z</time>
      </trkpt>
      <trkpt lat="45.81309" lon="2.95037">
        <ele>954.5</ele>
        <time>2021-07-19T13:46:28Z</time>
      </trkpt>
      <trkpt lat="45.81317" lon="2.95024">
        <ele>954.2</ele>
        <time>2021-07-19T13:46:31Z</time>
      </trkpt>
      <trkpt lat="45.81327" lon="2.95015">
        <ele>954.1</ele>
        <time>2021-07-19T13:46:34Z</time>
      </trkpt>
      <trkpt lat="45.81337" lon="2.95008">
        <ele>954.1</ele>
        <time>2021-07-19T13:46:37Z</time>
      </trkpt>
      <trkpt lat="45.81347" lon="2.95003">
        <ele>954.2</ele>
        <time>2021-07-19T13:46:40Z</time>
      </trkpt>
      <trkpt lat="45.81357" lon="2.95">
        <ele>954.3</ele>
        <time>2021-07-19T13:46:43Z</time>
      </trkpt>
      <trkpt lat="45.81369" lon="2.94997">
        <ele>954.4</ele>
        <time>2021-07-19T13:46:47Z</time>
      </trkpt>
      <trkpt lat="45.81379" lon="2.94995">
        <ele>954.5</ele>
        <time>2021-07-19T13:46:50Z</time>
      </trkpt>
      <trkpt lat="45.81389" lon="2.94992">
        <ele>954.7</ele>
        <time>2021-07-19T13:46:53Z</time>
      </trkpt>
      <trkpt lat="45.81399" lon="2.94988">
        <ele>954.8</ele>
        <time>2021-07-19T13:46:56Z</time>
      </trkpt>
      <trkpt lat="45.81408" lon="2.94981">
        <ele>954.9</ele>
        <time>2021-07-19T13:46:59Z</time>
      </trkpt>
      <trkpt lat="45.81416" lon="2.94971">
        <ele>955</ele>
        <time>2021-07-19T13:47:02Z</time>
      </trkpt>
      <trkpt lat="45.81423" lon="2.94961">
        <ele>955.5</ele>
        <time>2021-07-19T13:47:05Z</time>
      </trkpt>
      <trkpt lat="45.81429" lon="2.9495">
        <ele>956</ele>
        <time>2021-07-19T13:47:08Z</time>
      </trkpt>
      <trkpt lat="45.81436" lon="2.94939">
        <ele>956.6</ele>
        <time>2021-07-19T13:47:12Z</time>
      </trkpt>
      <trkpt lat="45.81442" lon="2.94926">
        <ele>957.1</ele>
        <time>2021-07-19T13:47:37Z</time>
      </trkpt>
      <trkpt lat="45.81448" lon="2.94913">
        <ele>957.6</ele>
        <time>2021-07-19T13:47:41Z</time>
      </trkpt>
      <trkpt lat="45.81452" lon="2.94899">
        <ele>957.9</ele>
        <time>2021-07-19T13:47:45Z</time>
      </trkpt>
      <trkpt lat="45.81457" lon="2.94884">
        <ele>958.2</ele>
        <time>2021-07-19T13:47:49Z</time>
      </trkpt>
      <trkpt lat="45.8146" lon="2.94871">
        <ele>958.3</ele>
        <time>2021-07-19T13:47:52Z</time>
      </trkpt>
      <trkpt lat="45.81462" lon="2.94859">
        <ele>958.4</ele>
        <time>2021-07-19T13:47:55Z</time>
      </trkpt>
      <trkpt lat="45.81465" lon="2.94846">
        <ele>958.4</ele>
        <time>2021-07-19T13:47:58Z</time>
      </trkpt>
      <trkpt lat="45.81469" lon="2.9483">
        <ele>958.5</ele>
        <time>2021-07-19T13:48:02Z</time>
      </trkpt>
      <trkpt lat="45.81472" lon="2.94814">
        <ele>958.5</ele>
        <time>2021-07-19T13:48:06Z</time>
      </trkpt>
      <trkpt lat="45.81475" lon="2.94801">
        <ele>958.5</ele>
        <time>2021-07-19T13:48:09Z</time>
      </trkpt>
      <trkpt lat="45.81479" lon="2.94789">
        <ele>958.6</ele>
        <time>2021-07-19T13:48:12Z</time>
      </trkpt>
      <trkpt lat="45.81482" lon="2.94776">
        <ele>958.6</ele>
        <time>2021-07-19T13:48:15Z</time>
      </trkpt>
      <trkpt lat="45.81486" lon="2.94763">
        <ele>958.6</ele>
        <time>2021-07-19T13:48:18Z</time>
      </trkpt>
      <trkpt lat="45.81491" lon="2.9475">
        <ele>958.7</ele>
        <time>2021-07-19T13:48:21Z</time>
      </trkpt>
      <trkpt lat="45.81495" lon="2.94737">
        <ele>959.3</ele>
        <time>2021-07-19T13:48:24Z</time>
      </trkpt>
      <trkpt lat="45.81499" lon="2.94724">
        <ele>959.9</ele>
        <time>2021-07-19T13:48:27Z</time>
      </trkpt>
      <trkpt lat="45.81504" lon="2.94712">
        <ele>960.6</ele>
        <time>2021-07-19T13:48:30Z</time>
      </trkpt>
      <trkpt lat="45.81507" lon="2.94699">
        <ele>961.3</ele>
        <time>2021-07-19T13:48:33Z</time>
      </trkpt>
      <trkpt lat="45.81511" lon="2.94685">
        <ele>962</ele>
        <time>2021-07-19T13:48:36Z</time>
      </trkpt>
      <trkpt lat="45.81515" lon="2.94672">
        <ele>962.6</ele>
        <time>2021-07-19T13:48:39Z</time>
      </trkpt>
      <trkpt lat="45.81518" lon="2.94659">
        <ele>963</ele>
        <time>2021-07-19T13:48:42Z</time>
      </trkpt>
      <trkpt lat="45.81521" lon="2.94644">
        <ele>963.3</ele>
        <time>2021-07-19T13:48:46Z</time>
      </trkpt>
      <trkpt lat="45.81523" lon="2.94628">
        <ele>963.6</ele>
        <time>2021-07-19T13:48:50Z</time>
      </trkpt>
      <trkpt lat="45.81526" lon="2.94614">
        <ele>963.9</ele>
        <time>2021-07-19T13:48:52Z</time>
      </trkpt>
      <trkpt lat="45.81527" lon="2.946">
        <ele>964.1</ele>
        <time>2021-07-19T13:48:55Z</time>
      </trkpt>
      <trkpt lat="45.81526" lon="2.94586">
        <ele>964.2</ele>
        <time>2021-07-19T13:48:58Z</time>
      </trkpt>
      <trkpt lat="45.81525" lon="2.9457">
        <ele>964</ele>
        <time>2021-07-19T13:49:01Z</time>
      </trkpt>
      <trkpt lat="45.81523" lon="2.94556">
        <ele>963.8</ele>
        <time>2021-07-19T13:49:04Z</time>
      </trkpt>
      <trkpt lat="45.81519" lon="2.94541">
        <ele>963.4</ele>
        <time>2021-07-19T13:49:07Z</time>
      </trkpt>
      <trkpt lat="45.81515" lon="2.94526">
        <ele>963</ele>
        <time>2021-07-19T13:49:10Z</time>
      </trkpt>
      <trkpt lat="45.81508" lon="2.9451">
        <ele>962.5</ele>
        <time>2021-07-19T13:49:13Z</time>
      </trkpt>
      <trkpt lat="45.81506" lon="2.94497">
        <ele>962.3</ele>
        <time>2021-07-19T13:49:15Z</time>
      </trkpt>
      <trkpt lat="45.81501" lon="2.94483">
        <ele>962</ele>
        <time>2021-07-19T13:49:17Z</time>
      </trkpt>
      <trkpt lat="45.81494" lon="2.94467">
        <ele>961.9</ele>
        <time>2021-07-19T13:49:20Z</time>
      </trkpt>
      <trkpt lat="45.81491" lon="2.94455">
        <ele>961.8</ele>
        <time>2021-07-19T13:49:22Z</time>
      </trkpt>
      <trkpt lat="45.81487" lon="2.94436">
        <ele>961.7</ele>
        <time>2021-07-19T13:49:25Z</time>
      </trkpt>
      <trkpt lat="45.81484" lon="2.94417">
        <ele>961.6</ele>
        <time>2021-07-19T13:49:28Z</time>
      </trkpt>
      <trkpt lat="45.81483" lon="2.94404">
        <ele>961.5</ele>
        <time>2021-07-19T13:49:30Z</time>
      </trkpt>
      <trkpt lat="45.81483" lon="2.9439">
        <ele>961.3</ele>
        <time>2021-07-19T13:49:32Z</time>
      </trkpt>
      <trkpt lat="45.81485" lon="2.94372">
        <ele>961.2</ele>
        <time>2021-07-19T13:49:35Z</time>
      </trkpt>
      <trkpt lat="45.81484" lon="2.94354">
        <ele>961</ele>
        <time>2021-07-19T13:49:38Z</time>
      </trkpt>
      <trkpt lat="45.81479" lon="2.94338">
        <ele>960.8</ele>
        <time>2021-07-19T13:49:41Z</time>
      </trkpt>
      <trkpt lat="45.81473" lon="2.94323">
        <ele>960.8</ele>
        <time>2021-07-19T13:49:44Z</time>
      </trkpt>
      <trkpt lat="45.81469" lon="2.94306">
        <ele>960.8</ele>
        <time>2021-07-19T13:49:47Z</time>
      </trkpt>
      <trkpt lat="45.81462" lon="2.94296">
        <ele>960.8</ele>
        <time>2021-07-19T13:49:50Z</time>
      </trkpt>
      <trkpt lat="45.8145" lon="2.94293">
        <ele>960.6</ele>
        <time>2021-07-19T13:49:53Z</time>
      </trkpt>
      <trkpt lat="45.81438" lon="2.9429">
        <ele>960.4</ele>
        <time>2021-07-19T13:49:56Z</time>
      </trkpt>
      <trkpt lat="45.81427" lon="2.94292">
        <ele>960.2</ele>
        <time>2021-07-19T13:49:59Z</time>
      </trkpt>
      <trkpt lat="45.81415" lon="2.94293">
        <ele>960</ele>
        <time>2021-07-19T13:50:02Z</time>
      </trkpt>
      <trkpt lat="45.81402" lon="2.94293">
        <ele>959.9</ele>
        <time>2021-07-19T13:50:05Z</time>
      </trkpt>
      <trkpt lat="45.8139" lon="2.94294">
        <ele>959.8</ele>
        <time>2021-07-19T13:50:08Z</time>
      </trkpt>
      <trkpt lat="45.81379" lon="2.94298">
        <ele>959.8</ele>
        <time>2021-07-19T13:50:11Z</time>
      </trkpt>
      <trkpt lat="45.81377" lon="2.94312">
        <ele>959.9</ele>
        <time>2021-07-19T13:50:14Z</time>
      </trkpt>
      <trkpt lat="45.81376" lon="2.94325">
        <ele>960</ele>
        <time>2021-07-19T13:50:18Z</time>
      </trkpt>
      <trkpt lat="45.81367" lon="2.94327">
        <ele>960</ele>
        <time>2021-07-19T13:50:21Z</time>
      </trkpt>
      <trkpt lat="45.81355" lon="2.94328">
        <ele>960</ele>
        <time>2021-07-19T13:50:24Z</time>
      </trkpt>
      <trkpt lat="45.81345" lon="2.94336">
        <ele>960</ele>
        <time>2021-07-19T13:50:27Z</time>
      </trkpt>
      <trkpt lat="45.81337" lon="2.94349">
        <ele>960</ele>
        <time>2021-07-19T13:50:30Z</time>
      </trkpt>
      <trkpt lat="45.8133" lon="2.94362">
        <ele>959.8</ele>
        <time>2021-07-19T13:50:33Z</time>
      </trkpt>
      <trkpt lat="45.81322" lon="2.94373">
        <ele>959.5</ele>
        <time>2021-07-19T13:50:36Z</time>
      </trkpt>
      <trkpt lat="45.81312" lon="2.94374">
        <ele>959</ele>
        <time>2021-07-19T13:50:39Z</time>
      </trkpt>
      <trkpt lat="45.81304" lon="2.94366">
        <ele>958.6</ele>
        <time>2021-07-19T13:50:42Z</time>
      </trkpt>
      <trkpt lat="45.81295" lon="2.94361">
        <ele>958.2</ele>
        <time>2021-07-19T13:50:48Z</time>
      </trkpt>
      <trkpt lat="45.81286" lon="2.94358">
        <ele>957.7</ele>
        <time>2021-07-19T13:50:54Z</time>
      </trkpt>
      <trkpt lat="45.8129" lon="2.94346">
        <ele>957.9</ele>
        <time>2021-07-19T13:51:04Z</time>
      </trkpt>
      <trkpt lat="45.81292" lon="2.9436">
        <ele>958</ele>
        <time>2021-07-19T13:51:15Z</time>
      </trkpt>
      <trkpt lat="45.81301" lon="2.94371">
        <ele>958.4</ele>
        <time>2021-07-19T13:51:18Z</time>
      </trkpt>
      <trkpt lat="45.81313" lon="2.94375">
        <ele>959</ele>
        <time>2021-07-19T13:51:21Z</time>
      </trkpt>
      <trkpt lat="45.81323" lon="2.94372">
        <ele>959.5</ele>
        <time>2021-07-19T13:51:24Z</time>
      </trkpt>
      <trkpt lat="45.81314" lon="2.94372">
        <ele>959.1</ele>
        <time>2021-07-19T13:51:41Z</time>
      </trkpt>
      <trkpt lat="45.81305" lon="2.94364">
        <ele>958.6</ele>
        <time>2021-07-19T13:51:52Z</time>
      </trkpt>
      <trkpt lat="45.81296" lon="2.94354">
        <ele>958.2</ele>
        <time>2021-07-19T13:51:57Z</time>
      </trkpt>
      <trkpt lat="45.81298" lon="2.94339">
        <ele>958.3</ele>
        <time>2021-07-19T13:52:22Z</time>
      </trkpt>
      <trkpt lat="45.81291" lon="2.94349">
        <ele>958</ele>
        <time>2021-07-19T13:52:32Z</time>
      </trkpt>
      <trkpt lat="45.813" lon="2.94348">
        <ele>958.4</ele>
        <time>2021-07-19T13:54:47Z</time>
      </trkpt>
      <trkpt lat="45.81299" lon="2.94362">
        <ele>958.4</ele>
        <time>2021-07-19T14:03:51Z</time>
      </trkpt>
      <trkpt lat="45.81305" lon="2.94373">
        <ele>958.6</ele>
        <time>2021-07-19T14:04:11Z</time>
      </trkpt>
      <trkpt lat="45.81307" lon="2.94386">
        <ele>958.7</ele>
        <time>2021-07-19T14:04:22Z</time>
      </trkpt>
      <trkpt lat="45.81307" lon="2.94401">
        <ele>958.7</ele>
        <time>2021-07-19T14:04:30Z</time>
      </trkpt>
      <trkpt lat="45.81311" lon="2.94416">
        <ele>958.9</ele>
        <time>2021-07-19T14:04:35Z</time>
      </trkpt>
      <trkpt lat="45.81312" lon="2.94432">
        <ele>958.4</ele>
        <time>2021-07-19T14:04:39Z</time>
      </trkpt>
      <trkpt lat="45.81313" lon="2.94448">
        <ele>957.9</ele>
        <time>2021-07-19T14:04:42Z</time>
      </trkpt>
      <trkpt lat="45.81316" lon="2.94464">
        <ele>957.5</ele>
        <time>2021-07-19T14:04:45Z</time>
      </trkpt>
      <trkpt lat="45.81321" lon="2.94477">
        <ele>957.2</ele>
        <time>2021-07-19T14:04:48Z</time>
      </trkpt>
      <trkpt lat="45.81325" lon="2.94494">
        <ele>956.8</ele>
        <time>2021-07-19T14:04:53Z</time>
      </trkpt>
      <trkpt lat="45.81326" lon="2.94512">
        <ele>956.5</ele>
        <time>2021-07-19T14:04:56Z</time>
      </trkpt>
      <trkpt lat="45.81328" lon="2.94526">
        <ele>956.4</ele>
        <time>2021-07-19T14:04:58Z</time>
      </trkpt>
      <trkpt lat="45.81328" lon="2.94543">
        <ele>956.2</ele>
        <time>2021-07-19T14:05:00Z</time>
      </trkpt>
      <trkpt lat="45.81328" lon="2.94561">
        <ele>955.9</ele>
        <time>2021-07-19T14:05:02Z</time>
      </trkpt>
      <trkpt lat="45.81329" lon="2.9458">
        <ele>955.7</ele>
        <time>2021-07-19T14:05:04Z</time>
      </trkpt>
      <trkpt lat="45.81332" lon="2.94601">
        <ele>955.3</ele>
        <time>2021-07-19T14:05:05Z</time>
      </trkpt>
      <trkpt lat="45.81337" lon="2.94618">
        <ele>955.1</ele>
        <time>2021-07-19T14:05:08Z</time>
      </trkpt>
      <trkpt lat="45.81342" lon="2.94635">
        <ele>954.9</ele>
        <time>2021-07-19T14:05:11Z</time>
      </trkpt>
      <trkpt lat="45.81344" lon="2.94651">
        <ele>954.5</ele>
        <time>2021-07-19T14:05:14Z</time>
      </trkpt>
      <trkpt lat="45.81345" lon="2.94665">
        <ele>954</ele>
        <time>2021-07-19T14:05:17Z</time>
      </trkpt>
      <trkpt lat="45.81346" lon="2.94678">
        <ele>953.8</ele>
        <time>2021-07-19T14:05:20Z</time>
      </trkpt>
      <trkpt lat="45.81347" lon="2.94692">
        <ele>953.4</ele>
        <time>2021-07-19T14:05:23Z</time>
      </trkpt>
      <trkpt lat="45.81349" lon="2.94705">
        <ele>953.2</ele>
        <time>2021-07-19T14:05:26Z</time>
      </trkpt>
      <trkpt lat="45.81351" lon="2.94718">
        <ele>953</ele>
        <time>2021-07-19T14:05:29Z</time>
      </trkpt>
      <trkpt lat="45.81352" lon="2.94733">
        <ele>952.6</ele>
        <time>2021-07-19T14:05:32Z</time>
      </trkpt>
      <trkpt lat="45.81353" lon="2.94747">
        <ele>952.3</ele>
        <time>2021-07-19T14:05:35Z</time>
      </trkpt>
      <trkpt lat="45.81354" lon="2.94761">
        <ele>952.2</ele>
        <time>2021-07-19T14:05:38Z</time>
      </trkpt>
      <trkpt lat="45.81355" lon="2.94774">
        <ele>952.3</ele>
        <time>2021-07-19T14:05:41Z</time>
      </trkpt>
      <trkpt lat="45.81353" lon="2.94789">
        <ele>952.2</ele>
        <time>2021-07-19T14:05:44Z</time>
      </trkpt>
      <trkpt lat="45.81352" lon="2.94805">
        <ele>952.1</ele>
        <time>2021-07-19T14:05:47Z</time>
      </trkpt>
      <trkpt lat="45.81349" lon="2.94821">
        <ele>951.9</ele>
        <time>2021-07-19T14:05:50Z</time>
      </trkpt>
      <trkpt lat="45.81344" lon="2.94835">
        <ele>951.7</ele>
        <time>2021-07-19T14:05:53Z</time>
      </trkpt>
      <trkpt lat="45.81343" lon="2.9485">
        <ele>952.1</ele>
        <time>2021-07-19T14:05:57Z</time>
      </trkpt>
      <trkpt lat="45.81353" lon="2.94856">
        <ele>952.7</ele>
        <time>2021-07-19T14:06:01Z</time>
      </trkpt>
      <trkpt lat="45.8135" lon="2.94872">
        <ele>953</ele>
        <time>2021-07-19T14:06:05Z</time>
      </trkpt>
      <trkpt lat="45.81346" lon="2.94885">
        <ele>953.2</ele>
        <time>2021-07-19T14:06:08Z</time>
      </trkpt>
      <trkpt lat="45.81348" lon="2.949">
        <ele>953.7</ele>
        <time>2021-07-19T14:06:11Z</time>
      </trkpt>
      <trkpt lat="45.81354" lon="2.94911">
        <ele>954.1</ele>
        <time>2021-07-19T14:06:14Z</time>
      </trkpt>
      <trkpt lat="45.8136" lon="2.94922">
        <ele>954.3</ele>
        <time>2021-07-19T14:06:17Z</time>
      </trkpt>
      <trkpt lat="45.81365" lon="2.94933">
        <ele>954.4</ele>
        <time>2021-07-19T14:06:20Z</time>
      </trkpt>
      <trkpt lat="45.81371" lon="2.94942">
        <ele>954.5</ele>
        <time>2021-07-19T14:06:23Z</time>
      </trkpt>
      <trkpt lat="45.81375" lon="2.94956">
        <ele>954.5</ele>
        <time>2021-07-19T14:06:27Z</time>
      </trkpt>
      <trkpt lat="45.81365" lon="2.94959">
        <ele>954.4</ele>
        <time>2021-07-19T14:06:31Z</time>
      </trkpt>
      <trkpt lat="45.81356" lon="2.94958">
        <ele>954.3</ele>
        <time>2021-07-19T14:06:35Z</time>
      </trkpt>
      <trkpt lat="45.81346" lon="2.9496">
        <ele>954.2</ele>
        <time>2021-07-19T14:06:39Z</time>
      </trkpt>
      <trkpt lat="45.81338" lon="2.94965">
        <ele>954.1</ele>
        <time>2021-07-19T14:06:43Z</time>
      </trkpt>
      <trkpt lat="45.81328" lon="2.94969">
        <ele>953.9</ele>
        <time>2021-07-19T14:06:48Z</time>
      </trkpt>
      <trkpt lat="45.8132" lon="2.94977">
        <ele>953.9</ele>
        <time>2021-07-19T14:06:53Z</time>
      </trkpt>
      <trkpt lat="45.81312" lon="2.94985">
        <ele>953.9</ele>
        <time>2021-07-19T14:06:58Z</time>
      </trkpt>
      <trkpt lat="45.81305" lon="2.94993">
        <ele>953.9</ele>
        <time>2021-07-19T14:07:06Z</time>
      </trkpt>
      <trkpt lat="45.81296" lon="2.94999">
        <ele>954</ele>
        <time>2021-07-19T14:07:09Z</time>
      </trkpt>
      <trkpt lat="45.81285" lon="2.95004">
        <ele>954.1</ele>
        <time>2021-07-19T14:07:12Z</time>
      </trkpt>
      <trkpt lat="45.81272" lon="2.95005">
        <ele>954.2</ele>
        <time>2021-07-19T14:07:15Z</time>
      </trkpt>
      <trkpt lat="45.81262" lon="2.94997">
        <ele>953.9</ele>
        <time>2021-07-19T14:07:18Z</time>
      </trkpt>
      <trkpt lat="45.81252" lon="2.94987">
        <ele>953.5</ele>
        <time>2021-07-19T14:07:21Z</time>
      </trkpt>
      <trkpt lat="45.81244" lon="2.94971">
        <ele>953.2</ele>
        <time>2021-07-19T14:07:24Z</time>
      </trkpt>
      <trkpt lat="45.81241" lon="2.94959">
        <ele>952.9</ele>
        <time>2021-07-19T14:07:26Z</time>
      </trkpt>
      <trkpt lat="45.81237" lon="2.94943">
        <ele>952.4</ele>
        <time>2021-07-19T14:07:29Z</time>
      </trkpt>
      <trkpt lat="45.81237" lon="2.94958">
        <ele>953</ele>
        <time>2021-07-19T14:07:40Z</time>
      </trkpt>
      <trkpt lat="45.8124" lon="2.94971">
        <ele>953.4</ele>
        <time>2021-07-19T14:07:44Z</time>
      </trkpt>
      <trkpt lat="45.81244" lon="2.94989">
        <ele>953.9</ele>
        <time>2021-07-19T14:07:47Z</time>
      </trkpt>
      <trkpt lat="45.81246" lon="2.95006">
        <ele>954.5</ele>
        <time>2021-07-19T14:07:51Z</time>
      </trkpt>
      <trkpt lat="45.81245" lon="2.95021">
        <ele>955.4</ele>
        <time>2021-07-19T14:07:55Z</time>
      </trkpt>
      <trkpt lat="45.81244" lon="2.95034">
        <ele>956.1</ele>
        <time>2021-07-19T14:07:58Z</time>
      </trkpt>
      <trkpt lat="45.81248" lon="2.9505">
        <ele>956.6</ele>
        <time>2021-07-19T14:08:01Z</time>
      </trkpt>
      <trkpt lat="45.81252" lon="2.95066">
        <ele>957.1</ele>
        <time>2021-07-19T14:08:04Z</time>
      </trkpt>
      <trkpt lat="45.81257" lon="2.9508">
        <ele>957.5</ele>
        <time>2021-07-19T14:08:07Z</time>
      </trkpt>
      <trkpt lat="45.81261" lon="2.95094">
        <ele>958.1</ele>
        <time>2021-07-19T14:08:10Z</time>
      </trkpt>
      <trkpt lat="45.81265" lon="2.95107">
        <ele>958.7</ele>
        <time>2021-07-19T14:08:13Z</time>
      </trkpt>
      <trkpt lat="45.8127" lon="2.9512">
        <ele>959</ele>
        <time>2021-07-19T14:08:16Z</time>
      </trkpt>
      <trkpt lat="45.81274" lon="2.95134">
        <ele>959.4</ele>
        <time>2021-07-19T14:08:19Z</time>
      </trkpt>
      <trkpt lat="45.81278" lon="2.95148">
        <ele>959.7</ele>
        <time>2021-07-19T14:08:22Z</time>
      </trkpt>
      <trkpt lat="45.8128" lon="2.95162">
        <ele>960.2</ele>
        <time>2021-07-19T14:08:25Z</time>
      </trkpt>
      <trkpt lat="45.81274" lon="2.95172">
        <ele>961.5</ele>
        <time>2021-07-19T14:08:29Z</time>
      </trkpt>
      <trkpt lat="45.81266" lon="2.95162">
        <ele>961.8</ele>
        <time>2021-07-19T14:08:32Z</time>
      </trkpt>
      <trkpt lat="45.81258" lon="2.95151">
        <ele>962</ele>
        <time>2021-07-19T14:08:35Z</time>
      </trkpt>
      <trkpt lat="45.8125" lon="2.95142">
        <ele>962.2</ele>
        <time>2021-07-19T14:08:38Z</time>
      </trkpt>
      <trkpt lat="45.81242" lon="2.95134">
        <ele>962.5</ele>
        <time>2021-07-19T14:08:41Z</time>
      </trkpt>
      <trkpt lat="45.81234" lon="2.95126">
        <ele>962.7</ele>
        <time>2021-07-19T14:08:44Z</time>
      </trkpt>
      <trkpt lat="45.81226" lon="2.95118">
        <ele>963</ele>
        <time>2021-07-19T14:08:47Z</time>
      </trkpt>
      <trkpt lat="45.81217" lon="2.95112">
        <ele>963.5</ele>
        <time>2021-07-19T14:08:50Z</time>
      </trkpt>
      <trkpt lat="45.81204" lon="2.95105">
        <ele>964.4</ele>
        <time>2021-07-19T14:08:53Z</time>
      </trkpt>
      <trkpt lat="45.81195" lon="2.95098">
        <ele>964.9</ele>
        <time>2021-07-19T14:08:56Z</time>
      </trkpt>
      <trkpt lat="45.81187" lon="2.95091">
        <ele>965.3</ele>
        <time>2021-07-19T14:08:59Z</time>
      </trkpt>
      <trkpt lat="45.81177" lon="2.95087">
        <ele>966.1</ele>
        <time>2021-07-19T14:09:04Z</time>
      </trkpt>
      <trkpt lat="45.81162" lon="2.95083">
        <ele>966.7</ele>
        <time>2021-07-19T14:09:07Z</time>
      </trkpt>
      <trkpt lat="45.81152" lon="2.95081">
        <ele>965.9</ele>
        <time>2021-07-19T14:09:10Z</time>
      </trkpt>
      <trkpt lat="45.8114" lon="2.95081">
        <ele>965.2</ele>
        <time>2021-07-19T14:09:14Z</time>
      </trkpt>
      <trkpt lat="45.81129" lon="2.9508">
        <ele>964.5</ele>
        <time>2021-07-19T14:09:17Z</time>
      </trkpt>
      <trkpt lat="45.8112" lon="2.95081">
        <ele>964</ele>
        <time>2021-07-19T14:09:20Z</time>
      </trkpt>
      <trkpt lat="45.8111" lon="2.95082">
        <ele>963.5</ele>
        <time>2021-07-19T14:09:23Z</time>
      </trkpt>
      <trkpt lat="45.811" lon="2.95081">
        <ele>962.9</ele>
        <time>2021-07-19T14:09:27Z</time>
      </trkpt>
      <trkpt lat="45.81088" lon="2.95082">
        <ele>962.2</ele>
        <time>2021-07-19T14:09:31Z</time>
      </trkpt>
      <trkpt lat="45.81077" lon="2.95083">
        <ele>962</ele>
        <time>2021-07-19T14:09:35Z</time>
      </trkpt>
      <trkpt lat="45.81067" lon="2.95083">
        <ele>962</ele>
        <time>2021-07-19T14:09:39Z</time>
      </trkpt>
      <trkpt lat="45.81056" lon="2.95084">
        <ele>962</ele>
        <time>2021-07-19T14:09:42Z</time>
      </trkpt>
      <trkpt lat="45.81046" lon="2.95087">
        <ele>962.2</ele>
        <time>2021-07-19T14:09:45Z</time>
      </trkpt>
      <trkpt lat="45.81035" lon="2.95091">
        <ele>962.5</ele>
        <time>2021-07-19T14:09:48Z</time>
      </trkpt>
      <trkpt lat="45.81024" lon="2.95093">
        <ele>962.6</ele>
        <time>2021-07-19T14:09:51Z</time>
      </trkpt>
      <trkpt lat="45.81013" lon="2.95095">
        <ele>962.6</ele>
        <time>2021-07-19T14:09:54Z</time>
      </trkpt>
      <trkpt lat="45.81001" lon="2.95098">
        <ele>962.7</ele>
        <time>2021-07-19T14:09:57Z</time>
      </trkpt>
      <trkpt lat="45.80991" lon="2.951">
        <ele>963.2</ele>
        <time>2021-07-19T14:09:59Z</time>
      </trkpt>
      <trkpt lat="45.80979" lon="2.95103">
        <ele>963.9</ele>
        <time>2021-07-19T14:10:02Z</time>
      </trkpt>
      <trkpt lat="45.80969" lon="2.95104">
        <ele>964.4</ele>
        <time>2021-07-19T14:10:05Z</time>
      </trkpt>
      <trkpt lat="45.80955" lon="2.95107">
        <ele>965.1</ele>
        <time>2021-07-19T14:10:08Z</time>
      </trkpt>
      <trkpt lat="45.80942" lon="2.95106">
        <ele>965.7</ele>
        <time>2021-07-19T14:10:11Z</time>
      </trkpt>
      <trkpt lat="45.80933" lon="2.95107">
        <ele>966.1</ele>
        <time>2021-07-19T14:10:13Z</time>
      </trkpt>
      <trkpt lat="45.80922" lon="2.95107">
        <ele>966.6</ele>
        <time>2021-07-19T14:10:16Z</time>
      </trkpt>
      <trkpt lat="45.80911" lon="2.95106">
        <ele>966.8</ele>
        <time>2021-07-19T14:10:19Z</time>
      </trkpt>
      <trkpt lat="45.80901" lon="2.95105">
        <ele>966.8</ele>
        <time>2021-07-19T14:10:22Z</time>
      </trkpt>
      <trkpt lat="45.80891" lon="2.951">
        <ele>966.6</ele>
        <time>2021-07-19T14:10:25Z</time>
      </trkpt>
      <trkpt lat="45.80879" lon="2.95096">
        <ele>966.5</ele>
        <time>2021-07-19T14:10:28Z</time>
      </trkpt>
      <trkpt lat="45.80868" lon="2.9509">
        <ele>966.2</ele>
        <time>2021-07-19T14:10:30Z</time>
      </trkpt>
      <trkpt lat="45.80858" lon="2.95087">
        <ele>966.1</ele>
        <time>2021-07-19T14:10:32Z</time>
      </trkpt>
      <trkpt lat="45.80847" lon="2.95085">
        <ele>966.1</ele>
        <time>2021-07-19T14:10:34Z</time>
      </trkpt>
      <trkpt lat="45.80837" lon="2.9508">
        <ele>965.8</ele>
        <time>2021-07-19T14:10:36Z</time>
      </trkpt>
      <trkpt lat="45.80823" lon="2.95075">
        <ele>965.1</ele>
        <time>2021-07-19T14:10:39Z</time>
      </trkpt>
      <trkpt lat="45.80812" lon="2.95071">
        <ele>964.5</ele>
        <time>2021-07-19T14:10:41Z</time>
      </trkpt>
      <trkpt lat="45.80802" lon="2.95068">
        <ele>964</ele>
        <time>2021-07-19T14:10:44Z</time>
      </trkpt>
      <trkpt lat="45.80791" lon="2.95065">
        <ele>963.4</ele>
        <time>2021-07-19T14:10:48Z</time>
      </trkpt>
      <trkpt lat="45.80779" lon="2.95061">
        <ele>962.8</ele>
        <time>2021-07-19T14:10:52Z</time>
      </trkpt>
      <trkpt lat="45.80764" lon="2.95055">
        <ele>962.2</ele>
        <time>2021-07-19T14:10:54Z</time>
      </trkpt>
      <trkpt lat="45.80754" lon="2.95051">
        <ele>961.7</ele>
        <time>2021-07-19T14:10:55Z</time>
      </trkpt>
      <trkpt lat="45.80745" lon="2.95049">
        <ele>961.3</ele>
        <time>2021-07-19T14:10:57Z</time>
      </trkpt>
      <trkpt lat="45.80735" lon="2.95046">
        <ele>960.7</ele>
        <time>2021-07-19T14:10:59Z</time>
      </trkpt>
      <trkpt lat="45.80725" lon="2.95043">
        <ele>960</ele>
        <time>2021-07-19T14:11:01Z</time>
      </trkpt>
      <trkpt lat="45.80715" lon="2.9504">
        <ele>959.4</ele>
        <time>2021-07-19T14:11:04Z</time>
      </trkpt>
      <trkpt lat="45.80702" lon="2.95041">
        <ele>958.6</ele>
        <time>2021-07-19T14:11:08Z</time>
      </trkpt>
      <trkpt lat="45.80693" lon="2.95041">
        <ele>958.1</ele>
        <time>2021-07-19T14:11:09Z</time>
      </trkpt>
      <trkpt lat="45.80684" lon="2.95044">
        <ele>957.6</ele>
        <time>2021-07-19T14:11:12Z</time>
      </trkpt>
      <trkpt lat="45.80673" lon="2.95038">
        <ele>956.8</ele>
        <time>2021-07-19T14:11:16Z</time>
      </trkpt>
      <trkpt lat="45.80667" lon="2.95028">
        <ele>956.4</ele>
        <time>2021-07-19T14:11:20Z</time>
      </trkpt>
      <trkpt lat="45.80661" lon="2.95038">
        <ele>956.5</ele>
        <time>2021-07-19T14:11:40Z</time>
      </trkpt>
      <trkpt lat="45.80651" lon="2.95032">
        <ele>956.5</ele>
        <time>2021-07-19T14:11:45Z</time>
      </trkpt>
      <trkpt lat="45.8064" lon="2.95028">
        <ele>956.4</ele>
        <time>2021-07-19T14:11:49Z</time>
      </trkpt>
      <trkpt lat="45.80629" lon="2.95023">
        <ele>956.2</ele>
        <time>2021-07-19T14:11:53Z</time>
      </trkpt>
      <trkpt lat="45.80618" lon="2.95021">
        <ele>956.1</ele>
        <time>2021-07-19T14:11:57Z</time>
      </trkpt>
      <trkpt lat="45.80608" lon="2.95016">
        <ele>955.7</ele>
        <time>2021-07-19T14:12:02Z</time>
      </trkpt>
      <trkpt lat="45.80599" lon="2.95014">
        <ele>955.5</ele>
        <time>2021-07-19T14:12:06Z</time>
      </trkpt>
      <trkpt lat="45.80589" lon="2.95012">
        <ele>955.2</ele>
        <time>2021-07-19T14:12:10Z</time>
      </trkpt>
      <trkpt lat="45.80579" lon="2.95012">
        <ele>955.3</ele>
        <time>2021-07-19T14:12:14Z</time>
      </trkpt>
      <trkpt lat="45.8057" lon="2.95009">
        <ele>955.2</ele>
        <time>2021-07-19T14:12:18Z</time>
      </trkpt>
      <trkpt lat="45.80559" lon="2.95004">
        <ele>955</ele>
        <time>2021-07-19T14:12:23Z</time>
      </trkpt>
      <trkpt lat="45.8055" lon="2.95002">
        <ele>955</ele>
        <time>2021-07-19T14:12:27Z</time>
      </trkpt>
      <trkpt lat="45.80538" lon="2.94999">
        <ele>955</ele>
        <time>2021-07-19T14:12:32Z</time>
      </trkpt>
      <trkpt lat="45.80529" lon="2.94995">
        <ele>955</ele>
        <time>2021-07-19T14:12:37Z</time>
      </trkpt>
      <trkpt lat="45.80519" lon="2.94996">
        <ele>955.3</ele>
        <time>2021-07-19T14:12:41Z</time>
      </trkpt>
      <trkpt lat="45.80509" lon="2.94997">
        <ele>955.6</ele>
        <time>2021-07-19T14:12:46Z</time>
      </trkpt>
      <trkpt lat="45.80501" lon="2.95004">
        <ele>956.5</ele>
        <time>2021-07-19T14:12:50Z</time>
      </trkpt>
      <trkpt lat="45.80494" lon="2.95012">
        <ele>957.6</ele>
        <time>2021-07-19T14:12:56Z</time>
      </trkpt>
      <trkpt lat="45.80484" lon="2.95018">
        <ele>958.4</ele>
        <time>2021-07-19T14:13:03Z</time>
      </trkpt>
      <trkpt lat="45.80475" lon="2.95021">
        <ele>958.9</ele>
        <time>2021-07-19T14:13:07Z</time>
      </trkpt>
      <trkpt lat="45.80466" lon="2.95026">
        <ele>959.6</ele>
        <time>2021-07-19T14:13:11Z</time>
      </trkpt>
      <trkpt lat="45.80455" lon="2.95031">
        <ele>960.2</ele>
        <time>2021-07-19T14:13:16Z</time>
      </trkpt>
      <trkpt lat="45.80446" lon="2.95037">
        <ele>960.9</ele>
        <time>2021-07-19T14:13:21Z</time>
      </trkpt>
      <trkpt lat="45.80435" lon="2.95038">
        <ele>961.1</ele>
        <time>2021-07-19T14:13:27Z</time>
      </trkpt>
      <trkpt lat="45.80426" lon="2.9504">
        <ele>961.3</ele>
        <time>2021-07-19T14:13:31Z</time>
      </trkpt>
      <trkpt lat="45.80416" lon="2.95043">
        <ele>961.7</ele>
        <time>2021-07-19T14:13:36Z</time>
      </trkpt>
      <trkpt lat="45.80407" lon="2.95044">
        <ele>963</ele>
        <time>2021-07-19T14:13:42Z</time>
      </trkpt>
      <trkpt lat="45.80396" lon="2.95049">
        <ele>964.9</ele>
        <time>2021-07-19T14:13:49Z</time>
      </trkpt>
      <trkpt lat="45.80386" lon="2.95056">
        <ele>966.7</ele>
        <time>2021-07-19T14:13:55Z</time>
      </trkpt>
      <trkpt lat="45.80378" lon="2.95062">
        <ele>968.2</ele>
        <time>2021-07-19T14:13:59Z</time>
      </trkpt>
      <trkpt lat="45.80373" lon="2.95072">
        <ele>969.5</ele>
        <time>2021-07-19T14:14:04Z</time>
      </trkpt>
      <trkpt lat="45.80365" lon="2.95082">
        <ele>971.1</ele>
        <time>2021-07-19T14:14:10Z</time>
      </trkpt>
      <trkpt lat="45.80355" lon="2.95091">
        <ele>972.7</ele>
        <time>2021-07-19T14:14:15Z</time>
      </trkpt>
      <trkpt lat="45.80347" lon="2.95096">
        <ele>973.7</ele>
        <time>2021-07-19T14:14:18Z</time>
      </trkpt>
      <trkpt lat="45.80337" lon="2.951">
        <ele>974.7</ele>
        <time>2021-07-19T14:14:21Z</time>
      </trkpt>
      <trkpt lat="45.80328" lon="2.95097">
        <ele>975.6</ele>
        <time>2021-07-19T14:14:25Z</time>
      </trkpt>
      <trkpt lat="45.80317" lon="2.95099">
        <ele>976.7</ele>
        <time>2021-07-19T14:14:29Z</time>
      </trkpt>
      <trkpt lat="45.80307" lon="2.95098">
        <ele>977.7</ele>
        <time>2021-07-19T14:14:34Z</time>
      </trkpt>
      <trkpt lat="45.80297" lon="2.95098">
        <ele>978.8</ele>
        <time>2021-07-19T14:14:39Z</time>
      </trkpt>
      <trkpt lat="45.80289" lon="2.95104">
        <ele>979.5</ele>
        <time>2021-07-19T14:14:45Z</time>
      </trkpt>
      <trkpt lat="45.8028" lon="2.95109">
        <ele>980.4</ele>
        <time>2021-07-19T14:14:55Z</time>
      </trkpt>
      <trkpt lat="45.8027" lon="2.95109">
        <ele>981.4</ele>
        <time>2021-07-19T14:15:00Z</time>
      </trkpt>
      <trkpt lat="45.80261" lon="2.95109">
        <ele>982.3</ele>
        <time>2021-07-19T14:15:04Z</time>
      </trkpt>
      <trkpt lat="45.80252" lon="2.95116">
        <ele>983</ele>
        <time>2021-07-19T14:15:09Z</time>
      </trkpt>
      <trkpt lat="45.80243" lon="2.95121">
        <ele>983.8</ele>
        <time>2021-07-19T14:15:13Z</time>
      </trkpt>
      <trkpt lat="45.80233" lon="2.95122">
        <ele>984.9</ele>
        <time>2021-07-19T14:15:17Z</time>
      </trkpt>
      <trkpt lat="45.80223" lon="2.95121">
        <ele>986</ele>
        <time>2021-07-19T14:15:23Z</time>
      </trkpt>
      <trkpt lat="45.80213" lon="2.95124">
        <ele>987</ele>
        <time>2021-07-19T14:15:28Z</time>
      </trkpt>
      <trkpt lat="45.80204" lon="2.95127">
        <ele>987.9</ele>
        <time>2021-07-19T14:15:36Z</time>
      </trkpt>
      <trkpt lat="45.80195" lon="2.95126">
        <ele>988.9</ele>
        <time>2021-07-19T14:15:41Z</time>
      </trkpt>
      <trkpt lat="45.80186" lon="2.95122">
        <ele>989.9</ele>
        <time>2021-07-19T14:15:49Z</time>
      </trkpt>
      <trkpt lat="45.80176" lon="2.95123">
        <ele>991</ele>
        <time>2021-07-19T14:15:56Z</time>
      </trkpt>
      <trkpt lat="45.80167" lon="2.95125">
        <ele>992</ele>
        <time>2021-07-19T14:16:01Z</time>
      </trkpt>
      <trkpt lat="45.80157" lon="2.95128">
        <ele>992.7</ele>
        <time>2021-07-19T14:16:08Z</time>
      </trkpt>
      <trkpt lat="45.80148" lon="2.95127">
        <ele>993.3</ele>
        <time>2021-07-19T14:16:14Z</time>
      </trkpt>
      <trkpt lat="45.80139" lon="2.95125">
        <ele>994</ele>
        <time>2021-07-19T14:16:21Z</time>
      </trkpt>
      <trkpt lat="45.8013" lon="2.95119">
        <ele>994.6</ele>
        <time>2021-07-19T14:16:27Z</time>
      </trkpt>
      <trkpt lat="45.80119" lon="2.9512">
        <ele>995.4</ele>
        <time>2021-07-19T14:16:33Z</time>
      </trkpt>
      <trkpt lat="45.8011" lon="2.95128">
        <ele>996.1</ele>
        <time>2021-07-19T14:16:38Z</time>
      </trkpt>
      <trkpt lat="45.80101" lon="2.95132">
        <ele>996.7</ele>
        <time>2021-07-19T14:16:43Z</time>
      </trkpt>
      <trkpt lat="45.80091" lon="2.95132">
        <ele>997.4</ele>
        <time>2021-07-19T14:16:48Z</time>
      </trkpt>
      <trkpt lat="45.80082" lon="2.95121">
        <ele>998.1</ele>
        <time>2021-07-19T14:16:53Z</time>
      </trkpt>
      <trkpt lat="45.80075" lon="2.95111">
        <ele>998.5</ele>
        <time>2021-07-19T14:16:59Z</time>
      </trkpt>
      <trkpt lat="45.80067" lon="2.95105">
        <ele>999.1</ele>
        <time>2021-07-19T14:17:04Z</time>
      </trkpt>
      <trkpt lat="45.80057" lon="2.95097">
        <ele>999.8</ele>
        <time>2021-07-19T14:17:09Z</time>
      </trkpt>
      <trkpt lat="45.80048" lon="2.95093">
        <ele>1000.4</ele>
        <time>2021-07-19T14:17:13Z</time>
      </trkpt>
      <trkpt lat="45.80038" lon="2.95091">
        <ele>1001.2</ele>
        <time>2021-07-19T14:17:17Z</time>
      </trkpt>
      <trkpt lat="45.80029" lon="2.95087">
        <ele>1001.9</ele>
        <time>2021-07-19T14:17:21Z</time>
      </trkpt>
      <trkpt lat="45.80021" lon="2.95084">
        <ele>1002.5</ele>
        <time>2021-07-19T14:17:24Z</time>
      </trkpt>
      <trkpt lat="45.80011" lon="2.9508">
        <ele>1003.3</ele>
        <time>2021-07-19T14:17:28Z</time>
      </trkpt>
      <trkpt lat="45.80002" lon="2.95075">
        <ele>1004</ele>
        <time>2021-07-19T14:17:34Z</time>
      </trkpt>
      <trkpt lat="45.79993" lon="2.95075">
        <ele>1004.7</ele>
        <time>2021-07-19T14:17:38Z</time>
      </trkpt>
      <trkpt lat="45.79983" lon="2.95079">
        <ele>1005.2</ele>
        <time>2021-07-19T14:17:42Z</time>
      </trkpt>
      <trkpt lat="45.79975" lon="2.95071">
        <ele>1006</ele>
        <time>2021-07-19T14:17:47Z</time>
      </trkpt>
      <trkpt lat="45.79968" lon="2.95063">
        <ele>1006.8</ele>
        <time>2021-07-19T14:17:52Z</time>
      </trkpt>
      <trkpt lat="45.7996" lon="2.95054">
        <ele>1007.8</ele>
        <time>2021-07-19T14:17:56Z</time>
      </trkpt>
      <trkpt lat="45.79952" lon="2.95043">
        <ele>1009</ele>
        <time>2021-07-19T14:18:01Z</time>
      </trkpt>
      <trkpt lat="45.79944" lon="2.95033">
        <ele>1010.2</ele>
        <time>2021-07-19T14:18:06Z</time>
      </trkpt>
      <trkpt lat="45.79936" lon="2.95027">
        <ele>1011.3</ele>
        <time>2021-07-19T14:18:11Z</time>
      </trkpt>
      <trkpt lat="45.79931" lon="2.95015">
        <ele>1012.5</ele>
        <time>2021-07-19T14:18:17Z</time>
      </trkpt>
      <trkpt lat="45.7992" lon="2.95018">
        <ele>1013.4</ele>
        <time>2021-07-19T14:18:20Z</time>
      </trkpt>
      <trkpt lat="45.79912" lon="2.95013">
        <ele>1014.3</ele>
        <time>2021-07-19T14:18:24Z</time>
      </trkpt>
      <trkpt lat="45.79906" lon="2.95003">
        <ele>1015.4</ele>
        <time>2021-07-19T14:18:28Z</time>
      </trkpt>
      <trkpt lat="45.79903" lon="2.94989">
        <ele>1017.5</ele>
        <time>2021-07-19T14:18:35Z</time>
      </trkpt>
      <trkpt lat="45.79893" lon="2.9499">
        <ele>1018</ele>
        <time>2021-07-19T14:18:40Z</time>
      </trkpt>
      <trkpt lat="45.79889" lon="2.94978">
        <ele>1020.2</ele>
        <time>2021-07-19T14:19:17Z</time>
      </trkpt>
      <trkpt lat="45.79885" lon="2.94967">
        <ele>1022.3</ele>
        <time>2021-07-19T14:19:41Z</time>
      </trkpt>
      <trkpt lat="45.79883" lon="2.94981">
        <ele>1020.1</ele>
        <time>2021-07-19T14:20:52Z</time>
      </trkpt>
      <trkpt lat="45.79883" lon="2.94994">
        <ele>1018</ele>
        <time>2021-07-19T14:20:59Z</time>
      </trkpt>
      <trkpt lat="45.79875" lon="2.94986">
        <ele>1019.9</ele>
        <time>2021-07-19T14:25:30Z</time>
      </trkpt>
      <trkpt lat="45.79866" lon="2.94988">
        <ele>1020.1</ele>
        <time>2021-07-19T14:25:37Z</time>
      </trkpt>
      <trkpt lat="45.79857" lon="2.94993">
        <ele>1019.8</ele>
        <time>2021-07-19T14:25:45Z</time>
      </trkpt>
      <trkpt lat="45.79848" lon="2.94995">
        <ele>1020</ele>
        <time>2021-07-19T14:25:53Z</time>
      </trkpt>
      <trkpt lat="45.7984" lon="2.95005">
        <ele>1018.9</ele>
        <time>2021-07-19T14:25:58Z</time>
      </trkpt>
      <trkpt lat="45.79831" lon="2.95015">
        <ele>1017.7</ele>
        <time>2021-07-19T14:26:02Z</time>
      </trkpt>
      <trkpt lat="45.79819" lon="2.95023">
        <ele>1016.5</ele>
        <time>2021-07-19T14:26:05Z</time>
      </trkpt>
      <trkpt lat="45.79808" lon="2.95021">
        <ele>1016.8</ele>
        <time>2021-07-19T14:26:07Z</time>
      </trkpt>
      <trkpt lat="45.79798" lon="2.9502">
        <ele>1017</ele>
        <time>2021-07-19T14:26:10Z</time>
      </trkpt>
      <trkpt lat="45.79787" lon="2.95018">
        <ele>1017.3</ele>
        <time>2021-07-19T14:26:13Z</time>
      </trkpt>
      <trkpt lat="45.79777" lon="2.9502">
        <ele>1017</ele>
        <time>2021-07-19T14:26:15Z</time>
      </trkpt>
      <trkpt lat="45.79762" lon="2.95022">
        <ele>1016.8</ele>
        <time>2021-07-19T14:26:18Z</time>
      </trkpt>
      <trkpt lat="45.79749" lon="2.95025">
        <ele>1016.4</ele>
        <time>2021-07-19T14:26:21Z</time>
      </trkpt>
      <trkpt lat="45.79739" lon="2.95027">
        <ele>1016.1</ele>
        <time>2021-07-19T14:26:23Z</time>
      </trkpt>
      <trkpt lat="45.79729" lon="2.95031">
        <ele>1015.5</ele>
        <time>2021-07-19T14:26:25Z</time>
      </trkpt>
      <trkpt lat="45.79718" lon="2.95034">
        <ele>1015</ele>
        <time>2021-07-19T14:26:27Z</time>
      </trkpt>
      <trkpt lat="45.79707" lon="2.95031">
        <ele>1015.4</ele>
        <time>2021-07-19T14:26:30Z</time>
      </trkpt>
      <trkpt lat="45.79691" lon="2.9503">
        <ele>1015.5</ele>
        <time>2021-07-19T14:26:35Z</time>
      </trkpt>
      <trkpt lat="45.79681" lon="2.95033">
        <ele>1015.1</ele>
        <time>2021-07-19T14:26:39Z</time>
      </trkpt>
      <trkpt lat="45.79672" lon="2.95034">
        <ele>1014.9</ele>
        <time>2021-07-19T14:26:42Z</time>
      </trkpt>
      <trkpt lat="45.7966" lon="2.95036">
        <ele>1014.8</ele>
        <time>2021-07-19T14:26:45Z</time>
      </trkpt>
      <trkpt lat="45.79649" lon="2.95039">
        <ele>1014.7</ele>
        <time>2021-07-19T14:26:49Z</time>
      </trkpt>
      <trkpt lat="45.79638" lon="2.95043">
        <ele>1014.6</ele>
        <time>2021-07-19T14:26:53Z</time>
      </trkpt>
      <trkpt lat="45.79629" lon="2.95047">
        <ele>1014.5</ele>
        <time>2021-07-19T14:26:56Z</time>
      </trkpt>
      <trkpt lat="45.79619" lon="2.95046">
        <ele>1014.9</ele>
        <time>2021-07-19T14:27:00Z</time>
      </trkpt>
      <trkpt lat="45.79612" lon="2.95054">
        <ele>1014.6</ele>
        <time>2021-07-19T14:27:03Z</time>
      </trkpt>
      <trkpt lat="45.79606" lon="2.95067">
        <ele>1014.2</ele>
        <time>2021-07-19T14:27:06Z</time>
      </trkpt>
      <trkpt lat="45.79594" lon="2.95065">
        <ele>1014.9</ele>
        <time>2021-07-19T14:27:10Z</time>
      </trkpt>
      <trkpt lat="45.79586" lon="2.95056">
        <ele>1015.5</ele>
        <time>2021-07-19T14:27:14Z</time>
      </trkpt>
      <trkpt lat="45.79579" lon="2.95048">
        <ele>1016.7</ele>
        <time>2021-07-19T14:27:19Z</time>
      </trkpt>
      <trkpt lat="45.79571" lon="2.95041">
        <ele>1018.2</ele>
        <time>2021-07-19T14:27:24Z</time>
      </trkpt>
      <trkpt lat="45.79561" lon="2.95033">
        <ele>1019.9</ele>
        <time>2021-07-19T14:27:30Z</time>
      </trkpt>
      <trkpt lat="45.79552" lon="2.95026">
        <ele>1021.2</ele>
        <time>2021-07-19T14:27:35Z</time>
      </trkpt>
      <trkpt lat="45.79543" lon="2.95016">
        <ele>1022.1</ele>
        <time>2021-07-19T14:27:41Z</time>
      </trkpt>
      <trkpt lat="45.79537" lon="2.95004">
        <ele>1022.2</ele>
        <time>2021-07-19T14:27:45Z</time>
      </trkpt>
      <trkpt lat="45.79531" lon="2.94993">
        <ele>1022.9</ele>
        <time>2021-07-19T14:27:48Z</time>
      </trkpt>
      <trkpt lat="45.79524" lon="2.94981">
        <ele>1023.8</ele>
        <time>2021-07-19T14:27:52Z</time>
      </trkpt>
      <trkpt lat="45.79519" lon="2.94968">
        <ele>1024.2</ele>
        <time>2021-07-19T14:27:56Z</time>
      </trkpt>
      <trkpt lat="45.79515" lon="2.94955">
        <ele>1024.3</ele>
        <time>2021-07-19T14:27:59Z</time>
      </trkpt>
      <trkpt lat="45.79509" lon="2.94942">
        <ele>1024.1</ele>
        <time>2021-07-19T14:28:03Z</time>
      </trkpt>
      <trkpt lat="45.79504" lon="2.9493">
        <ele>1023.7</ele>
        <time>2021-07-19T14:28:08Z</time>
      </trkpt>
      <trkpt lat="45.795" lon="2.94917">
        <ele>1023</ele>
        <time>2021-07-19T14:28:14Z</time>
      </trkpt>
      <trkpt lat="45.79493" lon="2.94906">
        <ele>1025.7</ele>
        <time>2021-07-19T14:28:18Z</time>
      </trkpt>
      <trkpt lat="45.79487" lon="2.94896">
        <ele>1027.7</ele>
        <time>2021-07-19T14:28:21Z</time>
      </trkpt>
      <trkpt lat="45.7948" lon="2.94887">
        <ele>1029.3</ele>
        <time>2021-07-19T14:28:24Z</time>
      </trkpt>
      <trkpt lat="45.7947" lon="2.9488">
        <ele>1030.5</ele>
        <time>2021-07-19T14:28:28Z</time>
      </trkpt>
      <trkpt lat="45.79462" lon="2.94868">
        <ele>1031.5</ele>
        <time>2021-07-19T14:28:32Z</time>
      </trkpt>
      <trkpt lat="45.79456" lon="2.94856">
        <ele>1032</ele>
        <time>2021-07-19T14:28:36Z</time>
      </trkpt>
      <trkpt lat="45.79449" lon="2.94843">
        <ele>1032</ele>
        <time>2021-07-19T14:28:40Z</time>
      </trkpt>
      <trkpt lat="45.79442" lon="2.9483">
        <ele>1031.9</ele>
        <time>2021-07-19T14:28:44Z</time>
      </trkpt>
      <trkpt lat="45.79435" lon="2.94818">
        <ele>1032.9</ele>
        <time>2021-07-19T14:28:48Z</time>
      </trkpt>
      <trkpt lat="45.79425" lon="2.94809">
        <ele>1032.6</ele>
        <time>2021-07-19T14:28:52Z</time>
      </trkpt>
      <trkpt lat="45.79415" lon="2.94803">
        <ele>1032</ele>
        <time>2021-07-19T14:28:55Z</time>
      </trkpt>
      <trkpt lat="45.79408" lon="2.94795">
        <ele>1033.1</ele>
        <time>2021-07-19T14:28:58Z</time>
      </trkpt>
      <trkpt lat="45.79401" lon="2.94784">
        <ele>1034.1</ele>
        <time>2021-07-19T14:29:02Z</time>
      </trkpt>
      <trkpt lat="45.79393" lon="2.94773">
        <ele>1034.6</ele>
        <time>2021-07-19T14:29:06Z</time>
      </trkpt>
      <trkpt lat="45.79385" lon="2.9476">
        <ele>1034.6</ele>
        <time>2021-07-19T14:29:10Z</time>
      </trkpt>
      <trkpt lat="45.79376" lon="2.94749">
        <ele>1034.2</ele>
        <time>2021-07-19T14:29:14Z</time>
      </trkpt>
      <trkpt lat="45.79368" lon="2.94742">
        <ele>1034.5</ele>
        <time>2021-07-19T14:29:17Z</time>
      </trkpt>
      <trkpt lat="45.79358" lon="2.94735">
        <ele>1034.3</ele>
        <time>2021-07-19T14:29:21Z</time>
      </trkpt>
      <trkpt lat="45.79349" lon="2.94724">
        <ele>1034.1</ele>
        <time>2021-07-19T14:29:25Z</time>
      </trkpt>
      <trkpt lat="45.79343" lon="2.94714">
        <ele>1033.9</ele>
        <time>2021-07-19T14:29:28Z</time>
      </trkpt>
      <trkpt lat="45.79337" lon="2.94705">
        <ele>1033.3</ele>
        <time>2021-07-19T14:29:31Z</time>
      </trkpt>
      <trkpt lat="45.79329" lon="2.94694">
        <ele>1033.2</ele>
        <time>2021-07-19T14:29:34Z</time>
      </trkpt>
      <trkpt lat="45.79322" lon="2.94685">
        <ele>1033.6</ele>
        <time>2021-07-19T14:29:37Z</time>
      </trkpt>
      <trkpt lat="45.79315" lon="2.94674">
        <ele>1033.8</ele>
        <time>2021-07-19T14:29:40Z</time>
      </trkpt>
      <trkpt lat="45.7931" lon="2.94662">
        <ele>1034.3</ele>
        <time>2021-07-19T14:29:43Z</time>
      </trkpt>
      <trkpt lat="45.79306" lon="2.9465">
        <ele>1035.6</ele>
        <time>2021-07-19T14:29:46Z</time>
      </trkpt>
      <trkpt lat="45.79299" lon="2.94638">
        <ele>1036.3</ele>
        <time>2021-07-19T14:29:50Z</time>
      </trkpt>
      <trkpt lat="45.79294" lon="2.94627">
        <ele>1036.8</ele>
        <time>2021-07-19T14:29:53Z</time>
      </trkpt>
      <trkpt lat="45.79288" lon="2.94616">
        <ele>1037</ele>
        <time>2021-07-19T14:29:56Z</time>
      </trkpt>
      <trkpt lat="45.79283" lon="2.94605">
        <ele>1036.9</ele>
        <time>2021-07-19T14:29:59Z</time>
      </trkpt>
      <trkpt lat="45.79277" lon="2.94594">
        <ele>1036.4</ele>
        <time>2021-07-19T14:30:02Z</time>
      </trkpt>
      <trkpt lat="45.79268" lon="2.94584">
        <ele>1034.9</ele>
        <time>2021-07-19T14:30:06Z</time>
      </trkpt>
      <trkpt lat="45.7926" lon="2.94574">
        <ele>1033.8</ele>
        <time>2021-07-19T14:30:10Z</time>
      </trkpt>
      <trkpt lat="45.79254" lon="2.94562">
        <ele>1033</ele>
        <time>2021-07-19T14:30:14Z</time>
      </trkpt>
      <trkpt lat="45.79247" lon="2.94554">
        <ele>1032.6</ele>
        <time>2021-07-19T14:30:17Z</time>
      </trkpt>
      <trkpt lat="45.79238" lon="2.94549">
        <ele>1033.5</ele>
        <time>2021-07-19T14:30:20Z</time>
      </trkpt>
      <trkpt lat="45.7923" lon="2.94543">
        <ele>1034.2</ele>
        <time>2021-07-19T14:30:24Z</time>
      </trkpt>
      <trkpt lat="45.79224" lon="2.9453">
        <ele>1034.8</ele>
        <time>2021-07-19T14:30:28Z</time>
      </trkpt>
      <trkpt lat="45.79217" lon="2.94516">
        <ele>1035.2</ele>
        <time>2021-07-19T14:30:32Z</time>
      </trkpt>
      <trkpt lat="45.79211" lon="2.94506">
        <ele>1035.4</ele>
        <time>2021-07-19T14:30:35Z</time>
      </trkpt>
      <trkpt lat="45.79203" lon="2.94498">
        <ele>1035.6</ele>
        <time>2021-07-19T14:30:38Z</time>
      </trkpt>
      <trkpt lat="45.79195" lon="2.94489">
        <ele>1036</ele>
        <time>2021-07-19T14:30:42Z</time>
      </trkpt>
      <trkpt lat="45.79188" lon="2.9448">
        <ele>1036.2</ele>
        <time>2021-07-19T14:30:45Z</time>
      </trkpt>
      <trkpt lat="45.79182" lon="2.94471">
        <ele>1036.3</ele>
        <time>2021-07-19T14:30:48Z</time>
      </trkpt>
      <trkpt lat="45.79172" lon="2.94461">
        <ele>1036.2</ele>
        <time>2021-07-19T14:30:52Z</time>
      </trkpt>
      <trkpt lat="45.79162" lon="2.94452">
        <ele>1036.4</ele>
        <time>2021-07-19T14:30:56Z</time>
      </trkpt>
      <trkpt lat="45.79154" lon="2.94446">
        <ele>1036.9</ele>
        <time>2021-07-19T14:30:59Z</time>
      </trkpt>
      <trkpt lat="45.79145" lon="2.94439">
        <ele>1037.5</ele>
        <time>2021-07-19T14:31:03Z</time>
      </trkpt>
      <trkpt lat="45.79136" lon="2.94435">
        <ele>1038.1</ele>
        <time>2021-07-19T14:31:06Z</time>
      </trkpt>
      <trkpt lat="45.79128" lon="2.94429">
        <ele>1038.5</ele>
        <time>2021-07-19T14:31:09Z</time>
      </trkpt>
      <trkpt lat="45.79118" lon="2.94425">
        <ele>1039.1</ele>
        <time>2021-07-19T14:31:12Z</time>
      </trkpt>
      <trkpt lat="45.79108" lon="2.94423">
        <ele>1039.7</ele>
        <time>2021-07-19T14:31:17Z</time>
      </trkpt>
      <trkpt lat="45.79098" lon="2.94422">
        <ele>1040.3</ele>
        <time>2021-07-19T14:31:20Z</time>
      </trkpt>
      <trkpt lat="45.79088" lon="2.94421">
        <ele>1040.9</ele>
        <time>2021-07-19T14:31:23Z</time>
      </trkpt>
      <trkpt lat="45.79078" lon="2.94418">
        <ele>1041.4</ele>
        <time>2021-07-19T14:31:26Z</time>
      </trkpt>
      <trkpt lat="45.79069" lon="2.94414">
        <ele>1042.3</ele>
        <time>2021-07-19T14:31:31Z</time>
      </trkpt>
      <trkpt lat="45.79059" lon="2.9441">
        <ele>1043.4</ele>
        <time>2021-07-19T14:31:35Z</time>
      </trkpt>
      <trkpt lat="45.79046" lon="2.9441">
        <ele>1044.4</ele>
        <time>2021-07-19T14:31:39Z</time>
      </trkpt>
      <trkpt lat="45.79036" lon="2.94407">
        <ele>1045.5</ele>
        <time>2021-07-19T14:31:43Z</time>
      </trkpt>
      <trkpt lat="45.79025" lon="2.94406">
        <ele>1046.5</ele>
        <time>2021-07-19T14:31:47Z</time>
      </trkpt>
      <trkpt lat="45.79016" lon="2.94401">
        <ele>1047.8</ele>
        <time>2021-07-19T14:31:54Z</time>
      </trkpt>
      <trkpt lat="45.79007" lon="2.94399">
        <ele>1048.8</ele>
        <time>2021-07-19T14:31:58Z</time>
      </trkpt>
      <trkpt lat="45.78998" lon="2.94404">
        <ele>1048.7</ele>
        <time>2021-07-19T14:32:04Z</time>
      </trkpt>
      <trkpt lat="45.78988" lon="2.94408">
        <ele>1048.5</ele>
        <time>2021-07-19T14:32:11Z</time>
      </trkpt>
      <trkpt lat="45.78978" lon="2.94405">
        <ele>1049.3</ele>
        <time>2021-07-19T14:32:24Z</time>
      </trkpt>
      <trkpt lat="45.78968" lon="2.94404">
        <ele>1049.7</ele>
        <time>2021-07-19T14:32:34Z</time>
      </trkpt>
      <trkpt lat="45.7896" lon="2.94407">
        <ele>1049.6</ele>
        <time>2021-07-19T14:32:37Z</time>
      </trkpt>
      <trkpt lat="45.7895" lon="2.94412">
        <ele>1049.3</ele>
        <time>2021-07-19T14:32:40Z</time>
      </trkpt>
      <trkpt lat="45.7894" lon="2.94411">
        <ele>1049.8</ele>
        <time>2021-07-19T14:32:44Z</time>
      </trkpt>
      <trkpt lat="45.7893" lon="2.94413">
        <ele>1049.9</ele>
        <time>2021-07-19T14:32:49Z</time>
      </trkpt>
      <trkpt lat="45.78922" lon="2.94409">
        <ele>1050.6</ele>
        <time>2021-07-19T14:32:53Z</time>
      </trkpt>
      <trkpt lat="45.78913" lon="2.94403">
        <ele>1051.3</ele>
        <time>2021-07-19T14:32:58Z</time>
      </trkpt>
      <trkpt lat="45.78903" lon="2.94399">
        <ele>1051.2</ele>
        <time>2021-07-19T14:33:03Z</time>
      </trkpt>
      <trkpt lat="45.78892" lon="2.94396">
        <ele>1051</ele>
        <time>2021-07-19T14:33:09Z</time>
      </trkpt>
      <trkpt lat="45.78883" lon="2.94398">
        <ele>1050.3</ele>
        <time>2021-07-19T14:33:12Z</time>
      </trkpt>
      <trkpt lat="45.78872" lon="2.94401">
        <ele>1049.4</ele>
        <time>2021-07-19T14:33:15Z</time>
      </trkpt>
      <trkpt lat="45.78862" lon="2.94407">
        <ele>1048.3</ele>
        <time>2021-07-19T14:33:18Z</time>
      </trkpt>
      <trkpt lat="45.78854" lon="2.94415">
        <ele>1047.2</ele>
        <time>2021-07-19T14:33:20Z</time>
      </trkpt>
      <trkpt lat="45.78844" lon="2.94424">
        <ele>1046.4</ele>
        <time>2021-07-19T14:33:24Z</time>
      </trkpt>
      <trkpt lat="45.78832" lon="2.94425">
        <ele>1045.8</ele>
        <time>2021-07-19T14:33:27Z</time>
      </trkpt>
      <trkpt lat="45.78824" lon="2.94433">
        <ele>1045.4</ele>
        <time>2021-07-19T14:33:30Z</time>
      </trkpt>
      <trkpt lat="45.78813" lon="2.94439">
        <ele>1044.8</ele>
        <time>2021-07-19T14:33:34Z</time>
      </trkpt>
      <trkpt lat="45.78803" lon="2.94442">
        <ele>1044.2</ele>
        <time>2021-07-19T14:33:37Z</time>
      </trkpt>
      <trkpt lat="45.7879" lon="2.94445">
        <ele>1043.6</ele>
        <time>2021-07-19T14:33:39Z</time>
      </trkpt>
      <trkpt lat="45.7878" lon="2.94446">
        <ele>1043.1</ele>
        <time>2021-07-19T14:33:41Z</time>
      </trkpt>
      <trkpt lat="45.78771" lon="2.94447">
        <ele>1042.6</ele>
        <time>2021-07-19T14:33:44Z</time>
      </trkpt>
      <trkpt lat="45.78761" lon="2.94446">
        <ele>1042.2</ele>
        <time>2021-07-19T14:33:46Z</time>
      </trkpt>
      <trkpt lat="45.78752" lon="2.94445">
        <ele>1041.8</ele>
        <time>2021-07-19T14:33:49Z</time>
      </trkpt>
      <trkpt lat="45.78741" lon="2.94444">
        <ele>1041.2</ele>
        <time>2021-07-19T14:33:53Z</time>
      </trkpt>
      <trkpt lat="45.78732" lon="2.9444">
        <ele>1040.8</ele>
        <time>2021-07-19T14:33:56Z</time>
      </trkpt>
      <trkpt lat="45.7872" lon="2.94439">
        <ele>1040.2</ele>
        <time>2021-07-19T14:34:00Z</time>
      </trkpt>
      <trkpt lat="45.78711" lon="2.94446">
        <ele>1039.8</ele>
        <time>2021-07-19T14:41:45Z</time>
      </trkpt>
      <trkpt lat="45.78702" lon="2.94453">
        <ele>1039.4</ele>
        <time>2021-07-19T14:41:50Z</time>
      </trkpt>
      <trkpt lat="45.78695" lon="2.94463">
        <ele>1039.2</ele>
        <time>2021-07-19T14:41:56Z</time>
      </trkpt>
      <trkpt lat="45.78687" lon="2.94472">
        <ele>1039.1</ele>
        <time>2021-07-19T14:42:01Z</time>
      </trkpt>
      <trkpt lat="45.7868" lon="2.94483">
        <ele>1039</ele>
        <time>2021-07-19T14:42:06Z</time>
      </trkpt>
      <trkpt lat="45.78673" lon="2.94494">
        <ele>1039</ele>
        <time>2021-07-19T14:42:11Z</time>
      </trkpt>
      <trkpt lat="45.78666" lon="2.94501">
        <ele>1039.1</ele>
        <time>2021-07-19T14:42:16Z</time>
      </trkpt>
      <trkpt lat="45.78656" lon="2.94507">
        <ele>1040.1</ele>
        <time>2021-07-19T14:42:22Z</time>
      </trkpt>
      <trkpt lat="45.78648" lon="2.94513">
        <ele>1040.9</ele>
        <time>2021-07-19T14:42:26Z</time>
      </trkpt>
      <trkpt lat="45.78641" lon="2.94524">
        <ele>1041.8</ele>
        <time>2021-07-19T14:42:31Z</time>
      </trkpt>
      <trkpt lat="45.78635" lon="2.94538">
        <ele>1042.8</ele>
        <time>2021-07-19T14:42:36Z</time>
      </trkpt>
      <trkpt lat="45.78627" lon="2.94545">
        <ele>1043.3</ele>
        <time>2021-07-19T14:42:43Z</time>
      </trkpt>
      <trkpt lat="45.78622" lon="2.94556">
        <ele>1043.9</ele>
        <time>2021-07-19T14:42:56Z</time>
      </trkpt>
      <trkpt lat="45.78621" lon="2.9457">
        <ele>1044.5</ele>
        <time>2021-07-19T14:43:02Z</time>
      </trkpt>
      <trkpt lat="45.78616" lon="2.94583">
        <ele>1045</ele>
        <time>2021-07-19T14:43:07Z</time>
      </trkpt>
      <trkpt lat="45.78611" lon="2.94595">
        <ele>1045.4</ele>
        <time>2021-07-19T14:43:11Z</time>
      </trkpt>
      <trkpt lat="45.78609" lon="2.94608">
        <ele>1045.8</ele>
        <time>2021-07-19T14:43:16Z</time>
      </trkpt>
      <trkpt lat="45.78607" lon="2.94621">
        <ele>1046.2</ele>
        <time>2021-07-19T14:43:21Z</time>
      </trkpt>
      <trkpt lat="45.78605" lon="2.94637">
        <ele>1046.6</ele>
        <time>2021-07-19T14:43:26Z</time>
      </trkpt>
      <trkpt lat="45.78602" lon="2.94651">
        <ele>1047</ele>
        <time>2021-07-19T14:43:30Z</time>
      </trkpt>
      <trkpt lat="45.78604" lon="2.94664">
        <ele>1047.4</ele>
        <time>2021-07-19T14:43:34Z</time>
      </trkpt>
      <trkpt lat="45.78606" lon="2.94679">
        <ele>1047.6</ele>
        <time>2021-07-19T14:43:39Z</time>
      </trkpt>
      <trkpt lat="45.78609" lon="2.94691">
        <ele>1047.7</ele>
        <time>2021-07-19T14:43:45Z</time>
      </trkpt>
      <trkpt lat="45.78611" lon="2.94706">
        <ele>1047.8</ele>
        <time>2021-07-19T14:43:50Z</time>
      </trkpt>
      <trkpt lat="45.78612" lon="2.9472">
        <ele>1047.9</ele>
        <time>2021-07-19T14:43:55Z</time>
      </trkpt>
      <trkpt lat="45.78614" lon="2.94736">
        <ele>1048</ele>
        <time>2021-07-19T14:44:02Z</time>
      </trkpt>
      <trkpt lat="45.78618" lon="2.9475">
        <ele>1048.2</ele>
        <time>2021-07-19T14:44:07Z</time>
      </trkpt>
      <trkpt lat="45.78617" lon="2.94766">
        <ele>1048.9</ele>
        <time>2021-07-19T14:44:12Z</time>
      </trkpt>
      <trkpt lat="45.78619" lon="2.9478">
        <ele>1049.6</ele>
        <time>2021-07-19T14:44:17Z</time>
      </trkpt>
      <trkpt lat="45.78621" lon="2.94793">
        <ele>1050.2</ele>
        <time>2021-07-19T14:44:22Z</time>
      </trkpt>
      <trkpt lat="45.78621" lon="2.94807">
        <ele>1050.8</ele>
        <time>2021-07-19T14:44:26Z</time>
      </trkpt>
      <trkpt lat="45.78627" lon="2.94817">
        <ele>1051.4</ele>
        <time>2021-07-19T14:44:30Z</time>
      </trkpt>
      <trkpt lat="45.78632" lon="2.94829">
        <ele>1052</ele>
        <time>2021-07-19T14:44:35Z</time>
      </trkpt>
      <trkpt lat="45.78636" lon="2.94841">
        <ele>1052.5</ele>
        <time>2021-07-19T14:44:40Z</time>
      </trkpt>
      <trkpt lat="45.7864" lon="2.94855">
        <ele>1053</ele>
        <time>2021-07-19T14:44:47Z</time>
      </trkpt>
      <trkpt lat="45.78641" lon="2.94868">
        <ele>1053.4</ele>
        <time>2021-07-19T14:44:53Z</time>
      </trkpt>
      <trkpt lat="45.78641" lon="2.94883">
        <ele>1053.8</ele>
        <time>2021-07-19T14:44:59Z</time>
      </trkpt>
      <trkpt lat="45.78643" lon="2.94896">
        <ele>1054.3</ele>
        <time>2021-07-19T14:45:05Z</time>
      </trkpt>
      <trkpt lat="45.78646" lon="2.94911">
        <ele>1054.8</ele>
        <time>2021-07-19T14:45:11Z</time>
      </trkpt>
      <trkpt lat="45.78649" lon="2.94924">
        <ele>1055.8</ele>
        <time>2021-07-19T14:45:16Z</time>
      </trkpt>
      <trkpt lat="45.7865" lon="2.94937">
        <ele>1056.9</ele>
        <time>2021-07-19T14:45:21Z</time>
      </trkpt>
      <trkpt lat="45.7865" lon="2.9495">
        <ele>1058</ele>
        <time>2021-07-19T14:45:26Z</time>
      </trkpt>
      <trkpt lat="45.78647" lon="2.94964">
        <ele>1059</ele>
        <time>2021-07-19T14:45:31Z</time>
      </trkpt>
      <trkpt lat="45.78641" lon="2.94976">
        <ele>1059.8</ele>
        <time>2021-07-19T14:45:36Z</time>
      </trkpt>
      <trkpt lat="45.78633" lon="2.94985">
        <ele>1060.1</ele>
        <time>2021-07-19T14:45:41Z</time>
      </trkpt>
      <trkpt lat="45.78626" lon="2.94995">
        <ele>1060.6</ele>
        <time>2021-07-19T14:45:46Z</time>
      </trkpt>
      <trkpt lat="45.78623" lon="2.95008">
        <ele>1061.5</ele>
        <time>2021-07-19T14:45:52Z</time>
      </trkpt>
      <trkpt lat="45.78623" lon="2.95022">
        <ele>1062.5</ele>
        <time>2021-07-19T14:45:59Z</time>
      </trkpt>
      <trkpt lat="45.78625" lon="2.95036">
        <ele>1063.6</ele>
        <time>2021-07-19T14:46:04Z</time>
      </trkpt>
      <trkpt lat="45.78629" lon="2.9505">
        <ele>1064.8</ele>
        <time>2021-07-19T14:46:10Z</time>
      </trkpt>
      <trkpt lat="45.78633" lon="2.95062">
        <ele>1066</ele>
        <time>2021-07-19T14:46:15Z</time>
      </trkpt>
      <trkpt lat="45.78633" lon="2.95077">
        <ele>1067.1</ele>
        <time>2021-07-19T14:46:20Z</time>
      </trkpt>
      <trkpt lat="45.7863" lon="2.95091">
        <ele>1067.9</ele>
        <time>2021-07-19T14:46:26Z</time>
      </trkpt>
      <trkpt lat="45.78628" lon="2.95106">
        <ele>1068.8</ele>
        <time>2021-07-19T14:46:31Z</time>
      </trkpt>
      <trkpt lat="45.78629" lon="2.9512">
        <ele>1069.9</ele>
        <time>2021-07-19T14:46:35Z</time>
      </trkpt>
      <trkpt lat="45.78628" lon="2.95134">
        <ele>1070.9</ele>
        <time>2021-07-19T14:46:40Z</time>
      </trkpt>
      <trkpt lat="45.78627" lon="2.95147">
        <ele>1071.7</ele>
        <time>2021-07-19T14:46:45Z</time>
      </trkpt>
      <trkpt lat="45.78625" lon="2.9516">
        <ele>1072.5</ele>
        <time>2021-07-19T14:46:50Z</time>
      </trkpt>
      <trkpt lat="45.78625" lon="2.95174">
        <ele>1073.3</ele>
        <time>2021-07-19T14:46:57Z</time>
      </trkpt>
      <trkpt lat="45.78619" lon="2.95186">
        <ele>1073.1</ele>
        <time>2021-07-19T14:47:05Z</time>
      </trkpt>
      <trkpt lat="45.78616" lon="2.95199">
        <ele>1073.1</ele>
        <time>2021-07-19T14:47:12Z</time>
      </trkpt>
      <trkpt lat="45.78615" lon="2.95213">
        <ele>1073.3</ele>
        <time>2021-07-19T14:47:18Z</time>
      </trkpt>
      <trkpt lat="45.78614" lon="2.95226">
        <ele>1073.4</ele>
        <time>2021-07-19T14:47:23Z</time>
      </trkpt>
      <trkpt lat="45.78614" lon="2.95244">
        <ele>1073.8</ele>
        <time>2021-07-19T14:47:27Z</time>
      </trkpt>
      <trkpt lat="45.7861" lon="2.95262">
        <ele>1073</ele>
        <time>2021-07-19T14:47:30Z</time>
      </trkpt>
      <trkpt lat="45.78606" lon="2.95279">
        <ele>1071.9</ele>
        <time>2021-07-19T14:47:33Z</time>
      </trkpt>
      <trkpt lat="45.78605" lon="2.95292">
        <ele>1071.5</ele>
        <time>2021-07-19T14:47:35Z</time>
      </trkpt>
      <trkpt lat="45.78603" lon="2.9531">
        <ele>1070.8</ele>
        <time>2021-07-19T14:47:38Z</time>
      </trkpt>
      <trkpt lat="45.786" lon="2.95324">
        <ele>1070</ele>
        <time>2021-07-19T14:47:40Z</time>
      </trkpt>
      <trkpt lat="45.78603" lon="2.95341">
        <ele>1070.4</ele>
        <time>2021-07-19T14:47:42Z</time>
      </trkpt>
      <trkpt lat="45.78602" lon="2.95357">
        <ele>1070</ele>
        <time>2021-07-19T14:47:44Z</time>
      </trkpt>
      <trkpt lat="45.78605" lon="2.9537">
        <ele>1070.6</ele>
        <time>2021-07-19T14:47:46Z</time>
      </trkpt>
      <trkpt lat="45.78606" lon="2.95385">
        <ele>1070.7</ele>
        <time>2021-07-19T14:47:48Z</time>
      </trkpt>
      <trkpt lat="45.78604" lon="2.954">
        <ele>1070.1</ele>
        <time>2021-07-19T14:47:50Z</time>
      </trkpt>
      <trkpt lat="45.78605" lon="2.95413">
        <ele>1070.2</ele>
        <time>2021-07-19T14:47:52Z</time>
      </trkpt>
      <trkpt lat="45.78603" lon="2.95428">
        <ele>1069.9</ele>
        <time>2021-07-19T14:47:55Z</time>
      </trkpt>
      <trkpt lat="45.78595" lon="2.95436">
        <ele>1068</ele>
        <time>2021-07-19T14:47:58Z</time>
      </trkpt>
      <trkpt lat="45.78594" lon="2.95451">
        <ele>1068</ele>
        <time>2021-07-19T14:48:03Z</time>
      </trkpt>
      <trkpt lat="45.78596" lon="2.95464">
        <ele>1068.6</ele>
        <time>2021-07-19T14:48:08Z</time>
      </trkpt>
      <trkpt lat="45.786" lon="2.95479">
        <ele>1069.7</ele>
        <time>2021-07-19T14:48:12Z</time>
      </trkpt>
      <trkpt lat="45.78599" lon="2.95493">
        <ele>1069.7</ele>
        <time>2021-07-19T14:48:17Z</time>
      </trkpt>
      <trkpt lat="45.78598" lon="2.95507">
        <ele>1069.5</ele>
        <time>2021-07-19T14:48:22Z</time>
      </trkpt>
      <trkpt lat="45.78599" lon="2.95521">
        <ele>1069.7</ele>
        <time>2021-07-19T14:48:27Z</time>
      </trkpt>
      <trkpt lat="45.78598" lon="2.95537">
        <ele>1069.4</ele>
        <time>2021-07-19T14:48:32Z</time>
      </trkpt>
      <trkpt lat="45.78593" lon="2.95549">
        <ele>1068.3</ele>
        <time>2021-07-19T14:48:36Z</time>
      </trkpt>
      <trkpt lat="45.7859" lon="2.95564">
        <ele>1067.5</ele>
        <time>2021-07-19T14:48:40Z</time>
      </trkpt>
      <trkpt lat="45.78588" lon="2.95578">
        <ele>1067.1</ele>
        <time>2021-07-19T14:48:45Z</time>
      </trkpt>
      <trkpt lat="45.78585" lon="2.95592">
        <ele>1066.5</ele>
        <time>2021-07-19T14:48:50Z</time>
      </trkpt>
      <trkpt lat="45.78583" lon="2.95605">
        <ele>1066.3</ele>
        <time>2021-07-19T14:48:55Z</time>
      </trkpt>
      <trkpt lat="45.78582" lon="2.95618">
        <ele>1066.4</ele>
        <time>2021-07-19T14:48:59Z</time>
      </trkpt>
      <trkpt lat="45.78581" lon="2.95632">
        <ele>1066.6</ele>
        <time>2021-07-19T14:49:03Z</time>
      </trkpt>
      <trkpt lat="45.78582" lon="2.95648">
        <ele>1066.8</ele>
        <time>2021-07-19T14:49:08Z</time>
      </trkpt>
      <trkpt lat="45.78582" lon="2.95664">
        <ele>1067</ele>
        <time>2021-07-19T14:49:13Z</time>
      </trkpt>
      <trkpt lat="45.78581" lon="2.95677">
        <ele>1067.5</ele>
        <time>2021-07-19T14:49:17Z</time>
      </trkpt>
      <trkpt lat="45.78581" lon="2.95692">
        <ele>1068.2</ele>
        <time>2021-07-19T14:49:22Z</time>
      </trkpt>
      <trkpt lat="45.78583" lon="2.95708">
        <ele>1069</ele>
        <time>2021-07-19T14:49:27Z</time>
      </trkpt>
      <trkpt lat="45.78583" lon="2.95723">
        <ele>1069.7</ele>
        <time>2021-07-19T14:49:32Z</time>
      </trkpt>
      <trkpt lat="45.78584" lon="2.95738">
        <ele>1070.5</ele>
        <time>2021-07-19T14:49:37Z</time>
      </trkpt>
      <trkpt lat="45.78584" lon="2.95751">
        <ele>1071.1</ele>
        <time>2021-07-19T14:49:41Z</time>
      </trkpt>
      <trkpt lat="45.78583" lon="2.95764">
        <ele>1071.3</ele>
        <time>2021-07-19T14:49:45Z</time>
      </trkpt>
      <trkpt lat="45.78582" lon="2.95778">
        <ele>1071.7</ele>
        <time>2021-07-19T14:49:50Z</time>
      </trkpt>
      <trkpt lat="45.78584" lon="2.95791">
        <ele>1072.1</ele>
        <time>2021-07-19T14:49:55Z</time>
      </trkpt>
      <trkpt lat="45.78585" lon="2.95806">
        <ele>1072.6</ele>
        <time>2021-07-19T14:50:01Z</time>
      </trkpt>
      <trkpt lat="45.78586" lon="2.95819">
        <ele>1073.1</ele>
        <time>2021-07-19T14:50:06Z</time>
      </trkpt>
      <trkpt lat="45.78587" lon="2.95834">
        <ele>1073.6</ele>
        <time>2021-07-19T14:50:13Z</time>
      </trkpt>
      <trkpt lat="45.78582" lon="2.95846">
        <ele>1073.4</ele>
        <time>2021-07-19T14:50:19Z</time>
      </trkpt>
      <trkpt lat="45.78572" lon="2.95845">
        <ele>1073.3</ele>
        <time>2021-07-19T14:50:51Z</time>
      </trkpt>
      <trkpt lat="45.78563" lon="2.9585">
        <ele>1073.4</ele>
        <time>2021-07-19T14:51:02Z</time>
      </trkpt>
      <trkpt lat="45.78572" lon="2.95845">
        <ele>1073.3</ele>
        <time>2021-07-19T14:51:25Z</time>
      </trkpt>
      <trkpt lat="45.78562" lon="2.95845">
        <ele>1073.2</ele>
        <time>2021-07-19T14:56:01Z</time>
      </trkpt>
      <trkpt lat="45.78553" lon="2.95846">
        <ele>1073.1</ele>
        <time>2021-07-19T14:56:48Z</time>
      </trkpt>
      <trkpt lat="45.78543" lon="2.95849">
        <ele>1073.2</ele>
        <time>2021-07-19T14:56:56Z</time>
      </trkpt>
      <trkpt lat="45.78533" lon="2.95849">
        <ele>1073.1</ele>
        <time>2021-07-19T14:57:04Z</time>
      </trkpt>
      <trkpt lat="45.78523" lon="2.95849">
        <ele>1073</ele>
        <time>2021-07-19T14:57:10Z</time>
      </trkpt>
      <trkpt lat="45.78514" lon="2.95851">
        <ele>1073</ele>
        <time>2021-07-19T14:57:14Z</time>
      </trkpt>
      <trkpt lat="45.78503" lon="2.95852">
        <ele>1072.9</ele>
        <time>2021-07-19T14:57:19Z</time>
      </trkpt>
      <trkpt lat="45.78492" lon="2.95853">
        <ele>1072.9</ele>
        <time>2021-07-19T14:57:23Z</time>
      </trkpt>
      <trkpt lat="45.78483" lon="2.95853">
        <ele>1072.9</ele>
        <time>2021-07-19T14:57:26Z</time>
      </trkpt>
      <trkpt lat="45.78473" lon="2.95852">
        <ele>1072.9</ele>
        <time>2021-07-19T14:57:31Z</time>
      </trkpt>
      <trkpt lat="45.78461" lon="2.95852">
        <ele>1072.8</ele>
        <time>2021-07-19T14:57:35Z</time>
      </trkpt>
      <trkpt lat="45.7845" lon="2.95853">
        <ele>1072.8</ele>
        <time>2021-07-19T14:57:38Z</time>
      </trkpt>
      <trkpt lat="45.78436" lon="2.95849">
        <ele>1072.8</ele>
        <time>2021-07-19T14:57:41Z</time>
      </trkpt>
      <trkpt lat="45.78426" lon="2.95849">
        <ele>1072.8</ele>
        <time>2021-07-19T14:57:45Z</time>
      </trkpt>
      <trkpt lat="45.78415" lon="2.95849">
        <ele>1072.8</ele>
        <time>2021-07-19T14:57:50Z</time>
      </trkpt>
      <trkpt lat="45.78404" lon="2.95853">
        <ele>1072.7</ele>
        <time>2021-07-19T14:57:55Z</time>
      </trkpt>
      <trkpt lat="45.78393" lon="2.95856">
        <ele>1072.6</ele>
        <time>2021-07-19T14:57:58Z</time>
      </trkpt>
      <trkpt lat="45.78383" lon="2.95855">
        <ele>1072.5</ele>
        <time>2021-07-19T14:57:59Z</time>
      </trkpt>
      <trkpt lat="45.78372" lon="2.95854">
        <ele>1072.5</ele>
        <time>2021-07-19T14:58:03Z</time>
      </trkpt>
      <trkpt lat="45.78362" lon="2.95854">
        <ele>1072.4</ele>
        <time>2021-07-19T14:58:07Z</time>
      </trkpt>
      <trkpt lat="45.78352" lon="2.95854">
        <ele>1072.4</ele>
        <time>2021-07-19T14:58:12Z</time>
      </trkpt>
      <trkpt lat="45.78341" lon="2.95851">
        <ele>1072.3</ele>
        <time>2021-07-19T14:58:16Z</time>
      </trkpt>
      <trkpt lat="45.78331" lon="2.9585">
        <ele>1072.2</ele>
        <time>2021-07-19T14:58:20Z</time>
      </trkpt>
      <trkpt lat="45.78321" lon="2.95848">
        <ele>1072.1</ele>
        <time>2021-07-19T14:58:23Z</time>
      </trkpt>
      <trkpt lat="45.78311" lon="2.95846">
        <ele>1072</ele>
        <time>2021-07-19T14:58:25Z</time>
      </trkpt>
      <trkpt lat="45.78301" lon="2.95843">
        <ele>1071.8</ele>
        <time>2021-07-19T14:58:28Z</time>
      </trkpt>
      <trkpt lat="45.78291" lon="2.95839">
        <ele>1071.6</ele>
        <time>2021-07-19T14:58:31Z</time>
      </trkpt>
      <trkpt lat="45.7828" lon="2.95836">
        <ele>1071.4</ele>
        <time>2021-07-19T14:58:35Z</time>
      </trkpt>
      <trkpt lat="45.78269" lon="2.95832">
        <ele>1071.2</ele>
        <time>2021-07-19T14:58:38Z</time>
      </trkpt>
      <trkpt lat="45.78258" lon="2.95829">
        <ele>1071.1</ele>
        <time>2021-07-19T14:58:41Z</time>
      </trkpt>
      <trkpt lat="45.78249" lon="2.95826">
        <ele>1071</ele>
        <time>2021-07-19T14:58:43Z</time>
      </trkpt>
      <trkpt lat="45.78239" lon="2.95821">
        <ele>1071.4</ele>
        <time>2021-07-19T14:58:46Z</time>
      </trkpt>
      <trkpt lat="45.78229" lon="2.95816">
        <ele>1071.7</ele>
        <time>2021-07-19T14:58:50Z</time>
      </trkpt>
      <trkpt lat="45.7822" lon="2.95812">
        <ele>1071.9</ele>
        <time>2021-07-19T14:58:54Z</time>
      </trkpt>
      <trkpt lat="45.7821" lon="2.95807">
        <ele>1072.1</ele>
        <time>2021-07-19T14:58:57Z</time>
      </trkpt>
      <trkpt lat="45.78201" lon="2.95801">
        <ele>1072.3</ele>
        <time>2021-07-19T14:59:00Z</time>
      </trkpt>
      <trkpt lat="45.78193" lon="2.95791">
        <ele>1072.4</ele>
        <time>2021-07-19T14:59:03Z</time>
      </trkpt>
      <trkpt lat="45.78185" lon="2.95778">
        <ele>1072.3</ele>
        <time>2021-07-19T14:59:06Z</time>
      </trkpt>
      <trkpt lat="45.78179" lon="2.95767">
        <ele>1072.2</ele>
        <time>2021-07-19T14:59:09Z</time>
      </trkpt>
      <trkpt lat="45.78173" lon="2.95755">
        <ele>1072</ele>
        <time>2021-07-19T14:59:13Z</time>
      </trkpt>
      <trkpt lat="45.78165" lon="2.95744">
        <ele>1072.2</ele>
        <time>2021-07-19T14:59:18Z</time>
      </trkpt>
      <trkpt lat="45.78158" lon="2.95734">
        <ele>1072.8</ele>
        <time>2021-07-19T14:59:21Z</time>
      </trkpt>
      <trkpt lat="45.78151" lon="2.95725">
        <ele>1073.4</ele>
        <time>2021-07-19T14:59:23Z</time>
      </trkpt>
      <trkpt lat="45.78146" lon="2.95713">
        <ele>1073.9</ele>
        <time>2021-07-19T14:59:26Z</time>
      </trkpt>
      <trkpt lat="45.78142" lon="2.95699">
        <ele>1074.5</ele>
        <time>2021-07-19T14:59:30Z</time>
      </trkpt>
      <trkpt lat="45.7814" lon="2.95685">
        <ele>1074.9</ele>
        <time>2021-07-19T14:59:35Z</time>
      </trkpt>
      <trkpt lat="45.78135" lon="2.9567">
        <ele>1075.6</ele>
        <time>2021-07-19T14:59:40Z</time>
      </trkpt>
      <trkpt lat="45.78135" lon="2.95655">
        <ele>1075.6</ele>
        <time>2021-07-19T14:59:45Z</time>
      </trkpt>
      <trkpt lat="45.78133" lon="2.95641">
        <ele>1075.7</ele>
        <time>2021-07-19T14:59:50Z</time>
      </trkpt>
      <trkpt lat="45.78127" lon="2.9563">
        <ele>1076.1</ele>
        <time>2021-07-19T14:59:54Z</time>
      </trkpt>
      <trkpt lat="45.78125" lon="2.95616">
        <ele>1076.2</ele>
        <time>2021-07-19T14:59:58Z</time>
      </trkpt>
      <trkpt lat="45.78122" lon="2.95603">
        <ele>1076.3</ele>
        <time>2021-07-19T15:00:02Z</time>
      </trkpt>
      <trkpt lat="45.78115" lon="2.9559">
        <ele>1076.8</ele>
        <time>2021-07-19T15:00:09Z</time>
      </trkpt>
      <trkpt lat="45.78108" lon="2.95576">
        <ele>1077.1</ele>
        <time>2021-07-19T15:00:14Z</time>
      </trkpt>
      <trkpt lat="45.78102" lon="2.95565">
        <ele>1077.5</ele>
        <time>2021-07-19T15:00:17Z</time>
      </trkpt>
      <trkpt lat="45.78094" lon="2.95556">
        <ele>1078.1</ele>
        <time>2021-07-19T15:00:20Z</time>
      </trkpt>
      <trkpt lat="45.78095" lon="2.95543">
        <ele>1078</ele>
        <time>2021-07-19T15:00:30Z</time>
      </trkpt>
      <trkpt lat="45.78089" lon="2.95532">
        <ele>1078.5</ele>
        <time>2021-07-19T15:00:35Z</time>
      </trkpt>
      <trkpt lat="45.78078" lon="2.95528">
        <ele>1079.6</ele>
        <time>2021-07-19T15:00:40Z</time>
      </trkpt>
      <trkpt lat="45.78074" lon="2.95516">
        <ele>1080</ele>
        <time>2021-07-19T15:00:43Z</time>
      </trkpt>
      <trkpt lat="45.78067" lon="2.95501">
        <ele>1080.6</ele>
        <time>2021-07-19T15:00:46Z</time>
      </trkpt>
      <trkpt lat="45.78062" lon="2.95486">
        <ele>1080.1</ele>
        <time>2021-07-19T15:00:49Z</time>
      </trkpt>
      <trkpt lat="45.78059" lon="2.95472">
        <ele>1079.4</ele>
        <time>2021-07-19T15:00:53Z</time>
      </trkpt>
      <trkpt lat="45.78059" lon="2.95456">
        <ele>1078.3</ele>
        <time>2021-07-19T15:00:57Z</time>
      </trkpt>
      <trkpt lat="45.78056" lon="2.95441">
        <ele>1077.4</ele>
        <time>2021-07-19T15:01:00Z</time>
      </trkpt>
      <trkpt lat="45.78051" lon="2.95428">
        <ele>1076.6</ele>
        <time>2021-07-19T15:01:03Z</time>
      </trkpt>
      <trkpt lat="45.78045" lon="2.95414">
        <ele>1075.7</ele>
        <time>2021-07-19T15:01:06Z</time>
      </trkpt>
      <trkpt lat="45.7804" lon="2.95401">
        <ele>1074.6</ele>
        <time>2021-07-19T15:01:10Z</time>
      </trkpt>
      <trkpt lat="45.78033" lon="2.95386">
        <ele>1073.4</ele>
        <time>2021-07-19T15:01:14Z</time>
      </trkpt>
      <trkpt lat="45.78021" lon="2.95366">
        <ele>1071.8</ele>
        <time>2021-07-19T15:01:16Z</time>
      </trkpt>
      <trkpt lat="45.78011" lon="2.9536">
        <ele>1071.4</ele>
        <time>2021-07-19T15:01:18Z</time>
      </trkpt>
      <trkpt lat="45.78001" lon="2.9536">
        <ele>1071.5</ele>
        <time>2021-07-19T15:01:20Z</time>
      </trkpt>
      <trkpt lat="45.77989" lon="2.95359">
        <ele>1071.7</ele>
        <time>2021-07-19T15:01:23Z</time>
      </trkpt>
      <trkpt lat="45.7798" lon="2.95354">
        <ele>1071.3</ele>
        <time>2021-07-19T15:01:26Z</time>
      </trkpt>
      <trkpt lat="45.77966" lon="2.95347">
        <ele>1070.9</ele>
        <time>2021-07-19T15:01:28Z</time>
      </trkpt>
      <trkpt lat="45.77956" lon="2.95341">
        <ele>1070.4</ele>
        <time>2021-07-19T15:01:30Z</time>
      </trkpt>
      <trkpt lat="45.77947" lon="2.95335">
        <ele>1069.8</ele>
        <time>2021-07-19T15:01:33Z</time>
      </trkpt>
      <trkpt lat="45.77938" lon="2.95328">
        <ele>1069.3</ele>
        <time>2021-07-19T15:01:36Z</time>
      </trkpt>
      <trkpt lat="45.77929" lon="2.95317">
        <ele>1068.5</ele>
        <time>2021-07-19T15:01:40Z</time>
      </trkpt>
      <trkpt lat="45.77922" lon="2.95308">
        <ele>1067.8</ele>
        <time>2021-07-19T15:01:44Z</time>
      </trkpt>
      <trkpt lat="45.77912" lon="2.95304">
        <ele>1068</ele>
        <time>2021-07-19T15:01:48Z</time>
      </trkpt>
      <trkpt lat="45.77903" lon="2.95298">
        <ele>1068.5</ele>
        <time>2021-07-19T15:01:52Z</time>
      </trkpt>
      <trkpt lat="45.77894" lon="2.95292">
        <ele>1069</ele>
        <time>2021-07-19T15:01:57Z</time>
      </trkpt>
      <trkpt lat="45.77886" lon="2.95286">
        <ele>1069.3</ele>
        <time>2021-07-19T15:02:00Z</time>
      </trkpt>
      <trkpt lat="45.77877" lon="2.95279">
        <ele>1069.7</ele>
        <time>2021-07-19T15:02:04Z</time>
      </trkpt>
      <trkpt lat="45.77868" lon="2.95271">
        <ele>1070</ele>
        <time>2021-07-19T15:02:09Z</time>
      </trkpt>
      <trkpt lat="45.77858" lon="2.9527">
        <ele>1071</ele>
        <time>2021-07-19T15:02:14Z</time>
      </trkpt>
      <trkpt lat="45.77848" lon="2.95266">
        <ele>1071.8</ele>
        <time>2021-07-19T15:02:18Z</time>
      </trkpt>
      <trkpt lat="45.77839" lon="2.95262">
        <ele>1072.4</ele>
        <time>2021-07-19T15:02:22Z</time>
      </trkpt>
      <trkpt lat="45.7783" lon="2.95258">
        <ele>1072.8</ele>
        <time>2021-07-19T15:02:26Z</time>
      </trkpt>
      <trkpt lat="45.7782" lon="2.95253">
        <ele>1072.6</ele>
        <time>2021-07-19T15:02:31Z</time>
      </trkpt>
      <trkpt lat="45.7781" lon="2.95251">
        <ele>1072.7</ele>
        <time>2021-07-19T15:02:35Z</time>
      </trkpt>
      <trkpt lat="45.77799" lon="2.95252">
        <ele>1073</ele>
        <time>2021-07-19T15:02:39Z</time>
      </trkpt>
      <trkpt lat="45.77789" lon="2.95251">
        <ele>1073.2</ele>
        <time>2021-07-19T15:02:44Z</time>
      </trkpt>
      <trkpt lat="45.77779" lon="2.95251">
        <ele>1073.4</ele>
        <time>2021-07-19T15:02:48Z</time>
      </trkpt>
      <trkpt lat="45.7777" lon="2.95251">
        <ele>1073.6</ele>
        <time>2021-07-19T15:02:54Z</time>
      </trkpt>
      <trkpt lat="45.7776" lon="2.95246">
        <ele>1073.5</ele>
        <time>2021-07-19T15:02:58Z</time>
      </trkpt>
      <trkpt lat="45.77751" lon="2.9524">
        <ele>1073.4</ele>
        <time>2021-07-19T15:03:02Z</time>
      </trkpt>
      <trkpt lat="45.77741" lon="2.95234">
        <ele>1073</ele>
        <time>2021-07-19T15:03:06Z</time>
      </trkpt>
      <trkpt lat="45.77733" lon="2.95228">
        <ele>1072.5</ele>
        <time>2021-07-19T15:03:09Z</time>
      </trkpt>
      <trkpt lat="45.77722" lon="2.9523">
        <ele>1072.6</ele>
        <time>2021-07-19T15:03:13Z</time>
      </trkpt>
      <trkpt lat="45.77712" lon="2.95232">
        <ele>1072.6</ele>
        <time>2021-07-19T15:03:18Z</time>
      </trkpt>
      <trkpt lat="45.77698" lon="2.95237">
        <ele>1072.9</ele>
        <time>2021-07-19T15:03:22Z</time>
      </trkpt>
      <trkpt lat="45.77687" lon="2.95241">
        <ele>1073.2</ele>
        <time>2021-07-19T15:03:24Z</time>
      </trkpt>
      <trkpt lat="45.77676" lon="2.95243">
        <ele>1073.4</ele>
        <time>2021-07-19T15:03:26Z</time>
      </trkpt>
      <trkpt lat="45.77663" lon="2.95246">
        <ele>1073.3</ele>
        <time>2021-07-19T15:03:29Z</time>
      </trkpt>
      <trkpt lat="45.77653" lon="2.95255">
        <ele>1073.2</ele>
        <time>2021-07-19T15:03:32Z</time>
      </trkpt>
      <trkpt lat="45.77644" lon="2.95261">
        <ele>1073</ele>
        <time>2021-07-19T15:03:36Z</time>
      </trkpt>
      <trkpt lat="45.77633" lon="2.95262">
        <ele>1072.1</ele>
        <time>2021-07-19T15:03:38Z</time>
      </trkpt>
      <trkpt lat="45.77618" lon="2.95263">
        <ele>1070.8</ele>
        <time>2021-07-19T15:03:39Z</time>
      </trkpt>
      <trkpt lat="45.77609" lon="2.9527">
        <ele>1070.9</ele>
        <time>2021-07-19T15:03:42Z</time>
      </trkpt>
      <trkpt lat="45.77599" lon="2.95277">
        <ele>1070.9</ele>
        <time>2021-07-19T15:03:45Z</time>
      </trkpt>
      <trkpt lat="45.77592" lon="2.95286">
        <ele>1071.4</ele>
        <time>2021-07-19T15:03:48Z</time>
      </trkpt>
      <trkpt lat="45.77582" lon="2.95291">
        <ele>1071.5</ele>
        <time>2021-07-19T15:03:52Z</time>
      </trkpt>
      <trkpt lat="45.77571" lon="2.95287">
        <ele>1071.7</ele>
        <time>2021-07-19T15:03:56Z</time>
      </trkpt>
      <trkpt lat="45.77559" lon="2.95282">
        <ele>1071.7</ele>
        <time>2021-07-19T15:03:59Z</time>
      </trkpt>
      <trkpt lat="45.77555" lon="2.95271">
        <ele>1070.2</ele>
        <time>2021-07-19T15:04:12Z</time>
      </trkpt>
      <trkpt lat="45.77547" lon="2.95263">
        <ele>1069.4</ele>
        <time>2021-07-19T15:04:21Z</time>
      </trkpt>
      <trkpt lat="45.77545" lon="2.9525">
        <ele>1067.4</ele>
        <time>2021-07-19T15:04:33Z</time>
      </trkpt>
      <trkpt lat="45.77554" lon="2.9526">
        <ele>1068.6</ele>
        <time>2021-07-19T15:06:12Z</time>
      </trkpt>
      <trkpt lat="45.7756" lon="2.95269">
        <ele>1069.7</ele>
        <time>2021-07-19T15:06:44Z</time>
      </trkpt>
      <trkpt lat="45.77554" lon="2.95256">
        <ele>1068</ele>
        <time>2021-07-19T15:07:03Z</time>
      </trkpt>
      <trkpt lat="45.77548" lon="2.95244">
        <ele>1066.6</ele>
        <time>2021-07-19T15:07:08Z</time>
      </trkpt>
      <trkpt lat="45.7754" lon="2.95233">
        <ele>1065.5</ele>
        <time>2021-07-19T15:07:11Z</time>
      </trkpt>
      <trkpt lat="45.77523" lon="2.9522">
        <ele>1064.2</ele>
        <time>2021-07-19T15:07:13Z</time>
      </trkpt>
      <trkpt lat="45.77514" lon="2.95216">
        <ele>1063.9</ele>
        <time>2021-07-19T15:07:16Z</time>
      </trkpt>
      <trkpt lat="45.77504" lon="2.95211">
        <ele>1063.3</ele>
        <time>2021-07-19T15:07:19Z</time>
      </trkpt>
      <trkpt lat="45.77495" lon="2.95209">
        <ele>1063.7</ele>
        <time>2021-07-19T15:07:22Z</time>
      </trkpt>
      <trkpt lat="45.77484" lon="2.95207">
        <ele>1064.8</ele>
        <time>2021-07-19T15:07:25Z</time>
      </trkpt>
      <trkpt lat="45.77473" lon="2.95204">
        <ele>1065.7</ele>
        <time>2021-07-19T15:07:29Z</time>
      </trkpt>
      <trkpt lat="45.77463" lon="2.95201">
        <ele>1066.4</ele>
        <time>2021-07-19T15:07:34Z</time>
      </trkpt>
      <trkpt lat="45.77452" lon="2.95197">
        <ele>1067</ele>
        <time>2021-07-19T15:07:38Z</time>
      </trkpt>
      <trkpt lat="45.77442" lon="2.95196">
        <ele>1068</ele>
        <time>2021-07-19T15:07:42Z</time>
      </trkpt>
      <trkpt lat="45.77432" lon="2.95195">
        <ele>1069</ele>
        <time>2021-07-19T15:07:48Z</time>
      </trkpt>
      <trkpt lat="45.77423" lon="2.95192">
        <ele>1069.4</ele>
        <time>2021-07-19T15:07:51Z</time>
      </trkpt>
      <trkpt lat="45.77414" lon="2.95188">
        <ele>1069.4</ele>
        <time>2021-07-19T15:07:58Z</time>
      </trkpt>
      <trkpt lat="45.77404" lon="2.95183">
        <ele>1068.5</ele>
        <time>2021-07-19T15:08:02Z</time>
      </trkpt>
      <trkpt lat="45.77393" lon="2.95182">
        <ele>1068.5</ele>
        <time>2021-07-19T15:08:06Z</time>
      </trkpt>
      <trkpt lat="45.77384" lon="2.95179">
        <ele>1068</ele>
        <time>2021-07-19T15:08:10Z</time>
      </trkpt>
      <trkpt lat="45.77376" lon="2.95186">
        <ele>1069.7</ele>
        <time>2021-07-19T15:08:15Z</time>
      </trkpt>
      <trkpt lat="45.77365" lon="2.9519">
        <ele>1070.7</ele>
        <time>2021-07-19T15:08:19Z</time>
      </trkpt>
      <trkpt lat="45.77355" lon="2.95194">
        <ele>1071.8</ele>
        <time>2021-07-19T15:08:23Z</time>
      </trkpt>
      <trkpt lat="45.77344" lon="2.95193">
        <ele>1071.8</ele>
        <time>2021-07-19T15:08:26Z</time>
      </trkpt>
      <trkpt lat="45.77333" lon="2.95191">
        <ele>1071.6</ele>
        <time>2021-07-19T15:08:29Z</time>
      </trkpt>
      <trkpt lat="45.77321" lon="2.95193">
        <ele>1072.4</ele>
        <time>2021-07-19T15:08:33Z</time>
      </trkpt>
      <trkpt lat="45.77311" lon="2.95192">
        <ele>1072.4</ele>
        <time>2021-07-19T15:08:36Z</time>
      </trkpt>
      <trkpt lat="45.773" lon="2.95192">
        <ele>1072.7</ele>
        <time>2021-07-19T15:08:40Z</time>
      </trkpt>
      <trkpt lat="45.7729" lon="2.95191">
        <ele>1072.8</ele>
        <time>2021-07-19T15:08:44Z</time>
      </trkpt>
      <trkpt lat="45.7728" lon="2.95192">
        <ele>1073.3</ele>
        <time>2021-07-19T15:08:48Z</time>
      </trkpt>
      <trkpt lat="45.7727" lon="2.95195">
        <ele>1074.2</ele>
        <time>2021-07-19T15:08:53Z</time>
      </trkpt>
      <trkpt lat="45.77259" lon="2.95197">
        <ele>1074.9</ele>
        <time>2021-07-19T15:08:58Z</time>
      </trkpt>
      <trkpt lat="45.77249" lon="2.95197">
        <ele>1075.2</ele>
        <time>2021-07-19T15:09:04Z</time>
      </trkpt>
      <trkpt lat="45.77239" lon="2.952">
        <ele>1075.9</ele>
        <time>2021-07-19T15:09:11Z</time>
      </trkpt>
      <trkpt lat="45.77229" lon="2.95205">
        <ele>1077</ele>
        <time>2021-07-19T15:09:16Z</time>
      </trkpt>
      <trkpt lat="45.7722" lon="2.95212">
        <ele>1078.7</ele>
        <time>2021-07-19T15:09:21Z</time>
      </trkpt>
      <trkpt lat="45.77209" lon="2.95215">
        <ele>1079.5</ele>
        <time>2021-07-19T15:09:25Z</time>
      </trkpt>
      <trkpt lat="45.77199" lon="2.9522">
        <ele>1080.8</ele>
        <time>2021-07-19T15:09:29Z</time>
      </trkpt>
      <trkpt lat="45.77189" lon="2.95221">
        <ele>1081.3</ele>
        <time>2021-07-19T15:09:33Z</time>
      </trkpt>
      <trkpt lat="45.77179" lon="2.95223">
        <ele>1081.9</ele>
        <time>2021-07-19T15:09:39Z</time>
      </trkpt>
      <trkpt lat="45.77169" lon="2.95222">
        <ele>1081.9</ele>
        <time>2021-07-19T15:09:43Z</time>
      </trkpt>
      <trkpt lat="45.77159" lon="2.95224">
        <ele>1082.1</ele>
        <time>2021-07-19T15:09:49Z</time>
      </trkpt>
      <trkpt lat="45.77149" lon="2.95227">
        <ele>1082.3</ele>
        <time>2021-07-19T15:09:56Z</time>
      </trkpt>
      <trkpt lat="45.77139" lon="2.95228">
        <ele>1082.1</ele>
        <time>2021-07-19T15:10:01Z</time>
      </trkpt>
      <trkpt lat="45.77131" lon="2.95236">
        <ele>1083.5</ele>
        <time>2021-07-19T15:10:10Z</time>
      </trkpt>
      <trkpt lat="45.7712" lon="2.9524">
        <ele>1083.9</ele>
        <time>2021-07-19T15:10:17Z</time>
      </trkpt>
      <trkpt lat="45.7711" lon="2.95245">
        <ele>1084.5</ele>
        <time>2021-07-19T15:10:23Z</time>
      </trkpt>
      <trkpt lat="45.771" lon="2.9525">
        <ele>1085</ele>
        <time>2021-07-19T15:10:29Z</time>
      </trkpt>
      <trkpt lat="45.77093" lon="2.95259">
        <ele>1086.8</ele>
        <time>2021-07-19T15:10:34Z</time>
      </trkpt>
      <trkpt lat="45.77085" lon="2.95269">
        <ele>1088.9</ele>
        <time>2021-07-19T15:10:40Z</time>
      </trkpt>
      <trkpt lat="45.77076" lon="2.95273">
        <ele>1089.3</ele>
        <time>2021-07-19T15:10:45Z</time>
      </trkpt>
      <trkpt lat="45.77066" lon="2.9528">
        <ele>1090.4</ele>
        <time>2021-07-19T15:10:50Z</time>
      </trkpt>
      <trkpt lat="45.77059" lon="2.95288">
        <ele>1091.7</ele>
        <time>2021-07-19T15:10:55Z</time>
      </trkpt>
      <trkpt lat="45.7705" lon="2.95293">
        <ele>1092.2</ele>
        <time>2021-07-19T15:11:02Z</time>
      </trkpt>
      <trkpt lat="45.77041" lon="2.95295">
        <ele>1091.9</ele>
        <time>2021-07-19T15:11:06Z</time>
      </trkpt>
      <trkpt lat="45.77031" lon="2.95302">
        <ele>1092.6</ele>
        <time>2021-07-19T15:11:10Z</time>
      </trkpt>
      <trkpt lat="45.7702" lon="2.95306">
        <ele>1092.5</ele>
        <time>2021-07-19T15:11:14Z</time>
      </trkpt>
      <trkpt lat="45.77011" lon="2.95312">
        <ele>1092.9</ele>
        <time>2021-07-19T15:11:19Z</time>
      </trkpt>
      <trkpt lat="45.77" lon="2.95313">
        <ele>1092.1</ele>
        <time>2021-07-19T15:11:23Z</time>
      </trkpt>
      <trkpt lat="45.76987" lon="2.95309">
        <ele>1089.1</ele>
        <time>2021-07-19T15:11:26Z</time>
      </trkpt>
      <trkpt lat="45.76976" lon="2.95312">
        <ele>1087.7</ele>
        <time>2021-07-19T15:11:28Z</time>
      </trkpt>
      <trkpt lat="45.7696" lon="2.95323">
        <ele>1086.9</ele>
        <time>2021-07-19T15:11:30Z</time>
      </trkpt>
      <trkpt lat="45.76946" lon="2.95329">
        <ele>1085.5</ele>
        <time>2021-07-19T15:11:32Z</time>
      </trkpt>
      <trkpt lat="45.76936" lon="2.95339">
        <ele>1085.8</ele>
        <time>2021-07-19T15:11:34Z</time>
      </trkpt>
      <trkpt lat="45.76924" lon="2.95348">
        <ele>1085.6</ele>
        <time>2021-07-19T15:11:36Z</time>
      </trkpt>
      <trkpt lat="45.76912" lon="2.95354">
        <ele>1085</ele>
        <time>2021-07-19T15:11:38Z</time>
      </trkpt>
      <trkpt lat="45.769" lon="2.95363">
        <ele>1085.4</ele>
        <time>2021-07-19T15:11:40Z</time>
      </trkpt>
      <trkpt lat="45.7689" lon="2.9537">
        <ele>1085.5</ele>
        <time>2021-07-19T15:11:42Z</time>
      </trkpt>
      <trkpt lat="45.76879" lon="2.95374">
        <ele>1084.8</ele>
        <time>2021-07-19T15:11:44Z</time>
      </trkpt>
      <trkpt lat="45.76869" lon="2.95375">
        <ele>1083.6</ele>
        <time>2021-07-19T15:11:48Z</time>
      </trkpt>
      <trkpt lat="45.76857" lon="2.95378">
        <ele>1082.6</ele>
        <time>2021-07-19T15:11:51Z</time>
      </trkpt>
      <trkpt lat="45.76849" lon="2.95373">
        <ele>1080.3</ele>
        <time>2021-07-19T15:11:52Z</time>
      </trkpt>
      <trkpt lat="45.76836" lon="2.95383">
        <ele>1080.7</ele>
        <time>2021-07-19T15:11:55Z</time>
      </trkpt>
      <trkpt lat="45.76826" lon="2.95389">
        <ele>1081.2</ele>
        <time>2021-07-19T15:11:57Z</time>
      </trkpt>
      <trkpt lat="45.76816" lon="2.95395">
        <ele>1082</ele>
        <time>2021-07-19T15:12:02Z</time>
      </trkpt>
      <trkpt lat="45.76806" lon="2.95399">
        <ele>1082.3</ele>
        <time>2021-07-19T15:12:05Z</time>
      </trkpt>
      <trkpt lat="45.76794" lon="2.95402">
        <ele>1082.4</ele>
        <time>2021-07-19T15:12:11Z</time>
      </trkpt>
      <trkpt lat="45.76784" lon="2.95402">
        <ele>1081.8</ele>
        <time>2021-07-19T15:12:13Z</time>
      </trkpt>
      <trkpt lat="45.76772" lon="2.95399">
        <ele>1080.2</ele>
        <time>2021-07-19T15:12:15Z</time>
      </trkpt>
      <trkpt lat="45.76761" lon="2.95401">
        <ele>1080.1</ele>
        <time>2021-07-19T15:12:16Z</time>
      </trkpt>
      <trkpt lat="45.76749" lon="2.95404">
        <ele>1080.3</ele>
        <time>2021-07-19T15:12:19Z</time>
      </trkpt>
      <trkpt lat="45.76738" lon="2.95404">
        <ele>1079.6</ele>
        <time>2021-07-19T15:12:21Z</time>
      </trkpt>
      <trkpt lat="45.76724" lon="2.95402">
        <ele>1078.1</ele>
        <time>2021-07-19T15:12:23Z</time>
      </trkpt>
      <trkpt lat="45.76712" lon="2.95401">
        <ele>1077</ele>
        <time>2021-07-19T15:12:25Z</time>
      </trkpt>
      <trkpt lat="45.76704" lon="2.9541">
        <ele>1079.2</ele>
        <time>2021-07-19T15:12:30Z</time>
      </trkpt>
      <trkpt lat="45.76691" lon="2.95408">
        <ele>1077.8</ele>
        <time>2021-07-19T15:12:32Z</time>
      </trkpt>
      <trkpt lat="45.76679" lon="2.9541">
        <ele>1077.7</ele>
        <time>2021-07-19T15:12:35Z</time>
      </trkpt>
      <trkpt lat="45.76668" lon="2.95415">
        <ele>1078.6</ele>
        <time>2021-07-19T15:12:37Z</time>
      </trkpt>
      <trkpt lat="45.76658" lon="2.9542">
        <ele>1078.7</ele>
        <time>2021-07-19T15:12:40Z</time>
      </trkpt>
      <trkpt lat="45.76648" lon="2.95429">
        <ele>1079.9</ele>
        <time>2021-07-19T15:12:44Z</time>
      </trkpt>
      <trkpt lat="45.76638" lon="2.95432">
        <ele>1079.3</ele>
        <time>2021-07-19T15:12:47Z</time>
      </trkpt>
      <trkpt lat="45.76631" lon="2.9544">
        <ele>1080.6</ele>
        <time>2021-07-19T15:12:51Z</time>
      </trkpt>
      <trkpt lat="45.76623" lon="2.95448">
        <ele>1081.7</ele>
        <time>2021-07-19T15:12:55Z</time>
      </trkpt>
      <trkpt lat="45.76615" lon="2.95456">
        <ele>1082.8</ele>
        <time>2021-07-19T15:13:00Z</time>
      </trkpt>
      <trkpt lat="45.7661" lon="2.95468">
        <ele>1085.4</ele>
        <time>2021-07-19T15:13:05Z</time>
      </trkpt>
      <trkpt lat="45.766" lon="2.95475">
        <ele>1085.8</ele>
        <time>2021-07-19T15:13:10Z</time>
      </trkpt>
      <trkpt lat="45.7659" lon="2.95481">
        <ele>1085.8</ele>
        <time>2021-07-19T15:13:14Z</time>
      </trkpt>
      <trkpt lat="45.76579" lon="2.95483">
        <ele>1084.8</ele>
        <time>2021-07-19T15:13:17Z</time>
      </trkpt>
      <trkpt lat="45.76568" lon="2.95485">
        <ele>1084.2</ele>
        <time>2021-07-19T15:13:21Z</time>
      </trkpt>
      <trkpt lat="45.76557" lon="2.95486">
        <ele>1083.2</ele>
        <time>2021-07-19T15:13:24Z</time>
      </trkpt>
      <trkpt lat="45.76544" lon="2.9549">
        <ele>1082.8</ele>
        <time>2021-07-19T15:13:26Z</time>
      </trkpt>
      <trkpt lat="45.76527" lon="2.95497">
        <ele>1082.5</ele>
        <time>2021-07-19T15:13:28Z</time>
      </trkpt>
      <trkpt lat="45.76518" lon="2.95499">
        <ele>1081.9</ele>
        <time>2021-07-19T15:13:31Z</time>
      </trkpt>
      <trkpt lat="45.7651" lon="2.95508">
        <ele>1082.6</ele>
        <time>2021-07-19T15:13:36Z</time>
      </trkpt>
      <trkpt lat="45.765" lon="2.95512">
        <ele>1081.9</ele>
        <time>2021-07-19T15:13:43Z</time>
      </trkpt>
      <trkpt lat="45.76488" lon="2.95516">
        <ele>1082</ele>
        <time>2021-07-19T15:13:48Z</time>
      </trkpt>
      <trkpt lat="45.76477" lon="2.9552">
        <ele>1082.1</ele>
        <time>2021-07-19T15:13:51Z</time>
      </trkpt>
      <trkpt lat="45.76467" lon="2.95523">
        <ele>1082</ele>
        <time>2021-07-19T15:13:54Z</time>
      </trkpt>
      <trkpt lat="45.76458" lon="2.95526">
        <ele>1081.8</ele>
        <time>2021-07-19T15:13:57Z</time>
      </trkpt>
      <trkpt lat="45.76447" lon="2.95531">
        <ele>1081.6</ele>
        <time>2021-07-19T15:14:01Z</time>
      </trkpt>
      <trkpt lat="45.76439" lon="2.95538">
        <ele>1081.5</ele>
        <time>2021-07-19T15:14:06Z</time>
      </trkpt>
      <trkpt lat="45.76444" lon="2.95552">
        <ele>1082.8</ele>
        <time>2021-07-19T15:14:12Z</time>
      </trkpt>
      <trkpt lat="45.76436" lon="2.95544">
        <ele>1081.6</ele>
        <time>2021-07-19T15:24:12Z</time>
      </trkpt>
      <trkpt lat="45.76431" lon="2.95534">
        <ele>1080.8</ele>
        <time>2021-07-19T15:24:18Z</time>
      </trkpt>
      <trkpt lat="45.76421" lon="2.95537">
        <ele>1080.2</ele>
        <time>2021-07-19T15:24:25Z</time>
      </trkpt>
      <trkpt lat="45.76411" lon="2.95541">
        <ele>1080</ele>
        <time>2021-07-19T15:24:30Z</time>
      </trkpt>
      <trkpt lat="45.76402" lon="2.95543">
        <ele>1080</ele>
        <time>2021-07-19T15:24:34Z</time>
      </trkpt>
      <trkpt lat="45.76394" lon="2.95553">
        <ele>1080.2</ele>
        <time>2021-07-19T15:24:40Z</time>
      </trkpt>
      <trkpt lat="45.76393" lon="2.95566">
        <ele>1080.4</ele>
        <time>2021-07-19T15:24:43Z</time>
      </trkpt>
      <trkpt lat="45.7639" lon="2.95587">
        <ele>1080.5</ele>
        <time>2021-07-19T15:24:47Z</time>
      </trkpt>
      <trkpt lat="45.76386" lon="2.95604">
        <ele>1079.4</ele>
        <time>2021-07-19T15:24:51Z</time>
      </trkpt>
      <trkpt lat="45.7638" lon="2.95617">
        <ele>1078.3</ele>
        <time>2021-07-19T15:24:56Z</time>
      </trkpt>
      <trkpt lat="45.76371" lon="2.95626">
        <ele>1077.2</ele>
        <time>2021-07-19T15:24:58Z</time>
      </trkpt>
      <trkpt lat="45.7636" lon="2.95637">
        <ele>1075.5</ele>
        <time>2021-07-19T15:25:00Z</time>
      </trkpt>
      <trkpt lat="45.76352" lon="2.95641">
        <ele>1074.5</ele>
        <time>2021-07-19T15:25:02Z</time>
      </trkpt>
      <trkpt lat="45.76344" lon="2.9565">
        <ele>1072.9</ele>
        <time>2021-07-19T15:25:05Z</time>
      </trkpt>
      <trkpt lat="45.76336" lon="2.95653">
        <ele>1071.9</ele>
        <time>2021-07-19T15:25:09Z</time>
      </trkpt>
      <trkpt lat="45.76329" lon="2.95661">
        <ele>1070.6</ele>
        <time>2021-07-19T15:25:14Z</time>
      </trkpt>
      <trkpt lat="45.7632" lon="2.95668">
        <ele>1069.7</ele>
        <time>2021-07-19T15:25:19Z</time>
      </trkpt>
      <trkpt lat="45.76316" lon="2.95682">
        <ele>1068.6</ele>
        <time>2021-07-19T15:27:09Z</time>
      </trkpt>
      <trkpt lat="45.76313" lon="2.95695">
        <ele>1067.6</ele>
        <time>2021-07-19T15:27:12Z</time>
      </trkpt>
      <trkpt lat="45.76314" lon="2.95708">
        <ele>1066.7</ele>
        <time>2021-07-19T15:27:15Z</time>
      </trkpt>
      <trkpt lat="45.76318" lon="2.9572">
        <ele>1065.9</ele>
        <time>2021-07-19T15:27:18Z</time>
      </trkpt>
      <trkpt lat="45.76321" lon="2.95732">
        <ele>1065</ele>
        <time>2021-07-19T15:27:21Z</time>
      </trkpt>
      <trkpt lat="45.76324" lon="2.95749">
        <ele>1063.8</ele>
        <time>2021-07-19T15:27:25Z</time>
      </trkpt>
      <trkpt lat="45.76326" lon="2.95766">
        <ele>1062.6</ele>
        <time>2021-07-19T15:27:28Z</time>
      </trkpt>
      <trkpt lat="45.76325" lon="2.95783">
        <ele>1061.2</ele>
        <time>2021-07-19T15:27:31Z</time>
      </trkpt>
      <trkpt lat="45.76318" lon="2.95795">
        <ele>1059.8</ele>
        <time>2021-07-19T15:27:34Z</time>
      </trkpt>
      <trkpt lat="45.76309" lon="2.958">
        <ele>1058.8</ele>
        <time>2021-07-19T15:27:37Z</time>
      </trkpt>
      <trkpt lat="45.76299" lon="2.95806">
        <ele>1057.5</ele>
        <time>2021-07-19T15:27:40Z</time>
      </trkpt>
      <trkpt lat="45.76294" lon="2.95818">
        <ele>1055.8</ele>
        <time>2021-07-19T15:27:43Z</time>
      </trkpt>
      <trkpt lat="45.76296" lon="2.95834">
        <ele>1054.3</ele>
        <time>2021-07-19T15:27:46Z</time>
      </trkpt>
      <trkpt lat="45.76299" lon="2.95852">
        <ele>1052.3</ele>
        <time>2021-07-19T15:27:49Z</time>
      </trkpt>
      <trkpt lat="45.763" lon="2.95866">
        <ele>1050.6</ele>
        <time>2021-07-19T15:27:52Z</time>
      </trkpt>
      <trkpt lat="45.76302" lon="2.95881">
        <ele>1048.8</ele>
        <time>2021-07-19T15:27:55Z</time>
      </trkpt>
      <trkpt lat="45.76302" lon="2.95897">
        <ele>1046.8</ele>
        <time>2021-07-19T15:27:58Z</time>
      </trkpt>
      <trkpt lat="45.76301" lon="2.95914">
        <ele>1044.5</ele>
        <time>2021-07-19T15:28:01Z</time>
      </trkpt>
      <trkpt lat="45.76301" lon="2.9593">
        <ele>1042.8</ele>
        <time>2021-07-19T15:28:04Z</time>
      </trkpt>
      <trkpt lat="45.763" lon="2.95945">
        <ele>1041.1</ele>
        <time>2021-07-19T15:28:07Z</time>
      </trkpt>
      <trkpt lat="45.76298" lon="2.95962">
        <ele>1039.2</ele>
        <time>2021-07-19T15:28:10Z</time>
      </trkpt>
      <trkpt lat="45.76295" lon="2.95979">
        <ele>1037.1</ele>
        <time>2021-07-19T15:28:13Z</time>
      </trkpt>
      <trkpt lat="45.76293" lon="2.95996">
        <ele>1035.1</ele>
        <time>2021-07-19T15:28:16Z</time>
      </trkpt>
      <trkpt lat="45.76289" lon="2.96009">
        <ele>1033.2</ele>
        <time>2021-07-19T15:28:19Z</time>
      </trkpt>
      <trkpt lat="45.76284" lon="2.96019">
        <ele>1031.5</ele>
        <time>2021-07-19T15:28:24Z</time>
      </trkpt>
      <trkpt lat="45.76278" lon="2.96032">
        <ele>1029.4</ele>
        <time>2021-07-19T15:30:04Z</time>
      </trkpt>
      <trkpt lat="45.76277" lon="2.96045">
        <ele>1027.9</ele>
        <time>2021-07-19T15:30:09Z</time>
      </trkpt>
      <trkpt lat="45.76275" lon="2.96061">
        <ele>1025.9</ele>
        <time>2021-07-19T15:30:13Z</time>
      </trkpt>
      <trkpt lat="45.76273" lon="2.96074">
        <ele>1024.3</ele>
        <time>2021-07-19T15:30:16Z</time>
      </trkpt>
      <trkpt lat="45.76267" lon="2.96085">
        <ele>1022.4</ele>
        <time>2021-07-19T15:30:19Z</time>
      </trkpt>
      <trkpt lat="45.76263" lon="2.961">
        <ele>1021</ele>
        <time>2021-07-19T15:30:22Z</time>
      </trkpt>
      <trkpt lat="45.76264" lon="2.96116">
        <ele>1020.3</ele>
        <time>2021-07-19T15:30:25Z</time>
      </trkpt>
      <trkpt lat="45.76268" lon="2.96133">
        <ele>1019.8</ele>
        <time>2021-07-19T15:30:28Z</time>
      </trkpt>
      <trkpt lat="45.76267" lon="2.9615">
        <ele>1018.8</ele>
        <time>2021-07-19T15:30:31Z</time>
      </trkpt>
      <trkpt lat="45.76265" lon="2.96168">
        <ele>1017.5</ele>
        <time>2021-07-19T15:30:34Z</time>
      </trkpt>
      <trkpt lat="45.76265" lon="2.96188">
        <ele>1015.8</ele>
        <time>2021-07-19T15:30:37Z</time>
      </trkpt>
      <trkpt lat="45.76265" lon="2.96202">
        <ele>1014.7</ele>
        <time>2021-07-19T15:30:39Z</time>
      </trkpt>
      <trkpt lat="45.76262" lon="2.96214">
        <ele>1013.3</ele>
        <time>2021-07-19T15:30:41Z</time>
      </trkpt>
      <trkpt lat="45.76262" lon="2.96232">
        <ele>1011.8</ele>
        <time>2021-07-19T15:30:47Z</time>
      </trkpt>
      <trkpt lat="45.76265" lon="2.9625">
        <ele>1010.6</ele>
        <time>2021-07-19T15:30:50Z</time>
      </trkpt>
      <trkpt lat="45.76266" lon="2.96267">
        <ele>1009.4</ele>
        <time>2021-07-19T15:30:53Z</time>
      </trkpt>
      <trkpt lat="45.76261" lon="2.96284">
        <ele>1007.5</ele>
        <time>2021-07-19T15:31:06Z</time>
      </trkpt>
      <trkpt lat="45.76253" lon="2.96296">
        <ele>1005.5</ele>
        <time>2021-07-19T15:31:09Z</time>
      </trkpt>
      <trkpt lat="45.76245" lon="2.96309">
        <ele>1003.5</ele>
        <time>2021-07-19T15:31:13Z</time>
      </trkpt>
      <trkpt lat="45.76233" lon="2.96315">
        <ele>1001.5</ele>
        <time>2021-07-19T15:31:16Z</time>
      </trkpt>
      <trkpt lat="45.7622" lon="2.96326">
        <ele>999</ele>
        <time>2021-07-19T15:31:19Z</time>
      </trkpt>
      <trkpt lat="45.76211" lon="2.96333">
        <ele>997.3</ele>
        <time>2021-07-19T15:31:21Z</time>
      </trkpt>
      <trkpt lat="45.76197" lon="2.96349">
        <ele>995.1</ele>
        <time>2021-07-19T15:31:23Z</time>
      </trkpt>
      <trkpt lat="45.7618" lon="2.96358">
        <ele>992.9</ele>
        <time>2021-07-19T15:31:24Z</time>
      </trkpt>
      <trkpt lat="45.76169" lon="2.96369">
        <ele>991.4</ele>
        <time>2021-07-19T15:31:26Z</time>
      </trkpt>
      <trkpt lat="45.76158" lon="2.9638">
        <ele>990.3</ele>
        <time>2021-07-19T15:31:28Z</time>
      </trkpt>
      <trkpt lat="45.76145" lon="2.96392">
        <ele>989.1</ele>
        <time>2021-07-19T15:31:30Z</time>
      </trkpt>
      <trkpt lat="45.76134" lon="2.96405">
        <ele>988</ele>
        <time>2021-07-19T15:31:32Z</time>
      </trkpt>
      <trkpt lat="45.76125" lon="2.96409">
        <ele>987.2</ele>
        <time>2021-07-19T15:31:33Z</time>
      </trkpt>
      <trkpt lat="45.76114" lon="2.96419">
        <ele>986</ele>
        <time>2021-07-19T15:31:35Z</time>
      </trkpt>
      <trkpt lat="45.76106" lon="2.96425">
        <ele>985.1</ele>
        <time>2021-07-19T15:31:36Z</time>
      </trkpt>
      <trkpt lat="45.76095" lon="2.9643">
        <ele>984.1</ele>
        <time>2021-07-19T15:31:38Z</time>
      </trkpt>
      <trkpt lat="45.76083" lon="2.9643">
        <ele>983.4</ele>
        <time>2021-07-19T15:31:41Z</time>
      </trkpt>
      <trkpt lat="45.76072" lon="2.96436">
        <ele>982.7</ele>
        <time>2021-07-19T15:31:43Z</time>
      </trkpt>
      <trkpt lat="45.76064" lon="2.96443">
        <ele>982.1</ele>
        <time>2021-07-19T15:31:46Z</time>
      </trkpt>
      <trkpt lat="45.76056" lon="2.96453">
        <ele>981.3</ele>
        <time>2021-07-19T15:31:50Z</time>
      </trkpt>
      <trkpt lat="45.76045" lon="2.96468">
        <ele>980</ele>
        <time>2021-07-19T15:31:51Z</time>
      </trkpt>
      <trkpt lat="45.76034" lon="2.96476">
        <ele>979.1</ele>
        <time>2021-07-19T15:31:54Z</time>
      </trkpt>
      <trkpt lat="45.76021" lon="2.96475">
        <ele>978.7</ele>
        <time>2021-07-19T15:31:56Z</time>
      </trkpt>
      <trkpt lat="45.76009" lon="2.96475">
        <ele>978.2</ele>
        <time>2021-07-19T15:31:58Z</time>
      </trkpt>
      <trkpt lat="45.75997" lon="2.96475">
        <ele>977.7</ele>
        <time>2021-07-19T15:32:00Z</time>
      </trkpt>
      <trkpt lat="45.75985" lon="2.96474">
        <ele>977.4</ele>
        <time>2021-07-19T15:32:02Z</time>
      </trkpt>
      <trkpt lat="45.75976" lon="2.96473">
        <ele>977.2</ele>
        <time>2021-07-19T15:32:05Z</time>
      </trkpt>
      <trkpt lat="45.75967" lon="2.96475">
        <ele>976.7</ele>
        <time>2021-07-19T15:33:25Z</time>
      </trkpt>
      <trkpt lat="45.75958" lon="2.96478">
        <ele>976.2</ele>
        <time>2021-07-19T15:33:51Z</time>
      </trkpt>
      <trkpt lat="45.75948" lon="2.96481">
        <ele>975.6</ele>
        <time>2021-07-19T15:33:54Z</time>
      </trkpt>
      <trkpt lat="45.75938" lon="2.96484">
        <ele>975.1</ele>
        <time>2021-07-19T15:33:58Z</time>
      </trkpt>
      <trkpt lat="45.75929" lon="2.9649">
        <ele>974.3</ele>
        <time>2021-07-19T15:34:01Z</time>
      </trkpt>
      <trkpt lat="45.75919" lon="2.96497">
        <ele>973.3</ele>
        <time>2021-07-19T15:34:04Z</time>
      </trkpt>
      <trkpt lat="45.75908" lon="2.96499">
        <ele>973.1</ele>
        <time>2021-07-19T15:34:06Z</time>
      </trkpt>
      <trkpt lat="45.75898" lon="2.96499">
        <ele>973.1</ele>
        <time>2021-07-19T15:34:08Z</time>
      </trkpt>
      <trkpt lat="45.75881" lon="2.96505">
        <ele>973</ele>
        <time>2021-07-19T15:34:10Z</time>
      </trkpt>
      <trkpt lat="45.75871" lon="2.96507">
        <ele>973</ele>
        <time>2021-07-19T15:34:12Z</time>
      </trkpt>
      <trkpt lat="45.75862" lon="2.96512">
        <ele>972.9</ele>
        <time>2021-07-19T15:34:14Z</time>
      </trkpt>
      <trkpt lat="45.75852" lon="2.96513">
        <ele>972.9</ele>
        <time>2021-07-19T15:34:18Z</time>
      </trkpt>
      <trkpt lat="45.75843" lon="2.96517">
        <ele>972.8</ele>
        <time>2021-07-19T15:34:39Z</time>
      </trkpt>
      <trkpt lat="45.75838" lon="2.96527">
        <ele>972.7</ele>
        <time>2021-07-19T15:35:11Z</time>
      </trkpt>
      <trkpt lat="45.75849" lon="2.96528">
        <ele>972.7</ele>
        <time>2021-07-19T15:35:29Z</time>
      </trkpt>
      <trkpt lat="45.75846" lon="2.96515">
        <ele>972.8</ele>
        <time>2021-07-19T15:35:44Z</time>
      </trkpt>
      <trkpt lat="45.75843" lon="2.96527">
        <ele>972.7</ele>
        <time>2021-07-19T15:37:07Z</time>
      </trkpt>
      <trkpt lat="45.75844" lon="2.9654">
        <ele>972.6</ele>
        <time>2021-07-19T15:37:10Z</time>
      </trkpt>
      <trkpt lat="45.75843" lon="2.96556">
        <ele>972.4</ele>
        <time>2021-07-19T15:37:13Z</time>
      </trkpt>
      <trkpt lat="45.75838" lon="2.96569">
        <ele>972.2</ele>
        <time>2021-07-19T15:37:16Z</time>
      </trkpt>
      <trkpt lat="45.75834" lon="2.96581">
        <ele>972</ele>
        <time>2021-07-19T15:37:19Z</time>
      </trkpt>
      <trkpt lat="45.75839" lon="2.96565">
        <ele>972.3</ele>
        <time>2021-07-19T15:37:49Z</time>
      </trkpt>
      <trkpt lat="45.75844" lon="2.96553">
        <ele>972.4</ele>
        <time>2021-07-19T15:37:52Z</time>
      </trkpt>
      <trkpt lat="45.75848" lon="2.96539">
        <ele>972.6</ele>
        <time>2021-07-19T15:37:55Z</time>
      </trkpt>
      <trkpt lat="45.75851" lon="2.96524">
        <ele>972.8</ele>
        <time>2021-07-19T15:37:59Z</time>
      </trkpt>
      <trkpt lat="45.75846" lon="2.96513">
        <ele>972.9</ele>
        <time>2021-07-19T15:38:32Z</time>
      </trkpt>
      <trkpt lat="45.75837" lon="2.96516">
        <ele>972.8</ele>
        <time>2021-07-19T15:47:44Z</time>
      </trkpt>
      <trkpt lat="45.75828" lon="2.96517">
        <ele>972.8</ele>
        <time>2021-07-19T15:48:06Z</time>
      </trkpt>
      <trkpt lat="45.75837" lon="2.96516">
        <ele>972.8</ele>
        <time>2021-07-19T15:49:28Z</time>
      </trkpt>
      <trkpt lat="45.75844" lon="2.96524">
        <ele>972.7</ele>
        <time>2021-07-19T15:50:57Z</time>
      </trkpt>
      <trkpt lat="45.75834" lon="2.96522">
        <ele>972.7</ele>
        <time>2021-07-19T15:55:21Z</time>
      </trkpt>
      <trkpt lat="45.75824" lon="2.96524">
        <ele>972.7</ele>
        <time>2021-07-19T15:55:24Z</time>
      </trkpt>
      <trkpt lat="45.75815" lon="2.96527">
        <ele>972.6</ele>
        <time>2021-07-19T15:55:29Z</time>
      </trkpt>
      <trkpt lat="45.75806" lon="2.96523">
        <ele>972.6</ele>
        <time>2021-07-19T15:55:33Z</time>
      </trkpt>
      <trkpt lat="45.75795" lon="2.96529">
        <ele>972.5</ele>
        <time>2021-07-19T15:55:38Z</time>
      </trkpt>
      <trkpt lat="45.75783" lon="2.96533">
        <ele>972.4</ele>
        <time>2021-07-19T15:55:41Z</time>
      </trkpt>
      <trkpt lat="45.75772" lon="2.96539">
        <ele>972.2</ele>
        <time>2021-07-19T15:55:44Z</time>
      </trkpt>
      <trkpt lat="45.75761" lon="2.96543">
        <ele>972</ele>
        <time>2021-07-19T15:55:47Z</time>
      </trkpt>
      <trkpt lat="45.7575" lon="2.96546">
        <ele>971.9</ele>
        <time>2021-07-19T15:55:50Z</time>
      </trkpt>
      <trkpt lat="45.75739" lon="2.9655">
        <ele>972</ele>
        <time>2021-07-19T15:55:53Z</time>
      </trkpt>
      <trkpt lat="45.75728" lon="2.96552">
        <ele>972.2</ele>
        <time>2021-07-19T15:55:56Z</time>
      </trkpt>
      <trkpt lat="45.75716" lon="2.96558">
        <ele>972.3</ele>
        <time>2021-07-19T15:55:59Z</time>
      </trkpt>
      <trkpt lat="45.75706" lon="2.96562">
        <ele>972.3</ele>
        <time>2021-07-19T15:56:02Z</time>
      </trkpt>
      <trkpt lat="45.75695" lon="2.96568">
        <ele>972.3</ele>
        <time>2021-07-19T15:56:05Z</time>
      </trkpt>
      <trkpt lat="45.75682" lon="2.96573">
        <ele>972.3</ele>
        <time>2021-07-19T15:56:08Z</time>
      </trkpt>
      <trkpt lat="45.7567" lon="2.96578">
        <ele>972.2</ele>
        <time>2021-07-19T15:56:11Z</time>
      </trkpt>
      <trkpt lat="45.75658" lon="2.9658">
        <ele>972.3</ele>
        <time>2021-07-19T15:56:15Z</time>
      </trkpt>
      <trkpt lat="45.75647" lon="2.96583">
        <ele>972.3</ele>
        <time>2021-07-19T15:56:19Z</time>
      </trkpt>
      <trkpt lat="45.75638" lon="2.96586">
        <ele>972.3</ele>
        <time>2021-07-19T15:56:21Z</time>
      </trkpt>
      <trkpt lat="45.75626" lon="2.96592">
        <ele>972.2</ele>
        <time>2021-07-19T15:56:23Z</time>
      </trkpt>
      <trkpt lat="45.75618" lon="2.96598">
        <ele>972</ele>
        <time>2021-07-19T15:56:25Z</time>
      </trkpt>
      <trkpt lat="45.75605" lon="2.96604">
        <ele>971.9</ele>
        <time>2021-07-19T15:56:29Z</time>
      </trkpt>
      <trkpt lat="45.75595" lon="2.96611">
        <ele>971.6</ele>
        <time>2021-07-19T15:56:32Z</time>
      </trkpt>
      <trkpt lat="45.75584" lon="2.96617">
        <ele>971.4</ele>
        <time>2021-07-19T15:56:35Z</time>
      </trkpt>
      <trkpt lat="45.75573" lon="2.96624">
        <ele>971.2</ele>
        <time>2021-07-19T15:56:38Z</time>
      </trkpt>
      <trkpt lat="45.75563" lon="2.96629">
        <ele>971.2</ele>
        <time>2021-07-19T15:56:41Z</time>
      </trkpt>
      <trkpt lat="45.7555" lon="2.96636">
        <ele>971.1</ele>
        <time>2021-07-19T15:56:44Z</time>
      </trkpt>
      <trkpt lat="45.75541" lon="2.96641">
        <ele>971.1</ele>
        <time>2021-07-19T15:56:47Z</time>
      </trkpt>
      <trkpt lat="45.75529" lon="2.96646">
        <ele>971.1</ele>
        <time>2021-07-19T15:56:50Z</time>
      </trkpt>
      <trkpt lat="45.75515" lon="2.96651">
        <ele>971.2</ele>
        <time>2021-07-19T15:56:53Z</time>
      </trkpt>
      <trkpt lat="45.75506" lon="2.96656">
        <ele>971.2</ele>
        <time>2021-07-19T15:56:56Z</time>
      </trkpt>
      <trkpt lat="45.75496" lon="2.96661">
        <ele>971.1</ele>
        <time>2021-07-19T15:57:01Z</time>
      </trkpt>
      <trkpt lat="45.75486" lon="2.96666">
        <ele>970.9</ele>
        <time>2021-07-19T15:57:03Z</time>
      </trkpt>
      <trkpt lat="45.75474" lon="2.96678">
        <ele>970.4</ele>
        <time>2021-07-19T15:57:06Z</time>
      </trkpt>
      <trkpt lat="45.7546" lon="2.96681">
        <ele>970.2</ele>
        <time>2021-07-19T15:57:09Z</time>
      </trkpt>
      <trkpt lat="45.75452" lon="2.96687">
        <ele>969.9</ele>
        <time>2021-07-19T15:57:12Z</time>
      </trkpt>
      <trkpt lat="45.75442" lon="2.96694">
        <ele>969.6</ele>
        <time>2021-07-19T15:57:15Z</time>
      </trkpt>
      <trkpt lat="45.75433" lon="2.96695">
        <ele>969.5</ele>
        <time>2021-07-19T15:57:17Z</time>
      </trkpt>
      <trkpt lat="45.7542" lon="2.96702">
        <ele>969.2</ele>
        <time>2021-07-19T15:57:20Z</time>
      </trkpt>
      <trkpt lat="45.75412" lon="2.96706">
        <ele>968.8</ele>
        <time>2021-07-19T15:57:22Z</time>
      </trkpt>
      <trkpt lat="45.754" lon="2.96711">
        <ele>967.9</ele>
        <time>2021-07-19T15:57:25Z</time>
      </trkpt>
      <trkpt lat="45.75388" lon="2.96716">
        <ele>967.1</ele>
        <time>2021-07-19T15:57:28Z</time>
      </trkpt>
      <trkpt lat="45.75378" lon="2.96722">
        <ele>966.4</ele>
        <time>2021-07-19T15:57:31Z</time>
      </trkpt>
      <trkpt lat="45.75368" lon="2.96724">
        <ele>965.7</ele>
        <time>2021-07-19T15:57:34Z</time>
      </trkpt>
      <trkpt lat="45.75357" lon="2.96724">
        <ele>965</ele>
        <time>2021-07-19T15:57:38Z</time>
      </trkpt>
      <trkpt lat="45.75346" lon="2.96726">
        <ele>964.3</ele>
        <time>2021-07-19T15:57:41Z</time>
      </trkpt>
      <trkpt lat="45.75337" lon="2.9673">
        <ele>963.7</ele>
        <time>2021-07-19T15:57:44Z</time>
      </trkpt>
      <trkpt lat="45.75327" lon="2.96734">
        <ele>962.9</ele>
        <time>2021-07-19T15:57:47Z</time>
      </trkpt>
      <trkpt lat="45.75317" lon="2.9674">
        <ele>962.1</ele>
        <time>2021-07-19T15:57:50Z</time>
      </trkpt>
      <trkpt lat="45.75307" lon="2.96746">
        <ele>961.2</ele>
        <time>2021-07-19T15:57:53Z</time>
      </trkpt>
      <trkpt lat="45.75295" lon="2.96751">
        <ele>960.3</ele>
        <time>2021-07-19T15:57:56Z</time>
      </trkpt>
      <trkpt lat="45.75286" lon="2.96757">
        <ele>959.8</ele>
        <time>2021-07-19T15:57:58Z</time>
      </trkpt>
      <trkpt lat="45.75281" lon="2.96771">
        <ele>960</ele>
        <time>2021-07-19T15:58:01Z</time>
      </trkpt>
      <trkpt lat="45.7528" lon="2.96785">
        <ele>960.5</ele>
        <time>2021-07-19T15:58:06Z</time>
      </trkpt>
      <trkpt lat="45.75276" lon="2.96798">
        <ele>960.9</ele>
        <time>2021-07-19T15:58:10Z</time>
      </trkpt>
      <trkpt lat="45.75266" lon="2.96798">
        <ele>960.5</ele>
        <time>2021-07-19T15:58:13Z</time>
      </trkpt>
      <trkpt lat="45.75258" lon="2.96792">
        <ele>959.9</ele>
        <time>2021-07-19T15:58:17Z</time>
      </trkpt>
      <trkpt lat="45.75244" lon="2.96786">
        <ele>959.2</ele>
        <time>2021-07-19T15:58:18Z</time>
      </trkpt>
      <trkpt lat="45.75233" lon="2.96787">
        <ele>959.3</ele>
        <time>2021-07-19T15:58:20Z</time>
      </trkpt>
      <trkpt lat="45.75221" lon="2.96787">
        <ele>959.4</ele>
        <time>2021-07-19T15:58:22Z</time>
      </trkpt>
      <trkpt lat="45.7521" lon="2.9679">
        <ele>959.5</ele>
        <time>2021-07-19T15:58:24Z</time>
      </trkpt>
      <trkpt lat="45.75198" lon="2.96792">
        <ele>959.5</ele>
        <time>2021-07-19T15:58:26Z</time>
      </trkpt>
      <trkpt lat="45.75188" lon="2.96794">
        <ele>959.4</ele>
        <time>2021-07-19T15:58:28Z</time>
      </trkpt>
      <trkpt lat="45.75179" lon="2.96796">
        <ele>959.3</ele>
        <time>2021-07-19T15:58:30Z</time>
      </trkpt>
      <trkpt lat="45.75167" lon="2.96797">
        <ele>959.2</ele>
        <time>2021-07-19T15:58:32Z</time>
      </trkpt>
      <trkpt lat="45.75157" lon="2.968">
        <ele>958.4</ele>
        <time>2021-07-19T15:58:34Z</time>
      </trkpt>
      <trkpt lat="45.75148" lon="2.96804">
        <ele>957.6</ele>
        <time>2021-07-19T15:58:36Z</time>
      </trkpt>
      <trkpt lat="45.75135" lon="2.96804">
        <ele>956.9</ele>
        <time>2021-07-19T15:58:38Z</time>
      </trkpt>
      <trkpt lat="45.75121" lon="2.96809">
        <ele>955.7</ele>
        <time>2021-07-19T15:58:41Z</time>
      </trkpt>
      <trkpt lat="45.7511" lon="2.96812">
        <ele>954.9</ele>
        <time>2021-07-19T15:58:43Z</time>
      </trkpt>
      <trkpt lat="45.75102" lon="2.96819">
        <ele>954</ele>
        <time>2021-07-19T15:58:45Z</time>
      </trkpt>
      <trkpt lat="45.7509" lon="2.9682">
        <ele>953.2</ele>
        <time>2021-07-19T15:58:47Z</time>
      </trkpt>
      <trkpt lat="45.7508" lon="2.96822">
        <ele>952.6</ele>
        <time>2021-07-19T15:58:49Z</time>
      </trkpt>
      <trkpt lat="45.75066" lon="2.96826">
        <ele>952.2</ele>
        <time>2021-07-19T15:58:52Z</time>
      </trkpt>
      <trkpt lat="45.75056" lon="2.96828">
        <ele>951.9</ele>
        <time>2021-07-19T15:58:54Z</time>
      </trkpt>
      <trkpt lat="45.75047" lon="2.9683">
        <ele>951.7</ele>
        <time>2021-07-19T15:58:56Z</time>
      </trkpt>
      <trkpt lat="45.75037" lon="2.96833">
        <ele>951.5</ele>
        <time>2021-07-19T15:58:58Z</time>
      </trkpt>
      <trkpt lat="45.75028" lon="2.96837">
        <ele>951.2</ele>
        <time>2021-07-19T15:59:00Z</time>
      </trkpt>
      <trkpt lat="45.75016" lon="2.96841">
        <ele>950.8</ele>
        <time>2021-07-19T15:59:03Z</time>
      </trkpt>
      <trkpt lat="45.75002" lon="2.96845">
        <ele>950.5</ele>
        <time>2021-07-19T15:59:06Z</time>
      </trkpt>
      <trkpt lat="45.7499" lon="2.96847">
        <ele>950.2</ele>
        <time>2021-07-19T15:59:09Z</time>
      </trkpt>
      <trkpt lat="45.7498" lon="2.96849">
        <ele>950.1</ele>
        <time>2021-07-19T15:59:11Z</time>
      </trkpt>
      <trkpt lat="45.74967" lon="2.96853">
        <ele>949.8</ele>
        <time>2021-07-19T15:59:14Z</time>
      </trkpt>
      <trkpt lat="45.74957" lon="2.96856">
        <ele>949.5</ele>
        <time>2021-07-19T15:59:16Z</time>
      </trkpt>
      <trkpt lat="45.74948" lon="2.96858">
        <ele>949.4</ele>
        <time>2021-07-19T15:59:18Z</time>
      </trkpt>
      <trkpt lat="45.74936" lon="2.96864">
        <ele>949</ele>
        <time>2021-07-19T15:59:21Z</time>
      </trkpt>
      <trkpt lat="45.74924" lon="2.96868">
        <ele>948.8</ele>
        <time>2021-07-19T15:59:24Z</time>
      </trkpt>
      <trkpt lat="45.74913" lon="2.9687">
        <ele>948.7</ele>
        <time>2021-07-19T15:59:27Z</time>
      </trkpt>
      <trkpt lat="45.74902" lon="2.96872">
        <ele>948.5</ele>
        <time>2021-07-19T15:59:30Z</time>
      </trkpt>
      <trkpt lat="45.7489" lon="2.96874">
        <ele>948.4</ele>
        <time>2021-07-19T15:59:33Z</time>
      </trkpt>
      <trkpt lat="45.74878" lon="2.96878">
        <ele>948.1</ele>
        <time>2021-07-19T15:59:36Z</time>
      </trkpt>
      <trkpt lat="45.74866" lon="2.96881">
        <ele>947.9</ele>
        <time>2021-07-19T15:59:39Z</time>
      </trkpt>
      <trkpt lat="45.74855" lon="2.96885">
        <ele>947.7</ele>
        <time>2021-07-19T15:59:42Z</time>
      </trkpt>
      <trkpt lat="45.74844" lon="2.96891">
        <ele>947.3</ele>
        <time>2021-07-19T15:59:45Z</time>
      </trkpt>
      <trkpt lat="45.74833" lon="2.96895">
        <ele>947</ele>
        <time>2021-07-19T15:59:48Z</time>
      </trkpt>
      <trkpt lat="45.74822" lon="2.96902">
        <ele>946.9</ele>
        <time>2021-07-19T15:59:52Z</time>
      </trkpt>
      <trkpt lat="45.74813" lon="2.96909">
        <ele>946.6</ele>
        <time>2021-07-19T15:59:54Z</time>
      </trkpt>
      <trkpt lat="45.74801" lon="2.96913">
        <ele>946.6</ele>
        <time>2021-07-19T15:59:57Z</time>
      </trkpt>
      <trkpt lat="45.7479" lon="2.96918">
        <ele>946.5</ele>
        <time>2021-07-19T16:00:00Z</time>
      </trkpt>
      <trkpt lat="45.74781" lon="2.96921">
        <ele>946.4</ele>
        <time>2021-07-19T16:00:02Z</time>
      </trkpt>
      <trkpt lat="45.74771" lon="2.96928">
        <ele>946.2</ele>
        <time>2021-07-19T16:00:05Z</time>
      </trkpt>
      <trkpt lat="45.74759" lon="2.96933">
        <ele>946.1</ele>
        <time>2021-07-19T16:00:08Z</time>
      </trkpt>
      <trkpt lat="45.74749" lon="2.96937">
        <ele>946.1</ele>
        <time>2021-07-19T16:00:11Z</time>
      </trkpt>
      <trkpt lat="45.74739" lon="2.96944">
        <ele>946.5</ele>
        <time>2021-07-19T16:00:15Z</time>
      </trkpt>
      <trkpt lat="45.7473" lon="2.96949">
        <ele>947</ele>
        <time>2021-07-19T16:00:52Z</time>
      </trkpt>
      <trkpt lat="45.74719" lon="2.96952">
        <ele>947.7</ele>
        <time>2021-07-19T16:00:56Z</time>
      </trkpt>
      <trkpt lat="45.7471" lon="2.96956">
        <ele>948.2</ele>
        <time>2021-07-19T16:00:59Z</time>
      </trkpt>
      <trkpt lat="45.747" lon="2.96963">
        <ele>948.7</ele>
        <time>2021-07-19T16:01:03Z</time>
      </trkpt>
      <trkpt lat="45.74689" lon="2.96968">
        <ele>949.4</ele>
        <time>2021-07-19T16:01:08Z</time>
      </trkpt>
      <trkpt lat="45.7468" lon="2.96972">
        <ele>949.9</ele>
        <time>2021-07-19T16:01:12Z</time>
      </trkpt>
      <trkpt lat="45.74671" lon="2.96976">
        <ele>950.5</ele>
        <time>2021-07-19T16:01:16Z</time>
      </trkpt>
      <trkpt lat="45.74662" lon="2.96981">
        <ele>950.8</ele>
        <time>2021-07-19T16:01:19Z</time>
      </trkpt>
      <trkpt lat="45.74652" lon="2.96988">
        <ele>950.9</ele>
        <time>2021-07-19T16:01:23Z</time>
      </trkpt>
      <trkpt lat="45.74643" lon="2.96994">
        <ele>950.9</ele>
        <time>2021-07-19T16:01:27Z</time>
      </trkpt>
      <trkpt lat="45.74634" lon="2.96999">
        <ele>950.8</ele>
        <time>2021-07-19T16:01:31Z</time>
      </trkpt>
      <trkpt lat="45.74625" lon="2.97006">
        <ele>950.7</ele>
        <time>2021-07-19T16:01:35Z</time>
      </trkpt>
      <trkpt lat="45.74615" lon="2.97009">
        <ele>950.9</ele>
        <time>2021-07-19T16:01:39Z</time>
      </trkpt>
      <trkpt lat="45.74605" lon="2.97007">
        <ele>951.2</ele>
        <time>2021-07-19T16:01:43Z</time>
      </trkpt>
      <trkpt lat="45.74595" lon="2.97005">
        <ele>951.6</ele>
        <time>2021-07-19T16:01:47Z</time>
      </trkpt>
      <trkpt lat="45.74585" lon="2.97004">
        <ele>951.9</ele>
        <time>2021-07-19T16:01:52Z</time>
      </trkpt>
      <trkpt lat="45.74575" lon="2.97">
        <ele>952.5</ele>
        <time>2021-07-19T16:01:57Z</time>
      </trkpt>
      <trkpt lat="45.74564" lon="2.96997">
        <ele>953.4</ele>
        <time>2021-07-19T16:02:02Z</time>
      </trkpt>
      <trkpt lat="45.74554" lon="2.96995">
        <ele>954.1</ele>
        <time>2021-07-19T16:02:07Z</time>
      </trkpt>
      <trkpt lat="45.74544" lon="2.96991">
        <ele>955</ele>
        <time>2021-07-19T16:02:12Z</time>
      </trkpt>
      <trkpt lat="45.74534" lon="2.96988">
        <ele>955.8</ele>
        <time>2021-07-19T16:02:17Z</time>
      </trkpt>
      <trkpt lat="45.74524" lon="2.96984">
        <ele>956.6</ele>
        <time>2021-07-19T16:02:23Z</time>
      </trkpt>
      <trkpt lat="45.74515" lon="2.96982">
        <ele>957.3</ele>
        <time>2021-07-19T16:02:29Z</time>
      </trkpt>
      <trkpt lat="45.74507" lon="2.96976">
        <ele>958.1</ele>
        <time>2021-07-19T16:02:37Z</time>
      </trkpt>
      <trkpt lat="45.74497" lon="2.96974">
        <ele>958.7</ele>
        <time>2021-07-19T16:02:43Z</time>
      </trkpt>
      <trkpt lat="45.74487" lon="2.96971">
        <ele>959.4</ele>
        <time>2021-07-19T16:02:50Z</time>
      </trkpt>
      <trkpt lat="45.74477" lon="2.96967">
        <ele>960.2</ele>
        <time>2021-07-19T16:02:56Z</time>
      </trkpt>
      <trkpt lat="45.74468" lon="2.96965">
        <ele>960.8</ele>
        <time>2021-07-19T16:03:01Z</time>
      </trkpt>
      <trkpt lat="45.74458" lon="2.96959">
        <ele>961.7</ele>
        <time>2021-07-19T16:03:06Z</time>
      </trkpt>
      <trkpt lat="45.74448" lon="2.96953">
        <ele>962.7</ele>
        <time>2021-07-19T16:03:11Z</time>
      </trkpt>
      <trkpt lat="45.7444" lon="2.96949">
        <ele>963.4</ele>
        <time>2021-07-19T16:03:16Z</time>
      </trkpt>
      <trkpt lat="45.74429" lon="2.96944">
        <ele>964.3</ele>
        <time>2021-07-19T16:03:21Z</time>
      </trkpt>
      <trkpt lat="45.74419" lon="2.96939">
        <ele>965.3</ele>
        <time>2021-07-19T16:03:26Z</time>
      </trkpt>
      <trkpt lat="45.7441" lon="2.96935">
        <ele>965.3</ele>
        <time>2021-07-19T16:03:31Z</time>
      </trkpt>
      <trkpt lat="45.74399" lon="2.96931">
        <ele>965</ele>
        <time>2021-07-19T16:03:36Z</time>
      </trkpt>
      <trkpt lat="45.74391" lon="2.96925">
        <ele>964.9</ele>
        <time>2021-07-19T16:03:41Z</time>
      </trkpt>
      <trkpt lat="45.7438" lon="2.96926">
        <ele>964.2</ele>
        <time>2021-07-19T16:06:00Z</time>
      </trkpt>
      <trkpt lat="45.74369" lon="2.96921">
        <ele>963.9</ele>
        <time>2021-07-19T16:06:04Z</time>
      </trkpt>
      <trkpt lat="45.74359" lon="2.96919">
        <ele>963.4</ele>
        <time>2021-07-19T16:06:08Z</time>
      </trkpt>
      <trkpt lat="45.74349" lon="2.96917">
        <ele>962.9</ele>
        <time>2021-07-19T16:06:12Z</time>
      </trkpt>
      <trkpt lat="45.7434" lon="2.96914">
        <ele>962.6</ele>
        <time>2021-07-19T16:06:16Z</time>
      </trkpt>
      <trkpt lat="45.74331" lon="2.9691">
        <ele>962.3</ele>
        <time>2021-07-19T16:06:20Z</time>
      </trkpt>
      <trkpt lat="45.74322" lon="2.96904">
        <ele>962.4</ele>
        <time>2021-07-19T16:06:24Z</time>
      </trkpt>
      <trkpt lat="45.74314" lon="2.96897">
        <ele>962.5</ele>
        <time>2021-07-19T16:06:28Z</time>
      </trkpt>
      <trkpt lat="45.74303" lon="2.96891">
        <ele>962.4</ele>
        <time>2021-07-19T16:06:32Z</time>
      </trkpt>
      <trkpt lat="45.74294" lon="2.96883">
        <ele>962.6</ele>
        <time>2021-07-19T16:06:36Z</time>
      </trkpt>
      <trkpt lat="45.74284" lon="2.96874">
        <ele>962.8</ele>
        <time>2021-07-19T16:06:40Z</time>
      </trkpt>
      <trkpt lat="45.74275" lon="2.96866">
        <ele>962.9</ele>
        <time>2021-07-19T16:06:44Z</time>
      </trkpt>
      <trkpt lat="45.74265" lon="2.96858">
        <ele>963.1</ele>
        <time>2021-07-19T16:06:48Z</time>
      </trkpt>
      <trkpt lat="45.74255" lon="2.96851">
        <ele>963.1</ele>
        <time>2021-07-19T16:06:52Z</time>
      </trkpt>
      <trkpt lat="45.74247" lon="2.96842">
        <ele>963.5</ele>
        <time>2021-07-19T16:06:56Z</time>
      </trkpt>
      <trkpt lat="45.74239" lon="2.96832">
        <ele>964.1</ele>
        <time>2021-07-19T16:07:00Z</time>
      </trkpt>
      <trkpt lat="45.7423" lon="2.96827">
        <ele>964.4</ele>
        <time>2021-07-19T16:07:06Z</time>
      </trkpt>
      <trkpt lat="45.74221" lon="2.9682">
        <ele>964.9</ele>
        <time>2021-07-19T16:07:10Z</time>
      </trkpt>
      <trkpt lat="45.7421" lon="2.96811">
        <ele>965.5</ele>
        <time>2021-07-19T16:07:15Z</time>
      </trkpt>
      <trkpt lat="45.74202" lon="2.96805">
        <ele>965.8</ele>
        <time>2021-07-19T16:07:18Z</time>
      </trkpt>
      <trkpt lat="45.74193" lon="2.96797">
        <ele>966.3</ele>
        <time>2021-07-19T16:07:20Z</time>
      </trkpt>
      <trkpt lat="45.74185" lon="2.96787">
        <ele>966.9</ele>
        <time>2021-07-19T16:07:24Z</time>
      </trkpt>
      <trkpt lat="45.74176" lon="2.96781">
        <ele>967.2</ele>
        <time>2021-07-19T16:07:28Z</time>
      </trkpt>
      <trkpt lat="45.74166" lon="2.96776">
        <ele>967.4</ele>
        <time>2021-07-19T16:07:32Z</time>
      </trkpt>
      <trkpt lat="45.74155" lon="2.96771">
        <ele>967.7</ele>
        <time>2021-07-19T16:07:36Z</time>
      </trkpt>
      <trkpt lat="45.74145" lon="2.96766">
        <ele>968</ele>
        <time>2021-07-19T16:07:40Z</time>
      </trkpt>
      <trkpt lat="45.74139" lon="2.96756">
        <ele>968.6</ele>
        <time>2021-07-19T16:07:44Z</time>
      </trkpt>
      <trkpt lat="45.74133" lon="2.96746">
        <ele>969.3</ele>
        <time>2021-07-19T16:07:48Z</time>
      </trkpt>
      <trkpt lat="45.74127" lon="2.96733">
        <ele>970.1</ele>
        <time>2021-07-19T16:07:54Z</time>
      </trkpt>
      <trkpt lat="45.74125" lon="2.9672">
        <ele>971</ele>
        <time>2021-07-19T16:08:37Z</time>
      </trkpt>
      <trkpt lat="45.7412" lon="2.96707">
        <ele>971.8</ele>
        <time>2021-07-19T16:08:42Z</time>
      </trkpt>
      <trkpt lat="45.74114" lon="2.96693">
        <ele>972.7</ele>
        <time>2021-07-19T16:08:47Z</time>
      </trkpt>
      <trkpt lat="45.74109" lon="2.9668">
        <ele>973.5</ele>
        <time>2021-07-19T16:08:52Z</time>
      </trkpt>
      <trkpt lat="45.74104" lon="2.96668">
        <ele>974.2</ele>
        <time>2021-07-19T16:08:56Z</time>
      </trkpt>
      <trkpt lat="45.74096" lon="2.96658">
        <ele>974.6</ele>
        <time>2021-07-19T16:09:01Z</time>
      </trkpt>
      <trkpt lat="45.7409" lon="2.96647">
        <ele>975</ele>
        <time>2021-07-19T16:09:06Z</time>
      </trkpt>
      <trkpt lat="45.74084" lon="2.96633">
        <ele>975.6</ele>
        <time>2021-07-19T16:09:11Z</time>
      </trkpt>
      <trkpt lat="45.74079" lon="2.9662">
        <ele>976.5</ele>
        <time>2021-07-19T16:09:16Z</time>
      </trkpt>
      <trkpt lat="45.74075" lon="2.96605">
        <ele>977.4</ele>
        <time>2021-07-19T16:09:21Z</time>
      </trkpt>
      <trkpt lat="45.74072" lon="2.9659">
        <ele>978.1</ele>
        <time>2021-07-19T16:09:26Z</time>
      </trkpt>
      <trkpt lat="45.7407" lon="2.96576">
        <ele>978.7</ele>
        <time>2021-07-19T16:09:31Z</time>
      </trkpt>
      <trkpt lat="45.74073" lon="2.96564">
        <ele>979</ele>
        <time>2021-07-19T16:09:36Z</time>
      </trkpt>
      <trkpt lat="45.74078" lon="2.96551">
        <ele>979.3</ele>
        <time>2021-07-19T16:09:41Z</time>
      </trkpt>
      <trkpt lat="45.74083" lon="2.96539">
        <ele>979.6</ele>
        <time>2021-07-19T16:09:45Z</time>
      </trkpt>
      <trkpt lat="45.74084" lon="2.96523">
        <ele>980.2</ele>
        <time>2021-07-19T16:09:50Z</time>
      </trkpt>
      <trkpt lat="45.74088" lon="2.96511">
        <ele>980.8</ele>
        <time>2021-07-19T16:09:54Z</time>
      </trkpt>
      <trkpt lat="45.74094" lon="2.96502">
        <ele>981.4</ele>
        <time>2021-07-19T16:09:58Z</time>
      </trkpt>
      <trkpt lat="45.74096" lon="2.96488">
        <ele>981.9</ele>
        <time>2021-07-19T16:10:02Z</time>
      </trkpt>
      <trkpt lat="45.74087" lon="2.96483">
        <ele>981.6</ele>
        <time>2021-07-19T16:10:06Z</time>
      </trkpt>
      <trkpt lat="45.74077" lon="2.96475">
        <ele>981.6</ele>
        <time>2021-07-19T16:10:11Z</time>
      </trkpt>
      <trkpt lat="45.74068" lon="2.96468">
        <ele>981.8</ele>
        <time>2021-07-19T16:10:15Z</time>
      </trkpt>
      <trkpt lat="45.74059" lon="2.96464">
        <ele>981.9</ele>
        <time>2021-07-19T16:10:18Z</time>
      </trkpt>
      <trkpt lat="45.74048" lon="2.96459">
        <ele>982</ele>
        <time>2021-07-19T16:10:21Z</time>
      </trkpt>
      <trkpt lat="45.7404" lon="2.96454">
        <ele>982</ele>
        <time>2021-07-19T16:10:24Z</time>
      </trkpt>
      <trkpt lat="45.74029" lon="2.96449">
        <ele>982.1</ele>
        <time>2021-07-19T16:10:28Z</time>
      </trkpt>
      <trkpt lat="45.7402" lon="2.96443">
        <ele>982.1</ele>
        <time>2021-07-19T16:10:32Z</time>
      </trkpt>
      <trkpt lat="45.74011" lon="2.96437">
        <ele>982.1</ele>
        <time>2021-07-19T16:10:36Z</time>
      </trkpt>
      <trkpt lat="45.74004" lon="2.96427">
        <ele>982</ele>
        <time>2021-07-19T16:10:40Z</time>
      </trkpt>
      <trkpt lat="45.74003" lon="2.96413">
        <ele>982.2</ele>
        <time>2021-07-19T16:10:45Z</time>
      </trkpt>
      <trkpt lat="45.74004" lon="2.96399">
        <ele>982.9</ele>
        <time>2021-07-19T16:12:25Z</time>
      </trkpt>
    </trkseg>
  </trk>
</gpx>